GFSCGP_prec_precacc24_018.txt.gz
Total_Precipitation_Accumulation
0.00 0.00 0.00 0.00 0.00 0.00 0.00 0.00 0.00 0.00 0.00 0.00 0.00 0.00 0.00 0.00 0.00 0.00 0.00 0.00 0.00 0.00 0.00 0.03 0.06 0.07 0.08 0.19 0.45 0.51 0.49 0.32 0.12 0.04 0.04 0.03 0.03 0.04 0.02 0.00 0.00 0.00 0.00 0.00
0.00 0.00 0.00 0.00 0.00 0.00 0.00 0.00 0.00 0.00 0.00 0.00 0.00 0.00 0.00 0.00 0.00 0.00 0.00 0.00 0.00 0.00 0.00 0.01 0.02 0.05 0.19 0.40 0.39 0.25 0.22 0.10 0.01 0.02 0.04 0.05 0.03 0.01 0.00 0.00 0.00 0.00 0.00 0.00
0.00 0.00 0.00 0.00 0.00 0.00 0.00 0.00 0.00 0.00 0.00 0.00 0.00 0.00 0.00 0.00 0.00 0.00 0.00 0.00 0.00 0.00 0.03 0.05 0.08 0.12 0.11 0.10 0.05 0.01 0.00 0.00 0.00 0.02 0.01 0.00 0.00 0.00 0.00 0.00 0.00 0.00 0.00 0.00
0.00 0.00 0.00 0.00 0.00 0.00 0.00 0.00 0.00 0.00 0.00 0.00 0.00 0.00 0.00 0.00 0.00 0.00 0.00 0.00 0.01 0.02 0.02 0.01 0.00 0.00 0.00 0.00 0.00 0.00 0.00 0.00 0.00 0.00 0.00 0.00 0.00 0.00 0.00 0.00 0.00 0.00 0.00 0.00
0.00 0.00 0.00 0.00 0.00 0.00 0.00 0.00 0.00 0.00 0.00 0.00 0.00 0.00 0.00 0.00 0.00 0.00 0.00 0.00 0.00 0.00 0.00 0.00 0.00 0.00 0.00 0.00 0.00 0.00 0.00 0.00 0.00 0.00 0.00 0.00 0.00 0.00 0.00 0.00 0.00 0.00 0.00 0.00
0.00 0.00 0.00 0.00 0.00 0.00 0.00 0.00 0.00 0.00 0.00 0.00 0.00 0.02 0.01 0.01 0.00 0.00 0.00 0.00 0.00 0.00 0.00 0.00 0.00 0.00 0.00 0.00 0.00 0.00 0.00 0.00 0.00 0.00 0.00 0.00 0.00 0.00 0.00 0.00 0.00 0.00 0.00 0.00
0.00 0.00 0.00 0.00 0.00 0.00 0.00 0.00 0.00 0.01 0.00 0.01 0.03 0.02 0.00 0.00 0.00 0.00 0.00 0.00 0.00 0.00 0.00 0.00 0.00 0.00 0.00 0.00 0.00 0.00 0.00 0.00 0.00 0.00 0.00 0.00 0.00 0.00 0.00 0.00 0.00 0.00 0.01 0.01
0.00 0.00 0.00 0.00 0.00 0.00 0.00 0.00 0.00 0.00 0.01 0.01 0.00 0.00 0.00 0.00 0.00 0.00 0.00 0.00 0.00 0.00 0.00 0.00 0.00 0.00 0.00 0.00 0.00 0.00 0.00 0.00 0.00 0.00 0.00 0.00 0.00 0.00 0.00 0.00 0.00 0.00 0.00 0.00
0.00 0.00 0.00 0.00 0.00 0.00 0.00 0.00 0.00 0.00 0.00 0.00 0.00 0.00 0.00 0.00 0.00 0.00 0.00 0.00 0.00 0.00 0.00 0.00 0.00 0.00 0.00 0.00 0.00 0.00 0.00 0.00 0.00 0.00 0.00 0.00 0.00 0.00 0.00 0.00 0.00 0.00 0.00 0.00
0.00 0.00 0.00 0.00 0.00 0.00 0.00 0.00 0.00 0.00 0.00 0.00 0.00 0.00 0.00 0.00 0.00 0.00 0.00 0.00 0.00 0.00 0.00 0.00 0.00 0.00 0.00 0.00 0.00 0.00 0.00 0.00 0.00 0.00 0.00 0.00 0.00 0.00 0.00 0.00 0.00 0.00 0.00 0.00
0.00 0.00 0.00 0.00 0.00 0.00 0.00 0.00 0.00 0.00 0.00 0.00 0.00 0.00 0.00 0.00 0.00 0.00 0.00 0.00 0.00 0.00 0.00 0.00 0.00 0.00 0.00 0.00 0.00 0.00 0.00 0.00 0.00 0.00 0.00 0.00 0.00 0.00 0.00 0.00 0.00 0.00 0.00 0.00
0.00 0.00 0.00 0.00 0.00 0.00 0.00 0.00 0.00 0.00 0.00 0.00 0.00 0.00 0.00 0.00 0.00 0.00 0.00 0.00 0.00 0.00 0.00 0.00 0.00 0.00 0.00 0.00 0.00 0.00 0.00 0.00 0.00 0.00 0.00 0.00 0.00 0.00 0.00 0.00 0.00 0.00 0.01 0.02
0.00 0.00 0.00 0.00 0.00 0.00 0.00 0.00 0.00 0.00 0.00 0.00 0.01 0.00 0.00 0.00 0.00 0.00 0.00 0.00 0.00 0.00 0.00 0.00 0.00 0.00 0.00 0.00 0.00 0.00 0.00 0.00 0.00 0.00 0.00 0.00 0.00 0.00 0.00 0.01 0.01 0.01 0.01 0.02
0.00 0.00 0.00 0.00 0.00 0.00 0.00 0.00 0.00 0.00 0.00 0.00 0.00 0.00 0.00 0.01 0.00 0.00 0.00 0.00 0.00 0.00 0.00 0.00 0.00 0.00 0.00 0.00 0.00 0.00 0.00 0.00 0.00 0.00 0.00 0.00 0.00 0.01 0.00 0.01 0.01 0.02 0.03 0.02
0.00 0.00 0.00 0.00 0.00 0.00 0.00 0.00 0.00 0.00 0.00 0.00 0.00 0.00 0.00 0.00 0.00 0.00 0.00 0.00 0.00 0.00 0.00 0.00 0.00 0.00 0.00 0.00 0.00 0.00 0.00 0.00 0.00 0.00 0.00 0.00 0.01 0.01 0.03 0.04 0.03 0.03 0.02 0.01
0.00 0.00 0.00 0.00 0.00 0.00 0.00 0.00 0.00 0.00 0.00 0.00 0.00 0.00 0.00 0.00 0.00 0.00 0.00 0.00 0.00 0.00 0.00 0.00 0.00 0.00 0.00 0.00 0.00 0.00 0.00 0.00 0.00 0.00 0.00 0.01 0.01 0.03 0.04 0.02 0.02 0.01 0.02 0.01
0.00 0.00 0.00 0.00 0.00 0.00 0.00 0.00 0.00 0.00 0.00 0.00 0.00 0.00 0.00 0.00 0.00 0.00 0.00 0.00 0.00 0.00 0.00 0.00 0.00 0.00 0.00 0.00 0.00 0.00 0.00 0.00 0.00 0.00 0.00 0.01 0.03 0.03 0.02 0.02 0.02 0.02 0.03 0.03
0.00 0.00 0.00 0.00 0.00 0.00 0.00 0.00 0.00 0.00 0.00 0.00 0.00 0.00 0.00 0.00 0.00 0.00 0.00 0.00 0.00 0.00 0.00 0.00 0.00 0.00 0.00 0.00 0.00 0.00 0.00 0.00 0.00 0.00 0.00 0.01 0.02 0.02 0.04 0.06 0.03 0.07 0.05 0.00
0.00 0.00 0.00 0.00 0.00 0.00 0.00 0.00 0.00 0.00 0.00 0.00 0.00 0.00 0.00 0.00 0.00 0.00 0.00 0.00 0.00 0.00 0.00 0.00 0.00 0.00 0.00 0.00 0.00 0.00 0.00 0.00 0.00 0.00 0.00 0.01 0.02 0.02 0.01 0.03 0.06 0.02 0.00 0.00
0.00 0.00 0.00 0.00 0.00 0.00 0.00 0.00 0.00 0.00 0.00 0.00 0.00 0.00 0.00 0.00 0.01 0.00 0.00 0.00 0.00 0.00 0.00 0.00 0.00 0.00 0.00 0.00 0.00 0.00 0.00 0.00 0.00 0.00 0.00 0.00 0.00 0.02 0.03 0.02 0.00 0.00 0.00 0.00
0.00 0.00 0.00 0.00 0.01 0.00 0.00 0.00 0.00 0.02 0.04 0.00 0.00 0.00 0.00 0.00 0.01 0.00 0.00 0.00 0.00 0.00 0.00 0.00 0.00 0.00 0.00 0.00 0.00 0.00 0.00 0.00 0.00 0.00 0.00 0.01 0.01 0.00 0.00 0.00 0.00 0.00 0.00 0.00
0.00 0.00 0.00 0.00 0.00 0.01 0.00 0.00 0.01 0.02 0.02 0.00 0.00 0.00 0.00 0.00 0.00 0.00 0.00 0.00 0.00 0.00 0.00 0.00 0.00 0.00 0.00 0.00 0.00 0.00 0.00 0.00 0.00 0.00 0.01 0.01 0.00 0.00 0.00 0.00 0.00 0.00 0.00 0.00
0.00 0.00 0.00 0.01 0.00 0.00 0.00 0.02 0.02 0.01 0.01 0.00 0.00 0.00 0.00 0.00 0.00 0.00 0.00 0.00 0.00 0.00 0.00 0.00 0.00 0.00 0.00 0.00 0.00 0.00 0.00 0.01 0.01 0.00 0.00 0.00 0.00 0.00 0.00 0.00 0.00 0.00 0.00 0.00
0.00 0.00 0.00 0.01 0.00 0.00 0.01 0.01 0.01 0.00 0.00 0.00 0.00 0.01 0.01 0.00 0.00 0.00 0.00 0.01 0.01 0.00 0.00 0.00 0.00 0.00 0.00 0.00 0.01 0.02 0.01 0.01 0.00 0.00 0.00 0.00 0.00 0.00 0.00 0.00 0.00 0.00 0.00 0.00
0.00 0.00 0.01 0.01 0.00 0.00 0.01 0.01 0.00 0.00 0.01 0.01 0.01 0.00 0.00 0.00 0.00 0.01 0.01 0.01 0.00 0.00 0.00 0.00 0.00 0.00 0.00 0.00 0.00 0.00 0.00 0.00 0.00 0.00 0.00 0.00 0.01 0.00 0.00 0.00 0.00 0.00 0.00 0.00
0.00 0.00 0.01 0.01 0.01 0.01 0.03 0.02 0.01 0.02 0.02 0.02 0.00 0.00 0.00 0.00 0.00 0.01 0.01 0.00 0.00 0.00 0.00 0.00 0.00 0.00 0.00 0.00 0.00 0.00 0.00 0.00 0.00 0.00 0.00 0.02 0.02 0.01 0.00 0.00 0.00 0.00 0.00 0.00

GFSCGP_prec_precacc24_021.txt.gz
Total_Precipitation_Accumulation
0.00 0.00 0.00 0.00 0.00 0.00 0.00 0.00 0.00 0.00 0.00 0.00 0.00 0.00 0.00 0.00 0.00 0.00 0.00 0.00 0.00 0.00 0.01 0.05 0.08 0.11 0.12 0.19 0.48 0.63 0.73 0.55 0.26 0.08 0.04 0.03 0.04 0.04 0.02 0.00 0.00 0.00 0.00 0.00
0.00 0.00 0.00 0.00 0.00 0.00 0.00 0.00 0.00 0.00 0.00 0.00 0.00 0.00 0.00 0.00 0.00 0.00 0.00 0.00 0.00 0.00 0.00 0.01 0.02 0.08 0.22 0.43 0.45 0.33 0.28 0.12 0.02 0.02 0.04 0.05 0.03 0.01 0.00 0.00 0.00 0.00 0.00 0.00
0.00 0.00 0.00 0.00 0.00 0.00 0.00 0.00 0.00 0.00 0.00 0.00 0.00 0.00 0.00 0.00 0.00 0.00 0.00 0.00 0.00 0.00 0.03 0.05 0.08 0.12 0.11 0.10 0.05 0.01 0.00 0.00 0.00 0.02 0.01 0.00 0.00 0.00 0.00 0.00 0.00 0.00 0.00 0.00
0.00 0.00 0.00 0.00 0.00 0.00 0.00 0.00 0.00 0.00 0.00 0.00 0.00 0.00 0.00 0.00 0.00 0.00 0.00 0.00 0.01 0.02 0.02 0.01 0.00 0.00 0.00 0.00 0.00 0.00 0.00 0.00 0.00 0.00 0.00 0.00 0.00 0.00 0.00 0.00 0.00 0.00 0.00 0.00
0.00 0.00 0.00 0.00 0.00 0.00 0.00 0.00 0.00 0.00 0.00 0.00 0.00 0.00 0.00 0.00 0.00 0.00 0.00 0.00 0.00 0.00 0.00 0.00 0.00 0.00 0.00 0.00 0.00 0.00 0.00 0.00 0.00 0.00 0.00 0.00 0.00 0.00 0.00 0.00 0.00 0.00 0.00 0.00
0.00 0.00 0.00 0.00 0.00 0.00 0.00 0.00 0.00 0.00 0.00 0.00 0.00 0.02 0.01 0.01 0.00 0.00 0.00 0.00 0.00 0.00 0.00 0.00 0.00 0.00 0.00 0.00 0.00 0.00 0.00 0.00 0.00 0.00 0.00 0.00 0.00 0.00 0.00 0.00 0.00 0.00 0.00 0.00
0.00 0.00 0.00 0.00 0.00 0.00 0.00 0.00 0.00 0.01 0.00 0.01 0.03 0.02 0.00 0.00 0.00 0.00 0.00 0.00 0.00 0.00 0.00 0.00 0.00 0.00 0.00 0.00 0.00 0.00 0.00 0.00 0.00 0.00 0.00 0.00 0.00 0.00 0.00 0.00 0.00 0.00 0.01 0.01
0.00 0.00 0.00 0.00 0.00 0.00 0.00 0.00 0.00 0.00 0.01 0.01 0.00 0.00 0.00 0.00 0.00 0.00 0.00 0.00 0.00 0.00 0.00 0.00 0.00 0.00 0.00 0.00 0.00 0.00 0.00 0.00 0.00 0.00 0.00 0.00 0.00 0.00 0.00 0.00 0.00 0.00 0.00 0.00
0.00 0.00 0.00 0.00 0.00 0.00 0.00 0.00 0.00 0.00 0.00 0.00 0.00 0.00 0.00 0.00 0.00 0.00 0.00 0.00 0.00 0.00 0.00 0.00 0.00 0.00 0.00 0.00 0.00 0.00 0.00 0.00 0.00 0.00 0.00 0.00 0.00 0.00 0.00 0.00 0.00 0.00 0.00 0.00
0.00 0.00 0.00 0.00 0.00 0.00 0.00 0.00 0.00 0.00 0.00 0.00 0.00 0.00 0.00 0.00 0.00 0.00 0.00 0.00 0.00 0.00 0.00 0.00 0.00 0.00 0.00 0.00 0.00 0.00 0.00 0.00 0.00 0.00 0.00 0.00 0.00 0.00 0.00 0.00 0.00 0.00 0.00 0.00
0.00 0.00 0.00 0.00 0.00 0.00 0.00 0.00 0.00 0.00 0.00 0.00 0.00 0.00 0.00 0.00 0.00 0.00 0.00 0.00 0.00 0.00 0.00 0.00 0.00 0.00 0.00 0.00 0.00 0.00 0.00 0.00 0.00 0.00 0.00 0.00 0.00 0.00 0.00 0.00 0.00 0.00 0.00 0.00
0.00 0.00 0.00 0.00 0.00 0.00 0.00 0.00 0.00 0.00 0.00 0.00 0.00 0.00 0.00 0.00 0.00 0.00 0.00 0.00 0.00 0.00 0.00 0.00 0.00 0.00 0.00 0.00 0.00 0.00 0.00 0.00 0.00 0.00 0.00 0.00 0.00 0.00 0.00 0.00 0.00 0.00 0.01 0.02
0.00 0.00 0.00 0.00 0.00 0.00 0.00 0.00 0.00 0.00 0.00 0.00 0.01 0.00 0.00 0.00 0.00 0.00 0.00 0.00 0.00 0.00 0.00 0.00 0.00 0.00 0.00 0.00 0.00 0.00 0.00 0.00 0.00 0.00 0.00 0.00 0.00 0.00 0.00 0.01 0.01 0.01 0.01 0.02
0.00 0.00 0.00 0.00 0.00 0.00 0.00 0.00 0.00 0.00 0.00 0.00 0.00 0.00 0.00 0.01 0.00 0.00 0.00 0.00 0.00 0.00 0.00 0.00 0.00 0.00 0.00 0.00 0.00 0.00 0.00 0.00 0.00 0.00 0.00 0.00 0.00 0.01 0.00 0.01 0.01 0.02 0.03 0.02
0.00 0.00 0.00 0.00 0.00 0.00 0.00 0.00 0.00 0.00 0.00 0.00 0.00 0.00 0.00 0.00 0.00 0.00 0.00 0.00 0.00 0.00 0.00 0.00 0.00 0.00 0.00 0.00 0.00 0.00 0.00 0.00 0.00 0.00 0.00 0.00 0.01 0.01 0.03 0.04 0.03 0.03 0.02 0.01
0.00 0.00 0.00 0.00 0.00 0.00 0.00 0.00 0.00 0.00 0.00 0.00 0.00 0.00 0.00 0.00 0.00 0.00 0.00 0.00 0.00 0.00 0.00 0.00 0.00 0.00 0.00 0.00 0.00 0.00 0.00 0.00 0.00 0.00 0.00 0.01 0.01 0.03 0.04 0.02 0.02 0.01 0.02 0.01
0.00 0.00 0.00 0.00 0.00 0.00 0.00 0.00 0.00 0.00 0.00 0.00 0.00 0.00 0.00 0.00 0.00 0.00 0.00 0.00 0.00 0.00 0.00 0.00 0.00 0.00 0.00 0.00 0.00 0.00 0.00 0.00 0.00 0.00 0.00 0.01 0.03 0.03 0.02 0.02 0.02 0.02 0.03 0.03
0.00 0.00 0.00 0.00 0.00 0.00 0.00 0.00 0.00 0.00 0.00 0.00 0.00 0.00 0.00 0.00 0.00 0.00 0.00 0.00 0.00 0.00 0.00 0.00 0.00 0.00 0.00 0.00 0.00 0.00 0.00 0.00 0.00 0.00 0.00 0.01 0.02 0.02 0.04 0.06 0.03 0.07 0.05 0.00
0.00 0.00 0.00 0.00 0.00 0.00 0.00 0.00 0.00 0.00 0.00 0.00 0.00 0.00 0.00 0.00 0.00 0.00 0.00 0.00 0.00 0.00 0.00 0.00 0.00 0.00 0.00 0.00 0.00 0.00 0.00 0.00 0.00 0.00 0.00 0.01 0.02 0.02 0.01 0.03 0.06 0.02 0.00 0.00
0.00 0.00 0.00 0.00 0.00 0.00 0.00 0.00 0.00 0.00 0.00 0.00 0.00 0.00 0.00 0.00 0.01 0.00 0.00 0.00 0.00 0.00 0.00 0.00 0.00 0.00 0.00 0.00 0.00 0.00 0.00 0.00 0.00 0.00 0.00 0.00 0.00 0.02 0.03 0.02 0.00 0.00 0.00 0.00
0.00 0.00 0.00 0.00 0.01 0.00 0.00 0.00 0.00 0.02 0.04 0.00 0.00 0.00 0.00 0.00 0.01 0.00 0.00 0.00 0.00 0.00 0.00 0.00 0.00 0.00 0.00 0.00 0.00 0.00 0.00 0.00 0.00 0.00 0.00 0.01 0.01 0.00 0.00 0.00 0.00 0.00 0.00 0.00
0.00 0.00 0.00 0.00 0.00 0.01 0.00 0.00 0.01 0.02 0.02 0.00 0.00 0.00 0.00 0.00 0.00 0.00 0.00 0.00 0.00 0.00 0.00 0.00 0.00 0.00 0.00 0.00 0.00 0.00 0.00 0.00 0.00 0.00 0.01 0.01 0.00 0.00 0.00 0.00 0.00 0.00 0.00 0.00
0.00 0.00 0.00 0.01 0.00 0.00 0.00 0.02 0.02 0.01 0.01 0.00 0.00 0.00 0.00 0.00 0.00 0.00 0.00 0.00 0.00 0.00 0.00 0.00 0.00 0.00 0.00 0.00 0.00 0.00 0.00 0.01 0.01 0.00 0.00 0.00 0.00 0.00 0.00 0.00 0.00 0.00 0.00 0.00
0.00 0.00 0.00 0.01 0.00 0.00 0.01 0.01 0.01 0.00 0.00 0.00 0.00 0.01 0.01 0.00 0.00 0.00 0.00 0.01 0.01 0.00 0.00 0.00 0.00 0.00 0.00 0.00 0.01 0.02 0.01 0.01 0.00 0.00 0.00 0.00 0.00 0.00 0.00 0.00 0.00 0.00 0.00 0.00
0.00 0.00 0.01 0.01 0.00 0.00 0.01 0.01 0.00 0.00 0.01 0.01 0.01 0.00 0.00 0.00 0.00 0.01 0.01 0.02 0.03 0.03 0.00 0.00 0.00 0.00 0.00 0.00 0.00 0.00 0.00 0.00 0.00 0.00 0.00 0.00 0.01 0.00 0.00 0.00 0.00 0.00 0.00 0.00
0.00 0.00 0.01 0.01 0.01 0.01 0.03 0.02 0.01 0.02 0.02 0.02 0.00 0.00 0.00 0.00 0.00 0.01 0.03 0.04 0.02 0.00 0.00 0.00 0.00 0.00 0.00 0.00 0.00 0.00 0.00 0.00 0.00 0.00 0.00 0.02 0.02 0.01 0.01 0.00 0.00 0.00 0.00 0.00

GFSCGP_prec_precacc24_024.txt.gz
Total_Precipitation_Accumulation
0.00 0.00 0.00 0.00 0.00 0.00 0.00 0.00 0.00 0.00 0.00 0.00 0.00 0.00 0.00 0.00 0.00 0.00 0.00 0.00 0.00 0.00 0.01 0.05 0.08 0.11 0.12 0.19 0.49 0.63 0.79 0.61 0.27 0.08 0.04 0.03 0.04 0.04 0.02 0.00 0.00 0.00 0.00 0.00
0.00 0.00 0.00 0.00 0.00 0.00 0.00 0.00 0.00 0.00 0.00 0.00 0.00 0.00 0.00 0.00 0.00 0.00 0.00 0.00 0.00 0.00 0.00 0.01 0.02 0.08 0.22 0.43 0.46 0.35 0.28 0.12 0.02 0.02 0.04 0.05 0.03 0.01 0.00 0.00 0.00 0.00 0.00 0.00
0.00 0.00 0.00 0.00 0.00 0.00 0.00 0.00 0.00 0.00 0.00 0.00 0.00 0.00 0.00 0.00 0.00 0.00 0.00 0.00 0.00 0.00 0.03 0.05 0.09 0.12 0.12 0.10 0.05 0.01 0.00 0.00 0.00 0.02 0.01 0.00 0.00 0.00 0.00 0.00 0.00 0.00 0.00 0.00
0.00 0.00 0.00 0.00 0.00 0.00 0.00 0.00 0.00 0.00 0.00 0.00 0.00 0.00 0.00 0.00 0.00 0.00 0.00 0.00 0.01 0.02 0.02 0.01 0.00 0.00 0.00 0.00 0.00 0.00 0.00 0.00 0.00 0.00 0.00 0.00 0.00 0.00 0.00 0.00 0.00 0.00 0.00 0.00
0.00 0.00 0.00 0.00 0.00 0.00 0.00 0.00 0.00 0.00 0.00 0.00 0.00 0.00 0.00 0.00 0.00 0.00 0.00 0.00 0.00 0.00 0.00 0.00 0.00 0.00 0.00 0.00 0.00 0.00 0.00 0.00 0.00 0.00 0.00 0.00 0.00 0.00 0.00 0.00 0.00 0.00 0.00 0.00
0.00 0.00 0.00 0.00 0.00 0.00 0.00 0.00 0.00 0.00 0.00 0.00 0.00 0.02 0.01 0.01 0.00 0.00 0.00 0.00 0.00 0.00 0.00 0.00 0.00 0.00 0.00 0.00 0.00 0.00 0.00 0.00 0.00 0.00 0.00 0.00 0.00 0.00 0.00 0.00 0.00 0.00 0.00 0.00
0.00 0.00 0.00 0.00 0.00 0.00 0.00 0.00 0.00 0.01 0.00 0.01 0.03 0.02 0.00 0.00 0.00 0.00 0.00 0.00 0.00 0.00 0.00 0.00 0.00 0.00 0.00 0.00 0.00 0.00 0.00 0.00 0.00 0.00 0.00 0.00 0.00 0.00 0.00 0.00 0.00 0.00 0.01 0.01
0.00 0.00 0.00 0.00 0.00 0.00 0.00 0.00 0.00 0.00 0.01 0.01 0.00 0.00 0.00 0.00 0.00 0.00 0.00 0.00 0.00 0.00 0.00 0.00 0.00 0.00 0.00 0.00 0.00 0.00 0.00 0.00 0.00 0.00 0.00 0.00 0.00 0.00 0.00 0.00 0.00 0.00 0.00 0.00
0.00 0.00 0.00 0.00 0.00 0.00 0.00 0.00 0.00 0.00 0.00 0.00 0.00 0.00 0.00 0.00 0.00 0.00 0.00 0.00 0.00 0.00 0.00 0.00 0.00 0.00 0.00 0.00 0.00 0.00 0.00 0.00 0.00 0.00 0.00 0.00 0.00 0.00 0.00 0.00 0.00 0.00 0.00 0.00
0.00 0.00 0.00 0.00 0.00 0.00 0.00 0.00 0.00 0.00 0.00 0.00 0.00 0.00 0.00 0.00 0.00 0.00 0.00 0.00 0.00 0.00 0.00 0.00 0.00 0.00 0.00 0.00 0.00 0.00 0.00 0.00 0.00 0.00 0.00 0.00 0.00 0.00 0.00 0.00 0.00 0.00 0.00 0.00
0.00 0.00 0.00 0.00 0.00 0.00 0.00 0.00 0.00 0.00 0.00 0.00 0.00 0.00 0.00 0.00 0.00 0.00 0.00 0.00 0.00 0.00 0.00 0.00 0.00 0.00 0.00 0.00 0.00 0.00 0.00 0.00 0.00 0.00 0.00 0.00 0.00 0.00 0.00 0.00 0.00 0.00 0.00 0.00
0.00 0.00 0.00 0.00 0.00 0.00 0.00 0.00 0.00 0.00 0.00 0.00 0.00 0.00 0.00 0.00 0.00 0.00 0.00 0.00 0.00 0.00 0.00 0.00 0.00 0.00 0.00 0.00 0.00 0.00 0.00 0.00 0.00 0.00 0.00 0.00 0.00 0.00 0.00 0.00 0.00 0.00 0.01 0.02
0.00 0.00 0.00 0.00 0.00 0.00 0.00 0.00 0.00 0.00 0.00 0.00 0.01 0.00 0.00 0.00 0.00 0.00 0.00 0.00 0.00 0.00 0.00 0.00 0.00 0.00 0.00 0.00 0.00 0.00 0.00 0.00 0.00 0.00 0.00 0.00 0.00 0.00 0.00 0.01 0.01 0.01 0.01 0.02
0.00 0.00 0.00 0.00 0.00 0.00 0.00 0.00 0.00 0.00 0.00 0.00 0.00 0.00 0.00 0.01 0.00 0.00 0.00 0.00 0.00 0.00 0.00 0.00 0.00 0.00 0.00 0.00 0.00 0.00 0.00 0.00 0.00 0.00 0.00 0.00 0.00 0.01 0.00 0.01 0.01 0.02 0.03 0.02
0.00 0.00 0.00 0.00 0.00 0.00 0.00 0.00 0.00 0.00 0.00 0.00 0.00 0.00 0.00 0.00 0.00 0.00 0.00 0.00 0.00 0.00 0.00 0.00 0.00 0.00 0.00 0.00 0.00 0.00 0.00 0.00 0.00 0.00 0.00 0.00 0.01 0.01 0.03 0.04 0.03 0.03 0.02 0.01
0.00 0.00 0.00 0.00 0.00 0.00 0.00 0.00 0.00 0.00 0.00 0.00 0.00 0.00 0.00 0.00 0.00 0.00 0.00 0.00 0.00 0.00 0.00 0.00 0.00 0.00 0.00 0.00 0.00 0.00 0.00 0.00 0.00 0.00 0.00 0.01 0.01 0.03 0.04 0.02 0.02 0.01 0.02 0.01
0.00 0.00 0.00 0.00 0.00 0.00 0.00 0.00 0.00 0.00 0.00 0.00 0.00 0.00 0.00 0.00 0.00 0.00 0.00 0.00 0.00 0.00 0.00 0.00 0.00 0.00 0.00 0.00 0.00 0.00 0.00 0.00 0.00 0.00 0.00 0.01 0.03 0.03 0.02 0.02 0.02 0.02 0.03 0.03
0.00 0.00 0.00 0.00 0.00 0.00 0.00 0.00 0.00 0.00 0.00 0.00 0.00 0.00 0.00 0.00 0.00 0.00 0.00 0.00 0.00 0.00 0.00 0.00 0.00 0.00 0.00 0.00 0.00 0.00 0.00 0.00 0.00 0.00 0.00 0.01 0.02 0.02 0.04 0.06 0.03 0.07 0.05 0.00
0.00 0.00 0.00 0.00 0.00 0.00 0.00 0.00 0.00 0.00 0.00 0.00 0.00 0.00 0.00 0.00 0.00 0.00 0.00 0.00 0.00 0.00 0.00 0.00 0.00 0.00 0.00 0.00 0.00 0.00 0.00 0.00 0.00 0.00 0.00 0.01 0.02 0.02 0.01 0.03 0.06 0.02 0.00 0.00
0.00 0.00 0.00 0.00 0.00 0.00 0.00 0.00 0.00 0.00 0.00 0.00 0.00 0.00 0.00 0.00 0.01 0.00 0.00 0.00 0.00 0.00 0.00 0.00 0.00 0.00 0.00 0.00 0.00 0.00 0.00 0.00 0.00 0.00 0.00 0.00 0.00 0.02 0.03 0.02 0.00 0.00 0.00 0.00
0.00 0.00 0.00 0.00 0.01 0.00 0.00 0.00 0.00 0.02 0.04 0.00 0.00 0.00 0.00 0.00 0.01 0.00 0.00 0.00 0.00 0.00 0.00 0.00 0.00 0.00 0.00 0.00 0.00 0.00 0.00 0.00 0.00 0.00 0.00 0.01 0.01 0.00 0.00 0.00 0.00 0.00 0.00 0.00
0.00 0.00 0.00 0.00 0.00 0.01 0.00 0.00 0.01 0.02 0.02 0.00 0.00 0.00 0.00 0.00 0.00 0.00 0.00 0.00 0.00 0.00 0.00 0.00 0.00 0.00 0.00 0.00 0.00 0.00 0.00 0.00 0.00 0.00 0.01 0.01 0.00 0.00 0.00 0.00 0.00 0.00 0.00 0.00
0.00 0.00 0.00 0.01 0.00 0.00 0.00 0.02 0.02 0.01 0.01 0.00 0.00 0.00 0.00 0.00 0.00 0.00 0.00 0.00 0.00 0.00 0.00 0.00 0.00 0.00 0.00 0.00 0.00 0.00 0.00 0.01 0.01 0.00 0.00 0.00 0.00 0.00 0.00 0.00 0.00 0.00 0.00 0.00
0.00 0.00 0.00 0.01 0.00 0.00 0.01 0.01 0.01 0.00 0.00 0.00 0.00 0.01 0.01 0.00 0.00 0.00 0.00 0.01 0.01 0.00 0.00 0.02 0.02 0.01 0.00 0.00 0.01 0.02 0.01 0.01 0.00 0.00 0.00 0.00 0.00 0.00 0.00 0.00 0.00 0.00 0.00 0.00
0.00 0.00 0.01 0.01 0.00 0.00 0.01 0.01 0.00 0.00 0.01 0.01 0.01 0.00 0.00 0.00 0.00 0.01 0.01 0.02 0.03 0.04 0.03 0.02 0.01 0.00 0.00 0.00 0.00 0.00 0.00 0.00 0.00 0.00 0.00 0.00 0.01 0.00 0.00 0.00 0.00 0.00 0.00 0.00
0.00 0.00 0.01 0.01 0.01 0.01 0.03 0.02 0.01 0.02 0.02 0.02 0.00 0.00 0.00 0.00 0.00 0.01 0.03 0.04 0.03 0.02 0.02 0.01 0.01 0.00 0.00 0.00 0.00 0.00 0.00 0.00 0.00 0.00 0.00 0.02 0.02 0.01 0.01 0.00 0.00 0.00 0.00 0.00

GFSCGP_prec_precacc24_027.txt.gz
Total_Precipitation_Accumulation
0.00 0.00 0.00 0.00 0.00 0.00 0.00 0.00 0.00 0.00 0.00 0.00 0.00 0.00 0.00 0.00 0.00 0.00 0.00 0.00 0.00 0.00 0.01 0.05 0.08 0.11 0.12 0.19 0.50 0.65 0.79 0.61 0.28 0.09 0.05 0.03 0.04 0.04 0.02 0.00 0.00 0.00 0.00 0.00
0.00 0.00 0.00 0.00 0.00 0.00 0.00 0.00 0.00 0.00 0.00 0.00 0.00 0.00 0.00 0.00 0.00 0.00 0.00 0.00 0.00 0.00 0.00 0.01 0.02 0.08 0.22 0.43 0.46 0.35 0.28 0.15 0.06 0.04 0.05 0.05 0.03 0.01 0.00 0.00 0.00 0.00 0.00 0.00
0.00 0.00 0.00 0.00 0.00 0.00 0.00 0.00 0.00 0.00 0.00 0.00 0.00 0.00 0.00 0.00 0.00 0.00 0.00 0.00 0.00 0.00 0.03 0.05 0.09 0.12 0.12 0.10 0.06 0.02 0.02 0.03 0.00 0.02 0.01 0.00 0.00 0.00 0.00 0.00 0.00 0.00 0.00 0.00
0.00 0.00 0.00 0.00 0.00 0.00 0.00 0.00 0.00 0.00 0.00 0.00 0.00 0.00 0.00 0.00 0.00 0.00 0.00 0.00 0.01 0.02 0.02 0.01 0.00 0.00 0.00 0.01 0.01 0.01 0.01 0.00 0.00 0.00 0.00 0.00 0.00 0.00 0.00 0.00 0.00 0.00 0.00 0.00
0.00 0.00 0.00 0.00 0.00 0.00 0.00 0.00 0.00 0.00 0.00 0.00 0.00 0.00 0.01 0.00 0.00 0.00 0.00 0.00 0.00 0.00 0.00 0.00 0.00 0.00 0.00 0.00 0.00 0.00 0.00 0.00 0.00 0.00 0.00 0.00 0.00 0.00 0.00 0.00 0.00 0.00 0.00 0.00
0.00 0.00 0.00 0.00 0.00 0.00 0.00 0.00 0.00 0.00 0.00 0.00 0.00 0.02 0.01 0.01 0.00 0.00 0.00 0.00 0.00 0.00 0.00 0.00 0.00 0.00 0.00 0.00 0.00 0.00 0.00 0.00 0.00 0.00 0.00 0.00 0.00 0.00 0.00 0.00 0.00 0.00 0.00 0.00
0.00 0.00 0.00 0.00 0.00 0.00 0.00 0.00 0.00 0.01 0.00 0.01 0.03 0.02 0.00 0.00 0.00 0.00 0.00 0.00 0.00 0.00 0.00 0.00 0.00 0.00 0.00 0.00 0.00 0.00 0.00 0.00 0.00 0.00 0.00 0.00 0.00 0.00 0.00 0.00 0.00 0.00 0.01 0.01
0.00 0.00 0.00 0.00 0.00 0.00 0.00 0.00 0.00 0.00 0.01 0.01 0.00 0.00 0.00 0.00 0.00 0.00 0.00 0.00 0.00 0.00 0.00 0.00 0.00 0.00 0.00 0.00 0.00 0.00 0.00 0.00 0.00 0.00 0.00 0.00 0.00 0.00 0.00 0.00 0.00 0.00 0.00 0.00
0.00 0.00 0.00 0.00 0.00 0.00 0.00 0.00 0.00 0.00 0.00 0.00 0.00 0.00 0.00 0.00 0.00 0.00 0.00 0.00 0.00 0.00 0.00 0.00 0.00 0.00 0.00 0.00 0.00 0.00 0.00 0.00 0.00 0.00 0.00 0.00 0.00 0.00 0.00 0.00 0.00 0.00 0.00 0.00
0.00 0.00 0.00 0.00 0.00 0.00 0.00 0.00 0.00 0.00 0.00 0.00 0.00 0.00 0.00 0.00 0.00 0.00 0.00 0.00 0.00 0.00 0.00 0.00 0.00 0.00 0.00 0.00 0.00 0.00 0.00 0.00 0.00 0.00 0.00 0.00 0.00 0.00 0.00 0.00 0.00 0.00 0.00 0.00
0.00 0.00 0.00 0.00 0.00 0.00 0.00 0.00 0.00 0.00 0.00 0.00 0.00 0.00 0.00 0.00 0.00 0.00 0.00 0.00 0.00 0.00 0.00 0.00 0.00 0.00 0.00 0.00 0.00 0.00 0.00 0.00 0.00 0.00 0.00 0.00 0.00 0.00 0.00 0.00 0.00 0.00 0.00 0.00
0.00 0.00 0.00 0.00 0.00 0.00 0.00 0.00 0.00 0.00 0.00 0.00 0.00 0.00 0.00 0.00 0.00 0.00 0.00 0.00 0.00 0.00 0.00 0.00 0.00 0.00 0.00 0.00 0.00 0.00 0.00 0.00 0.00 0.00 0.00 0.00 0.00 0.00 0.00 0.00 0.00 0.00 0.01 0.01
0.00 0.00 0.00 0.00 0.00 0.00 0.00 0.00 0.00 0.00 0.00 0.00 0.00 0.00 0.00 0.00 0.00 0.00 0.00 0.00 0.00 0.00 0.00 0.00 0.00 0.00 0.00 0.00 0.00 0.00 0.00 0.00 0.00 0.00 0.00 0.00 0.00 0.00 0.00 0.01 0.00 0.01 0.01 0.01
0.00 0.00 0.00 0.00 0.00 0.00 0.00 0.00 0.00 0.00 0.00 0.00 0.00 0.00 0.00 0.01 0.00 0.00 0.00 0.00 0.00 0.00 0.00 0.00 0.00 0.00 0.00 0.00 0.00 0.00 0.00 0.00 0.00 0.00 0.00 0.00 0.00 0.01 0.00 0.01 0.01 0.02 0.02 0.02
0.00 0.00 0.00 0.00 0.00 0.00 0.00 0.00 0.00 0.00 0.00 0.00 0.00 0.00 0.00 0.00 0.00 0.00 0.00 0.00 0.00 0.00 0.00 0.00 0.00 0.00 0.00 0.00 0.00 0.00 0.00 0.00 0.00 0.00 0.00 0.00 0.01 0.01 0.03 0.04 0.03 0.03 0.02 0.01
0.00 0.00 0.00 0.00 0.00 0.00 0.00 0.00 0.00 0.00 0.00 0.00 0.00 0.00 0.00 0.00 0.00 0.00 0.00 0.00 0.00 0.00 0.00 0.00 0.00 0.00 0.00 0.00 0.00 0.00 0.00 0.00 0.00 0.00 0.00 0.01 0.01 0.03 0.04 0.02 0.02 0.01 0.02 0.01
0.00 0.00 0.00 0.00 0.00 0.00 0.00 0.00 0.00 0.00 0.00 0.00 0.00 0.00 0.00 0.00 0.00 0.00 0.00 0.00 0.00 0.00 0.00 0.00 0.00 0.00 0.00 0.00 0.00 0.00 0.00 0.00 0.00 0.00 0.00 0.01 0.03 0.03 0.02 0.02 0.02 0.02 0.03 0.03
0.00 0.00 0.00 0.00 0.00 0.00 0.00 0.00 0.00 0.00 0.00 0.00 0.00 0.00 0.00 0.00 0.00 0.00 0.00 0.00 0.00 0.00 0.00 0.00 0.00 0.00 0.00 0.00 0.00 0.00 0.00 0.00 0.00 0.00 0.00 0.01 0.02 0.02 0.04 0.06 0.03 0.07 0.05 0.00
0.00 0.00 0.00 0.00 0.00 0.00 0.00 0.00 0.00 0.00 0.00 0.00 0.00 0.00 0.00 0.00 0.00 0.00 0.00 0.00 0.00 0.00 0.00 0.00 0.00 0.00 0.00 0.00 0.00 0.00 0.00 0.00 0.00 0.00 0.00 0.01 0.02 0.02 0.01 0.03 0.06 0.02 0.00 0.00
0.00 0.00 0.00 0.00 0.00 0.00 0.00 0.00 0.00 0.00 0.00 0.00 0.00 0.00 0.00 0.00 0.00 0.00 0.00 0.00 0.00 0.00 0.00 0.00 0.00 0.00 0.00 0.00 0.00 0.00 0.00 0.00 0.00 0.00 0.00 0.00 0.00 0.02 0.03 0.02 0.00 0.00 0.00 0.00
0.00 0.00 0.00 0.00 0.00 0.00 0.00 0.00 0.00 0.00 0.02 0.00 0.00 0.00 0.00 0.00 0.00 0.00 0.00 0.00 0.00 0.00 0.00 0.00 0.00 0.00 0.00 0.00 0.00 0.00 0.00 0.00 0.00 0.00 0.00 0.01 0.01 0.00 0.00 0.00 0.00 0.00 0.00 0.00
0.00 0.00 0.00 0.00 0.00 0.00 0.00 0.00 0.00 0.00 0.01 0.00 0.00 0.00 0.00 0.00 0.00 0.00 0.00 0.00 0.00 0.00 0.00 0.00 0.00 0.00 0.00 0.00 0.00 0.00 0.00 0.00 0.00 0.01 0.01 0.01 0.00 0.00 0.00 0.00 0.00 0.00 0.00 0.00
0.00 0.00 0.00 0.00 0.00 0.00 0.00 0.01 0.01 0.00 0.00 0.00 0.00 0.00 0.00 0.00 0.00 0.00 0.00 0.00 0.00 0.00 0.00 0.00 0.00 0.00 0.00 0.00 0.01 0.01 0.00 0.01 0.01 0.00 0.00 0.00 0.00 0.00 0.00 0.00 0.00 0.00 0.00 0.00
0.00 0.00 0.00 0.00 0.00 0.00 0.00 0.00 0.00 0.00 0.00 0.00 0.00 0.00 0.01 0.00 0.00 0.00 0.00 0.01 0.01 0.00 0.00 0.02 0.02 0.02 0.04 0.03 0.02 0.00 0.00 0.00 0.00 0.00 0.00 0.00 0.00 0.00 0.00 0.00 0.00 0.00 0.00 0.00
0.00 0.00 0.00 0.00 0.00 0.00 0.00 0.00 0.00 0.00 0.00 0.00 0.00 0.00 0.00 0.00 0.00 0.01 0.01 0.02 0.03 0.04 0.04 0.04 0.05 0.05 0.02 0.01 0.00 0.00 0.00 0.00 0.00 0.00 0.00 0.00 0.01 0.00 0.00 0.00 0.00 0.00 0.00 0.00
0.00 0.00 0.00 0.00 0.00 0.00 0.01 0.00 0.00 0.01 0.01 0.01 0.00 0.00 0.00 0.00 0.00 0.01 0.03 0.04 0.03 0.02 0.03 0.03 0.02 0.01 0.01 0.01 0.00 0.00 0.00 0.00 0.00 0.00 0.00 0.02 0.02 0.01 0.01 0.00 0.00 0.00 0.00 0.00

GFSCGP_prec_precacc24_033.txt.gz
Total_Precipitation_Accumulation
0.01 0.00 0.00 0.00 0.00 0.00 0.00 0.00 0.00 0.00 0.00 0.00 0.00 0.00 0.00 0.00 0.00 0.00 0.00 0.00 0.01 0.00 0.01 0.05 0.07 0.10 0.10 0.18 0.53 0.65 0.71 0.57 0.27 0.09 0.06 0.04 0.04 0.04 0.02 0.00 0.00 0.00 0.00 0.00
0.00 0.00 0.00 0.00 0.00 0.00 0.00 0.00 0.00 0.00 0.00 0.00 0.00 0.00 0.00 0.00 0.00 0.00 0.00 0.00 0.00 0.00 0.00 0.01 0.02 0.07 0.22 0.42 0.44 0.32 0.23 0.12 0.09 0.07 0.07 0.05 0.03 0.01 0.00 0.00 0.00 0.00 0.00 0.00
0.01 0.00 0.00 0.00 0.00 0.00 0.00 0.00 0.00 0.00 0.00 0.00 0.00 0.00 0.00 0.00 0.00 0.00 0.00 0.00 0.00 0.01 0.03 0.05 0.08 0.12 0.12 0.09 0.05 0.06 0.09 0.05 0.09 0.06 0.01 0.00 0.00 0.00 0.00 0.00 0.00 0.00 0.00 0.00
0.01 0.00 0.00 0.00 0.00 0.00 0.00 0.00 0.00 0.00 0.00 0.00 0.00 0.00 0.02 0.01 0.00 0.00 0.00 0.00 0.01 0.02 0.02 0.02 0.01 0.00 0.00 0.04 0.06 0.08 0.04 0.01 0.01 0.00 0.00 0.00 0.00 0.00 0.00 0.00 0.00 0.00 0.00 0.00
0.01 0.00 0.00 0.00 0.00 0.00 0.00 0.00 0.00 0.00 0.00 0.06 0.02 0.00 0.02 0.02 0.00 0.00 0.00 0.00 0.00 0.00 0.00 0.01 0.00 0.01 0.00 0.00 0.03 0.03 0.01 0.01 0.00 0.00 0.00 0.00 0.00 0.00 0.00 0.00 0.00 0.00 0.00 0.00
0.01 0.00 0.01 0.03 0.00 0.00 0.00 0.00 0.00 0.00 0.00 0.01 0.01 0.01 0.01 0.00 0.01 0.03 0.02 0.00 0.00 0.00 0.04 0.03 0.00 0.00 0.01 0.01 0.00 0.01 0.00 0.00 0.00 0.00 0.00 0.00 0.00 0.00 0.00 0.00 0.00 0.00 0.00 0.00
0.00 0.00 0.00 0.00 0.00 0.00 0.00 0.00 0.00 0.06 0.01 0.00 0.00 0.00 0.00 0.00 0.02 0.11 0.07 0.00 0.00 0.00 0.03 0.00 0.00 0.00 0.00 0.00 0.00 0.00 0.00 0.00 0.00 0.00 0.00 0.00 0.00 0.00 0.00 0.00 0.00 0.00 0.01 0.01
0.00 0.00 0.00 0.00 0.00 0.00 0.00 0.00 0.00 0.09 0.05 0.00 0.01 0.01 0.00 0.00 0.00 0.00 0.00 0.00 0.00 0.00 0.00 0.00 0.00 0.00 0.00 0.00 0.00 0.00 0.00 0.00 0.00 0.00 0.00 0.00 0.00 0.00 0.00 0.00 0.00 0.00 0.00 0.00
0.03 0.02 0.01 0.00 0.00 0.00 0.00 0.00 0.00 0.00 0.01 0.00 0.00 0.00 0.00 0.00 0.00 0.00 0.00 0.00 0.00 0.00 0.00 0.00 0.00 0.00 0.00 0.00 0.00 0.00 0.00 0.00 0.00 0.00 0.00 0.00 0.00 0.00 0.00 0.00 0.00 0.00 0.00 0.00
0.06 0.11 0.02 0.00 0.00 0.00 0.00 0.00 0.00 0.00 0.00 0.00 0.00 0.00 0.00 0.01 0.00 0.00 0.00 0.00 0.00 0.00 0.00 0.00 0.00 0.00 0.00 0.00 0.00 0.00 0.00 0.00 0.00 0.00 0.00 0.00 0.00 0.00 0.00 0.00 0.00 0.00 0.00 0.00
0.00 0.05 0.07 0.00 0.00 0.00 0.00 0.00 0.00 0.00 0.00 0.00 0.00 0.00 0.00 0.00 0.00 0.00 0.00 0.00 0.00 0.00 0.00 0.00 0.00 0.00 0.00 0.00 0.00 0.00 0.00 0.00 0.00 0.00 0.00 0.00 0.00 0.00 0.00 0.00 0.00 0.00 0.00 0.00
0.00 0.00 0.01 0.00 0.00 0.00 0.00 0.00 0.01 0.00 0.00 0.00 0.00 0.00 0.00 0.00 0.00 0.00 0.00 0.00 0.00 0.00 0.00 0.00 0.00 0.00 0.00 0.00 0.00 0.00 0.00 0.00 0.00 0.00 0.00 0.00 0.00 0.00 0.00 0.00 0.00 0.00 0.01 0.01
0.00 0.00 0.00 0.00 0.00 0.01 0.00 0.00 0.00 0.00 0.00 0.00 0.00 0.00 0.00 0.00 0.00 0.00 0.00 0.00 0.00 0.00 0.00 0.00 0.00 0.00 0.00 0.00 0.00 0.00 0.00 0.00 0.00 0.00 0.00 0.00 0.00 0.00 0.00 0.01 0.00 0.01 0.01 0.01
0.00 0.00 0.00 0.00 0.00 0.00 0.00 0.00 0.00 0.00 0.00 0.00 0.00 0.00 0.00 0.00 0.00 0.00 0.00 0.00 0.00 0.00 0.00 0.00 0.00 0.00 0.00 0.00 0.00 0.00 0.00 0.00 0.00 0.00 0.00 0.00 0.00 0.00 0.00 0.01 0.01 0.02 0.02 0.02
0.00 0.00 0.00 0.00 0.00 0.00 0.00 0.00 0.00 0.00 0.00 0.00 0.00 0.00 0.00 0.00 0.00 0.00 0.00 0.00 0.00 0.00 0.00 0.00 0.00 0.01 0.00 0.00 0.00 0.00 0.00 0.00 0.00 0.00 0.00 0.00 0.00 0.00 0.01 0.02 0.02 0.02 0.02 0.01
0.00 0.00 0.00 0.00 0.00 0.00 0.00 0.00 0.00 0.00 0.00 0.00 0.00 0.00 0.00 0.00 0.00 0.00 0.00 0.00 0.00 0.00 0.00 0.00 0.00 0.00 0.02 0.01 0.01 0.00 0.00 0.00 0.00 0.00 0.00 0.00 0.00 0.00 0.01 0.00 0.01 0.01 0.02 0.01
0.00 0.00 0.00 0.00 0.00 0.00 0.00 0.00 0.00 0.00 0.00 0.00 0.00 0.00 0.00 0.00 0.00 0.00 0.00 0.00 0.00 0.00 0.00 0.00 0.00 0.00 0.00 0.01 0.03 0.01 0.00 0.00 0.00 0.00 0.00 0.00 0.00 0.00 0.00 0.00 0.01 0.02 0.03 0.03
0.00 0.00 0.00 0.00 0.00 0.00 0.00 0.00 0.00 0.00 0.00 0.00 0.00 0.00 0.00 0.00 0.00 0.00 0.00 0.00 0.00 0.00 0.00 0.00 0.00 0.00 0.00 0.00 0.01 0.01 0.00 0.00 0.00 0.00 0.00 0.00 0.00 0.00 0.00 0.01 0.02 0.07 0.05 0.00
0.01 0.00 0.00 0.00 0.00 0.00 0.00 0.00 0.00 0.00 0.00 0.00 0.00 0.00 0.00 0.00 0.00 0.00 0.00 0.00 0.00 0.00 0.00 0.00 0.00 0.00 0.00 0.00 0.00 0.00 0.00 0.00 0.00 0.00 0.00 0.00 0.00 0.00 0.00 0.00 0.05 0.03 0.00 0.00
0.00 0.00 0.00 0.00 0.00 0.00 0.00 0.00 0.00 0.00 0.00 0.00 0.00 0.00 0.00 0.00 0.00 0.00 0.00 0.00 0.00 0.00 0.00 0.00 0.00 0.00 0.00 0.00 0.00 0.00 0.00 0.00 0.00 0.00 0.00 0.00 0.00 0.00 0.01 0.01 0.01 0.00 0.00 0.00
0.00 0.00 0.00 0.00 0.00 0.00 0.00 0.00 0.00 0.00 0.00 0.00 0.00 0.00 0.00 0.00 0.00 0.00 0.00 0.00 0.00 0.00 0.00 0.00 0.00 0.00 0.00 0.00 0.00 0.00 0.00 0.00 0.00 0.00 0.01 0.01 0.02 0.01 0.01 0.00 0.00 0.00 0.00 0.00
0.00 0.00 0.00 0.00 0.00 0.00 0.00 0.00 0.00 0.00 0.00 0.00 0.00 0.00 0.00 0.00 0.00 0.00 0.00 0.00 0.00 0.00 0.00 0.00 0.00 0.00 0.00 0.00 0.00 0.00 0.01 0.01 0.02 0.02 0.02 0.02 0.00 0.00 0.00 0.00 0.00 0.00 0.00 0.00
0.00 0.00 0.00 0.00 0.00 0.00 0.00 0.00 0.00 0.00 0.00 0.00 0.00 0.00 0.00 0.00 0.00 0.00 0.00 0.00 0.00 0.00 0.00 0.00 0.00 0.00 0.00 0.00 0.02 0.04 0.03 0.02 0.02 0.01 0.01 0.01 0.00 0.00 0.00 0.00 0.00 0.00 0.00 0.00
0.00 0.00 0.00 0.00 0.00 0.00 0.00 0.00 0.00 0.00 0.00 0.00 0.00 0.00 0.00 0.00 0.00 0.00 0.00 0.01 0.01 0.00 0.00 0.02 0.02 0.02 0.04 0.05 0.03 0.02 0.01 0.00 0.01 0.01 0.00 0.00 0.00 0.00 0.00 0.00 0.00 0.00 0.00 0.00
0.00 0.00 0.00 0.00 0.00 0.00 0.00 0.00 0.00 0.00 0.00 0.00 0.00 0.00 0.00 0.00 0.00 0.01 0.01 0.02 0.03 0.04 0.04 0.04 0.05 0.06 0.03 0.01 0.01 0.01 0.01 0.00 0.00 0.00 0.00 0.00 0.01 0.00 0.00 0.00 0.00 0.00 0.00 0.00
0.00 0.00 0.00 0.00 0.00 0.00 0.00 0.00 0.00 0.00 0.00 0.00 0.00 0.00 0.00 0.00 0.00 0.01 0.03 0.04 0.03 0.02 0.03 0.03 0.02 0.01 0.01 0.01 0.01 0.00 0.00 0.00 0.00 0.00 0.00 0.02 0.02 0.01 0.01 0.00 0.00 0.00 0.00 0.00

GFSCGP_prec_precacc24_036.txt.gz
Total_Precipitation_Accumulation
0.01 0.00 0.00 0.00 0.00 0.00 0.00 0.00 0.00 0.00 0.00 0.00 0.00 0.00 0.00 0.00 0.00 0.00 0.00 0.00 0.01 0.00 0.01 0.04 0.06 0.09 0.10 0.14 0.46 0.60 0.68 0.55 0.26 0.08 0.03 0.02 0.04 0.04 0.02 0.00 0.00 0.00 0.00 0.00
0.00 0.00 0.00 0.00 0.00 0.00 0.00 0.00 0.00 0.00 0.00 0.00 0.00 0.00 0.00 0.00 0.00 0.00 0.00 0.00 0.00 0.00 0.00 0.01 0.01 0.05 0.19 0.37 0.36 0.24 0.20 0.12 0.09 0.06 0.06 0.04 0.03 0.01 0.00 0.00 0.00 0.00 0.00 0.00
0.01 0.00 0.00 0.00 0.00 0.00 0.00 0.00 0.00 0.00 0.00 0.00 0.00 0.00 0.00 0.00 0.00 0.00 0.00 0.00 0.00 0.00 0.02 0.04 0.06 0.08 0.10 0.05 0.02 0.06 0.11 0.06 0.09 0.05 0.01 0.00 0.00 0.00 0.00 0.00 0.00 0.00 0.00 0.00
0.01 0.00 0.00 0.00 0.00 0.00 0.00 0.00 0.00 0.00 0.00 0.00 0.00 0.00 0.02 0.01 0.00 0.00 0.00 0.00 0.01 0.02 0.02 0.02 0.01 0.01 0.00 0.04 0.08 0.12 0.08 0.03 0.02 0.00 0.00 0.00 0.00 0.00 0.00 0.00 0.00 0.00 0.00 0.00
0.01 0.00 0.00 0.00 0.00 0.00 0.00 0.00 0.00 0.00 0.00 0.06 0.02 0.00 0.02 0.02 0.00 0.00 0.00 0.00 0.00 0.00 0.00 0.01 0.00 0.02 0.04 0.04 0.08 0.08 0.04 0.02 0.00 0.00 0.00 0.00 0.00 0.00 0.00 0.00 0.00 0.00 0.00 0.00
0.01 0.00 0.01 0.03 0.00 0.00 0.00 0.00 0.00 0.00 0.00 0.01 0.01 0.01 0.01 0.00 0.01 0.03 0.02 0.00 0.00 0.01 0.06 0.03 0.00 0.01 0.03 0.05 0.15 0.08 0.03 0.01 0.00 0.00 0.00 0.00 0.00 0.00 0.00 0.00 0.00 0.00 0.00 0.00
0.00 0.00 0.00 0.00 0.00 0.00 0.00 0.00 0.00 0.06 0.01 0.00 0.00 0.01 0.00 0.00 0.02 0.11 0.07 0.00 0.00 0.00 0.03 0.01 0.01 0.00 0.00 0.04 0.08 0.04 0.01 0.00 0.00 0.00 0.00 0.00 0.00 0.00 0.00 0.00 0.00 0.00 0.01 0.01
0.00 0.00 0.00 0.00 0.00 0.01 0.00 0.00 0.00 0.09 0.05 0.00 0.01 0.01 0.00 0.00 0.00 0.00 0.00 0.00 0.00 0.00 0.00 0.00 0.01 0.00 0.00 0.04 0.02 0.02 0.00 0.00 0.00 0.00 0.00 0.00 0.00 0.00 0.00 0.00 0.00 0.00 0.00 0.00
0.03 0.02 0.01 0.00 0.00 0.00 0.00 0.00 0.00 0.00 0.01 0.00 0.00 0.00 0.00 0.00 0.00 0.00 0.00 0.00 0.00 0.00 0.00 0.00 0.00 0.00 0.00 0.03 0.00 0.00 0.00 0.00 0.00 0.00 0.00 0.00 0.00 0.00 0.00 0.00 0.00 0.00 0.00 0.00
0.06 0.11 0.02 0.00 0.00 0.00 0.00 0.00 0.00 0.00 0.00 0.00 0.00 0.00 0.00 0.01 0.00 0.00 0.00 0.00 0.00 0.00 0.00 0.00 0.00 0.00 0.00 0.00 0.00 0.00 0.00 0.00 0.00 0.00 0.00 0.00 0.00 0.00 0.00 0.00 0.00 0.00 0.00 0.00
0.00 0.05 0.07 0.00 0.00 0.00 0.00 0.00 0.00 0.00 0.00 0.00 0.00 0.00 0.00 0.00 0.00 0.00 0.00 0.00 0.00 0.00 0.00 0.00 0.00 0.00 0.00 0.00 0.00 0.00 0.00 0.00 0.00 0.00 0.00 0.00 0.00 0.00 0.00 0.00 0.00 0.00 0.00 0.00
0.00 0.00 0.01 0.00 0.00 0.00 0.00 0.00 0.01 0.00 0.00 0.00 0.00 0.00 0.00 0.00 0.00 0.00 0.00 0.00 0.00 0.00 0.00 0.00 0.00 0.00 0.00 0.00 0.00 0.00 0.00 0.00 0.00 0.00 0.00 0.00 0.00 0.00 0.00 0.00 0.00 0.00 0.00 0.01
0.00 0.00 0.00 0.00 0.00 0.01 0.00 0.00 0.00 0.00 0.00 0.00 0.00 0.00 0.00 0.00 0.00 0.00 0.00 0.00 0.00 0.00 0.00 0.00 0.00 0.00 0.00 0.00 0.00 0.00 0.00 0.00 0.00 0.00 0.00 0.00 0.00 0.00 0.00 0.00 0.00 0.00 0.00 0.00
0.00 0.00 0.00 0.00 0.00 0.00 0.00 0.00 0.00 0.00 0.00 0.00 0.00 0.00 0.00 0.00 0.00 0.00 0.00 0.00 0.00 0.00 0.00 0.00 0.00 0.00 0.00 0.00 0.00 0.00 0.00 0.00 0.00 0.00 0.00 0.00 0.00 0.00 0.00 0.00 0.00 0.00 0.00 0.00
0.00 0.00 0.00 0.00 0.00 0.00 0.00 0.00 0.00 0.00 0.00 0.00 0.00 0.00 0.00 0.00 0.00 0.00 0.00 0.00 0.00 0.00 0.00 0.01 0.00 0.01 0.00 0.00 0.00 0.01 0.01 0.01 0.01 0.01 0.01 0.01 0.00 0.00 0.00 0.00 0.00 0.00 0.00 0.01
0.00 0.00 0.00 0.00 0.00 0.00 0.00 0.00 0.00 0.00 0.00 0.00 0.00 0.00 0.00 0.00 0.00 0.00 0.00 0.00 0.00 0.00 0.00 0.00 0.00 0.00 0.02 0.02 0.02 0.01 0.01 0.01 0.01 0.01 0.02 0.01 0.00 0.00 0.00 0.00 0.00 0.00 0.02 0.01
0.00 0.00 0.00 0.00 0.00 0.00 0.00 0.00 0.00 0.00 0.00 0.00 0.00 0.00 0.00 0.00 0.00 0.00 0.00 0.00 0.00 0.00 0.00 0.00 0.00 0.00 0.00 0.01 0.03 0.02 0.02 0.01 0.01 0.02 0.01 0.00 0.00 0.00 0.00 0.00 0.00 0.00 0.02 0.03
0.00 0.00 0.00 0.00 0.00 0.00 0.00 0.00 0.00 0.00 0.00 0.00 0.00 0.00 0.00 0.00 0.00 0.00 0.00 0.00 0.00 0.00 0.00 0.00 0.00 0.00 0.00 0.00 0.02 0.02 0.02 0.02 0.01 0.01 0.00 0.00 0.00 0.00 0.00 0.00 0.00 0.00 0.02 0.00
0.01 0.00 0.00 0.00 0.00 0.00 0.00 0.00 0.00 0.00 0.00 0.00 0.00 0.00 0.00 0.00 0.00 0.00 0.00 0.00 0.00 0.00 0.00 0.00 0.00 0.00 0.00 0.00 0.00 0.02 0.01 0.01 0.00 0.00 0.00 0.00 0.00 0.00 0.01 0.02 0.03 0.02 0.01 0.00
0.00 0.00 0.00 0.00 0.00 0.00 0.00 0.00 0.00 0.00 0.00 0.00 0.00 0.00 0.00 0.00 0.00 0.00 0.00 0.00 0.00 0.00 0.00 0.00 0.00 0.00 0.00 0.00 0.00 0.00 0.00 0.00 0.00 0.00 0.00 0.00 0.02 0.06 0.07 0.04 0.01 0.00 0.00 0.00
0.00 0.00 0.00 0.00 0.00 0.00 0.00 0.00 0.00 0.00 0.00 0.00 0.00 0.00 0.00 0.00 0.00 0.00 0.00 0.00 0.00 0.00 0.00 0.00 0.00 0.00 0.00 0.00 0.00 0.00 0.00 0.01 0.01 0.01 0.03 0.07 0.09 0.05 0.01 0.00 0.00 0.00 0.00 0.00
0.00 0.00 0.00 0.00 0.00 0.00 0.00 0.00 0.00 0.00 0.00 0.00 0.00 0.00 0.00 0.00 0.00 0.00 0.00 0.00 0.00 0.00 0.00 0.00 0.00 0.00 0.00 0.00 0.00 0.01 0.02 0.03 0.02 0.02 0.04 0.03 0.01 0.00 0.00 0.00 0.00 0.00 0.00 0.00
0.00 0.00 0.00 0.00 0.00 0.00 0.00 0.00 0.00 0.00 0.00 0.00 0.00 0.00 0.00 0.00 0.00 0.00 0.00 0.00 0.00 0.00 0.00 0.00 0.00 0.00 0.00 0.00 0.02 0.04 0.03 0.03 0.02 0.01 0.01 0.01 0.00 0.00 0.00 0.00 0.00 0.00 0.00 0.00
0.00 0.00 0.00 0.00 0.00 0.00 0.00 0.00 0.00 0.00 0.00 0.00 0.00 0.00 0.00 0.00 0.00 0.00 0.00 0.01 0.01 0.00 0.00 0.02 0.02 0.02 0.04 0.05 0.03 0.02 0.01 0.00 0.01 0.01 0.00 0.00 0.00 0.00 0.00 0.00 0.00 0.00 0.00 0.00
0.00 0.00 0.00 0.00 0.00 0.00 0.00 0.00 0.00 0.00 0.00 0.00 0.00 0.00 0.00 0.00 0.00 0.01 0.01 0.02 0.03 0.04 0.04 0.04 0.05 0.06 0.03 0.01 0.01 0.01 0.01 0.00 0.00 0.00 0.00 0.00 0.01 0.00 0.00 0.00 0.00 0.00 0.00 0.00
0.00 0.00 0.00 0.00 0.00 0.00 0.00 0.00 0.00 0.00 0.00 0.00 0.00 0.00 0.00 0.00 0.00 0.01 0.03 0.04 0.03 0.02 0.03 0.03 0.02 0.01 0.01 0.01 0.01 0.00 0.00 0.00 0.00 0.00 0.00 0.02 0.02 0.01 0.01 0.00 0.00 0.00 0.00 0.00

GFSCGP_prec_precacc24_039.txt.gz
Total_Precipitation_Accumulation
0.01 0.00 0.00 0.00 0.00 0.00 0.00 0.00 0.00 0.00 0.00 0.00 0.00 0.00 0.00 0.00 0.00 0.00 0.00 0.00 0.01 0.00 0.01 0.04 0.06 0.08 0.08 0.03 0.24 0.36 0.52 0.47 0.23 0.06 0.02 0.01 0.02 0.03 0.02 0.00 0.00 0.00 0.00 0.00
0.00 0.00 0.00 0.00 0.00 0.00 0.00 0.00 0.00 0.00 0.00 0.00 0.00 0.00 0.00 0.00 0.00 0.00 0.00 0.00 0.00 0.00 0.00 0.00 0.01 0.05 0.12 0.19 0.24 0.22 0.17 0.10 0.09 0.05 0.04 0.02 0.02 0.00 0.00 0.00 0.00 0.00 0.00 0.00
0.01 0.00 0.00 0.00 0.00 0.00 0.00 0.00 0.00 0.00 0.00 0.00 0.00 0.00 0.00 0.00 0.00 0.00 0.00 0.02 0.00 0.00 0.01 0.02 0.03 0.05 0.07 0.02 0.02 0.07 0.13 0.07 0.09 0.04 0.01 0.00 0.00 0.00 0.00 0.00 0.00 0.00 0.00 0.00
0.01 0.00 0.00 0.00 0.00 0.00 0.00 0.00 0.00 0.00 0.00 0.00 0.00 0.00 0.02 0.01 0.00 0.00 0.00 0.01 0.01 0.01 0.02 0.01 0.00 0.01 0.00 0.04 0.08 0.12 0.10 0.09 0.03 0.01 0.00 0.00 0.00 0.00 0.00 0.00 0.00 0.00 0.00 0.00
0.01 0.00 0.00 0.00 0.00 0.00 0.00 0.00 0.00 0.00 0.00 0.06 0.02 0.00 0.02 0.02 0.00 0.00 0.00 0.00 0.01 0.00 0.00 0.02 0.01 0.03 0.05 0.04 0.08 0.09 0.10 0.10 0.03 0.01 0.00 0.01 0.00 0.00 0.00 0.00 0.00 0.00 0.00 0.00
0.01 0.00 0.01 0.03 0.00 0.00 0.00 0.00 0.00 0.00 0.00 0.01 0.01 0.01 0.01 0.00 0.01 0.03 0.02 0.00 0.00 0.01 0.08 0.06 0.04 0.06 0.06 0.07 0.20 0.11 0.10 0.06 0.02 0.02 0.00 0.02 0.01 0.00 0.00 0.00 0.00 0.00 0.00 0.00
0.00 0.00 0.00 0.00 0.00 0.00 0.00 0.00 0.00 0.06 0.01 0.00 0.00 0.01 0.00 0.00 0.02 0.11 0.07 0.00 0.00 0.01 0.04 0.02 0.02 0.05 0.05 0.09 0.20 0.10 0.04 0.04 0.03 0.01 0.00 0.00 0.03 0.03 0.03 0.00 0.00 0.00 0.00 0.00
0.00 0.00 0.00 0.00 0.00 0.01 0.00 0.00 0.00 0.09 0.05 0.00 0.01 0.01 0.00 0.00 0.00 0.00 0.00 0.00 0.00 0.00 0.00 0.01 0.02 0.03 0.05 0.16 0.17 0.08 0.02 0.02 0.02 0.00 0.00 0.00 0.01 0.03 0.04 0.01 0.00 0.00 0.00 0.00
0.03 0.02 0.01 0.00 0.00 0.00 0.00 0.00 0.00 0.00 0.01 0.00 0.00 0.00 0.00 0.00 0.00 0.00 0.00 0.00 0.00 0.00 0.00 0.00 0.00 0.00 0.01 0.17 0.13 0.03 0.01 0.01 0.01 0.00 0.00 0.00 0.01 0.02 0.06 0.02 0.01 0.00 0.00 0.00
0.06 0.11 0.02 0.00 0.00 0.00 0.00 0.00 0.00 0.00 0.00 0.00 0.00 0.00 0.00 0.01 0.00 0.00 0.00 0.00 0.00 0.00 0.00 0.00 0.00 0.00 0.00 0.03 0.01 0.00 0.00 0.00 0.00 0.00 0.00 0.02 0.02 0.02 0.02 0.01 0.00 0.00 0.00 0.00
0.00 0.05 0.07 0.00 0.00 0.00 0.00 0.00 0.00 0.00 0.00 0.00 0.00 0.00 0.00 0.00 0.00 0.00 0.00 0.00 0.00 0.00 0.00 0.00 0.00 0.00 0.00 0.00 0.00 0.00 0.00 0.00 0.00 0.00 0.00 0.01 0.01 0.01 0.00 0.00 0.00 0.00 0.00 0.00
0.00 0.00 0.01 0.00 0.00 0.00 0.00 0.00 0.01 0.00 0.00 0.00 0.00 0.00 0.00 0.00 0.00 0.00 0.00 0.00 0.00 0.00 0.00 0.00 0.00 0.00 0.00 0.00 0.00 0.00 0.00 0.00 0.00 0.01 0.01 0.02 0.02 0.01 0.00 0.00 0.00 0.00 0.00 0.00
0.00 0.00 0.00 0.00 0.00 0.01 0.00 0.00 0.00 0.00 0.00 0.00 0.00 0.00 0.00 0.00 0.00 0.00 0.00 0.00 0.00 0.00 0.00 0.00 0.00 0.00 0.00 0.00 0.00 0.00 0.00 0.00 0.03 0.03 0.03 0.02 0.01 0.00 0.00 0.00 0.00 0.00 0.00 0.00
0.00 0.00 0.00 0.00 0.00 0.00 0.00 0.00 0.00 0.00 0.00 0.00 0.00 0.00 0.00 0.00 0.00 0.00 0.00 0.00 0.00 0.00 0.00 0.00 0.01 0.00 0.00 0.00 0.01 0.02 0.02 0.06 0.06 0.03 0.02 0.01 0.01 0.00 0.00 0.00 0.00 0.00 0.00 0.00
0.00 0.00 0.00 0.00 0.00 0.00 0.00 0.00 0.00 0.00 0.00 0.00 0.00 0.00 0.00 0.00 0.00 0.00 0.00 0.00 0.00 0.00 0.00 0.01 0.00 0.01 0.01 0.01 0.04 0.04 0.07 0.05 0.03 0.03 0.03 0.02 0.01 0.00 0.00 0.00 0.01 0.01 0.01 0.00
0.00 0.00 0.00 0.00 0.00 0.00 0.00 0.00 0.00 0.00 0.00 0.00 0.00 0.00 0.00 0.00 0.00 0.00 0.00 0.00 0.00 0.00 0.00 0.00 0.00 0.00 0.02 0.02 0.02 0.02 0.04 0.04 0.03 0.03 0.03 0.03 0.01 0.00 0.00 0.01 0.00 0.01 0.00 0.00
0.00 0.00 0.00 0.00 0.00 0.00 0.00 0.00 0.00 0.00 0.00 0.00 0.00 0.00 0.00 0.00 0.00 0.00 0.00 0.00 0.00 0.00 0.00 0.00 0.00 0.00 0.00 0.01 0.03 0.02 0.02 0.01 0.02 0.03 0.04 0.02 0.01 0.00 0.00 0.00 0.00 0.00 0.01 0.06
0.00 0.00 0.00 0.00 0.00 0.00 0.00 0.00 0.00 0.00 0.00 0.00 0.00 0.00 0.00 0.00 0.00 0.00 0.00 0.00 0.00 0.00 0.00 0.00 0.00 0.00 0.00 0.00 0.02 0.02 0.02 0.02 0.02 0.02 0.02 0.01 0.00 0.00 0.00 0.00 0.01 0.08 0.13 0.06
0.01 0.00 0.00 0.00 0.00 0.00 0.00 0.00 0.00 0.00 0.00 0.00 0.00 0.00 0.00 0.00 0.00 0.00 0.00 0.00 0.00 0.00 0.00 0.00 0.00 0.00 0.00 0.00 0.00 0.02 0.01 0.01 0.00 0.00 0.00 0.00 0.00 0.00 0.02 0.10 0.17 0.09 0.01 0.00
0.00 0.01 0.00 0.00 0.00 0.00 0.00 0.00 0.00 0.00 0.00 0.00 0.00 0.00 0.00 0.00 0.00 0.00 0.00 0.00 0.00 0.00 0.00 0.00 0.00 0.00 0.00 0.00 0.00 0.00 0.00 0.00 0.00 0.00 0.00 0.01 0.06 0.15 0.20 0.12 0.03 0.00 0.00 0.00
0.00 0.00 0.00 0.00 0.00 0.00 0.00 0.00 0.00 0.00 0.00 0.00 0.00 0.00 0.00 0.00 0.00 0.00 0.00 0.00 0.00 0.00 0.00 0.00 0.00 0.00 0.00 0.00 0.00 0.00 0.00 0.01 0.02 0.03 0.07 0.12 0.15 0.09 0.03 0.00 0.00 0.00 0.00 0.00
0.00 0.00 0.00 0.00 0.00 0.00 0.00 0.00 0.00 0.00 0.00 0.00 0.00 0.00 0.00 0.00 0.00 0.00 0.00 0.00 0.00 0.00 0.00 0.00 0.00 0.00 0.00 0.00 0.00 0.01 0.02 0.03 0.03 0.02 0.04 0.04 0.01 0.00 0.00 0.00 0.00 0.00 0.00 0.00
0.00 0.00 0.00 0.00 0.00 0.00 0.00 0.00 0.00 0.00 0.00 0.00 0.00 0.00 0.00 0.00 0.00 0.00 0.00 0.00 0.00 0.00 0.00 0.00 0.00 0.00 0.00 0.00 0.02 0.04 0.03 0.03 0.02 0.01 0.01 0.01 0.00 0.00 0.00 0.00 0.00 0.00 0.00 0.00
0.00 0.00 0.00 0.00 0.00 0.00 0.00 0.00 0.00 0.00 0.00 0.00 0.00 0.00 0.00 0.00 0.00 0.00 0.00 0.01 0.01 0.00 0.00 0.02 0.02 0.02 0.04 0.05 0.03 0.02 0.01 0.00 0.01 0.01 0.00 0.00 0.00 0.00 0.00 0.00 0.00 0.00 0.00 0.00
0.00 0.00 0.00 0.00 0.00 0.00 0.00 0.00 0.00 0.00 0.00 0.00 0.00 0.00 0.00 0.00 0.00 0.01 0.01 0.02 0.03 0.04 0.04 0.04 0.05 0.06 0.03 0.01 0.01 0.01 0.01 0.00 0.00 0.00 0.00 0.00 0.01 0.00 0.00 0.00 0.00 0.00 0.00 0.00
0.00 0.00 0.00 0.00 0.00 0.00 0.00 0.00 0.00 0.00 0.00 0.00 0.00 0.00 0.00 0.00 0.00 0.01 0.03 0.04 0.03 0.02 0.03 0.03 0.02 0.01 0.01 0.01 0.01 0.00 0.00 0.00 0.00 0.00 0.00 0.00 0.01 0.01 0.01 0.00 0.00 0.00 0.00 0.00

GFSCGP_prec_precacc24_042.txt.gz
Total_Precipitation_Accumulation
0.01 0.00 0.00 0.00 0.00 0.00 0.00 0.00 0.00 0.00 0.00 0.00 0.00 0.00 0.00 0.00 0.00 0.00 0.00 0.00 0.01 0.00 0.01 0.02 0.02 0.04 0.04 0.00 0.10 0.17 0.33 0.31 0.16 0.05 0.02 0.01 0.01 0.01 0.00 0.00 0.00 0.00 0.00 0.00
0.00 0.00 0.00 0.00 0.00 0.00 0.00 0.00 0.00 0.00 0.00 0.00 0.00 0.00 0.00 0.00 0.00 0.00 0.00 0.00 0.00 0.00 0.00 0.00 0.01 0.02 0.03 0.03 0.09 0.14 0.09 0.06 0.08 0.05 0.03 0.00 0.00 0.00 0.00 0.00 0.00 0.00 0.00 0.00
0.01 0.00 0.00 0.00 0.00 0.00 0.00 0.00 0.00 0.00 0.00 0.00 0.00 0.00 0.00 0.00 0.00 0.00 0.00 0.02 0.00 0.00 0.00 0.01 0.00 0.00 0.01 0.00 0.01 0.07 0.13 0.07 0.09 0.04 0.00 0.00 0.00 0.00 0.00 0.00 0.00 0.00 0.00 0.00
0.01 0.00 0.00 0.00 0.00 0.00 0.00 0.00 0.00 0.00 0.00 0.00 0.00 0.00 0.02 0.01 0.00 0.00 0.00 0.01 0.01 0.00 0.01 0.01 0.00 0.01 0.00 0.04 0.08 0.12 0.10 0.09 0.03 0.01 0.00 0.00 0.00 0.00 0.00 0.00 0.00 0.00 0.00 0.00
0.01 0.00 0.00 0.00 0.00 0.00 0.00 0.00 0.00 0.00 0.00 0.06 0.02 0.00 0.02 0.02 0.00 0.00 0.00 0.00 0.01 0.00 0.00 0.02 0.01 0.03 0.05 0.04 0.08 0.09 0.10 0.13 0.04 0.02 0.00 0.01 0.01 0.00 0.00 0.00 0.00 0.00 0.00 0.00
0.01 0.00 0.01 0.03 0.00 0.00 0.00 0.00 0.00 0.00 0.00 0.01 0.01 0.01 0.01 0.00 0.01 0.03 0.02 0.00 0.00 0.01 0.08 0.06 0.04 0.06 0.06 0.07 0.20 0.11 0.10 0.08 0.07 0.04 0.01 0.04 0.07 0.06 0.03 0.03 0.01 0.00 0.00 0.00
0.00 0.00 0.00 0.00 0.00 0.00 0.00 0.00 0.00 0.06 0.01 0.00 0.00 0.01 0.00 0.00 0.02 0.11 0.07 0.00 0.00 0.01 0.04 0.02 0.02 0.05 0.05 0.09 0.20 0.10 0.04 0.05 0.04 0.03 0.03 0.03 0.10 0.07 0.07 0.04 0.02 0.01 0.00 0.00
0.00 0.00 0.00 0.00 0.00 0.01 0.00 0.00 0.00 0.09 0.05 0.00 0.01 0.01 0.00 0.00 0.00 0.00 0.00 0.00 0.00 0.00 0.00 0.01 0.02 0.04 0.07 0.17 0.18 0.08 0.03 0.05 0.04 0.01 0.02 0.01 0.05 0.08 0.11 0.07 0.04 0.01 0.00 0.00
0.03 0.02 0.01 0.00 0.00 0.00 0.00 0.00 0.00 0.00 0.01 0.00 0.00 0.00 0.00 0.00 0.00 0.00 0.00 0.00 0.00 0.00 0.00 0.00 0.01 0.00 0.02 0.23 0.16 0.04 0.02 0.01 0.02 0.02 0.01 0.01 0.04 0.10 0.22 0.10 0.03 0.01 0.00 0.00
0.06 0.11 0.02 0.00 0.00 0.00 0.00 0.00 0.00 0.00 0.00 0.00 0.00 0.00 0.00 0.01 0.00 0.00 0.00 0.00 0.00 0.00 0.00 0.00 0.00 0.00 0.01 0.06 0.03 0.00 0.00 0.00 0.00 0.00 0.04 0.07 0.10 0.12 0.11 0.08 0.03 0.02 0.01 0.01
0.00 0.05 0.07 0.00 0.00 0.00 0.00 0.00 0.00 0.00 0.00 0.00 0.00 0.00 0.00 0.00 0.00 0.00 0.00 0.00 0.00 0.00 0.00 0.00 0.00 0.00 0.00 0.00 0.00 0.00 0.00 0.00 0.00 0.00 0.01 0.06 0.08 0.09 0.09 0.06 0.03 0.01 0.00 0.00
0.00 0.00 0.01 0.00 0.00 0.00 0.00 0.00 0.01 0.00 0.00 0.00 0.00 0.00 0.00 0.00 0.00 0.00 0.00 0.00 0.00 0.00 0.00 0.00 0.00 0.00 0.00 0.00 0.00 0.01 0.01 0.02 0.03 0.07 0.08 0.13 0.11 0.08 0.04 0.03 0.01 0.00 0.00 0.00
0.00 0.00 0.00 0.00 0.00 0.01 0.00 0.00 0.00 0.00 0.00 0.00 0.00 0.00 0.00 0.00 0.00 0.00 0.00 0.00 0.00 0.00 0.00 0.00 0.00 0.00 0.00 0.00 0.00 0.04 0.02 0.03 0.12 0.13 0.09 0.08 0.05 0.03 0.01 0.01 0.00 0.00 0.01 0.02
0.00 0.00 0.00 0.00 0.00 0.00 0.00 0.00 0.00 0.00 0.00 0.00 0.00 0.00 0.00 0.00 0.00 0.00 0.00 0.00 0.00 0.00 0.00 0.00 0.01 0.00 0.00 0.00 0.05 0.08 0.06 0.11 0.17 0.12 0.08 0.05 0.03 0.02 0.01 0.01 0.00 0.00 0.01 0.01
0.00 0.00 0.00 0.00 0.00 0.00 0.00 0.00 0.00 0.00 0.00 0.00 0.00 0.00 0.00 0.00 0.00 0.00 0.00 0.00 0.00 0.00 0.00 0.01 0.00 0.01 0.02 0.03 0.08 0.09 0.10 0.09 0.07 0.07 0.06 0.04 0.02 0.01 0.00 0.01 0.01 0.01 0.01 0.01
0.00 0.00 0.00 0.00 0.00 0.00 0.00 0.00 0.00 0.00 0.00 0.00 0.00 0.00 0.00 0.00 0.00 0.00 0.00 0.00 0.00 0.00 0.00 0.00 0.00 0.00 0.02 0.03 0.03 0.03 0.04 0.05 0.04 0.04 0.04 0.03 0.02 0.01 0.01 0.01 0.01 0.01 0.01 0.02
0.00 0.00 0.00 0.00 0.00 0.00 0.00 0.00 0.00 0.00 0.00 0.00 0.00 0.00 0.00 0.00 0.00 0.00 0.00 0.00 0.00 0.00 0.00 0.00 0.00 0.00 0.00 0.01 0.03 0.02 0.02 0.01 0.02 0.04 0.05 0.03 0.01 0.01 0.00 0.00 0.00 0.00 0.04 0.18
0.00 0.00 0.00 0.00 0.00 0.00 0.00 0.00 0.00 0.00 0.00 0.00 0.00 0.00 0.00 0.00 0.00 0.00 0.00 0.00 0.00 0.00 0.00 0.00 0.00 0.00 0.00 0.00 0.02 0.02 0.02 0.02 0.02 0.02 0.02 0.01 0.00 0.00 0.00 0.00 0.01 0.12 0.25 0.17
0.01 0.00 0.00 0.00 0.00 0.00 0.00 0.00 0.00 0.00 0.00 0.00 0.00 0.00 0.00 0.00 0.00 0.00 0.00 0.00 0.00 0.00 0.00 0.00 0.00 0.00 0.00 0.00 0.00 0.02 0.01 0.01 0.00 0.00 0.00 0.00 0.00 0.00 0.02 0.14 0.31 0.29 0.14 0.03
0.00 0.01 0.00 0.00 0.00 0.00 0.00 0.00 0.00 0.00 0.00 0.00 0.00 0.00 0.00 0.00 0.00 0.00 0.00 0.00 0.00 0.00 0.00 0.00 0.00 0.00 0.00 0.00 0.00 0.00 0.00 0.00 0.00 0.00 0.00 0.01 0.06 0.19 0.30 0.25 0.09 0.01 0.00 0.00
0.00 0.00 0.00 0.00 0.00 0.00 0.00 0.00 0.00 0.00 0.00 0.00 0.00 0.00 0.00 0.00 0.00 0.00 0.00 0.00 0.00 0.00 0.00 0.00 0.00 0.00 0.00 0.00 0.00 0.00 0.00 0.01 0.02 0.03 0.07 0.13 0.17 0.12 0.04 0.01 0.00 0.00 0.00 0.00
0.00 0.00 0.00 0.00 0.00 0.00 0.00 0.00 0.00 0.00 0.00 0.00 0.00 0.00 0.00 0.00 0.00 0.00 0.00 0.00 0.00 0.00 0.00 0.00 0.00 0.00 0.00 0.00 0.00 0.01 0.02 0.03 0.03 0.03 0.04 0.04 0.01 0.00 0.00 0.00 0.00 0.00 0.00 0.00
0.00 0.00 0.00 0.00 0.00 0.00 0.00 0.00 0.00 0.00 0.00 0.00 0.00 0.00 0.00 0.00 0.00 0.00 0.00 0.00 0.00 0.00 0.00 0.00 0.00 0.00 0.00 0.00 0.02 0.04 0.03 0.03 0.02 0.01 0.01 0.01 0.00 0.00 0.00 0.00 0.00 0.00 0.00 0.00
0.00 0.00 0.00 0.00 0.00 0.00 0.00 0.00 0.00 0.00 0.00 0.00 0.00 0.00 0.00 0.00 0.00 0.00 0.00 0.00 0.00 0.00 0.00 0.02 0.02 0.02 0.04 0.05 0.03 0.02 0.01 0.00 0.01 0.01 0.00 0.00 0.00 0.00 0.00 0.00 0.00 0.00 0.00 0.00
0.00 0.00 0.00 0.00 0.00 0.00 0.00 0.00 0.00 0.00 0.00 0.00 0.00 0.00 0.00 0.00 0.00 0.00 0.00 0.01 0.03 0.04 0.04 0.04 0.05 0.06 0.03 0.01 0.01 0.01 0.01 0.00 0.00 0.00 0.00 0.00 0.00 0.00 0.00 0.00 0.00 0.00 0.00 0.00
0.00 0.00 0.00 0.00 0.00 0.00 0.00 0.00 0.00 0.00 0.00 0.00 0.00 0.00 0.00 0.00 0.00 0.00 0.02 0.04 0.03 0.02 0.03 0.03 0.02 0.01 0.01 0.01 0.01 0.00 0.00 0.00 0.00 0.00 0.00 0.00 0.00 0.00 0.00 0.00 0.00 0.00 0.00 0.00

GFSCGP_prec_precacc24_045.txt.gz
Total_Precipitation_Accumulation
0.01 0.00 0.00 0.00 0.00 0.00 0.00 0.00 0.00 0.00 0.00 0.00 0.00 0.00 0.00 0.00 0.00 0.00 0.00 0.00 0.01 0.00 0.00 0.00 0.00 0.00 0.00 0.00 0.06 0.05 0.09 0.07 0.02 0.01 0.02 0.01 0.01 0.01 0.00 0.01 0.00 0.00 0.00 0.00
0.00 0.00 0.00 0.00 0.00 0.00 0.00 0.00 0.00 0.00 0.00 0.00 0.00 0.00 0.00 0.00 0.00 0.00 0.00 0.00 0.00 0.00 0.00 0.00 0.00 0.00 0.00 0.00 0.03 0.06 0.03 0.04 0.08 0.05 0.03 0.00 0.00 0.00 0.00 0.00 0.00 0.00 0.00 0.00
0.01 0.00 0.00 0.00 0.00 0.00 0.00 0.00 0.00 0.00 0.00 0.00 0.00 0.00 0.00 0.00 0.00 0.00 0.00 0.02 0.00 0.00 0.00 0.01 0.00 0.00 0.00 0.00 0.01 0.07 0.13 0.07 0.09 0.04 0.00 0.00 0.00 0.00 0.00 0.00 0.00 0.00 0.00 0.00
0.01 0.00 0.00 0.00 0.00 0.00 0.00 0.00 0.00 0.00 0.00 0.00 0.00 0.00 0.02 0.01 0.00 0.00 0.00 0.01 0.01 0.00 0.01 0.01 0.00 0.01 0.00 0.04 0.08 0.12 0.10 0.09 0.03 0.01 0.00 0.00 0.00 0.00 0.02 0.05 0.02 0.01 0.00 0.00
0.01 0.00 0.00 0.00 0.00 0.00 0.00 0.00 0.00 0.00 0.00 0.06 0.02 0.00 0.02 0.02 0.00 0.00 0.00 0.00 0.01 0.00 0.00 0.02 0.01 0.03 0.05 0.04 0.08 0.09 0.10 0.13 0.04 0.02 0.00 0.01 0.01 0.01 0.03 0.04 0.02 0.00 0.00 0.00
0.01 0.00 0.01 0.03 0.00 0.00 0.00 0.00 0.00 0.00 0.00 0.01 0.01 0.01 0.01 0.00 0.01 0.03 0.02 0.00 0.00 0.01 0.08 0.06 0.04 0.06 0.06 0.07 0.20 0.11 0.11 0.08 0.07 0.04 0.01 0.04 0.07 0.06 0.04 0.05 0.02 0.01 0.00 0.00
0.00 0.00 0.00 0.00 0.00 0.00 0.00 0.00 0.00 0.06 0.01 0.00 0.00 0.01 0.00 0.00 0.02 0.11 0.07 0.00 0.00 0.01 0.04 0.02 0.02 0.05 0.05 0.09 0.20 0.10 0.04 0.06 0.04 0.03 0.04 0.05 0.11 0.07 0.07 0.05 0.04 0.04 0.02 0.01
0.00 0.00 0.00 0.00 0.00 0.01 0.00 0.00 0.00 0.09 0.05 0.00 0.01 0.01 0.00 0.00 0.00 0.00 0.00 0.00 0.00 0.00 0.00 0.01 0.02 0.05 0.07 0.17 0.18 0.08 0.03 0.06 0.06 0.08 0.05 0.03 0.06 0.09 0.12 0.10 0.08 0.05 0.03 0.02
0.03 0.02 0.01 0.00 0.00 0.00 0.00 0.00 0.00 0.00 0.01 0.00 0.00 0.00 0.00 0.00 0.00 0.00 0.00 0.00 0.00 0.00 0.00 0.00 0.01 0.00 0.02 0.23 0.16 0.04 0.02 0.01 0.03 0.10 0.05 0.02 0.05 0.11 0.26 0.16 0.09 0.05 0.03 0.02
0.06 0.11 0.02 0.00 0.00 0.00 0.00 0.00 0.00 0.00 0.00 0.00 0.00 0.00 0.00 0.01 0.00 0.00 0.00 0.00 0.00 0.00 0.00 0.00 0.00 0.00 0.01 0.06 0.03 0.01 0.00 0.01 0.00 0.01 0.07 0.08 0.12 0.14 0.16 0.16 0.12 0.09 0.04 0.02
0.00 0.05 0.07 0.00 0.00 0.00 0.00 0.00 0.00 0.00 0.00 0.00 0.00 0.00 0.00 0.00 0.00 0.00 0.00 0.00 0.00 0.00 0.00 0.00 0.00 0.00 0.00 0.00 0.00 0.00 0.00 0.01 0.01 0.01 0.03 0.07 0.12 0.17 0.22 0.19 0.13 0.06 0.03 0.01
0.00 0.00 0.01 0.00 0.00 0.00 0.00 0.00 0.01 0.00 0.00 0.00 0.00 0.00 0.00 0.00 0.00 0.00 0.00 0.00 0.00 0.00 0.00 0.00 0.00 0.00 0.00 0.00 0.00 0.01 0.01 0.03 0.05 0.09 0.12 0.19 0.20 0.20 0.16 0.12 0.08 0.04 0.02 0.01
0.00 0.00 0.00 0.00 0.00 0.01 0.00 0.00 0.00 0.00 0.00 0.00 0.00 0.00 0.00 0.00 0.00 0.00 0.00 0.00 0.00 0.00 0.00 0.00 0.00 0.00 0.00 0.00 0.00 0.04 0.05 0.06 0.15 0.16 0.14 0.14 0.12 0.10 0.10 0.09 0.06 0.03 0.02 0.02
0.00 0.00 0.00 0.00 0.00 0.00 0.00 0.00 0.00 0.00 0.00 0.00 0.00 0.00 0.00 0.00 0.00 0.00 0.00 0.00 0.00 0.00 0.00 0.00 0.01 0.00 0.00 0.01 0.06 0.08 0.09 0.13 0.20 0.16 0.11 0.10 0.10 0.11 0.07 0.04 0.02 0.01 0.01 0.01
0.00 0.00 0.00 0.00 0.00 0.00 0.00 0.00 0.00 0.00 0.00 0.00 0.00 0.00 0.00 0.00 0.00 0.00 0.00 0.00 0.00 0.00 0.00 0.01 0.00 0.01 0.02 0.04 0.09 0.09 0.10 0.10 0.09 0.09 0.09 0.07 0.04 0.02 0.01 0.01 0.01 0.01 0.01 0.01
0.00 0.00 0.00 0.00 0.00 0.00 0.00 0.00 0.00 0.00 0.00 0.00 0.00 0.00 0.00 0.00 0.00 0.00 0.00 0.00 0.00 0.00 0.00 0.00 0.00 0.00 0.02 0.03 0.03 0.03 0.04 0.05 0.04 0.04 0.04 0.03 0.02 0.01 0.01 0.01 0.01 0.01 0.02 0.03
0.00 0.00 0.00 0.00 0.00 0.00 0.00 0.00 0.00 0.00 0.00 0.00 0.00 0.00 0.00 0.00 0.00 0.00 0.00 0.00 0.00 0.00 0.00 0.00 0.00 0.00 0.00 0.01 0.03 0.02 0.02 0.01 0.02 0.04 0.05 0.03 0.01 0.01 0.00 0.00 0.00 0.00 0.05 0.21
0.00 0.00 0.00 0.00 0.00 0.00 0.00 0.00 0.00 0.00 0.00 0.00 0.00 0.00 0.00 0.00 0.00 0.00 0.00 0.00 0.00 0.00 0.00 0.00 0.00 0.00 0.00 0.00 0.02 0.02 0.02 0.02 0.02 0.02 0.02 0.01 0.00 0.00 0.00 0.00 0.02 0.14 0.31 0.31
0.01 0.00 0.00 0.00 0.00 0.00 0.00 0.00 0.00 0.00 0.00 0.00 0.00 0.00 0.00 0.00 0.00 0.00 0.00 0.00 0.00 0.00 0.00 0.00 0.00 0.00 0.00 0.00 0.00 0.02 0.01 0.01 0.00 0.00 0.00 0.00 0.00 0.00 0.02 0.15 0.35 0.37 0.21 0.06
0.00 0.01 0.00 0.00 0.00 0.00 0.00 0.00 0.00 0.00 0.00 0.00 0.00 0.00 0.00 0.00 0.00 0.00 0.00 0.00 0.00 0.00 0.00 0.00 0.00 0.00 0.00 0.00 0.00 0.00 0.00 0.00 0.00 0.00 0.00 0.01 0.06 0.19 0.31 0.28 0.11 0.01 0.00 0.00
0.00 0.00 0.00 0.00 0.00 0.00 0.00 0.00 0.00 0.00 0.00 0.00 0.00 0.00 0.00 0.00 0.00 0.00 0.00 0.00 0.00 0.00 0.00 0.00 0.00 0.00 0.00 0.00 0.00 0.00 0.00 0.01 0.02 0.03 0.07 0.13 0.17 0.12 0.05 0.01 0.00 0.00 0.00 0.00
0.00 0.00 0.00 0.00 0.00 0.00 0.00 0.00 0.00 0.00 0.00 0.00 0.00 0.00 0.00 0.00 0.00 0.00 0.00 0.00 0.00 0.00 0.00 0.00 0.00 0.00 0.00 0.00 0.00 0.01 0.02 0.03 0.03 0.03 0.04 0.04 0.01 0.00 0.00 0.00 0.00 0.00 0.00 0.00
0.00 0.00 0.00 0.00 0.00 0.00 0.00 0.00 0.00 0.00 0.00 0.00 0.00 0.00 0.00 0.00 0.00 0.00 0.00 0.00 0.00 0.00 0.00 0.00 0.00 0.00 0.00 0.00 0.02 0.04 0.03 0.03 0.02 0.01 0.01 0.01 0.00 0.00 0.00 0.00 0.00 0.00 0.00 0.00
0.00 0.00 0.00 0.00 0.00 0.00 0.00 0.00 0.00 0.00 0.00 0.00 0.00 0.00 0.00 0.00 0.00 0.00 0.00 0.00 0.00 0.00 0.00 0.02 0.02 0.02 0.04 0.05 0.03 0.02 0.01 0.00 0.01 0.01 0.00 0.00 0.00 0.00 0.00 0.00 0.00 0.00 0.00 0.00
0.00 0.01 0.00 0.00 0.00 0.00 0.00 0.00 0.00 0.00 0.00 0.00 0.00 0.00 0.00 0.00 0.00 0.00 0.00 0.00 0.00 0.01 0.03 0.04 0.05 0.06 0.03 0.01 0.01 0.01 0.01 0.00 0.00 0.00 0.00 0.00 0.00 0.00 0.00 0.00 0.00 0.00 0.00 0.00
0.00 0.00 0.00 0.00 0.00 0.00 0.00 0.00 0.00 0.00 0.00 0.00 0.00 0.00 0.00 0.00 0.00 0.00 0.00 0.00 0.01 0.02 0.03 0.03 0.02 0.01 0.01 0.01 0.01 0.00 0.00 0.00 0.00 0.00 0.00 0.00 0.00 0.00 0.00 0.00 0.00 0.00 0.00 0.00

GFSCGP_prec_precacc24_048.txt.gz
Total_Precipitation_Accumulation
0.01 0.00 0.00 0.00 0.00 0.00 0.00 0.00 0.00 0.00 0.00 0.00 0.00 0.00 0.00 0.00 0.00 0.00 0.00 0.00 0.01 0.00 0.00 0.00 0.00 0.00 0.00 0.00 0.05 0.05 0.03 0.02 0.04 0.01 0.02 0.01 0.01 0.01 0.00 0.01 0.00 0.00 0.01 0.00
0.00 0.00 0.00 0.00 0.00 0.00 0.00 0.00 0.00 0.00 0.00 0.00 0.00 0.00 0.00 0.00 0.00 0.00 0.00 0.00 0.00 0.00 0.00 0.00 0.00 0.00 0.00 0.00 0.02 0.05 0.03 0.04 0.08 0.05 0.03 0.00 0.00 0.00 0.00 0.00 0.00 0.00 0.00 0.00
0.01 0.00 0.00 0.00 0.00 0.00 0.00 0.00 0.00 0.00 0.00 0.00 0.00 0.00 0.00 0.00 0.00 0.00 0.00 0.02 0.00 0.00 0.00 0.01 0.00 0.00 0.00 0.00 0.01 0.07 0.13 0.07 0.09 0.04 0.00 0.00 0.00 0.00 0.00 0.01 0.02 0.01 0.00 0.00
0.01 0.00 0.00 0.00 0.00 0.00 0.00 0.00 0.00 0.00 0.00 0.00 0.00 0.00 0.02 0.01 0.00 0.00 0.00 0.01 0.01 0.00 0.01 0.01 0.00 0.01 0.00 0.04 0.08 0.12 0.10 0.09 0.03 0.01 0.00 0.00 0.00 0.00 0.02 0.06 0.03 0.02 0.00 0.00
0.01 0.00 0.00 0.00 0.00 0.00 0.00 0.00 0.00 0.00 0.00 0.06 0.02 0.00 0.02 0.02 0.00 0.00 0.00 0.00 0.01 0.00 0.00 0.02 0.01 0.03 0.05 0.04 0.08 0.09 0.10 0.13 0.04 0.02 0.00 0.01 0.01 0.01 0.03 0.04 0.04 0.02 0.01 0.00
0.01 0.00 0.01 0.03 0.00 0.00 0.00 0.00 0.00 0.00 0.00 0.01 0.01 0.01 0.01 0.00 0.01 0.03 0.02 0.00 0.00 0.01 0.08 0.06 0.04 0.06 0.06 0.07 0.20 0.11 0.11 0.08 0.07 0.04 0.01 0.04 0.07 0.06 0.04 0.05 0.03 0.02 0.02 0.01
0.00 0.00 0.00 0.00 0.00 0.00 0.00 0.00 0.00 0.06 0.01 0.00 0.00 0.01 0.00 0.00 0.02 0.11 0.07 0.00 0.00 0.01 0.04 0.02 0.02 0.05 0.05 0.09 0.20 0.10 0.04 0.06 0.04 0.03 0.06 0.10 0.15 0.10 0.08 0.06 0.05 0.05 0.03 0.02
0.00 0.00 0.00 0.00 0.00 0.01 0.00 0.00 0.00 0.09 0.05 0.00 0.01 0.01 0.00 0.00 0.00 0.00 0.00 0.00 0.00 0.00 0.00 0.01 0.02 0.05 0.07 0.17 0.18 0.08 0.03 0.06 0.06 0.09 0.06 0.08 0.14 0.12 0.13 0.11 0.08 0.06 0.04 0.03
0.03 0.02 0.01 0.00 0.00 0.00 0.00 0.00 0.00 0.00 0.01 0.00 0.00 0.00 0.00 0.00 0.00 0.00 0.00 0.00 0.00 0.00 0.00 0.00 0.01 0.00 0.02 0.23 0.17 0.04 0.02 0.01 0.03 0.12 0.11 0.06 0.15 0.16 0.28 0.17 0.09 0.07 0.07 0.06
0.06 0.11 0.02 0.00 0.00 0.00 0.00 0.00 0.00 0.00 0.00 0.00 0.00 0.00 0.00 0.01 0.00 0.00 0.00 0.00 0.00 0.00 0.00 0.00 0.00 0.00 0.01 0.06 0.05 0.01 0.00 0.01 0.00 0.01 0.07 0.08 0.12 0.15 0.18 0.18 0.14 0.15 0.10 0.06
0.00 0.05 0.07 0.00 0.00 0.00 0.00 0.00 0.00 0.00 0.00 0.00 0.00 0.00 0.00 0.00 0.00 0.00 0.00 0.00 0.00 0.00 0.00 0.00 0.00 0.00 0.00 0.00 0.00 0.00 0.00 0.01 0.01 0.01 0.03 0.07 0.13 0.18 0.23 0.23 0.18 0.12 0.07 0.04
0.00 0.00 0.01 0.00 0.00 0.00 0.00 0.00 0.01 0.00 0.00 0.00 0.00 0.00 0.00 0.00 0.00 0.00 0.00 0.00 0.00 0.00 0.00 0.00 0.00 0.00 0.00 0.00 0.00 0.01 0.01 0.03 0.05 0.09 0.12 0.19 0.20 0.21 0.17 0.16 0.13 0.10 0.07 0.04
0.00 0.00 0.00 0.00 0.00 0.01 0.00 0.00 0.00 0.00 0.00 0.00 0.00 0.00 0.00 0.00 0.00 0.00 0.00 0.00 0.00 0.00 0.00 0.00 0.00 0.00 0.00 0.00 0.00 0.04 0.05 0.06 0.15 0.16 0.14 0.14 0.13 0.11 0.14 0.14 0.12 0.09 0.07 0.04
0.00 0.00 0.00 0.00 0.00 0.00 0.00 0.00 0.00 0.00 0.00 0.00 0.00 0.00 0.00 0.00 0.00 0.00 0.00 0.00 0.00 0.00 0.00 0.00 0.01 0.00 0.00 0.01 0.06 0.08 0.09 0.13 0.20 0.17 0.12 0.10 0.11 0.13 0.10 0.07 0.05 0.03 0.03 0.01
0.00 0.00 0.00 0.00 0.00 0.00 0.00 0.00 0.00 0.00 0.00 0.00 0.00 0.00 0.00 0.00 0.00 0.00 0.00 0.00 0.00 0.00 0.00 0.01 0.00 0.01 0.02 0.04 0.09 0.09 0.12 0.11 0.10 0.11 0.12 0.09 0.04 0.02 0.01 0.01 0.01 0.01 0.01 0.01
0.00 0.00 0.00 0.00 0.00 0.00 0.00 0.00 0.00 0.00 0.00 0.00 0.00 0.00 0.00 0.00 0.00 0.00 0.00 0.00 0.00 0.00 0.00 0.00 0.00 0.00 0.02 0.03 0.03 0.04 0.05 0.05 0.04 0.04 0.04 0.03 0.02 0.01 0.01 0.01 0.01 0.01 0.02 0.03
0.00 0.00 0.00 0.00 0.00 0.00 0.00 0.00 0.00 0.00 0.00 0.00 0.00 0.00 0.00 0.00 0.00 0.00 0.00 0.00 0.00 0.00 0.00 0.00 0.00 0.00 0.00 0.01 0.03 0.02 0.02 0.01 0.02 0.04 0.05 0.03 0.01 0.01 0.00 0.00 0.00 0.01 0.05 0.22
0.00 0.00 0.00 0.00 0.00 0.00 0.00 0.00 0.00 0.00 0.00 0.00 0.00 0.00 0.00 0.00 0.00 0.00 0.00 0.00 0.00 0.00 0.00 0.00 0.00 0.00 0.00 0.00 0.02 0.02 0.02 0.02 0.02 0.02 0.02 0.01 0.00 0.00 0.00 0.00 0.02 0.14 0.32 0.33
0.01 0.00 0.00 0.00 0.00 0.00 0.00 0.00 0.00 0.00 0.00 0.00 0.00 0.00 0.00 0.00 0.00 0.00 0.00 0.00 0.00 0.00 0.00 0.00 0.00 0.00 0.00 0.00 0.00 0.02 0.01 0.01 0.00 0.00 0.00 0.00 0.00 0.00 0.02 0.15 0.35 0.37 0.22 0.06
0.00 0.01 0.00 0.00 0.00 0.00 0.00 0.00 0.00 0.00 0.00 0.00 0.00 0.00 0.00 0.00 0.00 0.00 0.00 0.00 0.00 0.00 0.00 0.00 0.00 0.00 0.00 0.00 0.00 0.00 0.00 0.00 0.00 0.00 0.00 0.01 0.06 0.19 0.31 0.28 0.11 0.01 0.00 0.00
0.00 0.00 0.00 0.00 0.00 0.00 0.00 0.00 0.00 0.00 0.00 0.00 0.00 0.00 0.00 0.00 0.00 0.00 0.00 0.00 0.00 0.00 0.00 0.00 0.00 0.00 0.00 0.00 0.00 0.00 0.00 0.01 0.02 0.03 0.07 0.13 0.17 0.12 0.05 0.01 0.00 0.00 0.00 0.00
0.00 0.00 0.00 0.00 0.00 0.00 0.00 0.00 0.00 0.00 0.00 0.00 0.00 0.00 0.00 0.00 0.00 0.00 0.00 0.00 0.00 0.00 0.00 0.00 0.00 0.00 0.00 0.00 0.00 0.01 0.02 0.03 0.03 0.03 0.04 0.04 0.01 0.00 0.00 0.00 0.00 0.00 0.00 0.00
0.00 0.00 0.00 0.00 0.00 0.00 0.00 0.00 0.00 0.00 0.00 0.00 0.00 0.00 0.00 0.00 0.00 0.00 0.00 0.00 0.00 0.00 0.00 0.00 0.00 0.00 0.00 0.00 0.02 0.04 0.03 0.03 0.02 0.01 0.01 0.01 0.00 0.00 0.00 0.00 0.00 0.00 0.00 0.00
0.00 0.00 0.00 0.00 0.00 0.00 0.00 0.00 0.00 0.00 0.00 0.00 0.00 0.00 0.00 0.00 0.00 0.00 0.00 0.00 0.00 0.00 0.00 0.00 0.00 0.01 0.04 0.05 0.03 0.02 0.01 0.00 0.01 0.01 0.00 0.00 0.00 0.00 0.00 0.00 0.00 0.00 0.00 0.00
0.00 0.01 0.01 0.00 0.00 0.00 0.00 0.00 0.00 0.00 0.00 0.00 0.00 0.00 0.00 0.00 0.00 0.00 0.00 0.00 0.00 0.00 0.00 0.01 0.04 0.05 0.03 0.01 0.01 0.01 0.01 0.00 0.00 0.00 0.00 0.00 0.00 0.00 0.00 0.00 0.00 0.00 0.00 0.00
0.00 0.00 0.00 0.00 0.01 0.00 0.00 0.00 0.00 0.00 0.00 0.00 0.00 0.00 0.00 0.00 0.00 0.00 0.00 0.00 0.00 0.00 0.01 0.02 0.01 0.01 0.01 0.01 0.01 0.00 0.00 0.00 0.00 0.00 0.00 0.00 0.00 0.00 0.00 0.00 0.00 0.00 0.00 0.00

GFSCGP_prec_precacc24_051.txt.gz
Total_Precipitation_Accumulation
0.01 0.00 0.00 0.00 0.00 0.00 0.00 0.00 0.00 0.00 0.00 0.00 0.00 0.00 0.00 0.00 0.00 0.00 0.00 0.00 0.01 0.00 0.00 0.00 0.00 0.00 0.00 0.00 0.04 0.03 0.03 0.02 0.08 0.02 0.02 0.01 0.00 0.01 0.01 0.04 0.01 0.02 0.02 0.00
0.00 0.00 0.00 0.00 0.00 0.00 0.00 0.00 0.00 0.00 0.00 0.00 0.00 0.00 0.00 0.00 0.00 0.00 0.00 0.00 0.00 0.00 0.00 0.00 0.00 0.00 0.00 0.00 0.02 0.04 0.02 0.02 0.10 0.06 0.02 0.00 0.00 0.00 0.00 0.01 0.02 0.02 0.03 0.00
0.00 0.00 0.00 0.00 0.00 0.00 0.00 0.00 0.00 0.00 0.00 0.00 0.00 0.00 0.00 0.00 0.00 0.00 0.00 0.02 0.00 0.00 0.00 0.01 0.00 0.00 0.00 0.00 0.00 0.06 0.11 0.05 0.11 0.04 0.00 0.00 0.00 0.00 0.00 0.01 0.03 0.03 0.01 0.00
0.00 0.00 0.00 0.00 0.00 0.00 0.00 0.00 0.00 0.00 0.00 0.00 0.00 0.00 0.01 0.01 0.00 0.00 0.00 0.01 0.01 0.00 0.01 0.01 0.00 0.00 0.00 0.04 0.08 0.11 0.08 0.09 0.03 0.01 0.00 0.00 0.00 0.00 0.02 0.06 0.03 0.03 0.03 0.02
0.01 0.00 0.00 0.00 0.00 0.00 0.00 0.00 0.00 0.00 0.00 0.06 0.02 0.00 0.01 0.02 0.00 0.00 0.00 0.00 0.01 0.00 0.00 0.02 0.01 0.03 0.05 0.04 0.08 0.09 0.10 0.13 0.04 0.02 0.00 0.01 0.01 0.01 0.03 0.04 0.05 0.03 0.01 0.01
0.00 0.00 0.01 0.03 0.00 0.00 0.00 0.00 0.00 0.00 0.00 0.01 0.01 0.01 0.01 0.00 0.01 0.03 0.02 0.00 0.00 0.01 0.08 0.06 0.04 0.06 0.06 0.07 0.20 0.11 0.11 0.08 0.07 0.04 0.01 0.04 0.07 0.06 0.04 0.05 0.04 0.03 0.02 0.01
0.00 0.00 0.00 0.00 0.00 0.00 0.00 0.00 0.01 0.08 0.02 0.00 0.00 0.01 0.01 0.01 0.02 0.11 0.07 0.00 0.00 0.01 0.04 0.02 0.02 0.05 0.05 0.09 0.20 0.10 0.04 0.06 0.04 0.03 0.06 0.10 0.15 0.10 0.08 0.06 0.05 0.05 0.03 0.03
0.00 0.00 0.00 0.00 0.00 0.01 0.00 0.00 0.01 0.14 0.07 0.02 0.02 0.01 0.00 0.00 0.00 0.00 0.00 0.00 0.00 0.00 0.00 0.01 0.02 0.05 0.07 0.17 0.18 0.08 0.03 0.06 0.06 0.12 0.16 0.14 0.15 0.12 0.13 0.11 0.08 0.06 0.05 0.04
0.03 0.02 0.01 0.00 0.00 0.00 0.00 0.00 0.00 0.01 0.02 0.00 0.01 0.00 0.00 0.00 0.00 0.00 0.00 0.00 0.00 0.00 0.00 0.00 0.01 0.00 0.02 0.23 0.17 0.04 0.02 0.01 0.03 0.15 0.22 0.13 0.21 0.17 0.28 0.17 0.10 0.09 0.12 0.08
0.06 0.11 0.02 0.00 0.00 0.00 0.00 0.00 0.00 0.00 0.02 0.01 0.00 0.00 0.00 0.01 0.00 0.00 0.00 0.00 0.00 0.00 0.00 0.00 0.00 0.00 0.01 0.06 0.05 0.01 0.00 0.01 0.00 0.01 0.07 0.08 0.12 0.17 0.19 0.19 0.19 0.22 0.16 0.09
0.00 0.05 0.07 0.00 0.00 0.00 0.00 0.00 0.00 0.00 0.00 0.01 0.00 0.00 0.00 0.00 0.00 0.00 0.00 0.00 0.00 0.00 0.00 0.00 0.00 0.00 0.00 0.00 0.00 0.00 0.00 0.01 0.01 0.01 0.03 0.07 0.14 0.18 0.24 0.24 0.23 0.16 0.09 0.06
0.00 0.00 0.01 0.00 0.00 0.00 0.00 0.00 0.01 0.00 0.00 0.00 0.00 0.00 0.00 0.00 0.00 0.00 0.00 0.00 0.00 0.00 0.00 0.00 0.00 0.00 0.00 0.00 0.00 0.01 0.01 0.03 0.05 0.09 0.12 0.20 0.21 0.21 0.18 0.16 0.14 0.10 0.08 0.05
0.00 0.00 0.00 0.00 0.00 0.01 0.00 0.00 0.00 0.00 0.00 0.00 0.00 0.00 0.00 0.00 0.00 0.00 0.00 0.00 0.00 0.00 0.00 0.00 0.00 0.00 0.00 0.00 0.00 0.04 0.05 0.06 0.15 0.16 0.14 0.15 0.15 0.12 0.14 0.15 0.13 0.10 0.08 0.07
0.00 0.00 0.00 0.00 0.00 0.00 0.00 0.00 0.00 0.00 0.00 0.00 0.00 0.00 0.00 0.00 0.00 0.00 0.00 0.00 0.00 0.00 0.00 0.00 0.01 0.00 0.00 0.01 0.06 0.08 0.09 0.13 0.20 0.17 0.13 0.11 0.12 0.14 0.11 0.08 0.06 0.03 0.03 0.02
0.00 0.00 0.00 0.00 0.00 0.00 0.00 0.00 0.00 0.00 0.00 0.00 0.00 0.00 0.00 0.00 0.00 0.00 0.00 0.00 0.00 0.00 0.00 0.01 0.00 0.01 0.02 0.04 0.09 0.09 0.12 0.12 0.12 0.15 0.15 0.11 0.06 0.03 0.02 0.02 0.01 0.01 0.01 0.01
0.00 0.00 0.00 0.00 0.00 0.00 0.00 0.00 0.00 0.00 0.00 0.00 0.00 0.00 0.00 0.00 0.00 0.00 0.00 0.00 0.00 0.00 0.00 0.00 0.00 0.00 0.02 0.03 0.04 0.05 0.07 0.06 0.05 0.05 0.05 0.04 0.02 0.01 0.01 0.01 0.01 0.01 0.02 0.03
0.00 0.00 0.00 0.00 0.00 0.00 0.00 0.00 0.00 0.00 0.00 0.00 0.00 0.00 0.00 0.00 0.00 0.00 0.00 0.00 0.00 0.00 0.00 0.00 0.00 0.00 0.00 0.01 0.05 0.02 0.02 0.02 0.02 0.04 0.05 0.03 0.01 0.01 0.00 0.00 0.00 0.01 0.05 0.22
0.00 0.00 0.00 0.00 0.00 0.00 0.00 0.00 0.00 0.00 0.00 0.00 0.00 0.00 0.00 0.00 0.00 0.00 0.00 0.00 0.00 0.00 0.00 0.00 0.00 0.00 0.00 0.00 0.02 0.02 0.02 0.02 0.02 0.02 0.02 0.01 0.00 0.00 0.00 0.00 0.02 0.14 0.32 0.33
0.01 0.01 0.00 0.00 0.00 0.00 0.00 0.00 0.00 0.00 0.00 0.00 0.00 0.00 0.00 0.00 0.00 0.00 0.00 0.00 0.00 0.00 0.00 0.00 0.00 0.00 0.00 0.00 0.00 0.02 0.01 0.01 0.00 0.00 0.00 0.00 0.00 0.00 0.02 0.15 0.35 0.37 0.22 0.06
0.00 0.01 0.03 0.01 0.00 0.00 0.00 0.00 0.00 0.00 0.00 0.00 0.00 0.00 0.00 0.00 0.00 0.00 0.00 0.00 0.00 0.00 0.00 0.00 0.00 0.00 0.00 0.00 0.00 0.00 0.00 0.00 0.00 0.00 0.00 0.01 0.06 0.19 0.31 0.28 0.11 0.01 0.00 0.00
0.00 0.00 0.01 0.01 0.00 0.00 0.00 0.00 0.00 0.00 0.00 0.00 0.00 0.00 0.00 0.00 0.00 0.00 0.00 0.00 0.00 0.00 0.00 0.00 0.00 0.00 0.00 0.00 0.00 0.00 0.00 0.01 0.02 0.03 0.07 0.13 0.17 0.12 0.05 0.01 0.00 0.00 0.00 0.00
0.01 0.01 0.01 0.01 0.02 0.00 0.00 0.00 0.00 0.00 0.00 0.00 0.00 0.00 0.00 0.00 0.00 0.00 0.00 0.00 0.00 0.00 0.00 0.00 0.00 0.00 0.00 0.00 0.00 0.00 0.02 0.03 0.03 0.02 0.04 0.04 0.01 0.00 0.00 0.00 0.00 0.00 0.00 0.00
0.00 0.02 0.03 0.01 0.00 0.00 0.00 0.00 0.00 0.00 0.00 0.00 0.00 0.00 0.00 0.00 0.00 0.00 0.00 0.00 0.00 0.00 0.00 0.00 0.00 0.00 0.00 0.00 0.01 0.03 0.03 0.02 0.01 0.01 0.01 0.01 0.00 0.00 0.00 0.00 0.00 0.00 0.00 0.00
0.00 0.00 0.00 0.00 0.00 0.00 0.00 0.00 0.00 0.00 0.00 0.00 0.00 0.00 0.00 0.00 0.00 0.00 0.00 0.00 0.00 0.00 0.00 0.00 0.00 0.00 0.01 0.02 0.02 0.01 0.00 0.00 0.01 0.01 0.00 0.00 0.00 0.00 0.00 0.00 0.00 0.00 0.00 0.00
0.00 0.01 0.01 0.00 0.00 0.00 0.00 0.00 0.00 0.00 0.00 0.00 0.00 0.00 0.00 0.00 0.00 0.00 0.00 0.00 0.00 0.00 0.00 0.00 0.00 0.01 0.01 0.00 0.00 0.00 0.00 0.00 0.00 0.00 0.00 0.00 0.00 0.00 0.00 0.00 0.00 0.00 0.00 0.00
0.00 0.00 0.00 0.00 0.01 0.00 0.00 0.00 0.00 0.00 0.00 0.00 0.00 0.00 0.00 0.00 0.00 0.00 0.00 0.00 0.00 0.00 0.00 0.00 0.00 0.00 0.00 0.00 0.00 0.00 0.00 0.00 0.00 0.00 0.00 0.00 0.00 0.00 0.00 0.00 0.00 0.00 0.00 0.00

GFSCGP_prec_precacc24_057.txt.gz
Total_Precipitation_Accumulation
0.00 0.00 0.00 0.00 0.00 0.00 0.00 0.00 0.00 0.00 0.00 0.00 0.00 0.01 0.02 0.03 0.04 0.04 0.02 0.01 0.00 0.00 0.00 0.00 0.00 0.00 0.00 0.00 0.00 0.00 0.00 0.01 0.08 0.02 0.00 0.00 0.00 0.01 0.01 0.04 0.01 0.04 0.07 0.04
0.00 0.00 0.00 0.00 0.00 0.00 0.00 0.00 0.00 0.00 0.00 0.00 0.00 0.00 0.00 0.01 0.17 0.03 0.01 0.01 0.00 0.00 0.00 0.00 0.00 0.00 0.00 0.00 0.00 0.02 0.01 0.01 0.07 0.03 0.00 0.00 0.00 0.00 0.00 0.01 0.03 0.06 0.10 0.04
0.00 0.00 0.00 0.00 0.00 0.00 0.00 0.00 0.00 0.00 0.00 0.00 0.00 0.00 0.00 0.00 0.02 0.04 0.03 0.03 0.00 0.00 0.00 0.00 0.00 0.00 0.00 0.00 0.00 0.01 0.04 0.02 0.04 0.00 0.00 0.00 0.00 0.00 0.00 0.01 0.03 0.04 0.04 0.03
0.00 0.00 0.00 0.00 0.00 0.00 0.00 0.00 0.00 0.00 0.00 0.00 0.00 0.00 0.00 0.00 0.00 0.05 0.01 0.01 0.01 0.00 0.01 0.00 0.00 0.00 0.00 0.01 0.02 0.03 0.06 0.07 0.02 0.00 0.01 0.00 0.00 0.00 0.02 0.06 0.03 0.04 0.05 0.05
0.00 0.00 0.00 0.00 0.00 0.00 0.00 0.00 0.00 0.00 0.00 0.00 0.00 0.00 0.00 0.00 0.00 0.00 0.00 0.01 0.01 0.00 0.00 0.01 0.01 0.02 0.04 0.04 0.05 0.06 0.09 0.12 0.03 0.01 0.00 0.02 0.01 0.01 0.03 0.04 0.05 0.03 0.02 0.03
0.00 0.00 0.00 0.00 0.00 0.00 0.00 0.00 0.00 0.00 0.00 0.00 0.00 0.00 0.00 0.00 0.00 0.00 0.00 0.01 0.00 0.01 0.04 0.03 0.04 0.06 0.04 0.06 0.19 0.10 0.10 0.08 0.06 0.04 0.01 0.06 0.13 0.08 0.06 0.05 0.04 0.05 0.04 0.01
0.00 0.00 0.00 0.00 0.00 0.00 0.00 0.00 0.00 0.03 0.01 0.00 0.00 0.00 0.00 0.00 0.00 0.00 0.00 0.00 0.00 0.00 0.01 0.01 0.02 0.05 0.04 0.08 0.20 0.10 0.04 0.06 0.04 0.03 0.06 0.10 0.21 0.17 0.17 0.09 0.06 0.13 0.08 0.03
0.00 0.00 0.00 0.00 0.00 0.00 0.00 0.00 0.01 0.08 0.06 0.02 0.03 0.00 0.00 0.00 0.00 0.00 0.00 0.00 0.00 0.00 0.00 0.01 0.02 0.05 0.07 0.17 0.18 0.08 0.03 0.06 0.06 0.13 0.25 0.22 0.21 0.28 0.40 0.30 0.15 0.24 0.14 0.10
0.00 0.00 0.00 0.00 0.00 0.00 0.00 0.00 0.00 0.01 0.01 0.03 0.04 0.00 0.00 0.00 0.00 0.00 0.00 0.00 0.00 0.00 0.00 0.00 0.01 0.00 0.02 0.23 0.17 0.04 0.02 0.02 0.03 0.15 0.26 0.15 0.36 0.63 0.50 0.40 0.34 0.33 0.34 0.34
0.00 0.00 0.00 0.00 0.00 0.00 0.00 0.00 0.00 0.00 0.05 0.05 0.00 0.00 0.00 0.00 0.00 0.00 0.00 0.00 0.00 0.00 0.00 0.00 0.00 0.00 0.01 0.06 0.05 0.01 0.02 0.06 0.04 0.05 0.08 0.11 0.18 0.30 0.36 0.32 0.27 0.40 0.50 0.35
0.00 0.00 0.00 0.00 0.00 0.00 0.00 0.00 0.00 0.00 0.00 0.04 0.03 0.00 0.00 0.00 0.00 0.00 0.00 0.00 0.00 0.00 0.00 0.00 0.00 0.00 0.00 0.00 0.00 0.00 0.01 0.08 0.12 0.30 0.33 0.25 0.34 0.34 0.42 0.31 0.37 0.28 0.24 0.35
0.00 0.00 0.00 0.00 0.00 0.00 0.00 0.00 0.00 0.01 0.00 0.01 0.01 0.00 0.00 0.00 0.00 0.00 0.00 0.00 0.00 0.00 0.00 0.00 0.00 0.00 0.00 0.00 0.00 0.01 0.01 0.12 0.27 0.67 0.85 0.57 0.67 0.55 0.44 0.33 0.24 0.25 0.17 0.12
0.00 0.00 0.00 0.00 0.00 0.01 0.00 0.00 0.00 0.00 0.00 0.01 0.03 0.00 0.00 0.00 0.00 0.00 0.00 0.00 0.00 0.00 0.00 0.00 0.00 0.00 0.00 0.01 0.01 0.04 0.13 0.25 0.52 0.67 0.69 0.46 0.50 0.55 0.46 0.37 0.20 0.12 0.12 0.10
0.00 0.00 0.00 0.00 0.00 0.00 0.00 0.00 0.00 0.00 0.00 0.00 0.00 0.00 0.00 0.00 0.00 0.00 0.00 0.00 0.00 0.00 0.00 0.00 0.01 0.00 0.00 0.01 0.06 0.13 0.28 0.32 0.43 0.32 0.26 0.17 0.19 0.37 0.18 0.15 0.12 0.08 0.06 0.05
0.00 0.00 0.00 0.00 0.00 0.00 0.00 0.00 0.00 0.00 0.00 0.00 0.00 0.00 0.00 0.00 0.00 0.00 0.00 0.00 0.00 0.00 0.00 0.01 0.00 0.00 0.01 0.04 0.09 0.10 0.15 0.19 0.26 0.31 0.28 0.22 0.10 0.09 0.07 0.06 0.06 0.04 0.05 0.03
0.00 0.00 0.00 0.00 0.00 0.00 0.00 0.00 0.00 0.00 0.00 0.00 0.00 0.00 0.00 0.00 0.00 0.00 0.00 0.00 0.00 0.00 0.00 0.00 0.00 0.00 0.00 0.01 0.03 0.08 0.10 0.14 0.10 0.07 0.10 0.06 0.03 0.05 0.05 0.05 0.03 0.02 0.03 0.04
0.00 0.00 0.00 0.00 0.00 0.00 0.00 0.00 0.00 0.00 0.00 0.00 0.00 0.00 0.00 0.00 0.00 0.00 0.00 0.00 0.00 0.00 0.00 0.00 0.00 0.01 0.01 0.03 0.08 0.04 0.04 0.04 0.04 0.07 0.09 0.04 0.02 0.03 0.02 0.01 0.00 0.01 0.05 0.22
0.04 0.00 0.00 0.00 0.00 0.01 0.00 0.00 0.00 0.00 0.00 0.00 0.00 0.00 0.00 0.00 0.00 0.00 0.00 0.00 0.00 0.00 0.00 0.00 0.00 0.02 0.08 0.10 0.03 0.03 0.03 0.03 0.02 0.02 0.02 0.03 0.01 0.01 0.00 0.00 0.02 0.14 0.32 0.33
0.06 0.03 0.05 0.02 0.01 0.00 0.00 0.00 0.00 0.00 0.00 0.00 0.00 0.00 0.00 0.00 0.00 0.00 0.00 0.00 0.00 0.00 0.00 0.00 0.00 0.00 0.01 0.01 0.01 0.03 0.03 0.01 0.01 0.00 0.00 0.00 0.00 0.00 0.02 0.15 0.35 0.36 0.21 0.06
0.23 0.09 0.09 0.07 0.01 0.00 0.00 0.00 0.00 0.00 0.00 0.00 0.00 0.00 0.00 0.00 0.00 0.00 0.00 0.00 0.00 0.00 0.00 0.00 0.00 0.00 0.00 0.00 0.00 0.00 0.00 0.00 0.00 0.00 0.00 0.01 0.06 0.19 0.30 0.26 0.10 0.01 0.00 0.00
0.19 0.13 0.04 0.06 0.09 0.00 0.00 0.00 0.00 0.00 0.00 0.00 0.00 0.00 0.00 0.00 0.00 0.00 0.00 0.00 0.00 0.00 0.00 0.00 0.00 0.00 0.00 0.00 0.00 0.00 0.00 0.00 0.01 0.02 0.06 0.12 0.15 0.11 0.04 0.01 0.00 0.00 0.00 0.00
0.06 0.09 0.07 0.06 0.07 0.01 0.00 0.00 0.00 0.00 0.00 0.00 0.00 0.00 0.00 0.00 0.00 0.00 0.00 0.00 0.00 0.00 0.00 0.00 0.00 0.00 0.00 0.00 0.00 0.00 0.01 0.01 0.01 0.01 0.02 0.03 0.01 0.00 0.00 0.00 0.00 0.00 0.00 0.00
0.02 0.04 0.07 0.04 0.01 0.01 0.01 0.00 0.00 0.00 0.00 0.00 0.00 0.00 0.00 0.00 0.00 0.00 0.00 0.00 0.00 0.00 0.00 0.00 0.00 0.00 0.00 0.00 0.00 0.00 0.00 0.00 0.00 0.00 0.00 0.00 0.00 0.00 0.00 0.00 0.00 0.00 0.00 0.00
0.00 0.00 0.01 0.03 0.01 0.01 0.02 0.04 0.01 0.00 0.00 0.00 0.00 0.00 0.02 0.03 0.00 0.00 0.00 0.00 0.00 0.00 0.00 0.00 0.00 0.00 0.00 0.00 0.00 0.00 0.00 0.00 0.00 0.00 0.00 0.00 0.00 0.00 0.00 0.00 0.00 0.00 0.00 0.00
0.00 0.01 0.01 0.02 0.00 0.00 0.00 0.04 0.07 0.05 0.02 0.00 0.00 0.00 0.00 0.00 0.00 0.00 0.00 0.00 0.00 0.00 0.00 0.00 0.00 0.00 0.00 0.00 0.00 0.00 0.00 0.00 0.00 0.00 0.00 0.00 0.00 0.00 0.00 0.00 0.00 0.00 0.00 0.00
0.00 0.00 0.00 0.01 0.01 0.01 0.00 0.00 0.00 0.01 0.02 0.01 0.00 0.00 0.00 0.00 0.00 0.00 0.00 0.00 0.00 0.00 0.00 0.00 0.00 0.00 0.00 0.00 0.00 0.00 0.00 0.00 0.00 0.00 0.00 0.00 0.00 0.00 0.00 0.00 0.00 0.00 0.00 0.00

GFSCGP_prec_precacc24_060.txt.gz
Total_Precipitation_Accumulation
0.00 0.00 0.00 0.00 0.00 0.00 0.00 0.00 0.00 0.00 0.00 0.00 0.00 0.01 0.02 0.03 0.03 0.03 0.02 0.01 0.00 0.00 0.00 0.00 0.00 0.00 0.00 0.00 0.00 0.00 0.00 0.01 0.08 0.02 0.00 0.00 0.00 0.01 0.01 0.04 0.01 0.04 0.07 0.04
0.00 0.00 0.00 0.00 0.00 0.00 0.00 0.00 0.00 0.00 0.00 0.00 0.00 0.00 0.00 0.01 0.17 0.03 0.01 0.01 0.00 0.00 0.00 0.00 0.00 0.00 0.00 0.00 0.00 0.01 0.00 0.01 0.07 0.03 0.00 0.00 0.00 0.00 0.00 0.01 0.03 0.06 0.10 0.04
0.00 0.00 0.00 0.00 0.00 0.00 0.00 0.00 0.00 0.00 0.00 0.00 0.00 0.00 0.00 0.00 0.02 0.04 0.03 0.03 0.00 0.00 0.00 0.00 0.00 0.00 0.00 0.00 0.00 0.00 0.02 0.02 0.03 0.00 0.00 0.00 0.00 0.00 0.00 0.01 0.03 0.04 0.04 0.03
0.00 0.00 0.00 0.00 0.00 0.00 0.00 0.00 0.00 0.00 0.00 0.00 0.00 0.00 0.00 0.00 0.00 0.05 0.01 0.01 0.01 0.00 0.00 0.00 0.00 0.00 0.00 0.00 0.00 0.00 0.02 0.05 0.01 0.00 0.01 0.00 0.00 0.00 0.02 0.06 0.03 0.04 0.05 0.05
0.00 0.00 0.00 0.00 0.00 0.00 0.00 0.00 0.00 0.00 0.00 0.00 0.00 0.00 0.00 0.00 0.00 0.00 0.00 0.01 0.01 0.00 0.00 0.01 0.01 0.01 0.01 0.00 0.00 0.01 0.06 0.10 0.03 0.01 0.00 0.02 0.01 0.01 0.03 0.04 0.05 0.03 0.02 0.03
0.00 0.00 0.00 0.00 0.00 0.00 0.00 0.00 0.00 0.00 0.00 0.00 0.00 0.00 0.00 0.00 0.00 0.00 0.00 0.01 0.00 0.01 0.03 0.03 0.03 0.05 0.02 0.01 0.05 0.03 0.08 0.07 0.06 0.04 0.01 0.06 0.13 0.08 0.06 0.05 0.04 0.05 0.04 0.01
0.00 0.00 0.00 0.00 0.00 0.00 0.00 0.00 0.00 0.03 0.01 0.00 0.00 0.00 0.00 0.00 0.00 0.00 0.00 0.00 0.00 0.00 0.00 0.01 0.01 0.05 0.04 0.05 0.13 0.06 0.03 0.06 0.04 0.03 0.06 0.10 0.21 0.17 0.17 0.09 0.06 0.13 0.08 0.03
0.00 0.00 0.00 0.00 0.00 0.00 0.00 0.00 0.01 0.08 0.06 0.02 0.03 0.00 0.00 0.00 0.00 0.00 0.00 0.00 0.00 0.00 0.00 0.00 0.01 0.05 0.07 0.13 0.16 0.07 0.03 0.06 0.06 0.13 0.25 0.22 0.21 0.28 0.40 0.30 0.16 0.24 0.14 0.10
0.00 0.00 0.00 0.00 0.00 0.00 0.00 0.00 0.00 0.01 0.01 0.03 0.04 0.00 0.00 0.00 0.00 0.00 0.00 0.00 0.00 0.00 0.00 0.00 0.00 0.00 0.02 0.20 0.17 0.04 0.02 0.02 0.03 0.15 0.26 0.15 0.36 0.63 0.50 0.40 0.37 0.34 0.35 0.34
0.00 0.00 0.00 0.00 0.00 0.00 0.00 0.00 0.00 0.00 0.05 0.05 0.00 0.00 0.00 0.00 0.00 0.00 0.00 0.00 0.00 0.00 0.00 0.00 0.00 0.00 0.01 0.06 0.05 0.01 0.02 0.06 0.08 0.05 0.08 0.11 0.18 0.30 0.40 0.33 0.37 0.57 0.54 0.35
0.00 0.00 0.00 0.00 0.00 0.00 0.00 0.00 0.00 0.00 0.00 0.04 0.03 0.00 0.00 0.00 0.00 0.00 0.00 0.00 0.00 0.00 0.00 0.00 0.00 0.00 0.00 0.00 0.00 0.00 0.01 0.09 0.16 0.34 0.39 0.26 0.37 0.35 0.58 0.57 0.72 0.57 0.46 0.43
0.00 0.00 0.00 0.00 0.00 0.00 0.00 0.00 0.00 0.01 0.00 0.01 0.01 0.00 0.00 0.00 0.00 0.00 0.00 0.00 0.00 0.00 0.00 0.00 0.00 0.00 0.00 0.00 0.00 0.01 0.01 0.13 0.34 0.93 1.08 0.71 0.85 0.70 0.66 0.75 0.72 0.72 0.50 0.19
0.00 0.00 0.00 0.00 0.00 0.00 0.00 0.00 0.00 0.00 0.00 0.01 0.03 0.00 0.00 0.00 0.00 0.00 0.00 0.00 0.00 0.00 0.00 0.00 0.00 0.00 0.00 0.01 0.01 0.04 0.14 0.30 0.76 0.98 0.95 0.72 0.74 0.67 0.49 0.54 0.42 0.23 0.19 0.15
0.00 0.00 0.00 0.00 0.00 0.00 0.00 0.00 0.00 0.00 0.00 0.00 0.00 0.00 0.01 0.00 0.00 0.00 0.00 0.00 0.00 0.00 0.00 0.00 0.01 0.00 0.00 0.01 0.07 0.14 0.29 0.41 0.75 0.48 0.49 0.36 0.34 0.51 0.26 0.30 0.20 0.12 0.10 0.08
0.02 0.01 0.00 0.00 0.00 0.00 0.00 0.00 0.00 0.00 0.00 0.00 0.00 0.00 0.00 0.00 0.00 0.00 0.00 0.00 0.00 0.00 0.00 0.00 0.00 0.00 0.01 0.04 0.09 0.10 0.15 0.22 0.36 0.38 0.38 0.28 0.16 0.18 0.12 0.16 0.15 0.08 0.07 0.04
0.02 0.01 0.00 0.00 0.00 0.00 0.00 0.00 0.00 0.00 0.00 0.00 0.00 0.00 0.00 0.00 0.00 0.00 0.00 0.00 0.00 0.00 0.00 0.00 0.00 0.00 0.00 0.01 0.02 0.07 0.10 0.18 0.14 0.11 0.15 0.10 0.08 0.11 0.11 0.10 0.07 0.06 0.06 0.06
0.10 0.05 0.01 0.00 0.00 0.00 0.00 0.00 0.00 0.00 0.00 0.00 0.00 0.00 0.00 0.00 0.00 0.00 0.00 0.00 0.00 0.00 0.00 0.00 0.00 0.01 0.01 0.03 0.07 0.03 0.03 0.05 0.05 0.09 0.11 0.06 0.04 0.06 0.06 0.05 0.04 0.03 0.06 0.23
0.19 0.10 0.06 0.02 0.01 0.03 0.02 0.00 0.00 0.00 0.00 0.00 0.00 0.00 0.00 0.00 0.00 0.00 0.00 0.00 0.00 0.00 0.00 0.00 0.00 0.02 0.08 0.10 0.03 0.02 0.01 0.02 0.02 0.03 0.03 0.04 0.02 0.03 0.04 0.04 0.03 0.15 0.32 0.33
0.16 0.22 0.24 0.08 0.02 0.01 0.00 0.00 0.00 0.00 0.00 0.00 0.00 0.00 0.00 0.00 0.00 0.00 0.00 0.00 0.00 0.00 0.00 0.00 0.00 0.00 0.01 0.01 0.01 0.01 0.02 0.01 0.00 0.01 0.01 0.01 0.00 0.02 0.03 0.14 0.33 0.35 0.21 0.06
0.31 0.29 0.29 0.19 0.07 0.01 0.00 0.00 0.00 0.00 0.00 0.00 0.00 0.00 0.00 0.00 0.00 0.00 0.00 0.00 0.00 0.00 0.00 0.00 0.00 0.00 0.00 0.01 0.01 0.01 0.01 0.00 0.01 0.01 0.01 0.01 0.05 0.15 0.25 0.24 0.10 0.01 0.00 0.00
0.22 0.35 0.31 0.25 0.20 0.03 0.00 0.00 0.00 0.00 0.00 0.00 0.00 0.00 0.00 0.00 0.00 0.00 0.00 0.00 0.00 0.00 0.00 0.00 0.00 0.00 0.00 0.00 0.00 0.00 0.00 0.00 0.00 0.02 0.04 0.06 0.09 0.07 0.03 0.01 0.00 0.00 0.00 0.00
0.06 0.15 0.20 0.27 0.28 0.08 0.00 0.00 0.00 0.00 0.00 0.00 0.00 0.00 0.00 0.00 0.00 0.00 0.00 0.00 0.00 0.00 0.00 0.00 0.00 0.00 0.00 0.00 0.00 0.00 0.00 0.00 0.00 0.01 0.00 0.01 0.01 0.00 0.00 0.00 0.00 0.00 0.00 0.00
0.03 0.04 0.07 0.07 0.06 0.03 0.02 0.02 0.01 0.00 0.00 0.00 0.00 0.00 0.00 0.00 0.00 0.00 0.00 0.00 0.00 0.00 0.00 0.00 0.00 0.00 0.00 0.00 0.00 0.00 0.00 0.00 0.00 0.00 0.00 0.00 0.00 0.00 0.00 0.00 0.00 0.00 0.00 0.00
0.00 0.00 0.01 0.03 0.01 0.01 0.03 0.04 0.01 0.00 0.00 0.00 0.00 0.00 0.03 0.03 0.01 0.00 0.00 0.00 0.00 0.00 0.00 0.00 0.00 0.00 0.00 0.00 0.00 0.00 0.00 0.00 0.00 0.00 0.00 0.00 0.00 0.00 0.00 0.00 0.00 0.00 0.00 0.00
0.00 0.01 0.01 0.02 0.00 0.00 0.00 0.04 0.07 0.05 0.02 0.00 0.00 0.00 0.00 0.00 0.00 0.00 0.00 0.00 0.00 0.00 0.00 0.00 0.00 0.00 0.00 0.00 0.00 0.00 0.00 0.00 0.00 0.00 0.00 0.00 0.00 0.00 0.00 0.00 0.00 0.00 0.00 0.00
0.00 0.01 0.02 0.02 0.02 0.01 0.01 0.00 0.00 0.01 0.02 0.01 0.00 0.00 0.00 0.00 0.00 0.00 0.00 0.00 0.00 0.00 0.00 0.00 0.00 0.00 0.00 0.00 0.00 0.00 0.00 0.00 0.00 0.00 0.00 0.00 0.00 0.00 0.00 0.00 0.00 0.00 0.00 0.00

GFSCGP_prec_precacc24_063.txt.gz
Total_Precipitation_Accumulation
0.00 0.00 0.00 0.00 0.00 0.00 0.00 0.00 0.00 0.00 0.00 0.00 0.00 0.01 0.02 0.03 0.03 0.03 0.02 0.00 0.00 0.00 0.00 0.00 0.00 0.00 0.00 0.00 0.00 0.00 0.00 0.01 0.08 0.02 0.00 0.01 0.02 0.02 0.01 0.04 0.01 0.05 0.07 0.05
0.00 0.00 0.00 0.00 0.00 0.00 0.00 0.00 0.00 0.00 0.00 0.00 0.00 0.00 0.00 0.01 0.17 0.03 0.01 0.00 0.00 0.00 0.00 0.00 0.00 0.00 0.00 0.00 0.00 0.00 0.00 0.01 0.07 0.03 0.00 0.00 0.00 0.00 0.00 0.01 0.03 0.06 0.10 0.04
0.00 0.00 0.00 0.00 0.00 0.00 0.00 0.00 0.00 0.00 0.00 0.00 0.00 0.00 0.00 0.00 0.02 0.04 0.03 0.01 0.00 0.00 0.00 0.00 0.00 0.00 0.00 0.00 0.00 0.00 0.00 0.00 0.03 0.00 0.00 0.00 0.00 0.00 0.00 0.01 0.03 0.04 0.04 0.03
0.00 0.00 0.00 0.00 0.00 0.00 0.00 0.00 0.00 0.00 0.00 0.00 0.00 0.00 0.00 0.00 0.00 0.05 0.01 0.00 0.00 0.00 0.00 0.00 0.00 0.00 0.00 0.00 0.00 0.00 0.00 0.00 0.00 0.00 0.01 0.00 0.00 0.00 0.02 0.06 0.03 0.04 0.05 0.05
0.00 0.00 0.00 0.00 0.00 0.00 0.00 0.00 0.00 0.00 0.00 0.00 0.00 0.00 0.00 0.00 0.00 0.00 0.00 0.00 0.00 0.00 0.00 0.00 0.00 0.00 0.00 0.00 0.00 0.00 0.00 0.02 0.01 0.00 0.00 0.01 0.01 0.01 0.03 0.04 0.05 0.03 0.02 0.03
0.00 0.00 0.00 0.00 0.00 0.00 0.00 0.00 0.00 0.00 0.00 0.00 0.00 0.00 0.00 0.00 0.00 0.00 0.00 0.01 0.00 0.00 0.00 0.00 0.00 0.00 0.00 0.00 0.00 0.00 0.01 0.02 0.05 0.02 0.01 0.04 0.11 0.08 0.05 0.05 0.04 0.05 0.04 0.01
0.00 0.00 0.00 0.00 0.00 0.00 0.00 0.00 0.00 0.03 0.01 0.00 0.00 0.00 0.00 0.00 0.00 0.00 0.00 0.00 0.00 0.00 0.00 0.00 0.00 0.00 0.00 0.00 0.00 0.00 0.00 0.02 0.01 0.02 0.05 0.09 0.18 0.15 0.15 0.08 0.06 0.13 0.08 0.03
0.00 0.00 0.00 0.00 0.00 0.00 0.00 0.00 0.01 0.08 0.06 0.02 0.03 0.00 0.00 0.00 0.00 0.00 0.00 0.00 0.00 0.00 0.00 0.00 0.00 0.02 0.02 0.01 0.00 0.00 0.01 0.04 0.04 0.13 0.25 0.21 0.19 0.25 0.35 0.29 0.16 0.24 0.14 0.10
0.00 0.00 0.00 0.00 0.00 0.00 0.00 0.00 0.00 0.01 0.01 0.03 0.04 0.00 0.00 0.00 0.00 0.00 0.00 0.00 0.00 0.00 0.00 0.00 0.00 0.00 0.01 0.07 0.04 0.02 0.02 0.01 0.03 0.15 0.26 0.15 0.35 0.61 0.45 0.38 0.36 0.37 0.39 0.36
0.00 0.00 0.00 0.00 0.00 0.00 0.00 0.00 0.00 0.00 0.05 0.05 0.00 0.00 0.00 0.00 0.00 0.00 0.00 0.00 0.00 0.00 0.00 0.00 0.00 0.00 0.01 0.03 0.03 0.02 0.06 0.13 0.14 0.05 0.08 0.10 0.16 0.28 0.38 0.32 0.36 0.59 0.63 0.47
0.00 0.00 0.00 0.00 0.00 0.00 0.00 0.00 0.00 0.00 0.00 0.04 0.03 0.00 0.00 0.00 0.00 0.00 0.00 0.00 0.00 0.00 0.00 0.00 0.00 0.00 0.00 0.00 0.00 0.00 0.01 0.15 0.29 0.46 0.41 0.26 0.36 0.35 0.57 0.60 0.75 0.59 0.55 0.63
0.00 0.00 0.00 0.00 0.00 0.00 0.00 0.00 0.00 0.01 0.00 0.01 0.01 0.00 0.00 0.00 0.00 0.00 0.00 0.00 0.00 0.00 0.00 0.00 0.00 0.00 0.00 0.00 0.00 0.01 0.01 0.13 0.41 1.15 1.23 0.75 0.88 0.77 0.73 0.80 0.77 0.81 0.78 0.72
0.00 0.00 0.00 0.00 0.00 0.00 0.00 0.00 0.00 0.00 0.00 0.01 0.03 0.00 0.00 0.00 0.00 0.00 0.00 0.00 0.00 0.00 0.00 0.00 0.00 0.00 0.00 0.01 0.01 0.04 0.14 0.30 0.86 1.13 1.03 0.81 0.97 1.09 0.71 0.62 0.48 0.31 0.32 0.35
0.00 0.00 0.00 0.00 0.00 0.00 0.00 0.00 0.00 0.00 0.00 0.00 0.00 0.00 0.01 0.00 0.00 0.00 0.00 0.00 0.00 0.00 0.00 0.00 0.00 0.00 0.00 0.01 0.06 0.12 0.27 0.36 0.72 0.53 0.56 0.44 0.42 0.57 0.27 0.31 0.25 0.19 0.13 0.12
0.04 0.02 0.00 0.00 0.00 0.00 0.00 0.00 0.00 0.00 0.00 0.00 0.00 0.00 0.00 0.00 0.00 0.00 0.00 0.00 0.00 0.00 0.00 0.00 0.00 0.00 0.01 0.04 0.06 0.07 0.09 0.18 0.35 0.37 0.39 0.28 0.18 0.21 0.12 0.17 0.17 0.11 0.10 0.10
0.05 0.05 0.01 0.00 0.00 0.00 0.00 0.00 0.00 0.00 0.00 0.00 0.00 0.00 0.00 0.00 0.00 0.00 0.00 0.00 0.00 0.00 0.00 0.00 0.00 0.00 0.00 0.00 0.02 0.06 0.08 0.16 0.12 0.10 0.13 0.09 0.09 0.13 0.12 0.11 0.08 0.07 0.09 0.12
0.10 0.12 0.05 0.02 0.00 0.00 0.01 0.00 0.00 0.00 0.00 0.00 0.00 0.00 0.00 0.00 0.00 0.00 0.00 0.00 0.00 0.00 0.00 0.00 0.00 0.01 0.01 0.03 0.07 0.03 0.03 0.05 0.05 0.08 0.10 0.05 0.04 0.09 0.09 0.07 0.06 0.06 0.09 0.22
0.19 0.13 0.17 0.09 0.02 0.08 0.03 0.00 0.00 0.00 0.00 0.00 0.00 0.00 0.00 0.00 0.00 0.00 0.00 0.00 0.00 0.00 0.00 0.00 0.00 0.02 0.08 0.10 0.03 0.02 0.01 0.01 0.02 0.03 0.04 0.06 0.05 0.07 0.08 0.06 0.05 0.11 0.23 0.30
0.16 0.23 0.28 0.13 0.07 0.05 0.00 0.00 0.00 0.00 0.00 0.00 0.00 0.00 0.00 0.00 0.00 0.00 0.00 0.00 0.00 0.00 0.00 0.00 0.00 0.00 0.01 0.01 0.01 0.01 0.02 0.01 0.01 0.02 0.03 0.04 0.03 0.06 0.06 0.09 0.22 0.32 0.23 0.08
0.31 0.30 0.30 0.23 0.11 0.04 0.00 0.00 0.00 0.00 0.00 0.00 0.00 0.00 0.00 0.00 0.00 0.00 0.00 0.00 0.00 0.00 0.00 0.00 0.00 0.00 0.00 0.01 0.01 0.01 0.01 0.01 0.01 0.03 0.03 0.02 0.03 0.08 0.14 0.19 0.12 0.03 0.01 0.01
0.22 0.37 0.32 0.26 0.22 0.04 0.00 0.00 0.00 0.02 0.01 0.00 0.00 0.00 0.00 0.00 0.00 0.00 0.00 0.00 0.00 0.00 0.00 0.00 0.00 0.00 0.00 0.00 0.00 0.00 0.00 0.00 0.01 0.01 0.01 0.02 0.04 0.04 0.02 0.02 0.01 0.01 0.00 0.00
0.06 0.15 0.20 0.27 0.28 0.12 0.04 0.07 0.06 0.02 0.00 0.00 0.00 0.00 0.00 0.00 0.00 0.00 0.00 0.00 0.00 0.00 0.00 0.00 0.00 0.00 0.00 0.00 0.00 0.00 0.00 0.00 0.00 0.02 0.01 0.01 0.00 0.00 0.01 0.00 0.00 0.00 0.00 0.00
0.03 0.04 0.07 0.07 0.06 0.04 0.04 0.09 0.09 0.04 0.02 0.00 0.00 0.00 0.00 0.00 0.00 0.00 0.00 0.00 0.00 0.00 0.00 0.00 0.00 0.00 0.00 0.00 0.00 0.00 0.00 0.00 0.00 0.00 0.00 0.00 0.00 0.00 0.00 0.00 0.00 0.00 0.00 0.00
0.00 0.00 0.01 0.03 0.01 0.01 0.03 0.04 0.02 0.01 0.01 0.01 0.00 0.01 0.03 0.03 0.01 0.00 0.00 0.00 0.00 0.00 0.00 0.00 0.00 0.00 0.00 0.00 0.00 0.00 0.00 0.00 0.00 0.00 0.00 0.00 0.00 0.00 0.00 0.00 0.00 0.00 0.00 0.00
0.00 0.01 0.02 0.02 0.00 0.00 0.00 0.04 0.07 0.05 0.02 0.00 0.01 0.00 0.00 0.01 0.00 0.00 0.00 0.00 0.00 0.00 0.00 0.00 0.00 0.00 0.00 0.00 0.00 0.00 0.00 0.00 0.00 0.00 0.00 0.00 0.00 0.00 0.00 0.00 0.00 0.00 0.00 0.00
0.00 0.01 0.04 0.02 0.03 0.02 0.01 0.00 0.00 0.01 0.02 0.01 0.00 0.00 0.00 0.00 0.00 0.00 0.00 0.00 0.00 0.00 0.00 0.00 0.00 0.00 0.00 0.00 0.00 0.00 0.00 0.00 0.00 0.00 0.00 0.00 0.00 0.00 0.00 0.00 0.00 0.00 0.00 0.00

GFSCGP_prec_precacc24_066.txt.gz
Total_Precipitation_Accumulation
0.00 0.00 0.00 0.00 0.00 0.00 0.00 0.00 0.00 0.00 0.00 0.00 0.00 0.01 0.02 0.03 0.03 0.03 0.02 0.00 0.00 0.00 0.00 0.00 0.00 0.00 0.00 0.00 0.00 0.00 0.00 0.03 0.12 0.04 0.07 0.05 0.06 0.02 0.02 0.05 0.02 0.05 0.07 0.05
0.00 0.00 0.00 0.00 0.00 0.00 0.00 0.00 0.00 0.00 0.00 0.00 0.00 0.00 0.00 0.01 0.17 0.03 0.01 0.00 0.00 0.00 0.00 0.00 0.00 0.00 0.00 0.00 0.00 0.00 0.00 0.01 0.07 0.03 0.01 0.01 0.04 0.01 0.00 0.01 0.03 0.06 0.10 0.05
0.00 0.00 0.00 0.00 0.00 0.00 0.00 0.00 0.00 0.00 0.00 0.00 0.00 0.00 0.00 0.00 0.02 0.04 0.03 0.01 0.00 0.00 0.00 0.00 0.00 0.00 0.00 0.00 0.00 0.00 0.00 0.00 0.03 0.00 0.00 0.00 0.01 0.01 0.00 0.01 0.04 0.04 0.05 0.05
0.00 0.00 0.00 0.00 0.00 0.00 0.00 0.00 0.00 0.00 0.00 0.00 0.00 0.00 0.00 0.00 0.00 0.05 0.01 0.00 0.00 0.00 0.00 0.00 0.00 0.00 0.00 0.00 0.00 0.00 0.00 0.00 0.00 0.00 0.01 0.00 0.00 0.01 0.02 0.06 0.03 0.04 0.05 0.05
0.00 0.00 0.00 0.00 0.00 0.00 0.00 0.00 0.00 0.00 0.00 0.00 0.00 0.00 0.00 0.00 0.00 0.00 0.00 0.00 0.00 0.00 0.00 0.00 0.00 0.00 0.00 0.00 0.00 0.00 0.00 0.00 0.00 0.00 0.00 0.01 0.00 0.01 0.03 0.04 0.05 0.03 0.02 0.03
0.00 0.00 0.00 0.00 0.00 0.00 0.00 0.00 0.00 0.00 0.00 0.00 0.00 0.00 0.00 0.00 0.00 0.00 0.00 0.01 0.00 0.00 0.00 0.00 0.00 0.00 0.00 0.00 0.00 0.00 0.01 0.00 0.00 0.00 0.00 0.02 0.06 0.02 0.02 0.02 0.02 0.05 0.04 0.01
0.00 0.00 0.00 0.00 0.00 0.00 0.00 0.00 0.00 0.03 0.01 0.00 0.00 0.00 0.00 0.00 0.00 0.00 0.00 0.00 0.00 0.00 0.00 0.00 0.00 0.00 0.00 0.00 0.00 0.00 0.00 0.00 0.00 0.00 0.02 0.06 0.11 0.10 0.11 0.05 0.04 0.11 0.08 0.03
0.00 0.00 0.00 0.00 0.00 0.00 0.00 0.00 0.01 0.08 0.06 0.02 0.03 0.00 0.00 0.00 0.00 0.00 0.00 0.00 0.00 0.00 0.00 0.00 0.00 0.00 0.00 0.00 0.00 0.00 0.00 0.01 0.02 0.11 0.23 0.20 0.16 0.20 0.29 0.23 0.12 0.23 0.14 0.10
0.00 0.00 0.00 0.00 0.00 0.00 0.00 0.00 0.00 0.01 0.01 0.03 0.04 0.00 0.00 0.00 0.00 0.00 0.00 0.00 0.00 0.00 0.00 0.00 0.00 0.00 0.00 0.00 0.01 0.00 0.01 0.00 0.01 0.13 0.25 0.14 0.32 0.54 0.29 0.30 0.33 0.35 0.38 0.36
0.00 0.00 0.00 0.00 0.00 0.00 0.00 0.00 0.00 0.00 0.05 0.05 0.00 0.00 0.00 0.00 0.00 0.00 0.00 0.00 0.00 0.00 0.00 0.00 0.00 0.00 0.00 0.00 0.02 0.02 0.07 0.19 0.17 0.05 0.04 0.04 0.08 0.18 0.29 0.26 0.34 0.57 0.62 0.47
0.00 0.00 0.00 0.00 0.00 0.00 0.00 0.00 0.00 0.00 0.00 0.04 0.03 0.00 0.00 0.00 0.00 0.00 0.00 0.00 0.00 0.00 0.00 0.00 0.00 0.00 0.00 0.00 0.00 0.00 0.01 0.16 0.35 0.54 0.44 0.21 0.29 0.27 0.48 0.53 0.71 0.58 0.54 0.63
0.00 0.00 0.00 0.00 0.00 0.00 0.00 0.00 0.00 0.01 0.00 0.01 0.01 0.00 0.00 0.00 0.00 0.00 0.00 0.00 0.00 0.00 0.00 0.00 0.00 0.00 0.00 0.00 0.00 0.00 0.00 0.11 0.40 1.19 1.24 0.68 0.79 0.70 0.70 0.78 0.76 0.80 0.79 0.73
0.00 0.00 0.00 0.00 0.00 0.00 0.00 0.00 0.00 0.00 0.00 0.01 0.03 0.00 0.00 0.00 0.00 0.00 0.00 0.00 0.00 0.00 0.00 0.00 0.00 0.00 0.00 0.01 0.00 0.01 0.12 0.27 0.78 1.06 1.04 0.80 0.95 1.09 0.91 0.78 0.54 0.33 0.32 0.35
0.01 0.01 0.01 0.02 0.00 0.00 0.00 0.00 0.00 0.00 0.00 0.00 0.00 0.00 0.01 0.00 0.00 0.00 0.00 0.00 0.00 0.00 0.00 0.00 0.00 0.00 0.00 0.00 0.02 0.06 0.23 0.31 0.62 0.45 0.50 0.43 0.43 0.60 0.29 0.31 0.25 0.19 0.13 0.14
0.04 0.02 0.00 0.00 0.00 0.00 0.00 0.00 0.00 0.00 0.00 0.00 0.00 0.00 0.00 0.00 0.00 0.00 0.00 0.00 0.00 0.00 0.00 0.00 0.00 0.00 0.00 0.01 0.01 0.02 0.06 0.14 0.31 0.33 0.35 0.27 0.22 0.24 0.16 0.19 0.18 0.12 0.10 0.12
0.05 0.05 0.01 0.00 0.00 0.00 0.00 0.00 0.00 0.00 0.00 0.00 0.00 0.00 0.00 0.00 0.00 0.00 0.00 0.00 0.00 0.00 0.00 0.00 0.00 0.00 0.00 0.00 0.02 0.05 0.07 0.15 0.11 0.09 0.13 0.09 0.10 0.15 0.14 0.16 0.14 0.13 0.14 0.20
0.10 0.12 0.05 0.02 0.00 0.01 0.01 0.00 0.00 0.00 0.00 0.00 0.00 0.00 0.00 0.00 0.00 0.00 0.00 0.00 0.00 0.00 0.00 0.00 0.00 0.01 0.01 0.03 0.07 0.03 0.03 0.05 0.05 0.07 0.09 0.04 0.04 0.12 0.12 0.11 0.13 0.14 0.15 0.21
0.20 0.13 0.17 0.09 0.02 0.09 0.03 0.00 0.00 0.00 0.00 0.00 0.00 0.00 0.00 0.00 0.00 0.00 0.00 0.00 0.00 0.00 0.00 0.00 0.00 0.02 0.08 0.10 0.03 0.02 0.01 0.01 0.02 0.03 0.04 0.06 0.05 0.10 0.12 0.12 0.11 0.15 0.20 0.29
0.17 0.23 0.28 0.13 0.07 0.05 0.00 0.00 0.00 0.00 0.00 0.00 0.00 0.00 0.00 0.00 0.00 0.00 0.00 0.00 0.00 0.00 0.00 0.00 0.00 0.00 0.01 0.01 0.01 0.01 0.02 0.01 0.01 0.02 0.03 0.04 0.04 0.07 0.07 0.08 0.12 0.17 0.17 0.09
0.33 0.32 0.32 0.23 0.12 0.04 0.00 0.00 0.00 0.00 0.00 0.00 0.00 0.00 0.00 0.00 0.00 0.00 0.00 0.00 0.00 0.00 0.00 0.00 0.00 0.00 0.00 0.01 0.01 0.01 0.01 0.01 0.01 0.03 0.04 0.02 0.03 0.05 0.05 0.07 0.08 0.05 0.03 0.03
0.23 0.39 0.35 0.30 0.25 0.04 0.00 0.00 0.00 0.02 0.02 0.00 0.00 0.00 0.00 0.00 0.00 0.00 0.00 0.00 0.00 0.00 0.00 0.00 0.00 0.00 0.00 0.00 0.00 0.00 0.00 0.00 0.01 0.01 0.02 0.02 0.02 0.02 0.01 0.02 0.03 0.02 0.02 0.03
0.07 0.16 0.20 0.29 0.30 0.12 0.04 0.08 0.07 0.02 0.01 0.00 0.00 0.00 0.00 0.00 0.00 0.00 0.00 0.00 0.00 0.00 0.00 0.00 0.00 0.00 0.00 0.00 0.00 0.00 0.00 0.00 0.02 0.04 0.03 0.02 0.01 0.01 0.01 0.01 0.01 0.02 0.02 0.02
0.03 0.04 0.07 0.07 0.06 0.04 0.04 0.09 0.09 0.04 0.03 0.01 0.00 0.00 0.00 0.00 0.00 0.00 0.00 0.00 0.00 0.00 0.00 0.00 0.00 0.00 0.00 0.00 0.00 0.00 0.00 0.01 0.02 0.02 0.01 0.01 0.01 0.02 0.03 0.04 0.05 0.04 0.04 0.03
0.00 0.00 0.01 0.03 0.01 0.01 0.03 0.04 0.02 0.01 0.01 0.01 0.01 0.01 0.03 0.04 0.01 0.00 0.00 0.00 0.00 0.00 0.00 0.00 0.00 0.00 0.00 0.00 0.00 0.01 0.03 0.03 0.03 0.01 0.00 0.00 0.01 0.02 0.02 0.02 0.02 0.02 0.02 0.01
0.00 0.01 0.02 0.03 0.00 0.00 0.00 0.04 0.07 0.05 0.02 0.01 0.01 0.01 0.01 0.01 0.01 0.01 0.00 0.00 0.00 0.00 0.00 0.00 0.00 0.00 0.00 0.01 0.03 0.03 0.03 0.01 0.01 0.00 0.00 0.00 0.00 0.01 0.00 0.00 0.01 0.00 0.00 0.00
0.01 0.02 0.04 0.02 0.03 0.02 0.01 0.00 0.01 0.01 0.02 0.02 0.00 0.00 0.00 0.00 0.00 0.00 0.00 0.00 0.00 0.00 0.00 0.00 0.00 0.00 0.00 0.01 0.00 0.00 0.00 0.00 0.00 0.00 0.00 0.00 0.00 0.00 0.00 0.00 0.00 0.00 0.00 0.00

GFSCGP_prec_precacc24_069.txt.gz
Total_Precipitation_Accumulation
0.00 0.00 0.00 0.00 0.00 0.00 0.00 0.00 0.00 0.00 0.00 0.00 0.00 0.01 0.02 0.03 0.03 0.03 0.02 0.00 0.00 0.00 0.00 0.00 0.00 0.00 0.00 0.00 0.00 0.00 0.00 0.05 0.15 0.06 0.09 0.07 0.08 0.03 0.04 0.07 0.08 0.08 0.07 0.05
0.00 0.00 0.00 0.00 0.00 0.00 0.00 0.00 0.00 0.00 0.00 0.00 0.00 0.00 0.00 0.01 0.17 0.03 0.01 0.00 0.00 0.00 0.00 0.00 0.00 0.00 0.00 0.00 0.00 0.00 0.00 0.01 0.07 0.04 0.02 0.02 0.06 0.05 0.03 0.04 0.07 0.09 0.10 0.05
0.00 0.00 0.00 0.00 0.00 0.00 0.00 0.00 0.00 0.00 0.00 0.00 0.00 0.00 0.00 0.00 0.02 0.04 0.03 0.01 0.00 0.00 0.00 0.00 0.00 0.00 0.00 0.00 0.00 0.00 0.00 0.00 0.03 0.00 0.02 0.02 0.05 0.10 0.05 0.05 0.09 0.08 0.06 0.05
0.00 0.00 0.00 0.00 0.00 0.00 0.00 0.00 0.00 0.00 0.00 0.00 0.00 0.00 0.00 0.00 0.00 0.05 0.01 0.00 0.00 0.00 0.00 0.00 0.00 0.00 0.00 0.00 0.00 0.00 0.00 0.00 0.00 0.00 0.01 0.01 0.01 0.04 0.04 0.01 0.03 0.07 0.07 0.06
0.00 0.00 0.00 0.00 0.00 0.00 0.00 0.00 0.00 0.00 0.00 0.00 0.00 0.00 0.00 0.00 0.00 0.00 0.00 0.00 0.00 0.00 0.00 0.00 0.00 0.00 0.00 0.00 0.00 0.00 0.00 0.00 0.00 0.00 0.00 0.01 0.00 0.00 0.01 0.02 0.04 0.05 0.04 0.04
0.00 0.00 0.00 0.00 0.00 0.00 0.00 0.00 0.00 0.00 0.00 0.00 0.00 0.00 0.00 0.00 0.00 0.00 0.00 0.01 0.00 0.00 0.00 0.00 0.00 0.00 0.00 0.00 0.00 0.00 0.00 0.00 0.00 0.00 0.00 0.02 0.06 0.02 0.01 0.00 0.01 0.04 0.03 0.01
0.00 0.00 0.00 0.00 0.00 0.00 0.00 0.00 0.00 0.03 0.01 0.00 0.00 0.00 0.00 0.00 0.00 0.00 0.00 0.00 0.00 0.00 0.00 0.00 0.00 0.00 0.00 0.00 0.00 0.00 0.00 0.00 0.00 0.00 0.01 0.04 0.10 0.10 0.10 0.03 0.02 0.09 0.06 0.02
0.00 0.00 0.00 0.00 0.00 0.00 0.00 0.00 0.01 0.08 0.06 0.02 0.03 0.00 0.00 0.00 0.00 0.00 0.00 0.00 0.00 0.00 0.00 0.00 0.00 0.00 0.00 0.00 0.00 0.00 0.00 0.00 0.00 0.05 0.19 0.19 0.15 0.19 0.28 0.19 0.08 0.19 0.12 0.08
0.00 0.00 0.00 0.00 0.00 0.00 0.00 0.00 0.00 0.01 0.01 0.03 0.04 0.00 0.00 0.00 0.00 0.00 0.00 0.00 0.00 0.00 0.00 0.00 0.00 0.00 0.00 0.00 0.01 0.00 0.01 0.00 0.00 0.05 0.21 0.13 0.31 0.53 0.25 0.24 0.28 0.31 0.36 0.34
0.00 0.00 0.00 0.00 0.00 0.00 0.00 0.00 0.00 0.00 0.05 0.05 0.00 0.00 0.00 0.00 0.00 0.00 0.00 0.00 0.00 0.00 0.00 0.00 0.00 0.00 0.00 0.00 0.01 0.00 0.07 0.20 0.18 0.05 0.02 0.03 0.06 0.16 0.24 0.17 0.25 0.50 0.59 0.45
0.00 0.00 0.00 0.00 0.00 0.00 0.00 0.00 0.00 0.00 0.00 0.04 0.03 0.00 0.00 0.00 0.00 0.00 0.00 0.00 0.00 0.00 0.00 0.00 0.00 0.00 0.00 0.00 0.00 0.00 0.01 0.16 0.36 0.58 0.45 0.20 0.25 0.19 0.36 0.41 0.62 0.53 0.52 0.62
0.00 0.00 0.00 0.00 0.00 0.00 0.00 0.00 0.00 0.01 0.00 0.01 0.01 0.00 0.00 0.00 0.00 0.00 0.00 0.00 0.00 0.00 0.00 0.00 0.00 0.00 0.00 0.00 0.00 0.00 0.00 0.10 0.38 1.20 1.25 0.66 0.70 0.58 0.59 0.68 0.69 0.77 0.77 0.71
0.00 0.00 0.00 0.00 0.00 0.00 0.00 0.00 0.00 0.00 0.00 0.01 0.03 0.00 0.00 0.00 0.00 0.00 0.00 0.00 0.00 0.00 0.00 0.00 0.00 0.00 0.00 0.01 0.00 0.00 0.09 0.25 0.75 1.02 1.01 0.78 0.92 1.04 0.83 0.70 0.49 0.30 0.31 0.35
0.01 0.01 0.02 0.04 0.00 0.00 0.00 0.00 0.00 0.00 0.00 0.00 0.00 0.00 0.01 0.00 0.00 0.00 0.00 0.00 0.00 0.00 0.00 0.00 0.00 0.00 0.00 0.00 0.01 0.05 0.21 0.30 0.59 0.41 0.47 0.39 0.37 0.53 0.25 0.28 0.23 0.18 0.13 0.14
0.04 0.02 0.00 0.00 0.00 0.00 0.00 0.00 0.00 0.00 0.00 0.00 0.00 0.00 0.00 0.00 0.00 0.00 0.00 0.00 0.00 0.00 0.00 0.00 0.00 0.00 0.00 0.00 0.00 0.02 0.06 0.13 0.30 0.31 0.32 0.24 0.20 0.23 0.15 0.19 0.19 0.12 0.10 0.11
0.05 0.05 0.01 0.00 0.00 0.00 0.00 0.00 0.00 0.00 0.00 0.00 0.00 0.00 0.00 0.00 0.00 0.00 0.00 0.00 0.00 0.00 0.00 0.00 0.00 0.00 0.00 0.00 0.02 0.05 0.07 0.15 0.11 0.09 0.12 0.09 0.10 0.15 0.14 0.16 0.15 0.13 0.14 0.19
0.10 0.12 0.05 0.02 0.00 0.01 0.01 0.00 0.00 0.00 0.00 0.00 0.00 0.00 0.00 0.00 0.00 0.00 0.00 0.00 0.00 0.00 0.00 0.00 0.00 0.01 0.01 0.03 0.07 0.03 0.03 0.05 0.05 0.07 0.09 0.04 0.04 0.12 0.12 0.11 0.13 0.14 0.15 0.21
0.20 0.13 0.17 0.09 0.02 0.09 0.03 0.00 0.00 0.00 0.00 0.00 0.00 0.00 0.00 0.00 0.00 0.00 0.00 0.00 0.00 0.00 0.00 0.00 0.00 0.02 0.08 0.10 0.03 0.02 0.01 0.01 0.02 0.03 0.04 0.06 0.05 0.10 0.12 0.12 0.10 0.13 0.14 0.15
0.17 0.23 0.30 0.14 0.07 0.05 0.00 0.00 0.00 0.00 0.00 0.00 0.00 0.00 0.00 0.00 0.00 0.00 0.00 0.00 0.00 0.00 0.00 0.00 0.00 0.00 0.01 0.01 0.01 0.01 0.02 0.01 0.01 0.02 0.03 0.04 0.04 0.07 0.07 0.07 0.08 0.09 0.10 0.09
0.34 0.33 0.34 0.25 0.13 0.04 0.00 0.00 0.00 0.00 0.00 0.00 0.00 0.00 0.00 0.00 0.00 0.00 0.00 0.00 0.00 0.00 0.00 0.00 0.00 0.00 0.00 0.01 0.01 0.01 0.01 0.01 0.01 0.03 0.04 0.02 0.03 0.05 0.04 0.04 0.06 0.05 0.05 0.06
0.24 0.40 0.37 0.33 0.26 0.04 0.00 0.00 0.01 0.03 0.02 0.00 0.00 0.00 0.00 0.00 0.00 0.00 0.00 0.00 0.00 0.00 0.00 0.00 0.00 0.00 0.00 0.00 0.00 0.00 0.00 0.00 0.01 0.01 0.02 0.03 0.03 0.04 0.02 0.03 0.05 0.04 0.04 0.05
0.07 0.16 0.21 0.30 0.31 0.12 0.04 0.08 0.07 0.02 0.01 0.00 0.00 0.00 0.00 0.00 0.00 0.00 0.00 0.00 0.00 0.00 0.00 0.00 0.00 0.00 0.00 0.00 0.00 0.00 0.00 0.00 0.02 0.04 0.05 0.07 0.08 0.07 0.06 0.03 0.03 0.02 0.02 0.03
0.03 0.04 0.07 0.07 0.06 0.04 0.04 0.09 0.09 0.04 0.03 0.01 0.00 0.00 0.00 0.00 0.00 0.00 0.00 0.00 0.00 0.00 0.00 0.00 0.00 0.00 0.00 0.00 0.00 0.00 0.00 0.01 0.03 0.05 0.05 0.06 0.05 0.06 0.07 0.08 0.07 0.05 0.07 0.07
0.00 0.00 0.01 0.03 0.01 0.01 0.03 0.04 0.02 0.01 0.01 0.01 0.01 0.01 0.03 0.04 0.01 0.00 0.00 0.00 0.00 0.00 0.00 0.00 0.00 0.00 0.00 0.00 0.00 0.01 0.03 0.04 0.04 0.05 0.03 0.03 0.03 0.03 0.02 0.03 0.04 0.04 0.04 0.05
0.00 0.01 0.01 0.03 0.00 0.00 0.00 0.04 0.07 0.05 0.02 0.01 0.01 0.01 0.01 0.01 0.01 0.01 0.01 0.00 0.00 0.00 0.00 0.00 0.00 0.01 0.00 0.01 0.03 0.03 0.04 0.02 0.02 0.01 0.00 0.00 0.00 0.01 0.00 0.00 0.02 0.02 0.04 0.06
0.01 0.02 0.04 0.02 0.03 0.02 0.01 0.00 0.01 0.01 0.02 0.02 0.00 0.00 0.01 0.01 0.01 0.02 0.02 0.02 0.00 0.00 0.00 0.00 0.00 0.01 0.02 0.01 0.00 0.00 0.00 0.00 0.00 0.00 0.00 0.00 0.00 0.00 0.00 0.00 0.02 0.02 0.01 0.02

GFSCGP_prec_precacc24_072.txt.gz
Total_Precipitation_Accumulation
0.00 0.00 0.00 0.00 0.00 0.00 0.00 0.00 0.00 0.00 0.00 0.00 0.00 0.01 0.02 0.03 0.03 0.03 0.02 0.00 0.00 0.00 0.00 0.00 0.00 0.00 0.00 0.00 0.01 0.01 0.01 0.08 0.18 0.14 0.13 0.13 0.12 0.08 0.10 0.12 0.10 0.08 0.07 0.04
0.00 0.00 0.00 0.00 0.00 0.00 0.00 0.00 0.00 0.00 0.00 0.00 0.00 0.00 0.00 0.01 0.17 0.03 0.01 0.00 0.00 0.00 0.00 0.00 0.00 0.00 0.00 0.00 0.00 0.00 0.00 0.02 0.07 0.05 0.03 0.06 0.10 0.08 0.05 0.08 0.10 0.11 0.10 0.05
0.00 0.00 0.00 0.00 0.00 0.00 0.00 0.00 0.00 0.00 0.00 0.00 0.00 0.00 0.00 0.00 0.02 0.04 0.03 0.01 0.00 0.00 0.00 0.00 0.00 0.00 0.00 0.00 0.00 0.00 0.00 0.00 0.03 0.00 0.02 0.04 0.08 0.13 0.07 0.08 0.12 0.15 0.07 0.05
0.00 0.00 0.00 0.00 0.00 0.00 0.00 0.00 0.00 0.00 0.00 0.00 0.00 0.00 0.00 0.00 0.00 0.05 0.01 0.00 0.00 0.00 0.00 0.00 0.00 0.00 0.00 0.00 0.00 0.00 0.00 0.00 0.00 0.00 0.01 0.01 0.01 0.04 0.04 0.01 0.06 0.16 0.12 0.06
0.00 0.00 0.00 0.00 0.00 0.00 0.00 0.00 0.00 0.00 0.00 0.00 0.00 0.00 0.00 0.00 0.00 0.00 0.00 0.00 0.00 0.00 0.00 0.00 0.00 0.00 0.00 0.00 0.00 0.00 0.00 0.00 0.00 0.00 0.00 0.01 0.00 0.00 0.02 0.03 0.06 0.14 0.19 0.06
0.00 0.00 0.00 0.00 0.00 0.00 0.00 0.00 0.00 0.00 0.00 0.00 0.00 0.00 0.00 0.00 0.00 0.00 0.00 0.01 0.00 0.00 0.00 0.00 0.00 0.00 0.00 0.00 0.00 0.00 0.00 0.00 0.00 0.00 0.00 0.02 0.05 0.02 0.01 0.01 0.02 0.06 0.10 0.05
0.00 0.00 0.00 0.00 0.00 0.00 0.00 0.00 0.00 0.02 0.01 0.00 0.00 0.00 0.00 0.00 0.00 0.00 0.00 0.00 0.00 0.00 0.00 0.00 0.00 0.00 0.00 0.00 0.00 0.00 0.00 0.00 0.00 0.00 0.00 0.00 0.06 0.08 0.09 0.03 0.01 0.08 0.05 0.01
0.02 0.01 0.00 0.00 0.00 0.00 0.00 0.00 0.01 0.08 0.06 0.02 0.03 0.00 0.00 0.00 0.00 0.00 0.00 0.00 0.00 0.00 0.00 0.00 0.00 0.00 0.00 0.00 0.00 0.00 0.00 0.00 0.00 0.03 0.18 0.14 0.07 0.16 0.27 0.19 0.08 0.18 0.10 0.07
0.00 0.00 0.00 0.00 0.00 0.00 0.00 0.00 0.00 0.01 0.01 0.03 0.04 0.00 0.00 0.00 0.00 0.00 0.00 0.00 0.00 0.00 0.00 0.00 0.00 0.00 0.00 0.00 0.00 0.00 0.01 0.00 0.00 0.03 0.16 0.09 0.21 0.47 0.23 0.23 0.28 0.30 0.32 0.31
0.00 0.00 0.00 0.00 0.00 0.00 0.00 0.00 0.00 0.00 0.05 0.05 0.00 0.00 0.00 0.00 0.00 0.00 0.00 0.00 0.00 0.00 0.00 0.00 0.00 0.00 0.00 0.00 0.00 0.00 0.07 0.20 0.18 0.05 0.01 0.03 0.06 0.15 0.22 0.16 0.23 0.44 0.53 0.41
0.00 0.00 0.00 0.00 0.00 0.00 0.00 0.00 0.00 0.00 0.00 0.04 0.03 0.00 0.00 0.00 0.00 0.00 0.00 0.00 0.00 0.00 0.00 0.00 0.00 0.00 0.00 0.00 0.00 0.00 0.00 0.16 0.36 0.58 0.45 0.20 0.24 0.18 0.34 0.37 0.56 0.48 0.48 0.60
0.00 0.00 0.00 0.00 0.00 0.00 0.00 0.00 0.00 0.01 0.00 0.01 0.01 0.00 0.00 0.00 0.00 0.00 0.00 0.00 0.00 0.00 0.00 0.00 0.00 0.00 0.00 0.00 0.00 0.00 0.00 0.10 0.38 1.20 1.25 0.66 0.70 0.57 0.57 0.65 0.64 0.71 0.72 0.68
0.00 0.00 0.00 0.00 0.00 0.00 0.00 0.00 0.00 0.00 0.00 0.01 0.03 0.00 0.00 0.00 0.00 0.00 0.00 0.00 0.00 0.00 0.00 0.00 0.00 0.00 0.00 0.01 0.00 0.00 0.09 0.25 0.75 1.02 1.01 0.78 0.90 1.03 0.79 0.64 0.43 0.24 0.26 0.33
0.01 0.01 0.02 0.04 0.00 0.00 0.00 0.00 0.00 0.00 0.00 0.00 0.00 0.00 0.01 0.00 0.00 0.00 0.00 0.00 0.00 0.00 0.00 0.00 0.00 0.00 0.00 0.00 0.01 0.05 0.21 0.30 0.58 0.40 0.46 0.38 0.36 0.51 0.22 0.25 0.21 0.16 0.11 0.13
0.04 0.02 0.00 0.00 0.00 0.00 0.00 0.00 0.00 0.00 0.00 0.00 0.00 0.00 0.00 0.00 0.00 0.00 0.00 0.00 0.00 0.00 0.00 0.00 0.00 0.00 0.00 0.00 0.00 0.02 0.04 0.12 0.29 0.29 0.29 0.22 0.19 0.23 0.15 0.19 0.19 0.12 0.10 0.11
0.05 0.05 0.01 0.00 0.00 0.00 0.00 0.00 0.00 0.00 0.00 0.00 0.00 0.00 0.00 0.00 0.00 0.00 0.00 0.00 0.00 0.00 0.00 0.00 0.00 0.00 0.00 0.00 0.01 0.04 0.06 0.15 0.11 0.09 0.12 0.09 0.10 0.15 0.14 0.16 0.15 0.13 0.14 0.19
0.10 0.13 0.06 0.02 0.00 0.01 0.01 0.00 0.00 0.00 0.00 0.00 0.00 0.00 0.00 0.00 0.00 0.00 0.00 0.00 0.00 0.00 0.00 0.00 0.00 0.01 0.01 0.03 0.07 0.03 0.03 0.05 0.05 0.07 0.09 0.04 0.04 0.12 0.12 0.11 0.13 0.14 0.15 0.20
0.20 0.14 0.18 0.10 0.02 0.09 0.03 0.00 0.00 0.00 0.00 0.00 0.00 0.00 0.00 0.00 0.00 0.00 0.00 0.00 0.00 0.00 0.00 0.00 0.00 0.02 0.08 0.10 0.03 0.02 0.01 0.01 0.02 0.03 0.04 0.06 0.05 0.10 0.12 0.12 0.10 0.13 0.13 0.13
0.17 0.23 0.31 0.14 0.07 0.05 0.00 0.00 0.00 0.00 0.00 0.00 0.00 0.00 0.00 0.00 0.00 0.00 0.00 0.00 0.00 0.00 0.00 0.00 0.00 0.00 0.01 0.01 0.01 0.01 0.02 0.01 0.01 0.02 0.03 0.04 0.04 0.07 0.07 0.07 0.08 0.09 0.10 0.09
0.34 0.33 0.34 0.26 0.13 0.04 0.00 0.00 0.00 0.00 0.00 0.00 0.00 0.00 0.00 0.00 0.00 0.00 0.00 0.00 0.00 0.00 0.00 0.00 0.00 0.00 0.00 0.01 0.01 0.01 0.01 0.01 0.01 0.03 0.04 0.02 0.03 0.05 0.04 0.04 0.06 0.05 0.05 0.07
0.24 0.41 0.37 0.34 0.28 0.04 0.00 0.00 0.02 0.03 0.02 0.00 0.00 0.00 0.00 0.00 0.00 0.00 0.00 0.00 0.00 0.00 0.00 0.00 0.00 0.00 0.00 0.00 0.00 0.00 0.00 0.00 0.01 0.01 0.02 0.03 0.03 0.04 0.03 0.04 0.06 0.05 0.05 0.06
0.07 0.16 0.22 0.31 0.32 0.12 0.04 0.08 0.08 0.02 0.01 0.00 0.00 0.00 0.00 0.00 0.00 0.00 0.00 0.00 0.00 0.00 0.00 0.00 0.00 0.00 0.00 0.00 0.00 0.00 0.00 0.00 0.02 0.04 0.05 0.07 0.08 0.08 0.06 0.05 0.07 0.06 0.04 0.04
0.04 0.04 0.07 0.07 0.06 0.04 0.04 0.11 0.09 0.04 0.03 0.01 0.00 0.00 0.00 0.00 0.00 0.00 0.00 0.00 0.00 0.00 0.00 0.00 0.00 0.00 0.00 0.00 0.00 0.00 0.00 0.01 0.03 0.05 0.05 0.07 0.06 0.08 0.10 0.11 0.09 0.07 0.08 0.07
0.00 0.00 0.01 0.02 0.01 0.01 0.03 0.04 0.02 0.01 0.01 0.01 0.01 0.01 0.03 0.04 0.01 0.00 0.00 0.00 0.00 0.00 0.00 0.00 0.00 0.00 0.00 0.00 0.00 0.01 0.03 0.04 0.05 0.05 0.05 0.05 0.05 0.06 0.04 0.04 0.04 0.04 0.04 0.06
0.00 0.00 0.01 0.02 0.00 0.00 0.00 0.04 0.07 0.05 0.02 0.01 0.01 0.01 0.01 0.01 0.01 0.01 0.01 0.00 0.00 0.00 0.00 0.00 0.01 0.02 0.02 0.02 0.04 0.04 0.05 0.04 0.03 0.01 0.00 0.01 0.01 0.01 0.00 0.01 0.03 0.03 0.05 0.09
0.01 0.02 0.04 0.01 0.02 0.02 0.01 0.00 0.01 0.01 0.02 0.02 0.00 0.00 0.01 0.01 0.01 0.02 0.02 0.02 0.02 0.01 0.02 0.01 0.02 0.03 0.03 0.02 0.02 0.01 0.02 0.02 0.02 0.00 0.00 0.01 0.00 0.00 0.00 0.00 0.03 0.05 0.04 0.05

GFSCGP_prec_precacc24_078.txt.gz
Total_Precipitation_Accumulation
0.00 0.00 0.00 0.00 0.00 0.00 0.00 0.00 0.00 0.00 0.00 0.00 0.00 0.00 0.01 0.02 0.03 0.03 0.02 0.00 0.00 0.00 0.00 0.00 0.00 0.00 0.00 0.00 0.01 0.02 0.03 0.08 0.14 0.20 0.23 0.19 0.22 0.11 0.13 0.11 0.10 0.04 0.00 0.00
0.01 0.00 0.00 0.00 0.00 0.00 0.00 0.00 0.00 0.00 0.00 0.00 0.00 0.00 0.00 0.00 0.13 0.03 0.01 0.00 0.00 0.00 0.00 0.00 0.00 0.00 0.00 0.00 0.00 0.01 0.01 0.02 0.01 0.03 0.05 0.07 0.11 0.10 0.07 0.08 0.08 0.07 0.01 0.02
0.01 0.00 0.00 0.00 0.00 0.00 0.00 0.00 0.00 0.00 0.00 0.00 0.00 0.00 0.00 0.00 0.01 0.04 0.03 0.01 0.00 0.00 0.00 0.00 0.00 0.00 0.00 0.00 0.00 0.00 0.01 0.01 0.01 0.01 0.03 0.05 0.13 0.22 0.16 0.13 0.12 0.12 0.03 0.02
0.01 0.00 0.00 0.02 0.01 0.00 0.00 0.00 0.00 0.00 0.00 0.00 0.00 0.00 0.00 0.00 0.00 0.05 0.01 0.00 0.00 0.00 0.00 0.00 0.00 0.00 0.00 0.00 0.00 0.00 0.00 0.01 0.01 0.01 0.02 0.02 0.02 0.08 0.08 0.06 0.07 0.15 0.10 0.02
0.01 0.00 0.01 0.02 0.01 0.00 0.00 0.00 0.00 0.00 0.00 0.00 0.00 0.00 0.00 0.00 0.00 0.00 0.00 0.00 0.00 0.00 0.00 0.00 0.00 0.00 0.00 0.00 0.00 0.00 0.00 0.01 0.00 0.01 0.01 0.01 0.01 0.00 0.03 0.07 0.11 0.16 0.21 0.06
0.00 0.00 0.01 0.01 0.00 0.00 0.00 0.00 0.00 0.00 0.00 0.00 0.00 0.00 0.00 0.00 0.00 0.00 0.00 0.01 0.00 0.00 0.00 0.00 0.00 0.00 0.00 0.00 0.00 0.00 0.00 0.00 0.00 0.01 0.01 0.02 0.04 0.02 0.02 0.02 0.03 0.06 0.15 0.10
0.00 0.00 0.00 0.00 0.01 0.00 0.00 0.00 0.01 0.01 0.00 0.00 0.00 0.00 0.00 0.00 0.00 0.00 0.00 0.00 0.00 0.00 0.00 0.00 0.00 0.00 0.00 0.00 0.00 0.00 0.00 0.00 0.00 0.00 0.01 0.01 0.02 0.04 0.09 0.03 0.00 0.03 0.05 0.03
0.04 0.02 0.00 0.00 0.00 0.00 0.00 0.01 0.03 0.01 0.00 0.01 0.00 0.00 0.00 0.00 0.00 0.00 0.00 0.00 0.00 0.00 0.00 0.00 0.00 0.00 0.00 0.00 0.00 0.00 0.00 0.00 0.00 0.00 0.00 0.00 0.00 0.01 0.04 0.13 0.07 0.12 0.08 0.04
0.00 0.01 0.00 0.00 0.00 0.00 0.01 0.00 0.01 0.02 0.03 0.03 0.00 0.00 0.00 0.00 0.00 0.00 0.00 0.00 0.00 0.00 0.00 0.00 0.00 0.00 0.00 0.00 0.00 0.00 0.01 0.00 0.00 0.00 0.00 0.00 0.00 0.01 0.02 0.08 0.14 0.18 0.16 0.16
0.00 0.00 0.00 0.00 0.00 0.00 0.00 0.00 0.01 0.03 0.02 0.02 0.01 0.00 0.00 0.00 0.00 0.00 0.00 0.00 0.00 0.00 0.00 0.00 0.00 0.00 0.00 0.00 0.00 0.00 0.07 0.20 0.17 0.03 0.00 0.00 0.00 0.00 0.07 0.06 0.17 0.30 0.33 0.21
0.00 0.00 0.00 0.00 0.00 0.00 0.00 0.00 0.02 0.02 0.01 0.01 0.01 0.00 0.00 0.00 0.00 0.00 0.00 0.00 0.00 0.00 0.00 0.00 0.00 0.00 0.00 0.00 0.00 0.00 0.00 0.16 0.33 0.40 0.28 0.12 0.14 0.11 0.30 0.35 0.48 0.39 0.38 0.49
0.00 0.01 0.01 0.00 0.00 0.00 0.00 0.00 0.00 0.03 0.04 0.02 0.01 0.01 0.00 0.00 0.00 0.00 0.00 0.00 0.00 0.00 0.00 0.00 0.00 0.00 0.00 0.00 0.00 0.00 0.00 0.08 0.30 0.93 0.98 0.53 0.62 0.52 0.52 0.57 0.58 0.66 0.70 0.66
0.00 0.00 0.01 0.04 0.03 0.00 0.00 0.00 0.00 0.00 0.02 0.11 0.12 0.01 0.01 0.00 0.00 0.00 0.00 0.00 0.00 0.00 0.00 0.00 0.00 0.00 0.00 0.01 0.00 0.00 0.08 0.24 0.73 0.91 0.69 0.62 0.78 0.91 0.75 0.62 0.41 0.23 0.24 0.30
0.01 0.02 0.06 0.11 0.12 0.04 0.01 0.00 0.01 0.01 0.01 0.01 0.05 0.02 0.02 0.01 0.00 0.00 0.00 0.00 0.00 0.00 0.00 0.00 0.00 0.00 0.00 0.00 0.01 0.05 0.21 0.30 0.57 0.33 0.42 0.33 0.32 0.48 0.19 0.23 0.19 0.15 0.10 0.11
0.05 0.04 0.03 0.04 0.03 0.01 0.06 0.04 0.03 0.05 0.02 0.02 0.01 0.01 0.01 0.00 0.00 0.00 0.00 0.00 0.00 0.00 0.00 0.00 0.00 0.00 0.00 0.00 0.00 0.02 0.03 0.09 0.21 0.19 0.23 0.16 0.16 0.22 0.14 0.17 0.18 0.11 0.10 0.11
0.05 0.05 0.01 0.00 0.01 0.01 0.00 0.01 0.01 0.01 0.01 0.00 0.00 0.01 0.00 0.00 0.00 0.00 0.00 0.00 0.00 0.00 0.00 0.00 0.00 0.00 0.00 0.00 0.00 0.00 0.03 0.11 0.07 0.07 0.08 0.06 0.09 0.15 0.13 0.15 0.15 0.13 0.14 0.19
0.10 0.13 0.06 0.02 0.00 0.01 0.01 0.00 0.00 0.00 0.00 0.00 0.00 0.00 0.00 0.00 0.00 0.00 0.00 0.00 0.00 0.00 0.00 0.00 0.00 0.00 0.00 0.01 0.00 0.01 0.01 0.04 0.04 0.06 0.06 0.03 0.04 0.12 0.12 0.11 0.13 0.14 0.15 0.20
0.20 0.14 0.19 0.10 0.02 0.09 0.03 0.00 0.00 0.00 0.00 0.00 0.00 0.00 0.00 0.00 0.00 0.00 0.00 0.00 0.00 0.00 0.00 0.00 0.00 0.01 0.03 0.06 0.01 0.00 0.01 0.01 0.01 0.02 0.04 0.06 0.05 0.10 0.12 0.12 0.10 0.13 0.13 0.13
0.17 0.22 0.29 0.14 0.07 0.05 0.00 0.00 0.00 0.00 0.00 0.00 0.00 0.00 0.00 0.00 0.00 0.00 0.00 0.00 0.00 0.00 0.00 0.00 0.00 0.00 0.01 0.01 0.01 0.01 0.01 0.01 0.01 0.02 0.03 0.04 0.04 0.07 0.07 0.07 0.08 0.09 0.10 0.09
0.34 0.32 0.29 0.25 0.13 0.04 0.00 0.00 0.00 0.00 0.00 0.00 0.00 0.00 0.00 0.00 0.00 0.00 0.00 0.00 0.00 0.00 0.00 0.00 0.00 0.00 0.00 0.01 0.01 0.01 0.01 0.01 0.01 0.03 0.04 0.02 0.03 0.05 0.04 0.04 0.06 0.05 0.05 0.07
0.24 0.41 0.36 0.31 0.27 0.05 0.00 0.00 0.02 0.04 0.04 0.00 0.00 0.00 0.00 0.00 0.00 0.00 0.00 0.00 0.00 0.00 0.00 0.00 0.00 0.00 0.00 0.00 0.00 0.00 0.00 0.00 0.01 0.01 0.02 0.03 0.03 0.04 0.03 0.04 0.06 0.05 0.05 0.07
0.07 0.15 0.21 0.30 0.32 0.13 0.04 0.10 0.14 0.12 0.03 0.00 0.00 0.00 0.00 0.00 0.00 0.00 0.00 0.00 0.00 0.00 0.00 0.00 0.00 0.00 0.00 0.00 0.00 0.00 0.00 0.00 0.02 0.04 0.05 0.07 0.08 0.08 0.06 0.06 0.08 0.07 0.06 0.07
0.10 0.02 0.03 0.05 0.06 0.03 0.04 0.15 0.12 0.04 0.03 0.01 0.00 0.00 0.00 0.00 0.00 0.00 0.00 0.00 0.00 0.00 0.00 0.00 0.00 0.00 0.00 0.00 0.00 0.00 0.00 0.01 0.03 0.05 0.05 0.07 0.07 0.09 0.14 0.15 0.13 0.11 0.13 0.14
0.02 0.03 0.07 0.10 0.03 0.04 0.08 0.04 0.02 0.01 0.01 0.01 0.01 0.01 0.03 0.04 0.01 0.00 0.00 0.00 0.00 0.00 0.00 0.00 0.00 0.00 0.00 0.01 0.01 0.02 0.04 0.06 0.07 0.07 0.06 0.06 0.06 0.10 0.09 0.11 0.12 0.11 0.11 0.14
0.01 0.04 0.03 0.09 0.06 0.03 0.10 0.14 0.07 0.05 0.02 0.01 0.01 0.01 0.01 0.01 0.01 0.01 0.01 0.00 0.00 0.00 0.00 0.00 0.01 0.02 0.02 0.03 0.07 0.09 0.11 0.10 0.10 0.10 0.09 0.10 0.09 0.08 0.06 0.07 0.13 0.15 0.20 0.30
0.02 0.03 0.08 0.09 0.09 0.08 0.08 0.02 0.01 0.01 0.02 0.01 0.00 0.00 0.01 0.01 0.01 0.02 0.02 0.02 0.02 0.01 0.02 0.03 0.03 0.05 0.07 0.06 0.10 0.11 0.11 0.11 0.13 0.14 0.14 0.18 0.16 0.15 0.14 0.13 0.18 0.24 0.30 0.36

GFSCGP_prec_precacc24_081.txt.gz
Total_Precipitation_Accumulation
0.00 0.00 0.00 0.00 0.00 0.00 0.00 0.00 0.00 0.00 0.00 0.00 0.00 0.00 0.00 0.00 0.00 0.00 0.00 0.00 0.00 0.00 0.00 0.00 0.00 0.00 0.00 0.00 0.01 0.02 0.03 0.08 0.15 0.20 0.23 0.19 0.22 0.11 0.14 0.11 0.11 0.05 0.00 0.00
0.01 0.00 0.00 0.00 0.00 0.00 0.00 0.00 0.00 0.00 0.00 0.00 0.00 0.00 0.00 0.00 0.00 0.00 0.00 0.00 0.00 0.00 0.00 0.00 0.00 0.00 0.00 0.00 0.00 0.01 0.01 0.02 0.01 0.04 0.05 0.07 0.11 0.10 0.07 0.08 0.08 0.06 0.00 0.01
0.01 0.00 0.00 0.00 0.00 0.00 0.00 0.00 0.00 0.00 0.00 0.00 0.00 0.00 0.00 0.00 0.00 0.00 0.00 0.00 0.00 0.00 0.00 0.00 0.00 0.00 0.00 0.00 0.00 0.00 0.01 0.01 0.01 0.01 0.04 0.05 0.13 0.22 0.16 0.13 0.11 0.12 0.03 0.02
0.01 0.00 0.00 0.02 0.01 0.00 0.00 0.00 0.00 0.00 0.02 0.03 0.00 0.00 0.00 0.00 0.00 0.00 0.00 0.00 0.00 0.00 0.00 0.00 0.00 0.00 0.00 0.00 0.00 0.00 0.00 0.01 0.01 0.01 0.02 0.02 0.03 0.08 0.08 0.06 0.07 0.15 0.08 0.01
0.01 0.00 0.01 0.02 0.01 0.00 0.01 0.00 0.02 0.06 0.02 0.01 0.00 0.00 0.00 0.00 0.00 0.00 0.00 0.00 0.00 0.00 0.00 0.00 0.00 0.00 0.00 0.00 0.00 0.00 0.00 0.01 0.00 0.01 0.01 0.01 0.01 0.01 0.03 0.07 0.11 0.16 0.20 0.04
0.00 0.00 0.01 0.01 0.00 0.02 0.03 0.03 0.10 0.08 0.05 0.06 0.01 0.00 0.00 0.00 0.00 0.00 0.00 0.00 0.00 0.00 0.00 0.00 0.00 0.00 0.00 0.00 0.00 0.00 0.00 0.00 0.01 0.01 0.01 0.01 0.01 0.01 0.00 0.02 0.03 0.05 0.14 0.10
0.00 0.00 0.00 0.00 0.03 0.01 0.03 0.07 0.19 0.12 0.06 0.03 0.00 0.00 0.00 0.00 0.00 0.00 0.00 0.00 0.00 0.00 0.00 0.00 0.00 0.00 0.00 0.00 0.00 0.00 0.00 0.00 0.00 0.00 0.01 0.01 0.01 0.01 0.00 0.00 0.00 0.00 0.01 0.03
0.04 0.02 0.00 0.00 0.00 0.00 0.02 0.07 0.12 0.04 0.01 0.01 0.00 0.00 0.00 0.00 0.00 0.00 0.00 0.00 0.00 0.00 0.00 0.00 0.00 0.00 0.00 0.00 0.00 0.00 0.00 0.00 0.00 0.00 0.00 0.00 0.00 0.01 0.00 0.00 0.02 0.00 0.00 0.00
0.00 0.01 0.00 0.00 0.00 0.00 0.01 0.02 0.02 0.08 0.13 0.09 0.00 0.00 0.00 0.00 0.00 0.00 0.00 0.00 0.00 0.00 0.00 0.00 0.00 0.00 0.00 0.00 0.00 0.00 0.01 0.00 0.00 0.00 0.00 0.00 0.00 0.00 0.01 0.00 0.03 0.04 0.04 0.02
0.00 0.00 0.00 0.00 0.00 0.00 0.00 0.01 0.10 0.30 0.17 0.08 0.01 0.01 0.00 0.00 0.00 0.00 0.00 0.00 0.00 0.00 0.00 0.00 0.00 0.00 0.00 0.00 0.00 0.00 0.05 0.16 0.14 0.01 0.00 0.00 0.00 0.00 0.04 0.02 0.11 0.19 0.13 0.13
0.00 0.00 0.00 0.00 0.00 0.00 0.00 0.01 0.17 0.18 0.03 0.06 0.04 0.04 0.01 0.00 0.00 0.00 0.00 0.00 0.00 0.00 0.00 0.00 0.00 0.00 0.00 0.00 0.00 0.00 0.00 0.08 0.25 0.29 0.15 0.02 0.02 0.01 0.16 0.28 0.38 0.31 0.31 0.29
0.01 0.01 0.01 0.00 0.00 0.00 0.00 0.00 0.04 0.14 0.10 0.03 0.06 0.11 0.04 0.04 0.00 0.00 0.00 0.00 0.00 0.00 0.00 0.00 0.00 0.00 0.00 0.00 0.00 0.00 0.00 0.01 0.16 0.61 0.52 0.29 0.23 0.23 0.31 0.47 0.53 0.56 0.62 0.61
0.00 0.00 0.00 0.04 0.04 0.01 0.01 0.00 0.05 0.04 0.07 0.23 0.20 0.09 0.11 0.05 0.00 0.00 0.00 0.00 0.00 0.00 0.00 0.00 0.00 0.00 0.01 0.01 0.00 0.00 0.01 0.06 0.38 0.51 0.46 0.46 0.53 0.59 0.47 0.42 0.34 0.21 0.21 0.28
0.01 0.02 0.06 0.13 0.22 0.18 0.12 0.05 0.03 0.07 0.07 0.05 0.12 0.03 0.06 0.10 0.01 0.00 0.00 0.00 0.00 0.00 0.00 0.00 0.00 0.00 0.00 0.01 0.04 0.02 0.01 0.10 0.36 0.25 0.32 0.31 0.28 0.27 0.14 0.17 0.13 0.12 0.08 0.09
0.05 0.04 0.03 0.04 0.04 0.06 0.13 0.09 0.15 0.13 0.10 0.08 0.06 0.05 0.04 0.06 0.08 0.02 0.00 0.00 0.00 0.00 0.00 0.00 0.00 0.00 0.00 0.00 0.03 0.06 0.03 0.04 0.13 0.10 0.14 0.09 0.14 0.17 0.10 0.14 0.14 0.08 0.05 0.09
0.05 0.05 0.01 0.00 0.01 0.01 0.00 0.01 0.08 0.14 0.15 0.09 0.06 0.09 0.02 0.00 0.02 0.01 0.01 0.00 0.00 0.00 0.00 0.00 0.00 0.00 0.00 0.00 0.00 0.01 0.06 0.10 0.07 0.06 0.06 0.06 0.08 0.11 0.10 0.11 0.13 0.11 0.13 0.18
0.11 0.13 0.06 0.02 0.00 0.01 0.01 0.00 0.00 0.00 0.02 0.01 0.00 0.00 0.01 0.00 0.02 0.00 0.00 0.00 0.00 0.00 0.00 0.00 0.00 0.00 0.00 0.00 0.00 0.00 0.01 0.04 0.05 0.05 0.05 0.03 0.04 0.09 0.10 0.11 0.13 0.14 0.15 0.20
0.16 0.14 0.19 0.10 0.02 0.08 0.03 0.00 0.00 0.00 0.00 0.00 0.00 0.00 0.00 0.01 0.00 0.00 0.00 0.00 0.00 0.00 0.00 0.00 0.00 0.00 0.00 0.00 0.00 0.00 0.00 0.01 0.01 0.03 0.06 0.07 0.07 0.11 0.13 0.12 0.10 0.13 0.13 0.13
0.12 0.21 0.27 0.13 0.06 0.05 0.00 0.00 0.00 0.00 0.00 0.00 0.00 0.00 0.00 0.00 0.00 0.00 0.00 0.00 0.00 0.00 0.00 0.00 0.00 0.00 0.00 0.00 0.00 0.00 0.00 0.00 0.00 0.01 0.03 0.04 0.07 0.10 0.10 0.08 0.08 0.09 0.10 0.09
0.11 0.25 0.27 0.22 0.14 0.04 0.00 0.00 0.00 0.00 0.00 0.00 0.00 0.00 0.00 0.00 0.00 0.00 0.00 0.00 0.00 0.00 0.00 0.00 0.00 0.00 0.00 0.00 0.00 0.01 0.00 0.00 0.01 0.03 0.04 0.02 0.04 0.08 0.09 0.08 0.08 0.05 0.05 0.07
0.08 0.32 0.36 0.29 0.22 0.05 0.00 0.00 0.02 0.05 0.05 0.00 0.00 0.00 0.00 0.00 0.00 0.00 0.00 0.00 0.00 0.00 0.00 0.00 0.00 0.00 0.00 0.00 0.00 0.00 0.00 0.00 0.01 0.01 0.02 0.03 0.03 0.04 0.09 0.10 0.11 0.08 0.06 0.08
0.07 0.13 0.20 0.29 0.31 0.13 0.04 0.10 0.15 0.15 0.04 0.00 0.00 0.00 0.00 0.00 0.00 0.00 0.00 0.00 0.00 0.00 0.00 0.00 0.00 0.00 0.00 0.00 0.00 0.00 0.00 0.00 0.02 0.04 0.05 0.07 0.08 0.08 0.07 0.11 0.14 0.13 0.09 0.08
0.18 0.02 0.04 0.03 0.06 0.04 0.08 0.17 0.14 0.08 0.08 0.05 0.01 0.00 0.00 0.00 0.00 0.00 0.00 0.00 0.00 0.00 0.00 0.00 0.00 0.00 0.00 0.00 0.00 0.00 0.00 0.01 0.03 0.05 0.05 0.07 0.07 0.09 0.16 0.20 0.19 0.20 0.21 0.20
0.12 0.13 0.11 0.13 0.09 0.11 0.20 0.14 0.03 0.05 0.01 0.02 0.03 0.01 0.01 0.00 0.00 0.00 0.00 0.00 0.00 0.00 0.00 0.00 0.00 0.00 0.00 0.01 0.01 0.02 0.04 0.06 0.07 0.07 0.06 0.06 0.06 0.10 0.10 0.13 0.15 0.16 0.17 0.19
0.06 0.15 0.13 0.15 0.13 0.18 0.22 0.50 0.07 0.00 0.01 0.00 0.01 0.00 0.00 0.01 0.01 0.01 0.01 0.00 0.00 0.00 0.00 0.00 0.01 0.02 0.02 0.03 0.07 0.09 0.11 0.10 0.10 0.10 0.09 0.10 0.09 0.09 0.08 0.09 0.18 0.19 0.29 0.41
0.04 0.12 0.16 0.24 0.32 0.28 0.26 0.11 0.06 0.01 0.00 0.00 0.00 0.00 0.01 0.00 0.01 0.02 0.02 0.02 0.02 0.01 0.02 0.03 0.03 0.05 0.07 0.06 0.10 0.11 0.11 0.11 0.13 0.14 0.14 0.19 0.16 0.16 0.17 0.17 0.24 0.33 0.41 0.47

GFSCGP_prec_precacc24_084.txt.gz
Total_Precipitation_Accumulation
0.00 0.00 0.00 0.00 0.00 0.00 0.00 0.00 0.00 0.00 0.00 0.00 0.00 0.00 0.00 0.00 0.00 0.00 0.00 0.00 0.00 0.00 0.00 0.00 0.00 0.00 0.00 0.00 0.01 0.02 0.03 0.09 0.15 0.20 0.23 0.20 0.22 0.11 0.15 0.12 0.16 0.07 0.01 0.02
0.01 0.00 0.00 0.00 0.00 0.00 0.00 0.00 0.00 0.00 0.00 0.00 0.00 0.00 0.00 0.00 0.00 0.00 0.00 0.00 0.00 0.00 0.00 0.00 0.00 0.00 0.00 0.00 0.00 0.01 0.01 0.03 0.02 0.04 0.05 0.07 0.11 0.10 0.07 0.09 0.11 0.08 0.01 0.03
0.01 0.00 0.00 0.00 0.00 0.00 0.00 0.00 0.00 0.00 0.00 0.00 0.00 0.00 0.00 0.00 0.00 0.00 0.00 0.00 0.00 0.00 0.00 0.00 0.00 0.00 0.00 0.00 0.00 0.00 0.01 0.01 0.01 0.02 0.04 0.05 0.13 0.23 0.16 0.13 0.12 0.13 0.03 0.02
0.01 0.00 0.00 0.02 0.01 0.00 0.00 0.00 0.00 0.01 0.03 0.04 0.00 0.01 0.00 0.00 0.00 0.00 0.00 0.00 0.00 0.00 0.00 0.00 0.00 0.00 0.00 0.00 0.00 0.00 0.00 0.01 0.01 0.02 0.02 0.02 0.03 0.09 0.08 0.06 0.07 0.15 0.09 0.02
0.01 0.00 0.01 0.02 0.01 0.00 0.01 0.00 0.02 0.06 0.02 0.01 0.00 0.04 0.00 0.00 0.00 0.00 0.00 0.00 0.00 0.00 0.00 0.00 0.00 0.00 0.00 0.00 0.00 0.00 0.00 0.01 0.01 0.01 0.02 0.01 0.01 0.01 0.03 0.07 0.11 0.16 0.20 0.04
0.00 0.00 0.01 0.01 0.00 0.02 0.03 0.03 0.11 0.09 0.06 0.11 0.01 0.04 0.02 0.00 0.00 0.00 0.00 0.00 0.00 0.00 0.00 0.00 0.00 0.00 0.00 0.00 0.00 0.00 0.00 0.00 0.01 0.01 0.02 0.01 0.01 0.01 0.01 0.02 0.03 0.05 0.14 0.10
0.00 0.00 0.00 0.00 0.03 0.01 0.03 0.11 0.26 0.17 0.13 0.09 0.00 0.00 0.00 0.00 0.00 0.00 0.00 0.00 0.00 0.00 0.00 0.00 0.00 0.00 0.00 0.00 0.00 0.00 0.00 0.00 0.00 0.00 0.01 0.01 0.01 0.01 0.00 0.00 0.00 0.00 0.01 0.03
0.04 0.02 0.00 0.00 0.00 0.00 0.02 0.14 0.20 0.09 0.03 0.01 0.00 0.00 0.00 0.00 0.00 0.00 0.00 0.00 0.00 0.00 0.00 0.00 0.00 0.00 0.00 0.00 0.00 0.00 0.00 0.00 0.00 0.00 0.00 0.01 0.00 0.01 0.00 0.00 0.00 0.00 0.00 0.00
0.00 0.01 0.00 0.00 0.00 0.00 0.01 0.04 0.04 0.16 0.20 0.12 0.00 0.00 0.00 0.00 0.00 0.00 0.00 0.00 0.00 0.00 0.00 0.00 0.00 0.00 0.00 0.00 0.00 0.00 0.01 0.00 0.00 0.00 0.00 0.00 0.00 0.00 0.00 0.00 0.00 0.03 0.04 0.02
0.00 0.00 0.00 0.00 0.00 0.00 0.00 0.03 0.22 0.39 0.22 0.12 0.01 0.02 0.01 0.01 0.00 0.00 0.00 0.00 0.00 0.00 0.00 0.00 0.00 0.00 0.00 0.00 0.00 0.00 0.05 0.15 0.10 0.01 0.00 0.00 0.00 0.00 0.00 0.00 0.00 0.02 0.09 0.12
0.00 0.00 0.00 0.00 0.00 0.00 0.00 0.03 0.24 0.29 0.05 0.09 0.08 0.10 0.04 0.02 0.01 0.01 0.00 0.00 0.00 0.00 0.00 0.00 0.00 0.00 0.00 0.00 0.00 0.00 0.00 0.07 0.21 0.25 0.09 0.00 0.00 0.00 0.00 0.02 0.03 0.03 0.09 0.20
0.01 0.01 0.01 0.00 0.00 0.00 0.00 0.00 0.05 0.22 0.19 0.06 0.09 0.18 0.20 0.07 0.02 0.00 0.00 0.00 0.00 0.00 0.00 0.00 0.00 0.00 0.00 0.00 0.00 0.00 0.00 0.00 0.09 0.35 0.30 0.15 0.05 0.08 0.09 0.06 0.05 0.09 0.29 0.53
0.00 0.01 0.01 0.04 0.04 0.02 0.04 0.02 0.08 0.08 0.11 0.31 0.29 0.17 0.47 0.22 0.07 0.01 0.00 0.00 0.00 0.00 0.00 0.00 0.00 0.00 0.02 0.02 0.01 0.01 0.00 0.01 0.14 0.20 0.20 0.20 0.29 0.47 0.44 0.25 0.13 0.10 0.14 0.22
0.01 0.02 0.06 0.13 0.23 0.22 0.19 0.15 0.11 0.16 0.16 0.06 0.14 0.05 0.18 0.56 0.34 0.10 0.00 0.00 0.00 0.00 0.00 0.00 0.00 0.00 0.01 0.04 0.10 0.10 0.04 0.02 0.04 0.09 0.09 0.12 0.13 0.13 0.06 0.02 0.06 0.08 0.04 0.06
0.03 0.03 0.03 0.04 0.04 0.07 0.17 0.17 0.32 0.26 0.16 0.17 0.09 0.07 0.09 0.25 0.52 0.26 0.04 0.00 0.00 0.00 0.00 0.00 0.00 0.00 0.00 0.00 0.04 0.11 0.11 0.07 0.06 0.06 0.05 0.04 0.07 0.09 0.06 0.04 0.05 0.04 0.04 0.08
0.03 0.04 0.01 0.00 0.01 0.01 0.00 0.01 0.10 0.21 0.28 0.18 0.15 0.19 0.08 0.15 0.23 0.26 0.13 0.02 0.00 0.00 0.00 0.00 0.00 0.00 0.00 0.00 0.00 0.01 0.05 0.07 0.08 0.06 0.10 0.06 0.06 0.06 0.04 0.06 0.09 0.08 0.10 0.16
0.01 0.08 0.05 0.02 0.00 0.01 0.01 0.00 0.00 0.01 0.05 0.05 0.02 0.01 0.03 0.09 0.07 0.05 0.04 0.02 0.00 0.00 0.00 0.00 0.00 0.00 0.00 0.00 0.00 0.00 0.00 0.02 0.02 0.02 0.11 0.10 0.06 0.09 0.11 0.13 0.13 0.13 0.15 0.21
0.01 0.04 0.14 0.09 0.02 0.06 0.01 0.00 0.00 0.00 0.00 0.00 0.00 0.01 0.01 0.07 0.06 0.00 0.00 0.00 0.00 0.00 0.00 0.00 0.00 0.00 0.00 0.00 0.00 0.00 0.00 0.00 0.00 0.02 0.05 0.07 0.10 0.13 0.16 0.14 0.12 0.14 0.16 0.17
0.01 0.02 0.08 0.07 0.06 0.04 0.00 0.00 0.00 0.00 0.00 0.00 0.00 0.00 0.00 0.00 0.00 0.00 0.00 0.00 0.00 0.00 0.00 0.00 0.00 0.00 0.00 0.00 0.00 0.00 0.00 0.00 0.00 0.01 0.02 0.03 0.07 0.09 0.09 0.09 0.13 0.17 0.19 0.13
0.03 0.04 0.07 0.09 0.09 0.03 0.00 0.00 0.00 0.00 0.01 0.00 0.00 0.00 0.00 0.00 0.01 0.00 0.00 0.00 0.00 0.00 0.00 0.00 0.00 0.00 0.00 0.00 0.00 0.00 0.00 0.00 0.00 0.02 0.03 0.02 0.03 0.06 0.08 0.08 0.09 0.12 0.13 0.09
0.06 0.09 0.09 0.10 0.11 0.03 0.00 0.00 0.02 0.05 0.05 0.00 0.00 0.00 0.00 0.00 0.00 0.00 0.00 0.00 0.00 0.00 0.00 0.00 0.00 0.00 0.00 0.00 0.00 0.00 0.00 0.00 0.01 0.01 0.02 0.03 0.03 0.04 0.09 0.10 0.12 0.09 0.09 0.14
0.13 0.10 0.08 0.08 0.12 0.06 0.04 0.10 0.16 0.16 0.04 0.00 0.00 0.00 0.00 0.00 0.00 0.00 0.00 0.00 0.00 0.00 0.00 0.00 0.00 0.00 0.00 0.00 0.00 0.00 0.00 0.00 0.02 0.03 0.05 0.07 0.08 0.08 0.07 0.11 0.14 0.14 0.12 0.12
0.37 0.14 0.05 0.01 0.02 0.07 0.12 0.18 0.14 0.09 0.11 0.07 0.02 0.00 0.00 0.00 0.00 0.00 0.00 0.00 0.00 0.00 0.00 0.00 0.00 0.00 0.00 0.00 0.00 0.00 0.00 0.01 0.03 0.05 0.05 0.07 0.07 0.09 0.16 0.20 0.19 0.20 0.24 0.23
0.45 0.34 0.13 0.18 0.15 0.12 0.24 0.19 0.03 0.08 0.04 0.03 0.05 0.02 0.01 0.01 0.00 0.00 0.00 0.00 0.00 0.00 0.00 0.00 0.00 0.00 0.00 0.01 0.01 0.02 0.04 0.06 0.07 0.07 0.06 0.06 0.06 0.10 0.10 0.13 0.15 0.16 0.17 0.21
0.20 0.27 0.35 0.44 0.25 0.21 0.25 0.66 0.24 0.02 0.02 0.02 0.00 0.01 0.01 0.01 0.01 0.01 0.01 0.00 0.00 0.00 0.00 0.00 0.01 0.02 0.02 0.03 0.07 0.09 0.11 0.10 0.10 0.10 0.09 0.10 0.09 0.09 0.08 0.10 0.18 0.20 0.31 0.43
0.05 0.17 0.43 0.50 0.54 0.39 0.37 0.31 0.30 0.14 0.03 0.00 0.00 0.00 0.01 0.00 0.01 0.02 0.02 0.02 0.02 0.01 0.02 0.03 0.03 0.05 0.07 0.06 0.10 0.11 0.11 0.11 0.13 0.14 0.15 0.19 0.16 0.16 0.17 0.18 0.24 0.35 0.44 0.51

GFSCGP_prec_precacc24_090.txt.gz
Total_Precipitation_Accumulation
0.00 0.00 0.00 0.00 0.00 0.00 0.00 0.00 0.00 0.00 0.00 0.00 0.00 0.00 0.00 0.00 0.00 0.00 0.00 0.00 0.00 0.00 0.00 0.00 0.00 0.00 0.00 0.00 0.01 0.01 0.03 0.07 0.12 0.18 0.16 0.16 0.18 0.11 0.15 0.14 0.34 0.34 0.29 0.34
0.01 0.00 0.00 0.00 0.00 0.00 0.00 0.00 0.00 0.00 0.00 0.00 0.00 0.00 0.00 0.00 0.00 0.00 0.00 0.00 0.00 0.00 0.00 0.00 0.00 0.00 0.00 0.00 0.00 0.01 0.01 0.02 0.02 0.04 0.04 0.06 0.07 0.10 0.07 0.10 0.18 0.51 0.26 0.27
0.01 0.00 0.00 0.00 0.00 0.00 0.00 0.00 0.00 0.00 0.00 0.00 0.00 0.00 0.00 0.00 0.00 0.00 0.00 0.00 0.00 0.00 0.00 0.00 0.00 0.00 0.00 0.00 0.00 0.00 0.01 0.01 0.01 0.02 0.04 0.05 0.12 0.22 0.17 0.15 0.17 0.38 0.27 0.18
0.01 0.00 0.00 0.02 0.01 0.00 0.00 0.00 0.00 0.01 0.03 0.04 0.00 0.01 0.00 0.00 0.00 0.00 0.00 0.00 0.00 0.00 0.00 0.00 0.00 0.00 0.00 0.00 0.00 0.00 0.00 0.01 0.01 0.02 0.02 0.02 0.02 0.08 0.08 0.06 0.09 0.22 0.22 0.17
0.01 0.00 0.01 0.02 0.01 0.00 0.01 0.00 0.02 0.06 0.02 0.01 0.00 0.05 0.00 0.00 0.00 0.00 0.00 0.00 0.00 0.00 0.00 0.00 0.00 0.00 0.00 0.00 0.00 0.00 0.00 0.01 0.01 0.01 0.02 0.02 0.01 0.01 0.03 0.07 0.11 0.19 0.30 0.12
0.00 0.00 0.01 0.01 0.00 0.02 0.03 0.03 0.11 0.09 0.07 0.11 0.01 0.04 0.02 0.00 0.00 0.00 0.00 0.00 0.00 0.00 0.00 0.00 0.00 0.00 0.00 0.00 0.00 0.00 0.00 0.00 0.01 0.01 0.02 0.01 0.01 0.01 0.01 0.03 0.03 0.06 0.16 0.16
0.00 0.00 0.00 0.00 0.03 0.01 0.03 0.11 0.26 0.18 0.15 0.09 0.00 0.00 0.00 0.00 0.00 0.00 0.00 0.00 0.00 0.00 0.00 0.00 0.00 0.00 0.00 0.00 0.00 0.00 0.00 0.00 0.00 0.01 0.01 0.01 0.01 0.01 0.00 0.00 0.00 0.00 0.01 0.04
0.04 0.02 0.00 0.00 0.00 0.00 0.02 0.14 0.21 0.12 0.06 0.04 0.00 0.00 0.00 0.00 0.00 0.00 0.00 0.00 0.00 0.00 0.00 0.00 0.00 0.00 0.00 0.00 0.00 0.00 0.00 0.00 0.00 0.00 0.01 0.01 0.00 0.01 0.00 0.00 0.00 0.00 0.00 0.00
0.00 0.01 0.00 0.00 0.00 0.00 0.01 0.04 0.04 0.18 0.24 0.19 0.01 0.00 0.00 0.00 0.00 0.00 0.00 0.00 0.00 0.00 0.00 0.00 0.00 0.00 0.00 0.00 0.00 0.00 0.00 0.00 0.00 0.00 0.00 0.00 0.00 0.00 0.00 0.00 0.00 0.00 0.00 0.00
0.00 0.00 0.00 0.00 0.00 0.00 0.00 0.03 0.24 0.47 0.31 0.17 0.01 0.04 0.04 0.02 0.01 0.00 0.00 0.00 0.00 0.00 0.00 0.00 0.00 0.00 0.00 0.00 0.00 0.00 0.00 0.01 0.01 0.00 0.00 0.00 0.00 0.00 0.00 0.00 0.00 0.00 0.00 0.00
0.00 0.00 0.00 0.00 0.00 0.00 0.00 0.03 0.24 0.35 0.14 0.19 0.12 0.18 0.33 0.18 0.07 0.01 0.00 0.00 0.00 0.00 0.00 0.00 0.00 0.00 0.00 0.00 0.00 0.00 0.00 0.00 0.01 0.04 0.03 0.00 0.00 0.00 0.00 0.00 0.00 0.00 0.00 0.00
0.01 0.01 0.01 0.00 0.00 0.00 0.00 0.00 0.05 0.26 0.23 0.15 0.17 0.22 0.45 0.27 0.13 0.05 0.01 0.01 0.00 0.00 0.00 0.00 0.00 0.00 0.00 0.00 0.00 0.02 0.04 0.02 0.00 0.03 0.07 0.05 0.00 0.00 0.00 0.00 0.00 0.00 0.00 0.00
0.00 0.01 0.01 0.05 0.06 0.03 0.04 0.03 0.10 0.14 0.23 0.38 0.40 0.20 0.58 0.63 0.36 0.16 0.06 0.01 0.01 0.01 0.00 0.00 0.00 0.00 0.03 0.03 0.04 0.07 0.05 0.02 0.01 0.02 0.03 0.05 0.03 0.02 0.00 0.00 0.00 0.00 0.00 0.00
0.00 0.01 0.05 0.11 0.24 0.22 0.19 0.16 0.13 0.27 0.34 0.17 0.19 0.06 0.23 0.91 0.80 0.51 0.25 0.06 0.01 0.02 0.04 0.05 0.04 0.05 0.08 0.13 0.27 0.32 0.25 0.16 0.12 0.13 0.10 0.09 0.08 0.07 0.04 0.01 0.00 0.00 0.00 0.00
0.01 0.02 0.02 0.04 0.04 0.07 0.17 0.17 0.34 0.33 0.22 0.29 0.11 0.09 0.11 0.34 0.79 0.64 0.54 0.30 0.03 0.02 0.02 0.03 0.05 0.07 0.09 0.10 0.16 0.22 0.20 0.14 0.14 0.19 0.17 0.16 0.07 0.09 0.06 0.05 0.03 0.00 0.00 0.00
0.00 0.00 0.00 0.00 0.01 0.00 0.00 0.01 0.10 0.23 0.30 0.25 0.21 0.24 0.13 0.26 0.42 0.50 0.63 0.61 0.26 0.06 0.02 0.01 0.00 0.00 0.01 0.02 0.03 0.04 0.06 0.08 0.09 0.10 0.16 0.09 0.06 0.05 0.04 0.07 0.12 0.06 0.05 0.03
0.00 0.02 0.01 0.00 0.00 0.00 0.00 0.00 0.00 0.01 0.05 0.08 0.06 0.07 0.09 0.33 0.25 0.24 0.48 0.64 0.46 0.31 0.11 0.04 0.02 0.00 0.01 0.02 0.02 0.01 0.01 0.02 0.02 0.02 0.11 0.10 0.05 0.05 0.06 0.12 0.09 0.07 0.09 0.11
0.00 0.01 0.03 0.02 0.00 0.00 0.00 0.00 0.00 0.00 0.01 0.00 0.01 0.04 0.11 0.25 0.24 0.23 0.42 0.52 0.50 0.37 0.30 0.20 0.07 0.03 0.01 0.01 0.00 0.00 0.00 0.00 0.00 0.01 0.02 0.04 0.07 0.06 0.08 0.06 0.06 0.07 0.10 0.09
0.00 0.00 0.04 0.03 0.01 0.00 0.00 0.00 0.00 0.00 0.01 0.00 0.00 0.04 0.09 0.10 0.11 0.28 0.35 0.27 0.35 0.27 0.21 0.12 0.11 0.05 0.01 0.00 0.00 0.00 0.00 0.00 0.00 0.00 0.00 0.00 0.03 0.04 0.04 0.04 0.06 0.09 0.11 0.07
0.01 0.01 0.04 0.05 0.04 0.00 0.00 0.00 0.00 0.00 0.01 0.00 0.00 0.01 0.01 0.07 0.13 0.05 0.10 0.08 0.22 0.16 0.06 0.03 0.01 0.01 0.02 0.00 0.00 0.00 0.00 0.00 0.00 0.00 0.00 0.00 0.01 0.03 0.05 0.04 0.03 0.08 0.10 0.05
0.05 0.05 0.05 0.06 0.07 0.01 0.00 0.00 0.01 0.04 0.04 0.00 0.04 0.03 0.02 0.02 0.03 0.03 0.02 0.13 0.25 0.07 0.01 0.00 0.00 0.00 0.00 0.00 0.00 0.00 0.00 0.00 0.00 0.00 0.00 0.01 0.01 0.02 0.08 0.08 0.09 0.06 0.06 0.11
0.12 0.10 0.07 0.07 0.12 0.03 0.00 0.03 0.10 0.14 0.04 0.02 0.05 0.06 0.05 0.03 0.02 0.02 0.02 0.01 0.01 0.01 0.01 0.00 0.00 0.00 0.00 0.00 0.00 0.00 0.00 0.00 0.00 0.00 0.02 0.06 0.07 0.07 0.06 0.09 0.13 0.13 0.10 0.10
0.38 0.16 0.11 0.03 0.03 0.06 0.11 0.11 0.07 0.06 0.10 0.09 0.05 0.05 0.10 0.22 0.31 0.31 0.16 0.01 0.00 0.00 0.00 0.00 0.00 0.00 0.00 0.00 0.00 0.00 0.00 0.00 0.01 0.03 0.05 0.06 0.05 0.07 0.13 0.16 0.15 0.16 0.20 0.20
0.48 0.64 0.67 0.62 0.42 0.16 0.26 0.22 0.06 0.10 0.06 0.03 0.06 0.05 0.05 0.09 0.10 0.10 0.06 0.03 0.01 0.01 0.00 0.00 0.00 0.00 0.00 0.01 0.01 0.02 0.01 0.03 0.04 0.06 0.06 0.06 0.05 0.08 0.08 0.11 0.13 0.14 0.16 0.19
0.35 0.51 0.59 0.91 0.63 0.41 0.38 0.76 0.28 0.06 0.05 0.03 0.01 0.01 0.03 0.03 0.03 0.03 0.02 0.00 0.00 0.00 0.00 0.00 0.01 0.03 0.02 0.02 0.04 0.06 0.08 0.09 0.10 0.10 0.09 0.10 0.09 0.09 0.08 0.11 0.19 0.21 0.34 0.45
0.13 0.31 0.63 0.84 1.05 0.85 0.72 0.61 0.50 0.31 0.16 0.08 0.05 0.02 0.01 0.00 0.00 0.01 0.02 0.02 0.02 0.02 0.02 0.03 0.03 0.06 0.07 0.06 0.10 0.11 0.11 0.11 0.13 0.14 0.15 0.19 0.16 0.16 0.17 0.18 0.24 0.36 0.45 0.52

GFSCGP_prec_precacc24_093.txt.gz
Total_Precipitation_Accumulation
0.00 0.00 0.00 0.00 0.00 0.00 0.00 0.00 0.00 0.00 0.00 0.00 0.00 0.00 0.00 0.00 0.00 0.00 0.00 0.00 0.00 0.00 0.00 0.00 0.00 0.00 0.00 0.00 0.00 0.01 0.03 0.05 0.09 0.16 0.14 0.14 0.16 0.10 0.14 0.13 0.30 0.38 0.65 0.67
0.01 0.00 0.00 0.00 0.00 0.00 0.00 0.00 0.00 0.00 0.00 0.00 0.00 0.00 0.00 0.00 0.00 0.00 0.00 0.00 0.00 0.00 0.00 0.00 0.00 0.00 0.00 0.00 0.00 0.01 0.01 0.02 0.02 0.03 0.03 0.05 0.06 0.06 0.05 0.08 0.16 0.61 0.47 0.45
0.01 0.00 0.00 0.00 0.00 0.00 0.00 0.00 0.00 0.00 0.00 0.00 0.00 0.00 0.00 0.00 0.00 0.00 0.00 0.00 0.00 0.00 0.00 0.00 0.00 0.00 0.00 0.00 0.00 0.00 0.01 0.01 0.01 0.02 0.02 0.03 0.09 0.13 0.13 0.12 0.13 0.40 0.36 0.30
0.01 0.00 0.00 0.02 0.01 0.00 0.00 0.00 0.00 0.01 0.03 0.04 0.00 0.01 0.00 0.00 0.00 0.00 0.00 0.00 0.00 0.00 0.00 0.00 0.00 0.00 0.00 0.00 0.00 0.00 0.00 0.01 0.01 0.02 0.02 0.01 0.02 0.05 0.05 0.05 0.06 0.20 0.25 0.26
0.01 0.00 0.01 0.02 0.01 0.00 0.01 0.00 0.02 0.06 0.02 0.01 0.00 0.05 0.00 0.00 0.00 0.00 0.00 0.00 0.00 0.00 0.00 0.00 0.00 0.00 0.00 0.00 0.00 0.00 0.00 0.01 0.01 0.01 0.02 0.02 0.01 0.01 0.02 0.06 0.10 0.18 0.29 0.24
0.00 0.00 0.01 0.01 0.00 0.02 0.03 0.03 0.11 0.09 0.07 0.11 0.01 0.04 0.02 0.00 0.00 0.00 0.00 0.00 0.00 0.00 0.00 0.00 0.00 0.00 0.00 0.00 0.00 0.00 0.00 0.00 0.01 0.01 0.02 0.01 0.01 0.01 0.01 0.03 0.03 0.06 0.18 0.17
0.00 0.00 0.00 0.00 0.03 0.01 0.03 0.11 0.26 0.18 0.15 0.09 0.00 0.00 0.00 0.00 0.00 0.00 0.00 0.00 0.00 0.00 0.00 0.00 0.00 0.00 0.00 0.00 0.00 0.00 0.00 0.00 0.00 0.01 0.01 0.01 0.01 0.01 0.00 0.00 0.00 0.00 0.03 0.05
0.03 0.02 0.00 0.00 0.00 0.00 0.02 0.14 0.21 0.12 0.06 0.04 0.00 0.00 0.00 0.00 0.00 0.00 0.00 0.00 0.00 0.00 0.00 0.00 0.00 0.00 0.00 0.00 0.00 0.00 0.00 0.00 0.00 0.01 0.01 0.01 0.00 0.01 0.00 0.00 0.00 0.00 0.00 0.01
0.00 0.00 0.00 0.00 0.00 0.00 0.01 0.04 0.04 0.18 0.24 0.19 0.01 0.00 0.00 0.00 0.00 0.00 0.00 0.00 0.00 0.00 0.00 0.00 0.00 0.00 0.00 0.00 0.00 0.00 0.00 0.00 0.00 0.00 0.01 0.00 0.01 0.00 0.00 0.00 0.00 0.00 0.00 0.00
0.00 0.00 0.00 0.00 0.00 0.00 0.00 0.03 0.24 0.47 0.31 0.17 0.01 0.04 0.04 0.02 0.01 0.00 0.00 0.00 0.00 0.00 0.00 0.00 0.00 0.00 0.00 0.00 0.00 0.00 0.00 0.00 0.00 0.00 0.00 0.00 0.00 0.00 0.00 0.00 0.00 0.00 0.00 0.00
0.00 0.00 0.00 0.00 0.00 0.00 0.00 0.03 0.24 0.35 0.14 0.19 0.12 0.18 0.33 0.18 0.07 0.01 0.00 0.01 0.01 0.01 0.00 0.00 0.00 0.00 0.00 0.00 0.00 0.01 0.00 0.01 0.00 0.00 0.00 0.00 0.00 0.01 0.00 0.00 0.00 0.00 0.00 0.00
0.01 0.01 0.01 0.00 0.00 0.00 0.00 0.00 0.05 0.26 0.23 0.16 0.19 0.23 0.45 0.27 0.14 0.06 0.06 0.04 0.03 0.07 0.10 0.01 0.00 0.00 0.00 0.00 0.01 0.03 0.04 0.03 0.01 0.01 0.00 0.00 0.00 0.00 0.00 0.00 0.00 0.00 0.00 0.00
0.00 0.01 0.01 0.07 0.07 0.03 0.04 0.03 0.10 0.14 0.24 0.39 0.42 0.20 0.58 0.63 0.36 0.16 0.11 0.09 0.07 0.11 0.16 0.10 0.02 0.03 0.05 0.06 0.06 0.08 0.06 0.03 0.03 0.03 0.02 0.01 0.01 0.00 0.00 0.00 0.00 0.00 0.00 0.00
0.01 0.01 0.04 0.10 0.24 0.22 0.19 0.16 0.13 0.27 0.34 0.17 0.20 0.06 0.23 0.91 0.80 0.51 0.31 0.18 0.29 0.27 0.19 0.16 0.09 0.08 0.11 0.17 0.31 0.36 0.29 0.22 0.17 0.21 0.20 0.13 0.08 0.06 0.03 0.00 0.00 0.00 0.00 0.00
0.01 0.02 0.02 0.04 0.04 0.07 0.17 0.17 0.34 0.33 0.22 0.29 0.11 0.09 0.11 0.34 0.80 0.66 0.58 0.45 0.36 0.34 0.19 0.26 0.16 0.14 0.15 0.16 0.21 0.27 0.29 0.25 0.21 0.28 0.28 0.22 0.09 0.10 0.06 0.04 0.02 0.00 0.00 0.00
0.00 0.00 0.00 0.00 0.01 0.00 0.00 0.01 0.10 0.23 0.30 0.25 0.21 0.24 0.13 0.26 0.47 0.57 0.69 0.72 0.42 0.25 0.12 0.23 0.09 0.08 0.10 0.09 0.09 0.09 0.12 0.14 0.15 0.15 0.22 0.15 0.10 0.06 0.05 0.08 0.12 0.06 0.04 0.02
0.00 0.01 0.00 0.00 0.00 0.00 0.00 0.00 0.00 0.01 0.05 0.08 0.06 0.07 0.09 0.35 0.33 0.52 0.57 0.68 0.63 0.53 0.28 0.10 0.02 0.01 0.01 0.03 0.03 0.05 0.07 0.15 0.15 0.16 0.18 0.14 0.08 0.07 0.07 0.13 0.11 0.09 0.11 0.11
0.00 0.01 0.03 0.02 0.00 0.00 0.00 0.00 0.00 0.00 0.01 0.00 0.01 0.04 0.11 0.29 0.34 0.59 0.62 0.64 0.75 0.69 0.62 0.51 0.26 0.09 0.01 0.02 0.03 0.02 0.04 0.07 0.18 0.14 0.06 0.09 0.11 0.08 0.08 0.07 0.06 0.08 0.11 0.11
0.00 0.00 0.02 0.02 0.01 0.00 0.00 0.00 0.00 0.00 0.01 0.00 0.00 0.04 0.09 0.11 0.18 0.47 0.62 0.41 0.62 0.52 0.40 0.30 0.30 0.18 0.07 0.02 0.02 0.03 0.01 0.02 0.02 0.03 0.01 0.00 0.03 0.04 0.04 0.04 0.05 0.09 0.10 0.04
0.00 0.00 0.02 0.03 0.03 0.00 0.00 0.00 0.00 0.00 0.01 0.00 0.00 0.01 0.01 0.07 0.20 0.14 0.25 0.21 0.41 0.25 0.12 0.06 0.04 0.07 0.08 0.03 0.01 0.02 0.02 0.01 0.00 0.00 0.00 0.00 0.01 0.03 0.05 0.04 0.03 0.07 0.08 0.03
0.04 0.05 0.04 0.03 0.06 0.01 0.00 0.00 0.00 0.03 0.04 0.00 0.04 0.03 0.03 0.03 0.04 0.13 0.09 0.26 0.40 0.08 0.01 0.01 0.01 0.01 0.01 0.02 0.02 0.01 0.01 0.01 0.00 0.00 0.00 0.00 0.00 0.00 0.06 0.07 0.07 0.04 0.05 0.09
0.12 0.09 0.06 0.06 0.10 0.03 0.00 0.03 0.10 0.14 0.04 0.02 0.05 0.06 0.06 0.09 0.09 0.12 0.18 0.17 0.06 0.01 0.01 0.00 0.00 0.00 0.00 0.00 0.00 0.01 0.01 0.00 0.00 0.00 0.00 0.00 0.00 0.01 0.01 0.07 0.11 0.12 0.10 0.08
0.38 0.18 0.12 0.04 0.07 0.11 0.12 0.11 0.07 0.07 0.11 0.10 0.07 0.06 0.12 0.32 0.52 0.60 0.52 0.32 0.07 0.00 0.00 0.00 0.00 0.00 0.00 0.00 0.00 0.00 0.00 0.00 0.00 0.00 0.00 0.01 0.01 0.03 0.09 0.13 0.13 0.15 0.17 0.16
0.48 0.64 0.68 0.64 0.54 0.28 0.28 0.23 0.08 0.14 0.17 0.09 0.08 0.11 0.13 0.20 0.31 0.35 0.30 0.21 0.09 0.02 0.00 0.00 0.00 0.00 0.00 0.01 0.01 0.02 0.02 0.02 0.03 0.02 0.03 0.03 0.04 0.07 0.07 0.10 0.11 0.12 0.14 0.16
0.36 0.51 0.61 0.96 0.69 0.49 0.41 0.84 0.36 0.13 0.10 0.07 0.02 0.01 0.03 0.03 0.04 0.04 0.02 0.01 0.00 0.00 0.00 0.00 0.01 0.01 0.02 0.02 0.04 0.06 0.07 0.08 0.08 0.09 0.09 0.10 0.09 0.09 0.08 0.11 0.18 0.20 0.31 0.39
0.14 0.35 0.66 0.87 1.09 0.91 0.79 0.72 0.63 0.42 0.24 0.11 0.06 0.03 0.02 0.01 0.00 0.00 0.00 0.01 0.02 0.01 0.02 0.03 0.03 0.05 0.06 0.06 0.10 0.11 0.11 0.11 0.13 0.14 0.15 0.19 0.16 0.16 0.17 0.18 0.23 0.35 0.44 0.50

GFSCGP_prec_precacc24_096.txt.gz
Total_Precipitation_Accumulation
0.00 0.00 0.00 0.00 0.00 0.00 0.00 0.00 0.00 0.00 0.00 0.00 0.00 0.00 0.00 0.00 0.00 0.00 0.00 0.00 0.00 0.00 0.00 0.00 0.00 0.00 0.00 0.00 0.00 0.01 0.02 0.02 0.03 0.08 0.10 0.08 0.11 0.06 0.08 0.08 0.29 0.40 0.70 0.82
0.01 0.01 0.00 0.00 0.00 0.00 0.01 0.00 0.00 0.00 0.00 0.00 0.00 0.00 0.00 0.00 0.00 0.00 0.00 0.00 0.00 0.00 0.00 0.00 0.00 0.00 0.00 0.00 0.00 0.01 0.01 0.02 0.02 0.02 0.02 0.02 0.02 0.03 0.04 0.04 0.15 0.61 0.62 0.66
0.02 0.01 0.00 0.00 0.00 0.00 0.00 0.00 0.00 0.00 0.00 0.00 0.00 0.00 0.00 0.00 0.00 0.00 0.00 0.00 0.00 0.00 0.00 0.00 0.00 0.00 0.00 0.00 0.00 0.00 0.01 0.01 0.01 0.01 0.02 0.01 0.05 0.11 0.11 0.08 0.10 0.34 0.41 0.50
0.02 0.00 0.00 0.03 0.02 0.00 0.00 0.00 0.00 0.01 0.03 0.04 0.00 0.01 0.00 0.00 0.00 0.00 0.00 0.00 0.00 0.00 0.00 0.00 0.00 0.00 0.00 0.00 0.00 0.00 0.00 0.01 0.01 0.02 0.02 0.01 0.02 0.05 0.05 0.05 0.05 0.11 0.21 0.34
0.01 0.00 0.01 0.02 0.01 0.00 0.01 0.00 0.02 0.06 0.02 0.01 0.00 0.05 0.00 0.00 0.00 0.00 0.00 0.00 0.00 0.00 0.00 0.00 0.00 0.00 0.00 0.00 0.00 0.00 0.00 0.01 0.01 0.01 0.02 0.02 0.01 0.01 0.02 0.05 0.08 0.08 0.14 0.23
0.00 0.00 0.01 0.02 0.00 0.02 0.03 0.03 0.11 0.09 0.07 0.11 0.01 0.04 0.02 0.00 0.00 0.00 0.00 0.00 0.00 0.00 0.00 0.00 0.00 0.00 0.00 0.00 0.00 0.00 0.00 0.00 0.01 0.01 0.02 0.01 0.01 0.01 0.01 0.02 0.03 0.04 0.10 0.15
0.00 0.00 0.00 0.00 0.03 0.01 0.03 0.11 0.26 0.18 0.15 0.09 0.00 0.00 0.00 0.00 0.00 0.00 0.00 0.00 0.00 0.00 0.00 0.00 0.00 0.00 0.00 0.00 0.00 0.00 0.00 0.00 0.00 0.01 0.01 0.01 0.01 0.00 0.00 0.01 0.01 0.00 0.03 0.05
0.02 0.01 0.00 0.00 0.00 0.00 0.02 0.14 0.21 0.12 0.06 0.04 0.00 0.00 0.00 0.00 0.00 0.00 0.00 0.00 0.00 0.00 0.00 0.00 0.00 0.00 0.00 0.00 0.00 0.00 0.00 0.00 0.00 0.01 0.01 0.01 0.00 0.01 0.00 0.00 0.01 0.01 0.01 0.01
0.00 0.00 0.00 0.00 0.00 0.00 0.01 0.04 0.04 0.18 0.24 0.19 0.01 0.00 0.00 0.00 0.00 0.00 0.00 0.00 0.00 0.00 0.00 0.00 0.00 0.00 0.00 0.00 0.00 0.00 0.00 0.00 0.00 0.00 0.01 0.01 0.01 0.01 0.00 0.00 0.01 0.01 0.01 0.00
0.00 0.00 0.00 0.00 0.00 0.00 0.00 0.03 0.24 0.47 0.31 0.17 0.01 0.04 0.05 0.02 0.01 0.00 0.00 0.00 0.00 0.00 0.00 0.00 0.00 0.00 0.00 0.00 0.00 0.00 0.01 0.00 0.00 0.00 0.00 0.00 0.00 0.00 0.00 0.00 0.00 0.00 0.00 0.00
0.00 0.00 0.00 0.00 0.00 0.00 0.00 0.03 0.24 0.35 0.14 0.19 0.12 0.18 0.33 0.18 0.07 0.02 0.00 0.01 0.01 0.01 0.00 0.00 0.00 0.00 0.00 0.00 0.00 0.01 0.01 0.01 0.01 0.00 0.00 0.00 0.00 0.01 0.00 0.00 0.00 0.00 0.00 0.00
0.02 0.01 0.01 0.00 0.00 0.00 0.00 0.00 0.05 0.26 0.23 0.16 0.19 0.23 0.45 0.27 0.14 0.07 0.06 0.04 0.03 0.07 0.11 0.04 0.02 0.01 0.01 0.00 0.01 0.03 0.05 0.04 0.02 0.01 0.01 0.00 0.00 0.00 0.01 0.00 0.00 0.00 0.00 0.00
0.01 0.03 0.04 0.13 0.09 0.03 0.04 0.03 0.10 0.14 0.24 0.39 0.43 0.20 0.58 0.63 0.36 0.17 0.12 0.09 0.07 0.12 0.17 0.14 0.06 0.06 0.08 0.07 0.07 0.09 0.07 0.04 0.05 0.06 0.05 0.01 0.01 0.00 0.00 0.00 0.00 0.00 0.00 0.00
0.01 0.02 0.07 0.13 0.25 0.22 0.19 0.16 0.13 0.27 0.34 0.17 0.20 0.06 0.23 0.91 0.80 0.52 0.33 0.19 0.30 0.30 0.26 0.25 0.20 0.14 0.14 0.20 0.33 0.38 0.32 0.25 0.23 0.25 0.26 0.16 0.09 0.06 0.03 0.01 0.01 0.00 0.00 0.00
0.02 0.02 0.03 0.04 0.04 0.07 0.17 0.17 0.34 0.33 0.22 0.29 0.11 0.09 0.11 0.34 0.80 0.67 0.60 0.45 0.44 0.72 0.50 0.45 0.28 0.25 0.21 0.20 0.25 0.32 0.35 0.38 0.34 0.37 0.39 0.29 0.10 0.10 0.07 0.06 0.03 0.01 0.01 0.00
0.03 0.00 0.00 0.00 0.01 0.00 0.00 0.01 0.10 0.23 0.30 0.25 0.21 0.24 0.13 0.26 0.47 0.61 0.74 0.74 0.47 0.65 0.61 0.73 0.44 0.23 0.22 0.20 0.15 0.17 0.24 0.27 0.27 0.24 0.31 0.24 0.14 0.08 0.05 0.08 0.12 0.07 0.05 0.03
0.00 0.01 0.00 0.00 0.00 0.00 0.00 0.00 0.00 0.01 0.05 0.08 0.06 0.07 0.10 0.35 0.33 0.60 0.73 0.80 0.71 0.67 0.61 0.72 0.50 0.21 0.11 0.16 0.14 0.18 0.20 0.29 0.27 0.24 0.26 0.21 0.15 0.16 0.14 0.16 0.12 0.10 0.12 0.12
0.00 0.01 0.02 0.01 0.00 0.00 0.00 0.00 0.00 0.00 0.01 0.00 0.01 0.05 0.12 0.29 0.34 0.62 0.74 0.80 0.88 0.81 0.81 1.01 0.89 0.36 0.14 0.12 0.08 0.06 0.10 0.15 0.30 0.27 0.31 0.28 0.23 0.18 0.18 0.12 0.09 0.09 0.12 0.12
0.00 0.00 0.02 0.01 0.01 0.00 0.00 0.00 0.00 0.00 0.01 0.00 0.00 0.04 0.09 0.11 0.18 0.51 0.74 0.52 0.72 0.63 0.48 0.36 0.47 0.54 0.29 0.08 0.04 0.03 0.03 0.03 0.03 0.09 0.10 0.17 0.24 0.27 0.21 0.12 0.08 0.10 0.11 0.05
0.00 0.00 0.02 0.02 0.03 0.00 0.00 0.00 0.00 0.00 0.01 0.00 0.00 0.01 0.01 0.08 0.21 0.15 0.28 0.33 0.50 0.31 0.16 0.06 0.05 0.11 0.21 0.17 0.09 0.06 0.05 0.03 0.02 0.02 0.03 0.03 0.04 0.07 0.09 0.09 0.07 0.08 0.08 0.02
0.03 0.04 0.03 0.02 0.04 0.01 0.00 0.00 0.00 0.04 0.04 0.00 0.04 0.03 0.04 0.05 0.08 0.16 0.12 0.36 0.54 0.10 0.02 0.01 0.01 0.01 0.01 0.04 0.05 0.06 0.06 0.07 0.04 0.02 0.01 0.02 0.02 0.02 0.06 0.05 0.06 0.04 0.04 0.08
0.12 0.09 0.06 0.05 0.09 0.03 0.00 0.02 0.09 0.15 0.05 0.03 0.06 0.07 0.07 0.13 0.25 0.33 0.37 0.35 0.17 0.02 0.01 0.00 0.00 0.00 0.00 0.00 0.00 0.02 0.02 0.01 0.01 0.02 0.01 0.01 0.01 0.01 0.01 0.05 0.07 0.08 0.08 0.07
0.38 0.18 0.12 0.06 0.10 0.14 0.13 0.11 0.08 0.08 0.12 0.13 0.10 0.09 0.14 0.36 0.59 0.70 0.67 0.53 0.26 0.07 0.00 0.00 0.00 0.00 0.00 0.00 0.00 0.00 0.01 0.00 0.00 0.00 0.00 0.00 0.00 0.01 0.06 0.10 0.10 0.13 0.16 0.16
0.48 0.64 0.69 0.69 0.56 0.29 0.31 0.25 0.10 0.16 0.23 0.18 0.11 0.13 0.16 0.23 0.36 0.41 0.38 0.34 0.21 0.05 0.01 0.00 0.00 0.00 0.00 0.00 0.01 0.02 0.02 0.02 0.02 0.02 0.02 0.01 0.01 0.04 0.05 0.09 0.11 0.12 0.14 0.15
0.36 0.51 0.62 1.00 0.72 0.51 0.42 0.86 0.39 0.16 0.12 0.09 0.03 0.02 0.04 0.03 0.04 0.04 0.02 0.01 0.00 0.00 0.00 0.00 0.00 0.00 0.00 0.01 0.03 0.05 0.06 0.07 0.08 0.09 0.09 0.09 0.08 0.08 0.08 0.11 0.18 0.20 0.32 0.37
0.14 0.37 0.69 0.90 1.11 0.94 0.82 0.75 0.66 0.45 0.27 0.13 0.07 0.04 0.02 0.01 0.00 0.00 0.00 0.00 0.00 0.00 0.00 0.01 0.01 0.03 0.05 0.05 0.08 0.10 0.09 0.09 0.11 0.14 0.15 0.18 0.16 0.16 0.17 0.18 0.22 0.32 0.42 0.47

GFSCGP_prec_precacc24_099.txt.gz
Total_Precipitation_Accumulation
0.00 0.00 0.00 0.00 0.00 0.00 0.00 0.00 0.01 0.00 0.00 0.00 0.00 0.00 0.00 0.00 0.00 0.00 0.00 0.00 0.00 0.00 0.00 0.00 0.00 0.00 0.00 0.00 0.00 0.00 0.01 0.01 0.02 0.02 0.03 0.03 0.05 0.04 0.06 0.07 0.29 0.42 0.74 0.86
0.01 0.01 0.00 0.00 0.00 0.00 0.03 0.05 0.01 0.00 0.00 0.00 0.00 0.00 0.00 0.00 0.00 0.00 0.00 0.00 0.00 0.00 0.00 0.00 0.00 0.00 0.00 0.00 0.00 0.00 0.00 0.01 0.01 0.01 0.01 0.00 0.01 0.02 0.03 0.05 0.16 0.64 0.66 0.68
0.01 0.01 0.00 0.00 0.00 0.00 0.00 0.00 0.00 0.00 0.00 0.00 0.00 0.00 0.00 0.00 0.00 0.00 0.00 0.00 0.00 0.00 0.00 0.00 0.00 0.00 0.00 0.00 0.00 0.00 0.00 0.00 0.01 0.01 0.01 0.00 0.01 0.02 0.05 0.06 0.10 0.35 0.42 0.51
0.01 0.00 0.00 0.03 0.02 0.00 0.00 0.00 0.00 0.01 0.03 0.04 0.00 0.01 0.00 0.00 0.00 0.00 0.00 0.00 0.00 0.00 0.00 0.00 0.00 0.00 0.00 0.00 0.00 0.00 0.00 0.01 0.01 0.02 0.01 0.01 0.01 0.02 0.02 0.02 0.04 0.11 0.20 0.35
0.00 0.00 0.01 0.02 0.01 0.00 0.01 0.00 0.02 0.06 0.02 0.01 0.00 0.05 0.00 0.00 0.00 0.00 0.00 0.00 0.00 0.00 0.00 0.00 0.00 0.00 0.00 0.00 0.00 0.00 0.00 0.00 0.01 0.01 0.01 0.01 0.01 0.01 0.01 0.02 0.03 0.06 0.11 0.23
0.00 0.00 0.01 0.02 0.00 0.02 0.03 0.03 0.11 0.09 0.07 0.11 0.01 0.04 0.02 0.00 0.00 0.00 0.00 0.00 0.00 0.00 0.00 0.00 0.00 0.00 0.00 0.00 0.00 0.00 0.00 0.00 0.01 0.01 0.01 0.01 0.01 0.01 0.01 0.01 0.02 0.02 0.05 0.11
0.05 0.02 0.00 0.00 0.03 0.01 0.03 0.11 0.26 0.19 0.16 0.09 0.00 0.00 0.00 0.00 0.00 0.00 0.00 0.00 0.00 0.00 0.00 0.00 0.00 0.00 0.00 0.00 0.00 0.00 0.00 0.00 0.00 0.01 0.01 0.01 0.01 0.00 0.00 0.01 0.01 0.01 0.02 0.03
0.05 0.03 0.01 0.00 0.00 0.00 0.02 0.14 0.22 0.13 0.07 0.04 0.00 0.00 0.00 0.00 0.00 0.00 0.00 0.00 0.00 0.00 0.00 0.00 0.00 0.00 0.00 0.00 0.00 0.00 0.00 0.00 0.00 0.01 0.01 0.01 0.00 0.00 0.00 0.00 0.01 0.01 0.01 0.01
0.01 0.01 0.00 0.00 0.00 0.00 0.01 0.04 0.05 0.19 0.24 0.19 0.01 0.00 0.00 0.00 0.00 0.00 0.00 0.00 0.00 0.00 0.00 0.00 0.00 0.00 0.00 0.00 0.00 0.00 0.00 0.00 0.00 0.00 0.01 0.01 0.01 0.01 0.00 0.00 0.01 0.01 0.01 0.00
0.00 0.01 0.00 0.00 0.01 0.01 0.00 0.03 0.24 0.47 0.32 0.17 0.01 0.04 0.08 0.04 0.01 0.00 0.00 0.00 0.00 0.00 0.00 0.00 0.00 0.00 0.00 0.00 0.00 0.00 0.01 0.00 0.00 0.01 0.00 0.00 0.00 0.00 0.00 0.00 0.01 0.01 0.01 0.00
0.00 0.01 0.00 0.00 0.02 0.01 0.00 0.04 0.24 0.35 0.14 0.21 0.13 0.24 0.35 0.19 0.07 0.02 0.00 0.01 0.01 0.01 0.00 0.00 0.00 0.00 0.00 0.00 0.00 0.01 0.01 0.02 0.01 0.00 0.01 0.00 0.00 0.01 0.00 0.00 0.01 0.00 0.00 0.00
0.03 0.02 0.01 0.01 0.00 0.00 0.00 0.01 0.05 0.27 0.24 0.16 0.20 0.30 0.46 0.27 0.14 0.07 0.06 0.04 0.03 0.07 0.11 0.04 0.02 0.02 0.01 0.02 0.03 0.04 0.06 0.04 0.02 0.02 0.02 0.00 0.00 0.00 0.01 0.00 0.01 0.00 0.00 0.00
0.04 0.06 0.06 0.17 0.11 0.04 0.04 0.03 0.10 0.16 0.26 0.39 0.42 0.29 0.59 0.63 0.36 0.17 0.12 0.09 0.07 0.12 0.17 0.14 0.07 0.07 0.10 0.12 0.09 0.11 0.09 0.05 0.07 0.07 0.05 0.02 0.01 0.01 0.01 0.01 0.01 0.01 0.01 0.01
0.02 0.05 0.09 0.13 0.25 0.23 0.20 0.17 0.15 0.28 0.36 0.18 0.20 0.07 0.24 0.92 0.81 0.52 0.33 0.19 0.30 0.30 0.26 0.25 0.20 0.17 0.18 0.26 0.39 0.43 0.37 0.29 0.29 0.30 0.29 0.20 0.11 0.06 0.04 0.01 0.02 0.01 0.01 0.02
0.03 0.03 0.08 0.05 0.03 0.07 0.19 0.20 0.36 0.34 0.23 0.29 0.11 0.09 0.12 0.35 0.81 0.67 0.60 0.46 0.44 0.72 0.50 0.47 0.33 0.30 0.27 0.27 0.32 0.39 0.42 0.45 0.44 0.46 0.46 0.34 0.14 0.11 0.07 0.07 0.04 0.01 0.01 0.01
0.05 0.01 0.01 0.00 0.01 0.00 0.00 0.01 0.10 0.23 0.30 0.25 0.21 0.25 0.15 0.27 0.47 0.62 0.74 0.75 0.49 0.66 0.67 0.86 0.61 0.38 0.35 0.29 0.25 0.26 0.32 0.34 0.36 0.33 0.38 0.33 0.21 0.11 0.06 0.09 0.13 0.07 0.05 0.03
0.01 0.01 0.00 0.00 0.00 0.00 0.00 0.00 0.00 0.01 0.05 0.08 0.06 0.08 0.13 0.35 0.33 0.60 0.74 0.81 0.73 0.69 0.66 0.93 0.85 0.57 0.39 0.38 0.29 0.32 0.31 0.37 0.34 0.34 0.37 0.32 0.24 0.21 0.16 0.17 0.14 0.12 0.13 0.13
0.01 0.00 0.01 0.01 0.00 0.00 0.00 0.00 0.00 0.00 0.01 0.00 0.01 0.05 0.13 0.29 0.35 0.63 0.76 0.81 0.90 0.84 0.86 1.11 1.17 0.84 0.47 0.34 0.26 0.25 0.28 0.30 0.48 0.46 0.53 0.48 0.39 0.27 0.24 0.21 0.16 0.15 0.16 0.15
0.00 0.00 0.00 0.01 0.00 0.00 0.00 0.00 0.00 0.00 0.01 0.00 0.00 0.04 0.10 0.11 0.19 0.53 0.77 0.54 0.75 0.69 0.50 0.37 0.57 0.83 0.76 0.49 0.27 0.17 0.20 0.17 0.19 0.35 0.31 0.38 0.47 0.51 0.45 0.32 0.28 0.26 0.27 0.17
0.00 0.00 0.01 0.01 0.02 0.01 0.02 0.00 0.00 0.00 0.02 0.00 0.00 0.01 0.02 0.09 0.24 0.19 0.31 0.36 0.54 0.33 0.16 0.06 0.05 0.12 0.29 0.45 0.46 0.28 0.20 0.24 0.19 0.16 0.19 0.22 0.21 0.23 0.33 0.36 0.34 0.31 0.30 0.18
0.02 0.03 0.02 0.01 0.04 0.01 0.00 0.00 0.00 0.04 0.06 0.01 0.04 0.03 0.04 0.07 0.15 0.25 0.19 0.43 0.60 0.11 0.02 0.01 0.01 0.01 0.01 0.05 0.15 0.23 0.22 0.27 0.25 0.11 0.07 0.11 0.16 0.07 0.09 0.10 0.15 0.15 0.15 0.15
0.11 0.09 0.05 0.05 0.07 0.03 0.00 0.02 0.08 0.14 0.06 0.03 0.06 0.07 0.08 0.14 0.28 0.40 0.47 0.49 0.27 0.06 0.01 0.00 0.00 0.00 0.00 0.00 0.01 0.05 0.06 0.06 0.08 0.12 0.08 0.03 0.02 0.04 0.04 0.08 0.10 0.10 0.08 0.06
0.36 0.19 0.12 0.07 0.11 0.16 0.14 0.10 0.09 0.09 0.13 0.14 0.11 0.10 0.15 0.37 0.61 0.73 0.70 0.56 0.31 0.09 0.00 0.00 0.00 0.00 0.00 0.00 0.00 0.00 0.02 0.02 0.01 0.01 0.03 0.04 0.02 0.02 0.06 0.10 0.09 0.11 0.12 0.11
0.49 0.64 0.68 0.68 0.57 0.29 0.32 0.26 0.11 0.17 0.24 0.21 0.13 0.14 0.16 0.24 0.36 0.41 0.39 0.34 0.21 0.05 0.01 0.00 0.00 0.00 0.00 0.00 0.00 0.01 0.00 0.01 0.01 0.02 0.02 0.01 0.01 0.03 0.03 0.05 0.07 0.08 0.10 0.12
0.37 0.52 0.62 1.03 0.74 0.52 0.43 0.86 0.40 0.16 0.12 0.09 0.03 0.02 0.04 0.03 0.04 0.04 0.02 0.01 0.00 0.00 0.00 0.00 0.00 0.00 0.00 0.00 0.00 0.01 0.01 0.01 0.02 0.02 0.03 0.05 0.05 0.06 0.05 0.08 0.13 0.14 0.26 0.29
0.14 0.37 0.70 0.92 1.10 0.95 0.83 0.76 0.67 0.45 0.27 0.13 0.07 0.04 0.02 0.01 0.00 0.00 0.00 0.00 0.00 0.00 0.00 0.00 0.00 0.00 0.01 0.00 0.01 0.01 0.02 0.02 0.04 0.05 0.06 0.10 0.10 0.11 0.12 0.13 0.18 0.26 0.34 0.40

GFSCGP_prec_precacc24_102.txt.gz
Total_Precipitation_Accumulation
0.00 0.00 0.00 0.00 0.00 0.00 0.00 0.00 0.02 0.00 0.00 0.00 0.00 0.00 0.00 0.00 0.00 0.00 0.00 0.00 0.00 0.00 0.00 0.00 0.00 0.00 0.00 0.00 0.00 0.00 0.00 0.01 0.01 0.01 0.00 0.02 0.02 0.03 0.05 0.07 0.29 0.42 0.74 0.87
0.01 0.02 0.00 0.00 0.00 0.00 0.03 0.08 0.03 0.00 0.00 0.01 0.00 0.00 0.00 0.00 0.00 0.00 0.00 0.00 0.00 0.00 0.00 0.00 0.00 0.00 0.00 0.00 0.00 0.00 0.00 0.00 0.01 0.01 0.00 0.00 0.01 0.02 0.03 0.05 0.16 0.64 0.66 0.70
0.02 0.01 0.00 0.00 0.00 0.00 0.00 0.01 0.00 0.00 0.02 0.06 0.02 0.01 0.00 0.00 0.00 0.00 0.00 0.00 0.00 0.00 0.00 0.00 0.00 0.00 0.00 0.00 0.00 0.00 0.00 0.00 0.01 0.01 0.01 0.00 0.01 0.02 0.03 0.05 0.10 0.35 0.42 0.52
0.01 0.00 0.00 0.00 0.00 0.00 0.00 0.00 0.00 0.02 0.11 0.09 0.00 0.01 0.00 0.00 0.00 0.00 0.00 0.00 0.00 0.00 0.00 0.00 0.00 0.00 0.00 0.00 0.00 0.00 0.00 0.00 0.00 0.01 0.01 0.00 0.00 0.01 0.01 0.01 0.04 0.11 0.20 0.35
0.01 0.00 0.00 0.00 0.00 0.00 0.01 0.00 0.02 0.07 0.04 0.02 0.01 0.07 0.00 0.00 0.00 0.00 0.00 0.00 0.00 0.00 0.00 0.00 0.00 0.00 0.00 0.00 0.00 0.00 0.00 0.00 0.00 0.01 0.01 0.01 0.00 0.00 0.01 0.01 0.02 0.05 0.11 0.23
0.01 0.01 0.01 0.00 0.00 0.02 0.03 0.03 0.10 0.09 0.07 0.14 0.01 0.04 0.02 0.00 0.00 0.00 0.00 0.00 0.00 0.00 0.00 0.00 0.00 0.00 0.00 0.00 0.00 0.00 0.00 0.00 0.01 0.01 0.01 0.01 0.00 0.00 0.01 0.01 0.02 0.02 0.05 0.11
0.06 0.07 0.00 0.00 0.02 0.01 0.03 0.11 0.25 0.19 0.17 0.10 0.00 0.00 0.00 0.00 0.00 0.00 0.00 0.00 0.00 0.00 0.00 0.00 0.00 0.00 0.00 0.00 0.00 0.00 0.00 0.00 0.00 0.01 0.01 0.01 0.00 0.00 0.00 0.01 0.01 0.01 0.02 0.03
0.11 0.19 0.03 0.00 0.00 0.00 0.02 0.13 0.20 0.15 0.07 0.03 0.01 0.01 0.00 0.01 0.00 0.00 0.00 0.00 0.00 0.00 0.00 0.00 0.00 0.00 0.00 0.00 0.00 0.00 0.00 0.00 0.00 0.01 0.01 0.01 0.00 0.00 0.00 0.00 0.01 0.01 0.01 0.01
0.15 0.22 0.01 0.00 0.00 0.00 0.00 0.04 0.05 0.23 0.24 0.26 0.03 0.02 0.02 0.01 0.01 0.00 0.00 0.00 0.00 0.00 0.00 0.00 0.00 0.00 0.00 0.00 0.00 0.00 0.00 0.00 0.00 0.00 0.01 0.01 0.01 0.00 0.00 0.00 0.01 0.01 0.02 0.01
0.08 0.07 0.00 0.00 0.02 0.01 0.00 0.03 0.29 0.51 0.39 0.24 0.02 0.07 0.14 0.09 0.02 0.00 0.00 0.00 0.00 0.00 0.00 0.00 0.00 0.00 0.00 0.00 0.00 0.00 0.01 0.00 0.01 0.01 0.01 0.01 0.01 0.00 0.00 0.00 0.00 0.01 0.02 0.00
0.03 0.04 0.00 0.01 0.11 0.01 0.01 0.07 0.25 0.35 0.14 0.23 0.20 0.41 0.47 0.29 0.12 0.02 0.00 0.01 0.01 0.01 0.00 0.00 0.00 0.00 0.00 0.00 0.00 0.04 0.03 0.02 0.01 0.01 0.01 0.01 0.01 0.01 0.00 0.00 0.01 0.00 0.01 0.00
0.02 0.03 0.03 0.01 0.01 0.01 0.01 0.02 0.07 0.28 0.21 0.16 0.30 0.59 0.50 0.31 0.14 0.07 0.06 0.04 0.03 0.07 0.11 0.04 0.02 0.02 0.02 0.03 0.05 0.07 0.08 0.05 0.03 0.03 0.03 0.02 0.01 0.01 0.01 0.00 0.01 0.00 0.01 0.01
0.05 0.08 0.13 0.15 0.09 0.09 0.06 0.07 0.11 0.17 0.28 0.31 0.36 0.45 0.64 0.63 0.36 0.17 0.12 0.09 0.07 0.12 0.17 0.14 0.07 0.07 0.12 0.13 0.11 0.14 0.16 0.10 0.09 0.08 0.07 0.04 0.03 0.01 0.01 0.01 0.02 0.01 0.01 0.01
0.03 0.08 0.10 0.11 0.15 0.24 0.29 0.25 0.17 0.29 0.38 0.18 0.17 0.13 0.30 0.91 0.81 0.52 0.33 0.19 0.30 0.30 0.26 0.25 0.20 0.17 0.20 0.28 0.40 0.47 0.44 0.36 0.35 0.33 0.31 0.23 0.14 0.08 0.05 0.01 0.03 0.01 0.01 0.02
0.08 0.18 0.11 0.06 0.01 0.07 0.17 0.21 0.37 0.31 0.22 0.30 0.12 0.15 0.13 0.35 0.81 0.67 0.60 0.46 0.44 0.72 0.50 0.47 0.33 0.31 0.30 0.31 0.35 0.43 0.48 0.54 0.54 0.54 0.54 0.42 0.20 0.15 0.10 0.08 0.06 0.02 0.02 0.02
0.08 0.08 0.17 0.10 0.01 0.02 0.01 0.02 0.10 0.22 0.29 0.25 0.23 0.37 0.18 0.27 0.48 0.62 0.75 0.75 0.49 0.67 0.67 0.86 0.61 0.40 0.41 0.38 0.35 0.33 0.38 0.44 0.48 0.44 0.47 0.43 0.30 0.17 0.10 0.10 0.14 0.09 0.06 0.04
0.05 0.01 0.02 0.01 0.00 0.00 0.00 0.00 0.00 0.01 0.05 0.08 0.09 0.15 0.17 0.35 0.34 0.61 0.75 0.82 0.73 0.70 0.66 0.94 0.86 0.62 0.52 0.58 0.50 0.48 0.44 0.49 0.46 0.46 0.50 0.42 0.32 0.27 0.19 0.19 0.16 0.13 0.13 0.14
0.02 0.01 0.02 0.01 0.00 0.04 0.01 0.00 0.01 0.00 0.01 0.00 0.01 0.06 0.13 0.29 0.36 0.65 0.76 0.82 0.90 0.84 0.86 1.12 1.17 0.86 0.60 0.59 0.56 0.48 0.46 0.46 0.62 0.60 0.69 0.65 0.51 0.35 0.29 0.25 0.20 0.17 0.16 0.16
0.00 0.00 0.00 0.00 0.01 0.02 0.01 0.00 0.00 0.03 0.03 0.00 0.00 0.04 0.10 0.11 0.21 0.59 0.79 0.55 0.77 0.70 0.50 0.37 0.57 0.84 0.80 0.67 0.60 0.48 0.39 0.31 0.31 0.47 0.49 0.60 0.68 0.68 0.58 0.46 0.40 0.37 0.35 0.21
0.00 0.00 0.00 0.00 0.02 0.04 0.06 0.00 0.00 0.00 0.05 0.00 0.00 0.01 0.02 0.10 0.25 0.25 0.38 0.41 0.57 0.34 0.16 0.06 0.05 0.12 0.30 0.48 0.61 0.53 0.45 0.40 0.29 0.27 0.42 0.43 0.45 0.58 0.68 0.80 0.75 0.62 0.57 0.47
0.01 0.01 0.01 0.00 0.03 0.02 0.00 0.00 0.00 0.05 0.12 0.02 0.04 0.03 0.04 0.08 0.17 0.28 0.23 0.49 0.66 0.13 0.02 0.01 0.01 0.01 0.01 0.05 0.16 0.30 0.33 0.42 0.43 0.28 0.23 0.35 0.48 0.43 0.48 0.51 0.59 0.65 0.59 0.50
0.09 0.09 0.05 0.04 0.06 0.04 0.01 0.01 0.05 0.09 0.06 0.03 0.07 0.07 0.08 0.14 0.29 0.41 0.48 0.51 0.31 0.10 0.01 0.00 0.00 0.00 0.00 0.00 0.01 0.06 0.11 0.12 0.15 0.23 0.22 0.18 0.18 0.29 0.31 0.31 0.28 0.27 0.31 0.31
0.33 0.19 0.12 0.07 0.12 0.17 0.14 0.08 0.09 0.09 0.13 0.15 0.13 0.10 0.15 0.37 0.62 0.74 0.70 0.56 0.31 0.09 0.00 0.00 0.00 0.00 0.00 0.00 0.00 0.00 0.02 0.04 0.03 0.04 0.08 0.11 0.11 0.11 0.15 0.20 0.19 0.17 0.17 0.16
0.49 0.62 0.65 0.63 0.56 0.27 0.26 0.24 0.10 0.17 0.25 0.22 0.13 0.14 0.16 0.24 0.37 0.41 0.39 0.34 0.21 0.05 0.01 0.00 0.00 0.00 0.00 0.00 0.00 0.01 0.00 0.00 0.00 0.01 0.01 0.02 0.03 0.04 0.04 0.05 0.08 0.12 0.13 0.11
0.36 0.49 0.61 0.97 0.69 0.50 0.33 0.75 0.39 0.16 0.12 0.09 0.03 0.02 0.04 0.03 0.04 0.04 0.02 0.01 0.00 0.00 0.00 0.00 0.00 0.00 0.00 0.00 0.00 0.00 0.00 0.00 0.00 0.00 0.00 0.00 0.00 0.02 0.03 0.07 0.10 0.10 0.19 0.17
0.14 0.36 0.68 0.89 1.06 0.91 0.76 0.74 0.67 0.45 0.27 0.13 0.07 0.04 0.02 0.01 0.00 0.00 0.00 0.00 0.00 0.00 0.00 0.00 0.00 0.00 0.01 0.01 0.01 0.01 0.00 0.00 0.00 0.00 0.00 0.01 0.01 0.01 0.03 0.05 0.08 0.14 0.18 0.16

GFSCGP_prec_precacc24_105.txt.gz
Total_Precipitation_Accumulation
0.00 0.00 0.00 0.00 0.00 0.00 0.00 0.00 0.02 0.00 0.00 0.00 0.00 0.00 0.00 0.00 0.00 0.00 0.00 0.00 0.00 0.00 0.00 0.00 0.00 0.00 0.00 0.00 0.00 0.00 0.00 0.00 0.01 0.00 0.00 0.02 0.02 0.03 0.05 0.07 0.28 0.42 0.74 0.87
0.02 0.02 0.00 0.00 0.00 0.01 0.03 0.08 0.03 0.00 0.01 0.04 0.02 0.00 0.00 0.00 0.00 0.00 0.00 0.00 0.00 0.00 0.00 0.00 0.00 0.00 0.00 0.00 0.00 0.00 0.00 0.00 0.01 0.00 0.00 0.00 0.01 0.02 0.03 0.05 0.16 0.64 0.66 0.70
0.05 0.02 0.00 0.01 0.01 0.01 0.00 0.01 0.00 0.00 0.04 0.13 0.06 0.03 0.00 0.00 0.00 0.00 0.00 0.00 0.00 0.00 0.00 0.00 0.00 0.00 0.00 0.00 0.00 0.00 0.00 0.00 0.01 0.00 0.00 0.00 0.01 0.02 0.02 0.05 0.10 0.35 0.42 0.52
0.02 0.00 0.00 0.01 0.02 0.01 0.00 0.00 0.00 0.02 0.14 0.14 0.10 0.07 0.00 0.00 0.00 0.00 0.00 0.00 0.00 0.00 0.00 0.00 0.00 0.00 0.00 0.00 0.00 0.00 0.01 0.03 0.01 0.01 0.00 0.00 0.00 0.01 0.01 0.01 0.04 0.11 0.20 0.35
0.03 0.01 0.00 0.01 0.01 0.01 0.00 0.00 0.00 0.03 0.08 0.04 0.06 0.19 0.01 0.01 0.01 0.00 0.00 0.00 0.00 0.00 0.00 0.00 0.00 0.00 0.00 0.00 0.00 0.00 0.00 0.04 0.04 0.01 0.00 0.00 0.00 0.00 0.01 0.01 0.02 0.05 0.11 0.23
0.01 0.01 0.04 0.01 0.00 0.00 0.01 0.01 0.06 0.07 0.06 0.09 0.01 0.08 0.02 0.01 0.01 0.00 0.00 0.00 0.00 0.00 0.00 0.00 0.00 0.00 0.00 0.00 0.00 0.00 0.00 0.00 0.02 0.01 0.00 0.00 0.00 0.00 0.01 0.01 0.02 0.02 0.05 0.11
0.06 0.07 0.01 0.01 0.02 0.01 0.01 0.06 0.11 0.17 0.18 0.07 0.00 0.00 0.00 0.00 0.00 0.00 0.01 0.01 0.00 0.00 0.00 0.00 0.00 0.00 0.00 0.00 0.00 0.00 0.00 0.00 0.01 0.01 0.01 0.00 0.00 0.00 0.00 0.01 0.01 0.01 0.02 0.03
0.11 0.21 0.04 0.00 0.01 0.01 0.01 0.08 0.13 0.13 0.06 0.03 0.01 0.02 0.00 0.01 0.01 0.01 0.01 0.00 0.01 0.00 0.00 0.00 0.00 0.00 0.00 0.00 0.00 0.00 0.00 0.00 0.01 0.01 0.01 0.01 0.01 0.00 0.00 0.00 0.01 0.01 0.01 0.01
0.28 0.39 0.02 0.01 0.01 0.00 0.01 0.03 0.04 0.19 0.20 0.24 0.05 0.04 0.02 0.03 0.26 0.07 0.02 0.00 0.00 0.00 0.00 0.00 0.00 0.00 0.00 0.00 0.00 0.00 0.00 0.00 0.01 0.00 0.01 0.01 0.05 0.01 0.00 0.00 0.01 0.01 0.02 0.01
0.16 0.44 0.03 0.00 0.02 0.01 0.00 0.02 0.20 0.28 0.48 0.47 0.06 0.11 0.21 0.23 0.68 0.24 0.00 0.00 0.00 0.00 0.00 0.00 0.00 0.00 0.00 0.00 0.00 0.00 0.01 0.00 0.01 0.01 0.03 0.05 0.08 0.05 0.02 0.00 0.00 0.01 0.02 0.01
0.15 0.35 0.04 0.02 0.12 0.02 0.01 0.08 0.11 0.24 0.18 0.47 0.37 0.64 0.69 0.69 0.45 0.10 0.00 0.01 0.01 0.01 0.00 0.00 0.00 0.00 0.00 0.01 0.02 0.05 0.03 0.02 0.02 0.03 0.05 0.06 0.06 0.06 0.03 0.00 0.01 0.00 0.01 0.00
0.03 0.07 0.04 0.02 0.02 0.02 0.01 0.02 0.04 0.25 0.26 0.32 0.45 0.77 0.87 0.64 0.16 0.07 0.06 0.04 0.03 0.07 0.11 0.04 0.02 0.02 0.02 0.04 0.08 0.09 0.09 0.07 0.05 0.06 0.05 0.04 0.05 0.04 0.02 0.00 0.01 0.01 0.01 0.01
0.08 0.12 0.16 0.17 0.09 0.19 0.12 0.07 0.08 0.16 0.27 0.26 0.47 1.01 0.91 0.63 0.36 0.17 0.12 0.09 0.07 0.12 0.17 0.14 0.07 0.07 0.11 0.13 0.15 0.16 0.16 0.13 0.16 0.12 0.08 0.04 0.07 0.06 0.04 0.02 0.02 0.01 0.01 0.01
0.04 0.10 0.15 0.18 0.09 0.13 0.20 0.24 0.20 0.31 0.34 0.23 0.22 0.35 0.40 0.83 0.79 0.52 0.33 0.19 0.30 0.30 0.26 0.25 0.20 0.17 0.20 0.27 0.39 0.49 0.47 0.40 0.42 0.44 0.35 0.25 0.22 0.17 0.09 0.03 0.03 0.02 0.02 0.02
0.08 0.30 0.22 0.09 0.04 0.05 0.29 0.43 0.45 0.34 0.16 0.38 0.21 0.27 0.12 0.30 0.74 0.65 0.60 0.46 0.44 0.72 0.50 0.47 0.33 0.31 0.30 0.31 0.34 0.39 0.49 0.62 0.64 0.64 0.61 0.47 0.25 0.33 0.20 0.13 0.07 0.04 0.04 0.04
0.09 0.25 0.32 0.23 0.10 0.15 0.16 0.23 0.15 0.12 0.22 0.26 0.21 0.41 0.20 0.27 0.46 0.61 0.74 0.75 0.49 0.67 0.67 0.86 0.61 0.40 0.41 0.39 0.38 0.40 0.40 0.43 0.50 0.53 0.57 0.50 0.35 0.24 0.19 0.19 0.19 0.13 0.08 0.05
0.07 0.04 0.12 0.12 0.02 0.01 0.09 0.03 0.01 0.00 0.04 0.08 0.10 0.26 0.21 0.35 0.32 0.61 0.75 0.82 0.73 0.70 0.66 0.94 0.86 0.62 0.52 0.58 0.53 0.59 0.59 0.58 0.53 0.51 0.60 0.55 0.40 0.34 0.27 0.28 0.20 0.21 0.17 0.17
0.01 0.01 0.02 0.01 0.01 0.15 0.15 0.02 0.02 0.00 0.01 0.00 0.01 0.06 0.13 0.28 0.37 0.67 0.78 0.83 0.91 0.84 0.86 1.12 1.17 0.86 0.61 0.60 0.58 0.58 0.61 0.62 0.80 0.77 0.78 0.78 0.62 0.46 0.37 0.36 0.29 0.24 0.25 0.20
0.00 0.00 0.00 0.01 0.03 0.06 0.01 0.00 0.00 0.04 0.03 0.00 0.00 0.04 0.10 0.11 0.22 0.64 0.83 0.58 0.79 0.70 0.50 0.37 0.57 0.84 0.80 0.67 0.62 0.56 0.57 0.53 0.52 0.74 0.76 0.76 0.83 0.84 0.73 0.55 0.47 0.44 0.43 0.26
0.00 0.00 0.00 0.00 0.02 0.08 0.07 0.00 0.00 0.00 0.07 0.01 0.00 0.01 0.02 0.10 0.26 0.27 0.42 0.45 0.60 0.34 0.16 0.06 0.05 0.12 0.30 0.48 0.61 0.56 0.57 0.60 0.51 0.53 0.70 0.69 0.66 0.75 0.82 0.91 0.84 0.72 0.68 0.61
0.01 0.00 0.00 0.00 0.02 0.02 0.00 0.00 0.00 0.05 0.14 0.03 0.05 0.03 0.04 0.08 0.18 0.30 0.25 0.52 0.68 0.13 0.02 0.01 0.01 0.01 0.01 0.05 0.16 0.30 0.36 0.50 0.61 0.49 0.47 0.57 0.65 0.61 0.64 0.70 0.71 0.78 0.75 0.68
0.08 0.09 0.04 0.03 0.05 0.04 0.01 0.00 0.05 0.09 0.07 0.05 0.09 0.08 0.09 0.16 0.30 0.41 0.48 0.52 0.31 0.10 0.01 0.00 0.00 0.00 0.00 0.00 0.01 0.06 0.11 0.12 0.18 0.29 0.31 0.28 0.31 0.46 0.49 0.50 0.47 0.45 0.50 0.55
0.25 0.19 0.11 0.07 0.13 0.17 0.09 0.05 0.07 0.07 0.09 0.12 0.13 0.10 0.15 0.37 0.62 0.74 0.70 0.56 0.31 0.09 0.00 0.00 0.00 0.00 0.00 0.00 0.00 0.01 0.03 0.04 0.03 0.04 0.09 0.14 0.15 0.15 0.20 0.28 0.31 0.29 0.31 0.31
0.40 0.52 0.62 0.61 0.52 0.19 0.12 0.13 0.09 0.13 0.25 0.21 0.11 0.13 0.16 0.24 0.37 0.41 0.39 0.34 0.21 0.05 0.01 0.00 0.00 0.00 0.00 0.00 0.00 0.01 0.00 0.00 0.00 0.01 0.01 0.02 0.03 0.05 0.05 0.06 0.10 0.15 0.19 0.22
0.31 0.38 0.51 0.90 0.62 0.35 0.21 0.37 0.33 0.16 0.12 0.09 0.03 0.02 0.04 0.03 0.04 0.04 0.02 0.01 0.00 0.00 0.00 0.00 0.00 0.00 0.00 0.00 0.00 0.01 0.00 0.00 0.00 0.00 0.00 0.00 0.00 0.01 0.01 0.05 0.06 0.07 0.14 0.10
0.12 0.27 0.61 0.74 0.82 0.71 0.59 0.66 0.61 0.45 0.27 0.13 0.07 0.04 0.02 0.01 0.00 0.00 0.00 0.00 0.00 0.00 0.00 0.00 0.00 0.00 0.01 0.01 0.01 0.01 0.01 0.00 0.00 0.00 0.01 0.01 0.01 0.01 0.00 0.01 0.02 0.04 0.07 0.06

GFSCGP_prec_precacc24_108.txt.gz
Total_Precipitation_Accumulation
0.00 0.00 0.01 0.00 0.00 0.01 0.00 0.00 0.02 0.00 0.00 0.00 0.00 0.00 0.00 0.00 0.00 0.00 0.00 0.00 0.00 0.00 0.00 0.00 0.00 0.00 0.00 0.00 0.00 0.00 0.00 0.00 0.00 0.00 0.00 0.02 0.02 0.03 0.04 0.06 0.23 0.39 0.74 0.86
0.03 0.03 0.00 0.00 0.01 0.03 0.05 0.09 0.04 0.00 0.01 0.06 0.04 0.01 0.00 0.00 0.00 0.00 0.00 0.00 0.00 0.00 0.00 0.00 0.00 0.00 0.00 0.00 0.00 0.00 0.00 0.00 0.00 0.00 0.00 0.00 0.01 0.02 0.02 0.04 0.13 0.62 0.65 0.68
0.05 0.02 0.00 0.01 0.02 0.02 0.02 0.02 0.00 0.00 0.05 0.17 0.10 0.03 0.00 0.00 0.00 0.00 0.00 0.00 0.00 0.00 0.00 0.00 0.00 0.00 0.00 0.00 0.00 0.00 0.00 0.00 0.00 0.00 0.00 0.00 0.01 0.01 0.02 0.04 0.09 0.34 0.41 0.52
0.02 0.00 0.00 0.02 0.03 0.04 0.06 0.02 0.01 0.01 0.13 0.16 0.17 0.09 0.00 0.00 0.00 0.00 0.00 0.00 0.00 0.00 0.00 0.00 0.00 0.00 0.00 0.00 0.00 0.00 0.02 0.05 0.03 0.03 0.01 0.00 0.00 0.01 0.01 0.01 0.04 0.11 0.20 0.35
0.03 0.01 0.01 0.01 0.01 0.01 0.00 0.01 0.01 0.02 0.09 0.08 0.08 0.17 0.00 0.02 0.01 0.00 0.01 0.01 0.00 0.00 0.00 0.00 0.00 0.00 0.00 0.00 0.00 0.00 0.01 0.07 0.10 0.08 0.05 0.04 0.01 0.00 0.00 0.01 0.02 0.05 0.11 0.23
0.01 0.01 0.04 0.01 0.00 0.00 0.02 0.02 0.09 0.12 0.08 0.06 0.01 0.05 0.00 0.01 0.03 0.04 0.05 0.03 0.00 0.00 0.00 0.00 0.00 0.00 0.00 0.00 0.00 0.00 0.00 0.00 0.02 0.03 0.01 0.02 0.02 0.00 0.01 0.01 0.02 0.02 0.05 0.11
0.06 0.07 0.01 0.01 0.02 0.01 0.02 0.05 0.08 0.22 0.21 0.03 0.00 0.01 0.01 0.07 0.09 0.12 0.05 0.02 0.01 0.00 0.00 0.00 0.00 0.00 0.00 0.00 0.00 0.00 0.00 0.00 0.01 0.01 0.01 0.01 0.03 0.00 0.00 0.01 0.01 0.01 0.02 0.03
0.11 0.21 0.04 0.01 0.01 0.02 0.03 0.02 0.05 0.21 0.09 0.04 0.02 0.02 0.03 0.12 0.27 0.18 0.06 0.01 0.01 0.00 0.00 0.00 0.00 0.00 0.00 0.00 0.00 0.00 0.00 0.00 0.01 0.01 0.00 0.01 0.02 0.02 0.00 0.00 0.01 0.01 0.01 0.01
0.28 0.39 0.02 0.01 0.03 0.02 0.01 0.01 0.04 0.15 0.15 0.22 0.05 0.08 0.15 0.06 0.38 0.31 0.10 0.02 0.00 0.00 0.00 0.00 0.00 0.00 0.00 0.00 0.00 0.00 0.00 0.00 0.01 0.00 0.01 0.02 0.07 0.04 0.01 0.00 0.01 0.01 0.02 0.01
0.21 0.58 0.04 0.02 0.05 0.03 0.00 0.02 0.11 0.20 0.46 0.50 0.08 0.13 0.35 0.40 0.79 0.62 0.07 0.02 0.00 0.01 0.00 0.00 0.00 0.00 0.00 0.00 0.00 0.00 0.01 0.00 0.01 0.01 0.04 0.08 0.15 0.13 0.07 0.01 0.01 0.01 0.02 0.01
0.20 0.65 0.10 0.03 0.13 0.03 0.01 0.07 0.06 0.14 0.19 0.63 0.59 0.80 0.85 0.92 0.67 0.56 0.28 0.08 0.01 0.01 0.00 0.00 0.00 0.00 0.00 0.01 0.02 0.06 0.04 0.02 0.02 0.04 0.08 0.10 0.14 0.13 0.10 0.06 0.01 0.01 0.01 0.00
0.04 0.17 0.06 0.04 0.02 0.02 0.02 0.02 0.05 0.19 0.33 0.54 0.92 1.22 1.36 1.02 0.30 0.22 0.21 0.07 0.03 0.07 0.11 0.04 0.02 0.02 0.02 0.04 0.08 0.13 0.14 0.10 0.06 0.06 0.07 0.09 0.16 0.13 0.10 0.08 0.04 0.02 0.01 0.01
0.09 0.15 0.16 0.20 0.12 0.28 0.11 0.07 0.06 0.16 0.37 0.55 0.67 1.37 0.97 0.62 0.32 0.18 0.13 0.09 0.07 0.12 0.17 0.14 0.07 0.07 0.10 0.12 0.14 0.18 0.22 0.19 0.18 0.14 0.10 0.06 0.11 0.12 0.10 0.08 0.07 0.05 0.02 0.01
0.05 0.11 0.16 0.22 0.14 0.26 0.24 0.23 0.16 0.36 0.46 0.47 0.42 0.56 0.37 0.41 0.49 0.43 0.33 0.19 0.30 0.30 0.26 0.25 0.20 0.17 0.20 0.25 0.32 0.43 0.47 0.43 0.43 0.48 0.41 0.27 0.25 0.23 0.18 0.08 0.08 0.05 0.03 0.03
0.08 0.30 0.24 0.14 0.27 0.18 0.29 0.59 0.53 0.38 0.27 0.47 0.45 0.32 0.10 0.12 0.30 0.42 0.57 0.46 0.44 0.72 0.50 0.47 0.33 0.31 0.30 0.31 0.34 0.35 0.42 0.59 0.63 0.63 0.64 0.49 0.30 0.40 0.34 0.33 0.22 0.09 0.07 0.06
0.11 0.36 0.54 0.41 0.27 0.19 0.27 0.42 0.20 0.16 0.39 0.40 0.17 0.36 0.18 0.14 0.26 0.36 0.62 0.74 0.49 0.67 0.67 0.86 0.61 0.40 0.41 0.39 0.38 0.40 0.41 0.42 0.46 0.52 0.60 0.58 0.41 0.34 0.40 0.42 0.36 0.19 0.11 0.08
0.07 0.09 0.19 0.23 0.10 0.04 0.25 0.22 0.03 0.08 0.08 0.07 0.10 0.28 0.22 0.29 0.29 0.58 0.73 0.80 0.73 0.70 0.66 0.94 0.86 0.62 0.52 0.59 0.53 0.59 0.60 0.62 0.56 0.53 0.52 0.55 0.49 0.47 0.39 0.50 0.43 0.35 0.22 0.17
0.01 0.01 0.01 0.01 0.06 0.20 0.35 0.10 0.04 0.01 0.01 0.00 0.01 0.05 0.13 0.23 0.34 0.68 0.80 0.84 0.92 0.84 0.86 1.12 1.17 0.86 0.61 0.60 0.58 0.58 0.61 0.63 0.84 0.80 0.80 0.81 0.69 0.56 0.47 0.52 0.49 0.38 0.30 0.18
0.00 0.00 0.03 0.06 0.07 0.16 0.09 0.01 0.01 0.06 0.05 0.01 0.01 0.05 0.11 0.13 0.23 0.64 0.85 0.59 0.79 0.70 0.50 0.37 0.57 0.84 0.80 0.67 0.62 0.56 0.57 0.54 0.54 0.81 0.89 0.88 0.95 1.00 0.91 0.74 0.63 0.58 0.58 0.36
0.00 0.00 0.04 0.04 0.04 0.13 0.08 0.00 0.00 0.01 0.07 0.03 0.01 0.01 0.03 0.10 0.25 0.28 0.43 0.46 0.60 0.34 0.16 0.06 0.05 0.12 0.30 0.48 0.61 0.56 0.57 0.60 0.52 0.58 0.78 0.93 0.93 1.01 1.07 1.15 1.13 0.93 0.86 0.90
0.00 0.00 0.00 0.00 0.02 0.02 0.00 0.00 0.00 0.05 0.16 0.06 0.06 0.04 0.05 0.08 0.19 0.31 0.26 0.52 0.68 0.13 0.02 0.01 0.01 0.01 0.01 0.05 0.16 0.30 0.36 0.50 0.61 0.50 0.51 0.67 0.88 0.94 1.03 1.06 1.13 1.17 1.06 0.89
0.02 0.06 0.03 0.02 0.04 0.05 0.01 0.00 0.04 0.11 0.09 0.06 0.09 0.08 0.09 0.16 0.31 0.41 0.48 0.52 0.31 0.10 0.01 0.00 0.00 0.00 0.00 0.00 0.01 0.06 0.11 0.12 0.18 0.29 0.32 0.31 0.38 0.56 0.64 0.68 0.73 0.75 0.80 0.81
0.06 0.07 0.09 0.07 0.13 0.15 0.05 0.05 0.08 0.06 0.07 0.11 0.13 0.10 0.15 0.37 0.62 0.74 0.70 0.56 0.31 0.09 0.00 0.00 0.00 0.00 0.00 0.00 0.00 0.02 0.04 0.04 0.03 0.04 0.09 0.14 0.16 0.16 0.23 0.33 0.39 0.42 0.44 0.46
0.07 0.31 0.60 0.57 0.47 0.19 0.10 0.08 0.09 0.11 0.22 0.20 0.09 0.12 0.16 0.23 0.36 0.41 0.39 0.34 0.21 0.05 0.01 0.00 0.00 0.00 0.00 0.00 0.00 0.02 0.01 0.00 0.00 0.01 0.01 0.02 0.03 0.05 0.05 0.06 0.11 0.17 0.23 0.28
0.17 0.25 0.28 0.62 0.52 0.33 0.19 0.22 0.17 0.14 0.11 0.07 0.03 0.02 0.03 0.03 0.04 0.04 0.02 0.01 0.00 0.00 0.00 0.00 0.00 0.00 0.01 0.00 0.01 0.01 0.01 0.00 0.00 0.00 0.01 0.00 0.00 0.01 0.01 0.05 0.06 0.07 0.13 0.08
0.10 0.21 0.32 0.48 0.61 0.60 0.48 0.46 0.37 0.32 0.24 0.13 0.07 0.04 0.02 0.01 0.00 0.00 0.00 0.00 0.00 0.00 0.00 0.00 0.00 0.00 0.01 0.01 0.01 0.02 0.01 0.00 0.00 0.00 0.01 0.02 0.02 0.01 0.00 0.01 0.03 0.03 0.05 0.02

GFSCGP_prec_precacc24_111.txt.gz
Total_Precipitation_Accumulation
0.00 0.00 0.01 0.00 0.00 0.01 0.01 0.01 0.03 0.01 0.00 0.00 0.00 0.00 0.00 0.00 0.00 0.00 0.00 0.00 0.00 0.00 0.00 0.00 0.00 0.00 0.00 0.00 0.00 0.00 0.00 0.00 0.00 0.00 0.00 0.01 0.01 0.02 0.03 0.04 0.14 0.23 0.63 0.79
0.03 0.03 0.00 0.00 0.01 0.03 0.05 0.09 0.04 0.01 0.01 0.06 0.04 0.01 0.00 0.00 0.00 0.00 0.00 0.00 0.00 0.00 0.00 0.00 0.00 0.00 0.00 0.00 0.00 0.00 0.00 0.00 0.00 0.00 0.00 0.00 0.01 0.01 0.02 0.03 0.09 0.44 0.50 0.62
0.05 0.02 0.00 0.01 0.02 0.02 0.02 0.02 0.00 0.01 0.05 0.17 0.10 0.03 0.00 0.00 0.00 0.00 0.00 0.00 0.00 0.00 0.00 0.00 0.00 0.00 0.00 0.00 0.00 0.00 0.00 0.00 0.00 0.00 0.01 0.00 0.01 0.03 0.03 0.03 0.05 0.21 0.34 0.46
0.02 0.00 0.00 0.02 0.03 0.04 0.06 0.02 0.01 0.01 0.14 0.16 0.17 0.09 0.00 0.00 0.00 0.00 0.00 0.00 0.00 0.00 0.00 0.00 0.00 0.00 0.00 0.00 0.00 0.00 0.02 0.05 0.03 0.08 0.04 0.03 0.01 0.00 0.01 0.01 0.03 0.06 0.16 0.31
0.03 0.01 0.01 0.01 0.01 0.01 0.00 0.01 0.02 0.03 0.10 0.09 0.09 0.17 0.01 0.04 0.02 0.02 0.01 0.01 0.00 0.00 0.00 0.00 0.00 0.00 0.00 0.00 0.00 0.00 0.02 0.08 0.11 0.09 0.09 0.13 0.04 0.03 0.01 0.03 0.03 0.05 0.09 0.22
0.01 0.01 0.04 0.01 0.00 0.00 0.02 0.03 0.10 0.13 0.09 0.07 0.01 0.05 0.00 0.03 0.10 0.08 0.07 0.04 0.02 0.01 0.00 0.00 0.00 0.00 0.00 0.00 0.00 0.00 0.00 0.01 0.05 0.07 0.05 0.03 0.03 0.01 0.02 0.02 0.02 0.02 0.04 0.10
0.06 0.07 0.01 0.01 0.02 0.01 0.02 0.06 0.10 0.23 0.21 0.03 0.00 0.02 0.01 0.14 0.16 0.18 0.12 0.07 0.03 0.01 0.01 0.00 0.00 0.00 0.00 0.00 0.00 0.00 0.00 0.00 0.01 0.01 0.03 0.04 0.09 0.01 0.00 0.01 0.01 0.01 0.02 0.03
0.11 0.21 0.04 0.01 0.01 0.02 0.03 0.02 0.07 0.28 0.21 0.05 0.03 0.04 0.06 0.14 0.36 0.26 0.09 0.04 0.03 0.01 0.00 0.00 0.00 0.00 0.00 0.00 0.00 0.00 0.00 0.00 0.01 0.01 0.01 0.03 0.05 0.04 0.03 0.00 0.01 0.02 0.01 0.01
0.30 0.40 0.02 0.01 0.03 0.02 0.01 0.02 0.05 0.16 0.18 0.20 0.07 0.21 0.35 0.15 0.44 0.76 0.42 0.07 0.03 0.02 0.01 0.00 0.00 0.00 0.00 0.00 0.00 0.00 0.00 0.00 0.01 0.00 0.01 0.02 0.07 0.05 0.02 0.03 0.04 0.03 0.02 0.02
0.27 0.66 0.05 0.05 0.07 0.04 0.02 0.05 0.11 0.19 0.49 0.49 0.10 0.37 0.89 0.89 0.99 1.04 0.70 0.25 0.08 0.04 0.04 0.01 0.00 0.00 0.00 0.00 0.00 0.00 0.01 0.00 0.01 0.01 0.04 0.08 0.15 0.14 0.10 0.04 0.02 0.05 0.06 0.03
0.23 0.76 0.11 0.03 0.14 0.03 0.01 0.07 0.07 0.10 0.13 0.59 0.70 0.87 0.88 1.44 1.13 0.75 0.73 0.40 0.11 0.07 0.06 0.07 0.03 0.00 0.00 0.01 0.02 0.06 0.04 0.02 0.02 0.05 0.09 0.11 0.14 0.14 0.14 0.10 0.06 0.06 0.07 0.04
0.05 0.22 0.07 0.04 0.03 0.03 0.03 0.03 0.05 0.16 0.31 0.54 0.96 1.35 1.42 1.07 0.47 0.34 0.36 0.39 0.18 0.10 0.12 0.06 0.04 0.02 0.02 0.04 0.08 0.12 0.12 0.10 0.07 0.08 0.10 0.12 0.18 0.16 0.14 0.12 0.08 0.07 0.08 0.08
0.09 0.16 0.17 0.20 0.12 0.31 0.16 0.07 0.06 0.15 0.39 0.83 0.79 1.51 1.14 0.41 0.24 0.23 0.20 0.18 0.13 0.12 0.17 0.14 0.07 0.07 0.09 0.11 0.11 0.15 0.21 0.20 0.19 0.14 0.12 0.12 0.14 0.15 0.13 0.13 0.14 0.11 0.09 0.07
0.05 0.12 0.16 0.25 0.16 0.31 0.32 0.25 0.18 0.34 0.62 0.61 0.49 0.71 0.54 0.19 0.18 0.31 0.32 0.20 0.30 0.29 0.25 0.24 0.19 0.14 0.15 0.19 0.22 0.30 0.36 0.38 0.41 0.47 0.39 0.27 0.25 0.22 0.17 0.10 0.11 0.09 0.08 0.06
0.09 0.36 0.33 0.30 0.40 0.27 0.40 0.73 0.64 0.47 0.39 0.45 0.63 0.45 0.22 0.12 0.10 0.18 0.39 0.43 0.43 0.71 0.50 0.47 0.32 0.30 0.28 0.30 0.32 0.33 0.41 0.57 0.61 0.57 0.55 0.40 0.26 0.37 0.33 0.34 0.28 0.15 0.13 0.09
0.12 0.54 0.70 0.55 0.41 0.27 0.42 0.58 0.34 0.33 0.54 0.49 0.21 0.40 0.23 0.10 0.11 0.16 0.32 0.54 0.43 0.64 0.65 0.86 0.61 0.40 0.41 0.39 0.38 0.40 0.41 0.42 0.46 0.51 0.58 0.57 0.42 0.34 0.39 0.39 0.38 0.35 0.27 0.27
0.09 0.18 0.31 0.29 0.16 0.09 0.36 0.50 0.18 0.18 0.14 0.09 0.07 0.29 0.25 0.19 0.19 0.44 0.52 0.45 0.57 0.65 0.63 0.93 0.86 0.62 0.53 0.59 0.53 0.59 0.60 0.62 0.56 0.53 0.52 0.55 0.50 0.52 0.47 0.56 0.62 0.64 0.51 0.44
0.02 0.01 0.06 0.03 0.07 0.24 0.48 0.20 0.08 0.02 0.02 0.02 0.03 0.07 0.12 0.17 0.28 0.63 0.65 0.58 0.69 0.73 0.78 1.09 1.17 0.86 0.61 0.60 0.58 0.58 0.61 0.63 0.84 0.80 0.80 0.81 0.69 0.57 0.50 0.57 0.62 0.79 0.98 0.74
0.00 0.00 0.07 0.14 0.09 0.19 0.15 0.05 0.03 0.07 0.07 0.04 0.03 0.04 0.11 0.15 0.20 0.60 0.80 0.51 0.70 0.62 0.45 0.36 0.57 0.84 0.80 0.67 0.62 0.56 0.57 0.54 0.54 0.81 0.89 0.89 0.95 1.01 0.95 0.79 0.72 0.71 0.78 0.77
0.00 0.01 0.10 0.14 0.08 0.16 0.09 0.00 0.00 0.01 0.09 0.05 0.03 0.03 0.04 0.11 0.26 0.28 0.44 0.43 0.55 0.31 0.15 0.06 0.05 0.12 0.30 0.48 0.61 0.56 0.57 0.60 0.52 0.58 0.79 0.93 0.94 1.03 1.11 1.27 1.28 1.08 1.01 1.09
0.00 0.00 0.03 0.05 0.03 0.02 0.01 0.00 0.00 0.05 0.18 0.08 0.04 0.04 0.04 0.08 0.19 0.31 0.25 0.46 0.63 0.12 0.02 0.01 0.01 0.01 0.02 0.05 0.16 0.30 0.36 0.50 0.61 0.50 0.51 0.67 0.88 0.95 1.08 1.15 1.19 1.27 1.24 1.07
0.02 0.06 0.03 0.02 0.03 0.05 0.01 0.00 0.05 0.12 0.10 0.06 0.07 0.05 0.07 0.14 0.30 0.41 0.48 0.52 0.31 0.10 0.01 0.00 0.00 0.00 0.00 0.00 0.01 0.06 0.12 0.12 0.18 0.29 0.32 0.31 0.38 0.56 0.66 0.74 0.83 0.84 0.90 0.96
0.06 0.05 0.05 0.07 0.13 0.17 0.06 0.06 0.10 0.06 0.06 0.11 0.10 0.08 0.13 0.35 0.61 0.74 0.70 0.56 0.31 0.09 0.00 0.00 0.00 0.00 0.00 0.00 0.00 0.02 0.05 0.04 0.03 0.04 0.09 0.14 0.16 0.16 0.23 0.33 0.41 0.47 0.50 0.54
0.05 0.02 0.12 0.43 0.45 0.19 0.10 0.07 0.08 0.10 0.21 0.19 0.08 0.11 0.15 0.23 0.35 0.40 0.38 0.34 0.20 0.05 0.01 0.00 0.00 0.00 0.00 0.00 0.00 0.03 0.01 0.00 0.00 0.01 0.01 0.02 0.03 0.05 0.05 0.06 0.11 0.17 0.24 0.29
0.03 0.03 0.13 0.38 0.30 0.23 0.17 0.21 0.16 0.12 0.08 0.06 0.02 0.01 0.01 0.00 0.01 0.02 0.02 0.01 0.00 0.00 0.00 0.00 0.00 0.00 0.00 0.00 0.01 0.01 0.01 0.00 0.00 0.00 0.01 0.00 0.00 0.01 0.01 0.05 0.06 0.06 0.13 0.09
0.05 0.11 0.14 0.21 0.21 0.32 0.33 0.38 0.31 0.22 0.17 0.10 0.06 0.03 0.02 0.01 0.00 0.00 0.00 0.00 0.00 0.00 0.00 0.00 0.00 0.00 0.01 0.01 0.01 0.01 0.00 0.00 0.00 0.00 0.01 0.02 0.02 0.01 0.00 0.01 0.03 0.03 0.04 0.02

GFSCGP_prec_precacc24_114.txt.gz
Total_Precipitation_Accumulation
0.00 0.00 0.01 0.00 0.00 0.01 0.01 0.01 0.03 0.01 0.00 0.00 0.00 0.00 0.00 0.00 0.00 0.00 0.00 0.00 0.00 0.00 0.00 0.00 0.00 0.00 0.00 0.00 0.00 0.00 0.00 0.00 0.00 0.00 0.00 0.01 0.01 0.02 0.02 0.02 0.04 0.12 0.46 0.53
0.03 0.03 0.00 0.00 0.01 0.03 0.05 0.09 0.04 0.01 0.01 0.06 0.04 0.01 0.00 0.00 0.00 0.00 0.00 0.00 0.00 0.00 0.00 0.00 0.00 0.00 0.00 0.00 0.00 0.00 0.00 0.00 0.00 0.00 0.02 0.01 0.00 0.01 0.01 0.02 0.05 0.19 0.41 0.43
0.05 0.02 0.00 0.01 0.02 0.02 0.02 0.02 0.00 0.01 0.05 0.17 0.11 0.03 0.00 0.00 0.00 0.00 0.00 0.00 0.00 0.00 0.00 0.00 0.00 0.00 0.00 0.00 0.00 0.00 0.00 0.00 0.02 0.03 0.03 0.03 0.03 0.03 0.04 0.02 0.04 0.09 0.17 0.34
0.02 0.00 0.00 0.02 0.03 0.04 0.06 0.02 0.01 0.01 0.14 0.16 0.17 0.12 0.00 0.00 0.00 0.01 0.00 0.00 0.00 0.00 0.00 0.00 0.00 0.00 0.00 0.00 0.00 0.00 0.02 0.04 0.02 0.08 0.05 0.05 0.02 0.01 0.00 0.01 0.03 0.04 0.07 0.19
0.03 0.01 0.01 0.01 0.01 0.01 0.00 0.01 0.02 0.03 0.10 0.10 0.09 0.20 0.01 0.04 0.06 0.11 0.04 0.02 0.00 0.00 0.00 0.00 0.00 0.00 0.00 0.00 0.00 0.00 0.01 0.08 0.12 0.09 0.10 0.13 0.06 0.06 0.02 0.04 0.04 0.06 0.03 0.15
0.01 0.01 0.04 0.01 0.00 0.00 0.02 0.03 0.10 0.13 0.10 0.11 0.01 0.05 0.01 0.07 0.21 0.15 0.11 0.06 0.03 0.01 0.00 0.00 0.00 0.00 0.00 0.00 0.00 0.00 0.00 0.01 0.05 0.08 0.07 0.04 0.03 0.01 0.02 0.02 0.03 0.02 0.03 0.05
0.06 0.07 0.01 0.01 0.02 0.01 0.02 0.06 0.10 0.24 0.23 0.05 0.00 0.02 0.03 0.16 0.18 0.25 0.18 0.10 0.04 0.01 0.01 0.00 0.00 0.00 0.00 0.00 0.00 0.00 0.01 0.01 0.01 0.03 0.05 0.07 0.10 0.02 0.01 0.02 0.01 0.01 0.02 0.02
0.12 0.21 0.04 0.01 0.01 0.02 0.03 0.02 0.08 0.35 0.33 0.16 0.06 0.09 0.18 0.20 0.40 0.31 0.11 0.06 0.06 0.03 0.01 0.01 0.00 0.00 0.00 0.00 0.00 0.00 0.00 0.00 0.01 0.02 0.03 0.04 0.06 0.04 0.04 0.01 0.01 0.02 0.01 0.02
0.32 0.41 0.02 0.01 0.03 0.02 0.01 0.03 0.06 0.25 0.23 0.36 0.24 0.49 0.55 0.25 0.54 0.86 0.54 0.11 0.04 0.04 0.02 0.02 0.01 0.00 0.00 0.00 0.00 0.00 0.00 0.00 0.01 0.00 0.01 0.03 0.08 0.05 0.03 0.06 0.08 0.09 0.08 0.05
0.33 0.73 0.05 0.06 0.07 0.04 0.02 0.05 0.14 0.25 0.57 0.47 0.29 0.64 1.13 1.10 1.22 1.30 1.01 0.47 0.18 0.06 0.04 0.02 0.02 0.01 0.00 0.00 0.00 0.01 0.01 0.00 0.01 0.01 0.04 0.08 0.14 0.14 0.11 0.05 0.03 0.06 0.09 0.08
0.25 0.81 0.12 0.03 0.14 0.03 0.01 0.08 0.07 0.12 0.14 0.55 0.71 0.94 0.92 1.51 1.44 1.11 1.23 1.07 0.35 0.15 0.10 0.09 0.05 0.05 0.01 0.01 0.02 0.06 0.04 0.02 0.02 0.05 0.09 0.10 0.13 0.14 0.14 0.10 0.07 0.06 0.08 0.06
0.06 0.27 0.08 0.04 0.03 0.03 0.03 0.03 0.06 0.20 0.31 0.53 1.01 1.44 1.53 1.13 0.59 0.51 0.66 1.00 0.59 0.26 0.23 0.23 0.16 0.10 0.09 0.05 0.08 0.11 0.10 0.08 0.07 0.08 0.10 0.12 0.19 0.16 0.14 0.13 0.09 0.08 0.09 0.11
0.12 0.20 0.21 0.20 0.11 0.32 0.16 0.07 0.06 0.14 0.36 0.83 0.87 1.59 1.24 0.54 0.28 0.26 0.36 0.47 0.44 0.28 0.22 0.25 0.21 0.12 0.11 0.11 0.11 0.12 0.17 0.18 0.18 0.14 0.12 0.13 0.15 0.16 0.15 0.15 0.16 0.14 0.12 0.10
0.08 0.17 0.29 0.36 0.23 0.38 0.34 0.26 0.19 0.42 0.73 0.65 0.51 0.76 0.64 0.32 0.26 0.19 0.14 0.17 0.31 0.30 0.23 0.21 0.18 0.13 0.13 0.16 0.16 0.21 0.27 0.30 0.34 0.38 0.33 0.21 0.23 0.23 0.20 0.14 0.14 0.13 0.13 0.11
0.11 0.48 0.41 0.35 0.47 0.30 0.42 0.84 0.78 0.52 0.46 0.44 0.72 0.49 0.32 0.23 0.19 0.19 0.13 0.17 0.42 0.70 0.49 0.45 0.29 0.24 0.21 0.21 0.22 0.24 0.34 0.52 0.55 0.50 0.50 0.36 0.25 0.36 0.34 0.35 0.29 0.16 0.15 0.13
0.16 0.61 0.78 0.62 0.49 0.29 0.45 0.73 0.49 0.37 0.62 0.58 0.28 0.45 0.33 0.19 0.18 0.20 0.18 0.15 0.24 0.62 0.65 0.86 0.61 0.39 0.39 0.37 0.35 0.37 0.39 0.42 0.45 0.49 0.55 0.56 0.42 0.34 0.39 0.39 0.37 0.33 0.25 0.27
0.13 0.24 0.38 0.34 0.18 0.10 0.38 0.70 0.35 0.23 0.18 0.13 0.09 0.29 0.28 0.14 0.17 0.46 0.34 0.20 0.28 0.40 0.55 0.91 0.85 0.62 0.52 0.57 0.51 0.58 0.59 0.62 0.56 0.53 0.52 0.54 0.49 0.51 0.46 0.55 0.62 0.63 0.53 0.54
0.06 0.07 0.14 0.12 0.13 0.29 0.53 0.24 0.10 0.03 0.03 0.04 0.04 0.08 0.07 0.07 0.19 0.50 0.43 0.35 0.42 0.47 0.56 0.93 1.11 0.84 0.61 0.59 0.58 0.58 0.61 0.63 0.84 0.80 0.80 0.81 0.69 0.56 0.50 0.57 0.62 0.80 1.00 0.80
0.01 0.06 0.14 0.24 0.12 0.24 0.18 0.07 0.04 0.08 0.08 0.06 0.05 0.06 0.06 0.07 0.14 0.39 0.54 0.34 0.44 0.43 0.30 0.26 0.47 0.79 0.79 0.67 0.62 0.56 0.57 0.54 0.54 0.81 0.90 0.89 0.95 1.01 0.95 0.80 0.72 0.73 0.81 0.86
0.00 0.03 0.15 0.21 0.08 0.18 0.11 0.01 0.00 0.01 0.09 0.06 0.04 0.03 0.04 0.05 0.15 0.26 0.35 0.38 0.38 0.18 0.11 0.03 0.03 0.11 0.28 0.48 0.61 0.56 0.57 0.60 0.52 0.58 0.79 0.93 0.94 1.03 1.11 1.27 1.29 1.10 1.02 1.12
0.00 0.00 0.09 0.12 0.03 0.04 0.01 0.02 0.00 0.05 0.19 0.09 0.04 0.02 0.03 0.07 0.17 0.31 0.24 0.39 0.43 0.06 0.01 0.00 0.00 0.01 0.02 0.05 0.16 0.30 0.37 0.50 0.61 0.50 0.51 0.67 0.88 0.95 1.08 1.16 1.20 1.27 1.24 1.08
0.02 0.07 0.05 0.06 0.03 0.05 0.01 0.01 0.05 0.14 0.11 0.06 0.06 0.03 0.04 0.13 0.29 0.39 0.46 0.50 0.30 0.09 0.00 0.00 0.00 0.00 0.00 0.00 0.00 0.06 0.13 0.13 0.18 0.29 0.32 0.31 0.38 0.56 0.66 0.74 0.83 0.84 0.90 0.96
0.06 0.05 0.04 0.07 0.14 0.19 0.07 0.07 0.10 0.06 0.07 0.12 0.10 0.05 0.04 0.15 0.31 0.43 0.54 0.55 0.31 0.09 0.00 0.00 0.00 0.00 0.00 0.00 0.00 0.03 0.06 0.05 0.03 0.04 0.09 0.14 0.16 0.16 0.23 0.33 0.41 0.47 0.50 0.54
0.06 0.02 0.06 0.14 0.23 0.18 0.10 0.07 0.07 0.08 0.20 0.19 0.08 0.09 0.12 0.15 0.26 0.31 0.32 0.31 0.20 0.05 0.00 0.00 0.00 0.00 0.00 0.00 0.01 0.03 0.02 0.00 0.00 0.01 0.01 0.02 0.03 0.05 0.05 0.06 0.11 0.17 0.24 0.29
0.02 0.02 0.05 0.16 0.16 0.16 0.08 0.13 0.13 0.10 0.07 0.06 0.02 0.01 0.01 0.00 0.01 0.01 0.01 0.00 0.00 0.00 0.00 0.00 0.00 0.00 0.00 0.00 0.00 0.01 0.01 0.00 0.00 0.00 0.01 0.00 0.00 0.00 0.01 0.04 0.06 0.06 0.13 0.09
0.02 0.07 0.12 0.15 0.09 0.13 0.14 0.17 0.17 0.15 0.11 0.05 0.02 0.02 0.01 0.01 0.00 0.00 0.00 0.00 0.00 0.00 0.00 0.00 0.00 0.00 0.00 0.00 0.01 0.01 0.00 0.00 0.00 0.00 0.01 0.02 0.02 0.01 0.00 0.00 0.02 0.03 0.04 0.02

GFSCGP_prec_precacc24_117.txt.gz
Total_Precipitation_Accumulation
0.00 0.00 0.01 0.00 0.00 0.01 0.01 0.01 0.03 0.01 0.00 0.00 0.00 0.00 0.00 0.00 0.00 0.00 0.00 0.00 0.00 0.00 0.00 0.00 0.00 0.00 0.00 0.00 0.00 0.00 0.00 0.00 0.00 0.00 0.00 0.01 0.02 0.01 0.01 0.01 0.02 0.05 0.09 0.20
0.03 0.03 0.00 0.00 0.01 0.03 0.05 0.09 0.04 0.01 0.01 0.06 0.04 0.01 0.00 0.00 0.00 0.00 0.00 0.00 0.00 0.00 0.00 0.00 0.00 0.00 0.00 0.00 0.00 0.00 0.01 0.00 0.00 0.00 0.09 0.07 0.04 0.01 0.01 0.01 0.03 0.06 0.19 0.25
0.05 0.02 0.00 0.01 0.02 0.02 0.02 0.02 0.00 0.01 0.05 0.17 0.11 0.03 0.00 0.00 0.00 0.00 0.00 0.00 0.00 0.00 0.00 0.00 0.00 0.00 0.00 0.00 0.00 0.00 0.00 0.01 0.07 0.16 0.15 0.09 0.04 0.04 0.03 0.02 0.03 0.03 0.07 0.22
0.01 0.00 0.00 0.02 0.03 0.04 0.06 0.02 0.01 0.01 0.14 0.16 0.17 0.13 0.00 0.00 0.00 0.01 0.00 0.00 0.00 0.00 0.00 0.00 0.00 0.00 0.00 0.00 0.00 0.00 0.02 0.07 0.14 0.27 0.07 0.10 0.05 0.01 0.00 0.01 0.02 0.02 0.02 0.09
0.03 0.01 0.01 0.01 0.01 0.01 0.00 0.01 0.02 0.03 0.10 0.10 0.09 0.22 0.01 0.05 0.14 0.21 0.12 0.05 0.02 0.02 0.01 0.01 0.00 0.00 0.00 0.00 0.00 0.00 0.01 0.08 0.13 0.11 0.11 0.14 0.07 0.08 0.02 0.04 0.04 0.05 0.03 0.01
0.01 0.01 0.04 0.01 0.00 0.00 0.02 0.03 0.10 0.13 0.10 0.11 0.01 0.05 0.01 0.11 0.37 0.40 0.42 0.15 0.07 0.04 0.02 0.02 0.00 0.00 0.00 0.00 0.00 0.00 0.00 0.01 0.05 0.08 0.08 0.05 0.04 0.02 0.02 0.02 0.03 0.02 0.02 0.03
0.06 0.07 0.01 0.01 0.02 0.01 0.02 0.06 0.10 0.24 0.23 0.05 0.04 0.04 0.06 0.21 0.25 0.44 0.62 0.31 0.09 0.06 0.05 0.04 0.01 0.00 0.00 0.00 0.00 0.00 0.00 0.01 0.01 0.03 0.05 0.07 0.11 0.03 0.02 0.02 0.01 0.01 0.01 0.01
0.11 0.21 0.04 0.01 0.01 0.02 0.03 0.02 0.09 0.39 0.35 0.19 0.13 0.17 0.35 0.31 0.46 0.40 0.24 0.45 0.16 0.07 0.05 0.05 0.02 0.00 0.00 0.00 0.00 0.00 0.00 0.00 0.01 0.01 0.04 0.05 0.07 0.06 0.05 0.01 0.03 0.07 0.03 0.02
0.32 0.41 0.02 0.01 0.03 0.02 0.01 0.03 0.07 0.30 0.25 0.45 0.48 0.61 0.70 0.32 0.57 0.90 0.67 0.31 0.19 0.10 0.04 0.03 0.03 0.01 0.01 0.00 0.00 0.00 0.00 0.00 0.01 0.00 0.02 0.03 0.09 0.06 0.06 0.11 0.16 0.12 0.12 0.11
0.34 0.75 0.05 0.06 0.07 0.04 0.02 0.06 0.16 0.27 0.59 0.49 0.31 0.66 1.19 1.18 1.31 1.40 1.16 0.73 0.35 0.18 0.16 0.05 0.03 0.02 0.01 0.01 0.00 0.01 0.01 0.01 0.01 0.01 0.03 0.08 0.15 0.16 0.15 0.15 0.11 0.17 0.16 0.18
0.25 0.82 0.12 0.03 0.14 0.03 0.01 0.08 0.10 0.15 0.16 0.59 0.74 0.99 1.02 1.62 1.56 1.24 1.40 1.27 0.59 0.32 0.30 0.22 0.09 0.06 0.02 0.02 0.03 0.06 0.04 0.02 0.02 0.05 0.09 0.10 0.13 0.14 0.14 0.12 0.09 0.12 0.15 0.17
0.06 0.29 0.09 0.04 0.03 0.03 0.03 0.03 0.08 0.24 0.33 0.57 1.06 1.48 1.61 1.19 0.65 0.62 0.81 1.24 0.95 0.44 0.37 0.39 0.25 0.12 0.11 0.07 0.08 0.10 0.10 0.07 0.06 0.08 0.10 0.12 0.18 0.16 0.14 0.13 0.09 0.09 0.10 0.14
0.13 0.22 0.24 0.18 0.10 0.32 0.16 0.07 0.07 0.17 0.41 0.90 0.89 1.65 1.31 0.60 0.37 0.41 0.52 0.66 0.78 0.60 0.37 0.50 0.42 0.21 0.14 0.16 0.12 0.11 0.16 0.18 0.17 0.13 0.12 0.13 0.15 0.16 0.15 0.15 0.16 0.14 0.14 0.12
0.08 0.20 0.35 0.38 0.28 0.43 0.38 0.33 0.24 0.46 0.81 0.71 0.54 0.78 0.68 0.39 0.37 0.34 0.25 0.24 0.26 0.35 0.26 0.31 0.26 0.27 0.15 0.15 0.14 0.18 0.22 0.24 0.29 0.30 0.23 0.17 0.22 0.23 0.20 0.14 0.14 0.14 0.14 0.14
0.12 0.51 0.47 0.41 0.53 0.35 0.47 0.94 0.81 0.53 0.47 0.45 0.75 0.51 0.37 0.31 0.30 0.31 0.23 0.17 0.17 0.46 0.34 0.25 0.20 0.19 0.16 0.16 0.17 0.19 0.25 0.41 0.47 0.41 0.40 0.30 0.23 0.35 0.33 0.35 0.30 0.17 0.16 0.16
0.17 0.63 0.81 0.65 0.55 0.33 0.52 0.87 0.53 0.39 0.65 0.61 0.32 0.47 0.39 0.26 0.24 0.26 0.21 0.09 0.09 0.43 0.56 0.64 0.52 0.32 0.31 0.30 0.29 0.32 0.33 0.35 0.39 0.44 0.48 0.50 0.38 0.32 0.39 0.38 0.36 0.33 0.25 0.27
0.13 0.26 0.41 0.35 0.21 0.12 0.42 0.79 0.46 0.26 0.20 0.16 0.10 0.31 0.31 0.15 0.11 0.21 0.28 0.17 0.11 0.18 0.39 0.86 0.86 0.63 0.53 0.56 0.50 0.54 0.53 0.49 0.44 0.39 0.46 0.50 0.46 0.48 0.45 0.54 0.61 0.62 0.51 0.50
0.06 0.09 0.18 0.17 0.19 0.36 0.57 0.27 0.14 0.04 0.05 0.06 0.05 0.09 0.08 0.04 0.11 0.17 0.24 0.23 0.17 0.16 0.25 0.62 0.93 0.79 0.61 0.59 0.56 0.56 0.56 0.56 0.66 0.67 0.76 0.77 0.64 0.54 0.49 0.56 0.62 0.80 0.99 0.78
0.01 0.08 0.19 0.33 0.16 0.29 0.21 0.08 0.05 0.09 0.10 0.07 0.07 0.07 0.07 0.07 0.07 0.20 0.28 0.20 0.18 0.18 0.11 0.09 0.29 0.67 0.74 0.66 0.60 0.53 0.56 0.52 0.52 0.78 0.89 0.89 0.95 1.01 0.95 0.80 0.72 0.73 0.81 0.86
0.00 0.03 0.20 0.29 0.12 0.20 0.13 0.04 0.01 0.01 0.11 0.07 0.04 0.04 0.05 0.06 0.09 0.18 0.22 0.25 0.19 0.09 0.04 0.01 0.00 0.05 0.22 0.45 0.59 0.54 0.55 0.59 0.52 0.58 0.79 0.94 0.94 1.03 1.11 1.27 1.29 1.10 1.02 1.13
0.00 0.01 0.13 0.21 0.06 0.05 0.02 0.04 0.01 0.06 0.20 0.09 0.04 0.02 0.02 0.06 0.16 0.21 0.18 0.26 0.28 0.04 0.00 0.00 0.00 0.00 0.01 0.03 0.14 0.29 0.36 0.49 0.61 0.50 0.51 0.67 0.88 0.95 1.08 1.16 1.20 1.27 1.24 1.08
0.02 0.08 0.08 0.12 0.09 0.08 0.03 0.03 0.06 0.15 0.12 0.06 0.06 0.03 0.03 0.07 0.23 0.29 0.30 0.34 0.25 0.09 0.00 0.00 0.00 0.00 0.00 0.00 0.00 0.06 0.12 0.13 0.18 0.29 0.32 0.31 0.38 0.56 0.66 0.74 0.83 0.84 0.90 0.96
0.05 0.04 0.07 0.10 0.14 0.16 0.09 0.09 0.11 0.06 0.07 0.11 0.08 0.04 0.03 0.05 0.10 0.15 0.18 0.25 0.24 0.09 0.00 0.00 0.00 0.00 0.00 0.00 0.00 0.03 0.06 0.05 0.03 0.04 0.09 0.14 0.16 0.16 0.23 0.33 0.41 0.47 0.50 0.54
0.08 0.02 0.06 0.13 0.13 0.07 0.08 0.06 0.06 0.04 0.08 0.14 0.05 0.03 0.04 0.04 0.05 0.07 0.09 0.13 0.12 0.03 0.00 0.00 0.00 0.00 0.00 0.00 0.01 0.02 0.01 0.00 0.00 0.01 0.01 0.02 0.03 0.05 0.05 0.06 0.11 0.17 0.24 0.29
0.03 0.03 0.05 0.12 0.11 0.08 0.05 0.06 0.06 0.03 0.02 0.02 0.01 0.01 0.00 0.00 0.00 0.00 0.00 0.00 0.00 0.00 0.00 0.00 0.00 0.00 0.00 0.00 0.00 0.01 0.01 0.00 0.00 0.00 0.01 0.00 0.00 0.00 0.01 0.04 0.05 0.06 0.13 0.10
0.01 0.04 0.10 0.12 0.05 0.08 0.07 0.06 0.04 0.03 0.03 0.01 0.00 0.00 0.00 0.00 0.00 0.00 0.00 0.00 0.00 0.00 0.00 0.00 0.00 0.00 0.00 0.00 0.01 0.01 0.00 0.00 0.00 0.00 0.01 0.02 0.02 0.01 0.00 0.00 0.02 0.02 0.04 0.02

GFSCGP_prec_precacc24_120.txt.gz
Total_Precipitation_Accumulation
0.00 0.00 0.01 0.00 0.00 0.01 0.01 0.01 0.03 0.01 0.00 0.00 0.00 0.00 0.00 0.00 0.00 0.00 0.00 0.00 0.00 0.00 0.00 0.00 0.00 0.00 0.00 0.00 0.00 0.00 0.00 0.00 0.00 0.00 0.00 0.01 0.02 0.00 0.00 0.01 0.01 0.02 0.04 0.05
0.02 0.03 0.00 0.00 0.01 0.03 0.04 0.09 0.04 0.01 0.01 0.06 0.04 0.01 0.00 0.00 0.00 0.00 0.00 0.00 0.00 0.00 0.00 0.00 0.00 0.00 0.00 0.00 0.00 0.00 0.01 0.00 0.01 0.00 0.09 0.07 0.04 0.00 0.00 0.01 0.01 0.03 0.04 0.03
0.04 0.02 0.00 0.01 0.01 0.02 0.02 0.02 0.00 0.01 0.05 0.17 0.11 0.03 0.00 0.00 0.00 0.00 0.00 0.00 0.00 0.00 0.00 0.00 0.00 0.00 0.00 0.00 0.00 0.00 0.01 0.01 0.07 0.16 0.15 0.09 0.05 0.04 0.03 0.01 0.01 0.01 0.01 0.02
0.01 0.00 0.00 0.02 0.02 0.04 0.06 0.02 0.01 0.01 0.14 0.16 0.17 0.13 0.00 0.00 0.00 0.03 0.01 0.02 0.02 0.02 0.01 0.00 0.00 0.00 0.00 0.00 0.00 0.00 0.02 0.08 0.16 0.28 0.07 0.10 0.04 0.01 0.00 0.00 0.01 0.01 0.00 0.01
0.03 0.01 0.00 0.01 0.01 0.01 0.00 0.01 0.02 0.03 0.10 0.10 0.09 0.22 0.01 0.05 0.14 0.23 0.17 0.16 0.09 0.07 0.05 0.02 0.00 0.00 0.00 0.00 0.00 0.00 0.02 0.12 0.19 0.14 0.13 0.17 0.08 0.08 0.02 0.03 0.03 0.05 0.03 0.00
0.01 0.01 0.04 0.01 0.00 0.00 0.02 0.03 0.10 0.13 0.10 0.11 0.01 0.08 0.03 0.14 0.42 0.42 0.47 0.24 0.13 0.10 0.09 0.08 0.06 0.04 0.02 0.01 0.00 0.00 0.01 0.03 0.18 0.20 0.20 0.20 0.19 0.04 0.02 0.02 0.02 0.02 0.01 0.01
0.06 0.07 0.01 0.01 0.01 0.01 0.02 0.06 0.10 0.24 0.23 0.05 0.05 0.08 0.11 0.26 0.29 0.49 0.68 0.45 0.18 0.17 0.11 0.11 0.11 0.10 0.10 0.06 0.03 0.01 0.01 0.02 0.10 0.18 0.26 0.19 0.30 0.16 0.02 0.02 0.01 0.01 0.02 0.01
0.11 0.21 0.04 0.01 0.01 0.02 0.03 0.02 0.09 0.40 0.35 0.19 0.14 0.20 0.41 0.37 0.52 0.45 0.30 0.62 0.24 0.22 0.16 0.16 0.20 0.09 0.11 0.08 0.04 0.03 0.01 0.01 0.03 0.06 0.15 0.12 0.16 0.08 0.05 0.02 0.04 0.07 0.03 0.01
0.32 0.41 0.02 0.01 0.03 0.02 0.01 0.03 0.07 0.32 0.26 0.46 0.50 0.62 0.73 0.32 0.58 0.92 0.72 0.44 0.39 0.20 0.17 0.15 0.14 0.09 0.08 0.08 0.05 0.10 0.05 0.01 0.01 0.01 0.03 0.04 0.10 0.07 0.07 0.12 0.17 0.14 0.14 0.13
0.34 0.75 0.05 0.06 0.07 0.04 0.02 0.06 0.17 0.32 0.62 0.51 0.34 0.67 1.20 1.20 1.32 1.42 1.19 0.82 0.64 0.38 0.29 0.12 0.09 0.07 0.06 0.06 0.04 0.05 0.05 0.03 0.01 0.01 0.04 0.08 0.15 0.16 0.15 0.16 0.14 0.21 0.20 0.22
0.25 0.83 0.12 0.03 0.14 0.03 0.02 0.09 0.11 0.19 0.18 0.63 0.79 1.03 1.06 1.66 1.60 1.28 1.45 1.34 0.78 0.56 0.59 0.32 0.15 0.07 0.02 0.03 0.04 0.09 0.06 0.02 0.02 0.05 0.08 0.10 0.13 0.15 0.16 0.13 0.12 0.18 0.21 0.24
0.05 0.30 0.09 0.03 0.03 0.03 0.03 0.04 0.11 0.32 0.37 0.62 1.10 1.52 1.66 1.23 0.71 0.66 0.87 1.32 1.06 0.58 0.67 0.57 0.36 0.16 0.11 0.07 0.07 0.10 0.12 0.09 0.06 0.07 0.09 0.12 0.18 0.16 0.14 0.13 0.09 0.10 0.13 0.22
0.12 0.21 0.22 0.13 0.08 0.32 0.16 0.07 0.09 0.24 0.49 0.96 0.96 1.70 1.34 0.62 0.41 0.47 0.59 0.77 0.91 0.75 0.51 0.66 0.57 0.34 0.19 0.17 0.12 0.10 0.16 0.17 0.16 0.10 0.09 0.12 0.15 0.16 0.14 0.14 0.16 0.14 0.13 0.12
0.08 0.21 0.34 0.36 0.28 0.44 0.38 0.33 0.25 0.55 0.88 0.76 0.57 0.80 0.69 0.42 0.40 0.38 0.31 0.34 0.42 0.51 0.48 0.44 0.36 0.38 0.23 0.20 0.17 0.18 0.19 0.21 0.23 0.25 0.17 0.15 0.22 0.23 0.20 0.13 0.13 0.13 0.14 0.14
0.11 0.51 0.47 0.44 0.57 0.37 0.49 0.97 0.83 0.55 0.49 0.46 0.76 0.52 0.38 0.32 0.32 0.36 0.31 0.27 0.18 0.16 0.11 0.17 0.21 0.29 0.27 0.19 0.16 0.15 0.19 0.29 0.35 0.32 0.28 0.23 0.21 0.35 0.33 0.34 0.29 0.16 0.15 0.15
0.14 0.62 0.82 0.65 0.59 0.35 0.53 0.90 0.54 0.39 0.66 0.62 0.32 0.49 0.42 0.28 0.27 0.28 0.22 0.11 0.05 0.04 0.08 0.15 0.19 0.21 0.26 0.23 0.25 0.24 0.22 0.22 0.28 0.35 0.40 0.40 0.34 0.31 0.38 0.38 0.36 0.32 0.24 0.27
0.13 0.27 0.42 0.36 0.24 0.14 0.44 0.82 0.49 0.29 0.22 0.17 0.11 0.32 0.32 0.17 0.14 0.16 0.14 0.06 0.04 0.04 0.07 0.24 0.39 0.44 0.45 0.45 0.40 0.42 0.40 0.35 0.32 0.31 0.37 0.43 0.39 0.39 0.38 0.51 0.60 0.61 0.50 0.49
0.06 0.09 0.18 0.18 0.24 0.44 0.59 0.28 0.15 0.04 0.05 0.07 0.05 0.10 0.08 0.05 0.13 0.15 0.13 0.08 0.05 0.04 0.06 0.13 0.31 0.52 0.49 0.49 0.51 0.51 0.51 0.48 0.55 0.54 0.52 0.57 0.52 0.44 0.40 0.51 0.60 0.78 0.98 0.77
0.01 0.08 0.19 0.35 0.21 0.34 0.25 0.09 0.05 0.09 0.10 0.08 0.08 0.08 0.07 0.08 0.08 0.17 0.17 0.09 0.08 0.08 0.03 0.03 0.11 0.31 0.52 0.60 0.59 0.53 0.54 0.51 0.51 0.73 0.80 0.73 0.75 0.79 0.79 0.72 0.69 0.72 0.80 0.86
0.01 0.04 0.21 0.30 0.16 0.24 0.15 0.06 0.03 0.03 0.11 0.08 0.05 0.04 0.05 0.05 0.08 0.17 0.19 0.13 0.10 0.03 0.00 0.00 0.00 0.01 0.09 0.31 0.52 0.50 0.52 0.57 0.50 0.57 0.76 0.90 0.91 0.99 1.07 1.22 1.25 1.09 1.02 1.13
0.01 0.01 0.13 0.21 0.09 0.07 0.04 0.08 0.06 0.09 0.21 0.09 0.04 0.02 0.01 0.04 0.13 0.18 0.16 0.16 0.14 0.03 0.00 0.00 0.00 0.00 0.01 0.01 0.11 0.24 0.31 0.44 0.57 0.48 0.49 0.65 0.86 0.94 1.08 1.16 1.20 1.27 1.24 1.09
0.01 0.08 0.08 0.13 0.11 0.10 0.06 0.11 0.11 0.14 0.11 0.06 0.05 0.02 0.02 0.03 0.06 0.09 0.12 0.17 0.14 0.08 0.00 0.00 0.00 0.00 0.00 0.00 0.00 0.05 0.12 0.12 0.16 0.28 0.31 0.31 0.37 0.56 0.66 0.74 0.83 0.84 0.90 0.96
0.04 0.04 0.06 0.11 0.13 0.17 0.14 0.15 0.12 0.05 0.06 0.09 0.04 0.01 0.01 0.01 0.03 0.04 0.04 0.04 0.05 0.02 0.00 0.00 0.00 0.00 0.00 0.00 0.00 0.03 0.06 0.04 0.03 0.04 0.09 0.14 0.15 0.16 0.23 0.33 0.41 0.47 0.50 0.54
0.08 0.02 0.05 0.12 0.16 0.10 0.11 0.08 0.05 0.03 0.03 0.04 0.02 0.01 0.00 0.00 0.01 0.01 0.01 0.00 0.00 0.00 0.00 0.00 0.00 0.00 0.00 0.00 0.00 0.02 0.02 0.00 0.00 0.00 0.01 0.02 0.03 0.05 0.05 0.06 0.10 0.17 0.24 0.30
0.03 0.03 0.04 0.11 0.14 0.10 0.09 0.06 0.03 0.01 0.00 0.00 0.00 0.00 0.00 0.00 0.00 0.00 0.00 0.00 0.00 0.00 0.00 0.00 0.00 0.00 0.00 0.00 0.00 0.01 0.01 0.00 0.00 0.00 0.01 0.00 0.00 0.00 0.01 0.03 0.05 0.05 0.13 0.10
0.01 0.02 0.08 0.11 0.04 0.08 0.08 0.06 0.01 0.00 0.00 0.00 0.00 0.00 0.00 0.00 0.00 0.00 0.00 0.00 0.00 0.00 0.00 0.00 0.00 0.00 0.00 0.00 0.01 0.01 0.00 0.00 0.00 0.00 0.01 0.02 0.02 0.01 0.00 0.00 0.01 0.02 0.03 0.01

GFSCGP_prec_precacc24_123.txt.gz
Total_Precipitation_Accumulation
0.00 0.00 0.01 0.00 0.00 0.01 0.01 0.01 0.02 0.01 0.00 0.00 0.00 0.00 0.00 0.00 0.00 0.00 0.00 0.00 0.00 0.00 0.00 0.00 0.00 0.00 0.00 0.00 0.00 0.00 0.00 0.00 0.03 0.09 0.05 0.01 0.02 0.00 0.00 0.00 0.00 0.00 0.00 0.01
0.02 0.03 0.00 0.00 0.01 0.03 0.02 0.04 0.03 0.01 0.01 0.06 0.04 0.01 0.00 0.00 0.00 0.00 0.00 0.00 0.00 0.00 0.00 0.00 0.00 0.00 0.00 0.00 0.00 0.00 0.01 0.00 0.01 0.02 0.13 0.10 0.04 0.00 0.00 0.00 0.00 0.00 0.00 0.01
0.04 0.02 0.00 0.01 0.01 0.02 0.01 0.02 0.00 0.01 0.05 0.17 0.11 0.03 0.00 0.00 0.00 0.00 0.00 0.00 0.00 0.00 0.00 0.00 0.00 0.00 0.00 0.00 0.00 0.00 0.01 0.01 0.07 0.16 0.17 0.15 0.06 0.04 0.02 0.00 0.00 0.00 0.00 0.01
0.01 0.00 0.00 0.02 0.02 0.04 0.06 0.02 0.01 0.01 0.14 0.16 0.17 0.13 0.00 0.00 0.00 0.03 0.01 0.02 0.02 0.02 0.02 0.01 0.00 0.00 0.00 0.00 0.00 0.00 0.02 0.09 0.17 0.30 0.09 0.16 0.06 0.01 0.00 0.00 0.00 0.01 0.00 0.00
0.02 0.01 0.00 0.01 0.01 0.01 0.00 0.01 0.02 0.03 0.10 0.10 0.09 0.22 0.01 0.05 0.14 0.23 0.17 0.16 0.09 0.08 0.07 0.04 0.02 0.01 0.00 0.00 0.00 0.00 0.02 0.12 0.22 0.23 0.17 0.24 0.15 0.08 0.02 0.03 0.03 0.04 0.03 0.00
0.01 0.01 0.04 0.01 0.00 0.00 0.02 0.03 0.10 0.13 0.10 0.11 0.01 0.08 0.03 0.14 0.43 0.42 0.47 0.24 0.14 0.11 0.10 0.10 0.10 0.08 0.06 0.04 0.02 0.01 0.01 0.05 0.21 0.29 0.33 0.31 0.36 0.20 0.10 0.03 0.02 0.01 0.01 0.01
0.01 0.05 0.01 0.01 0.01 0.01 0.02 0.06 0.10 0.23 0.24 0.06 0.05 0.09 0.12 0.26 0.29 0.50 0.69 0.46 0.19 0.19 0.13 0.14 0.18 0.25 0.20 0.16 0.13 0.06 0.03 0.09 0.17 0.35 0.44 0.38 0.65 0.75 0.55 0.33 0.11 0.03 0.05 0.02
0.07 0.18 0.03 0.01 0.01 0.02 0.03 0.02 0.08 0.39 0.35 0.19 0.14 0.21 0.42 0.37 0.52 0.45 0.30 0.64 0.26 0.24 0.23 0.26 0.54 0.31 0.23 0.24 0.26 0.17 0.07 0.12 0.17 0.27 0.40 0.44 0.43 0.47 0.52 0.71 0.72 0.16 0.04 0.02
0.31 0.40 0.02 0.01 0.03 0.02 0.01 0.03 0.06 0.32 0.26 0.49 0.53 0.63 0.74 0.32 0.58 0.92 0.72 0.45 0.41 0.26 0.30 0.40 0.40 0.21 0.20 0.39 0.32 0.31 0.18 0.12 0.18 0.17 0.25 0.37 0.37 0.34 0.49 0.35 0.50 0.28 0.16 0.15
0.34 0.74 0.05 0.06 0.05 0.04 0.02 0.06 0.17 0.35 0.66 0.55 0.39 0.69 1.17 1.19 1.32 1.42 1.20 0.83 0.67 0.45 0.38 0.35 0.51 0.20 0.16 0.33 0.14 0.18 0.20 0.13 0.12 0.16 0.19 0.29 0.35 0.37 0.52 0.49 0.28 0.25 0.21 0.24
0.25 0.82 0.12 0.03 0.12 0.02 0.02 0.09 0.13 0.22 0.19 0.65 0.82 1.04 1.05 1.67 1.61 1.29 1.47 1.37 0.82 0.66 0.76 0.46 0.39 0.24 0.13 0.14 0.14 0.22 0.18 0.12 0.07 0.10 0.15 0.19 0.29 0.35 0.52 0.48 0.25 0.22 0.24 0.27
0.04 0.29 0.08 0.03 0.02 0.02 0.03 0.04 0.12 0.38 0.41 0.72 1.17 1.51 1.66 1.23 0.71 0.67 0.90 1.36 1.10 0.67 0.95 0.72 0.48 0.31 0.21 0.14 0.12 0.30 0.38 0.31 0.20 0.09 0.09 0.13 0.21 0.31 0.24 0.24 0.14 0.13 0.16 0.25
0.10 0.18 0.21 0.08 0.07 0.31 0.15 0.07 0.09 0.24 0.51 1.01 1.02 1.67 1.34 0.62 0.42 0.48 0.62 0.81 0.96 0.82 0.69 0.86 0.67 0.41 0.24 0.17 0.14 0.18 0.30 0.43 0.45 0.21 0.10 0.12 0.15 0.17 0.15 0.14 0.15 0.14 0.13 0.12
0.07 0.17 0.31 0.34 0.27 0.44 0.37 0.32 0.24 0.57 0.95 0.79 0.59 0.80 0.69 0.42 0.39 0.38 0.32 0.39 0.51 0.61 0.59 0.61 0.57 0.49 0.31 0.22 0.15 0.15 0.16 0.20 0.24 0.25 0.16 0.11 0.20 0.22 0.19 0.13 0.12 0.13 0.13 0.13
0.09 0.49 0.41 0.41 0.57 0.39 0.48 0.94 0.81 0.55 0.51 0.48 0.77 0.52 0.38 0.32 0.32 0.36 0.34 0.29 0.22 0.23 0.17 0.24 0.31 0.39 0.35 0.22 0.15 0.11 0.13 0.22 0.25 0.23 0.22 0.18 0.18 0.34 0.32 0.33 0.28 0.16 0.15 0.15
0.12 0.63 0.82 0.65 0.59 0.36 0.54 0.90 0.55 0.40 0.67 0.62 0.32 0.48 0.41 0.28 0.28 0.29 0.23 0.10 0.04 0.03 0.02 0.02 0.04 0.11 0.22 0.17 0.16 0.16 0.14 0.16 0.18 0.26 0.32 0.31 0.26 0.28 0.37 0.37 0.36 0.32 0.24 0.26
0.13 0.27 0.42 0.37 0.25 0.16 0.48 0.82 0.49 0.29 0.22 0.18 0.12 0.32 0.30 0.17 0.14 0.17 0.13 0.04 0.02 0.02 0.02 0.03 0.05 0.09 0.17 0.23 0.25 0.28 0.29 0.27 0.25 0.21 0.26 0.32 0.31 0.35 0.36 0.50 0.58 0.59 0.49 0.49
0.06 0.09 0.18 0.19 0.26 0.48 0.62 0.28 0.15 0.04 0.05 0.07 0.05 0.09 0.07 0.05 0.12 0.15 0.11 0.07 0.03 0.01 0.01 0.02 0.03 0.05 0.16 0.27 0.33 0.33 0.33 0.34 0.37 0.36 0.30 0.37 0.36 0.35 0.34 0.42 0.52 0.73 0.94 0.74
0.01 0.08 0.20 0.36 0.25 0.37 0.26 0.09 0.05 0.09 0.10 0.08 0.08 0.08 0.07 0.08 0.07 0.15 0.14 0.08 0.05 0.01 0.01 0.02 0.02 0.02 0.05 0.19 0.36 0.39 0.37 0.36 0.34 0.47 0.59 0.52 0.52 0.55 0.55 0.51 0.50 0.56 0.64 0.74
0.01 0.04 0.22 0.31 0.18 0.28 0.15 0.06 0.03 0.03 0.12 0.08 0.05 0.05 0.04 0.05 0.08 0.14 0.16 0.10 0.06 0.01 0.00 0.00 0.00 0.00 0.01 0.03 0.16 0.29 0.37 0.36 0.33 0.43 0.60 0.72 0.75 0.84 0.83 0.96 0.99 0.87 0.80 0.97
0.02 0.02 0.15 0.23 0.12 0.09 0.04 0.08 0.07 0.12 0.21 0.09 0.04 0.02 0.01 0.03 0.06 0.10 0.09 0.09 0.08 0.02 0.00 0.00 0.00 0.00 0.01 0.00 0.01 0.07 0.15 0.23 0.36 0.39 0.44 0.56 0.73 0.89 1.05 1.12 1.12 1.17 1.14 1.01
0.01 0.08 0.08 0.14 0.14 0.13 0.07 0.16 0.17 0.15 0.11 0.06 0.05 0.02 0.02 0.02 0.04 0.02 0.02 0.03 0.04 0.04 0.00 0.00 0.00 0.00 0.00 0.00 0.00 0.02 0.07 0.07 0.09 0.17 0.24 0.29 0.35 0.53 0.64 0.71 0.81 0.82 0.88 0.95
0.03 0.03 0.06 0.11 0.14 0.16 0.15 0.18 0.14 0.05 0.06 0.07 0.03 0.01 0.00 0.00 0.01 0.01 0.01 0.00 0.00 0.00 0.00 0.00 0.00 0.00 0.00 0.00 0.00 0.03 0.05 0.03 0.02 0.03 0.06 0.10 0.14 0.16 0.23 0.32 0.40 0.46 0.50 0.53
0.07 0.01 0.03 0.12 0.16 0.11 0.15 0.16 0.11 0.06 0.03 0.01 0.01 0.00 0.00 0.00 0.00 0.00 0.00 0.00 0.00 0.00 0.00 0.00 0.00 0.00 0.00 0.00 0.00 0.02 0.02 0.00 0.00 0.00 0.01 0.02 0.03 0.04 0.05 0.06 0.10 0.16 0.23 0.29
0.02 0.03 0.04 0.10 0.15 0.12 0.13 0.13 0.08 0.03 0.01 0.00 0.00 0.00 0.00 0.00 0.00 0.00 0.00 0.00 0.00 0.00 0.00 0.00 0.00 0.00 0.00 0.00 0.00 0.01 0.01 0.00 0.00 0.00 0.01 0.00 0.00 0.00 0.01 0.03 0.04 0.05 0.12 0.10
0.01 0.02 0.07 0.10 0.04 0.08 0.10 0.10 0.05 0.02 0.00 0.00 0.00 0.00 0.00 0.00 0.00 0.00 0.00 0.00 0.00 0.00 0.00 0.00 0.00 0.00 0.00 0.00 0.01 0.01 0.00 0.00 0.00 0.00 0.01 0.02 0.02 0.01 0.00 0.00 0.01 0.02 0.03 0.01

GFSCGP_prec_precacc24_126.txt.gz
Total_Precipitation_Accumulation
0.00 0.00 0.01 0.00 0.00 0.01 0.01 0.01 0.01 0.00 0.00 0.00 0.00 0.00 0.00 0.00 0.00 0.00 0.00 0.00 0.00 0.00 0.00 0.00 0.00 0.00 0.00 0.00 0.00 0.00 0.00 0.00 0.03 0.10 0.11 0.12 0.12 0.11 0.05 0.00 0.00 0.00 0.00 0.00
0.02 0.02 0.00 0.00 0.01 0.03 0.02 0.01 0.01 0.01 0.01 0.06 0.04 0.00 0.00 0.00 0.00 0.00 0.00 0.00 0.00 0.00 0.00 0.00 0.00 0.00 0.00 0.00 0.00 0.00 0.01 0.00 0.01 0.02 0.16 0.21 0.21 0.14 0.07 0.00 0.00 0.00 0.00 0.00
0.03 0.01 0.00 0.01 0.01 0.02 0.01 0.01 0.00 0.01 0.03 0.11 0.08 0.02 0.00 0.00 0.00 0.00 0.00 0.00 0.00 0.00 0.00 0.00 0.00 0.00 0.00 0.00 0.00 0.00 0.01 0.01 0.07 0.16 0.17 0.23 0.27 0.23 0.17 0.03 0.00 0.00 0.00 0.00
0.01 0.00 0.00 0.02 0.02 0.04 0.06 0.02 0.01 0.00 0.06 0.11 0.17 0.13 0.00 0.00 0.00 0.03 0.01 0.02 0.02 0.02 0.02 0.01 0.00 0.00 0.00 0.00 0.00 0.00 0.02 0.09 0.17 0.30 0.10 0.24 0.16 0.12 0.08 0.04 0.00 0.02 0.00 0.00
0.01 0.00 0.00 0.01 0.01 0.01 0.00 0.01 0.02 0.02 0.09 0.09 0.09 0.20 0.02 0.05 0.14 0.23 0.17 0.16 0.09 0.08 0.07 0.04 0.02 0.01 0.01 0.00 0.00 0.00 0.02 0.12 0.22 0.23 0.17 0.30 0.26 0.18 0.11 0.07 0.03 0.05 0.03 0.00
0.00 0.00 0.03 0.00 0.00 0.00 0.02 0.02 0.10 0.13 0.10 0.09 0.01 0.10 0.07 0.16 0.43 0.42 0.47 0.24 0.14 0.11 0.10 0.10 0.10 0.08 0.06 0.04 0.03 0.01 0.02 0.05 0.21 0.29 0.35 0.39 0.46 0.34 0.18 0.09 0.03 0.01 0.02 0.01
0.00 0.00 0.01 0.01 0.01 0.01 0.02 0.05 0.09 0.22 0.24 0.06 0.06 0.12 0.15 0.26 0.29 0.50 0.69 0.46 0.19 0.19 0.13 0.14 0.19 0.26 0.24 0.19 0.14 0.08 0.05 0.10 0.18 0.37 0.47 0.46 0.83 1.02 0.91 0.57 0.20 0.07 0.07 0.02
0.01 0.02 0.01 0.00 0.01 0.02 0.03 0.02 0.07 0.37 0.34 0.19 0.14 0.21 0.42 0.36 0.51 0.45 0.30 0.64 0.26 0.24 0.23 0.27 0.58 0.37 0.28 0.30 0.36 0.27 0.14 0.19 0.23 0.32 0.45 0.48 0.55 0.73 1.30 1.42 1.33 0.84 0.29 0.14
0.17 0.19 0.02 0.01 0.03 0.02 0.01 0.03 0.05 0.27 0.23 0.40 0.54 0.64 0.73 0.31 0.57 0.92 0.72 0.45 0.41 0.26 0.31 0.46 0.53 0.29 0.26 0.71 0.96 0.55 0.39 0.28 0.29 0.27 0.30 0.41 0.49 0.60 0.95 1.17 1.44 1.34 1.28 0.62
0.26 0.68 0.04 0.05 0.05 0.03 0.02 0.05 0.12 0.30 0.60 0.48 0.39 0.71 1.13 1.13 1.31 1.42 1.20 0.83 0.67 0.45 0.39 0.45 0.72 0.28 0.29 1.05 0.80 0.50 0.49 0.38 0.33 0.29 0.27 0.33 0.42 0.57 0.80 1.08 1.73 0.96 0.65 1.18
0.22 0.79 0.12 0.02 0.03 0.01 0.01 0.06 0.12 0.21 0.20 0.65 0.79 0.91 0.95 1.57 1.57 1.29 1.47 1.38 0.83 0.68 0.78 0.51 0.64 0.40 0.27 0.56 0.84 0.61 0.48 0.47 0.35 0.24 0.34 0.32 0.40 0.53 0.66 0.64 0.82 1.31 0.64 0.39
0.04 0.27 0.06 0.03 0.02 0.02 0.02 0.03 0.11 0.35 0.41 0.76 1.18 1.27 1.62 1.20 0.71 0.67 0.90 1.36 1.10 0.70 1.02 0.78 0.61 0.56 0.42 0.29 0.33 0.57 0.59 0.47 0.46 0.21 0.31 0.34 0.41 0.53 0.50 0.48 0.42 0.40 0.49 0.53
0.09 0.16 0.13 0.07 0.07 0.26 0.13 0.04 0.08 0.22 0.48 1.00 1.02 1.54 1.28 0.62 0.42 0.48 0.63 0.82 0.97 0.83 0.72 0.92 0.74 0.48 0.52 0.31 0.47 0.58 0.40 0.47 0.53 0.29 0.31 0.36 0.46 0.29 0.41 0.44 0.35 0.27 0.29 0.29
0.06 0.14 0.27 0.34 0.31 0.40 0.28 0.24 0.20 0.55 0.95 0.82 0.61 0.73 0.61 0.41 0.39 0.39 0.32 0.40 0.52 0.63 0.64 0.70 0.67 0.58 0.41 0.30 0.41 0.26 0.16 0.19 0.28 0.45 0.41 0.45 0.42 0.40 0.37 0.37 0.35 0.29 0.23 0.20
0.04 0.34 0.37 0.38 0.57 0.38 0.43 0.89 0.78 0.52 0.51 0.50 0.77 0.46 0.36 0.32 0.32 0.37 0.34 0.29 0.22 0.23 0.18 0.27 0.37 0.46 0.42 0.26 0.21 0.15 0.09 0.13 0.18 0.21 0.23 0.28 0.34 0.47 0.47 0.48 0.40 0.28 0.24 0.18
0.10 0.57 0.66 0.55 0.58 0.34 0.54 0.89 0.54 0.40 0.67 0.62 0.29 0.35 0.37 0.28 0.27 0.29 0.23 0.10 0.04 0.02 0.02 0.02 0.05 0.12 0.18 0.09 0.07 0.10 0.08 0.05 0.06 0.15 0.24 0.24 0.20 0.23 0.35 0.39 0.36 0.31 0.25 0.27
0.10 0.27 0.41 0.36 0.25 0.16 0.50 0.82 0.49 0.29 0.22 0.18 0.10 0.25 0.26 0.17 0.14 0.16 0.13 0.04 0.02 0.01 0.01 0.03 0.04 0.05 0.06 0.04 0.04 0.12 0.17 0.15 0.13 0.09 0.14 0.22 0.22 0.29 0.33 0.48 0.56 0.58 0.48 0.48
0.06 0.09 0.19 0.20 0.28 0.46 0.61 0.28 0.14 0.04 0.05 0.07 0.05 0.09 0.07 0.05 0.11 0.13 0.11 0.06 0.03 0.01 0.01 0.02 0.03 0.03 0.03 0.02 0.03 0.10 0.15 0.18 0.23 0.21 0.14 0.20 0.25 0.28 0.29 0.38 0.48 0.71 0.94 0.74
0.01 0.09 0.20 0.37 0.26 0.37 0.25 0.09 0.05 0.07 0.09 0.08 0.08 0.08 0.07 0.07 0.06 0.09 0.11 0.06 0.03 0.01 0.01 0.02 0.02 0.01 0.00 0.01 0.03 0.08 0.18 0.23 0.23 0.34 0.41 0.31 0.31 0.38 0.42 0.38 0.38 0.45 0.56 0.70
0.01 0.05 0.24 0.32 0.19 0.27 0.13 0.06 0.03 0.03 0.10 0.07 0.05 0.05 0.04 0.04 0.07 0.08 0.09 0.05 0.03 0.00 0.00 0.00 0.00 0.00 0.00 0.00 0.00 0.03 0.12 0.20 0.24 0.32 0.37 0.51 0.50 0.48 0.48 0.52 0.58 0.56 0.54 0.68
0.03 0.03 0.16 0.24 0.12 0.09 0.04 0.08 0.07 0.13 0.17 0.08 0.04 0.02 0.01 0.02 0.04 0.07 0.04 0.03 0.02 0.00 0.00 0.00 0.00 0.00 0.01 0.00 0.00 0.01 0.04 0.09 0.18 0.22 0.28 0.32 0.40 0.53 0.66 0.71 0.68 0.66 0.70 0.66
0.01 0.05 0.08 0.14 0.14 0.14 0.07 0.16 0.17 0.13 0.08 0.05 0.04 0.02 0.01 0.02 0.03 0.01 0.01 0.01 0.00 0.00 0.00 0.00 0.00 0.00 0.00 0.00 0.00 0.01 0.03 0.02 0.02 0.07 0.11 0.13 0.20 0.28 0.37 0.48 0.62 0.65 0.65 0.70
0.03 0.02 0.07 0.11 0.14 0.15 0.15 0.19 0.14 0.05 0.06 0.07 0.02 0.00 0.00 0.00 0.00 0.00 0.00 0.00 0.00 0.00 0.00 0.00 0.00 0.00 0.00 0.00 0.00 0.02 0.04 0.01 0.00 0.00 0.01 0.03 0.04 0.06 0.11 0.19 0.29 0.38 0.45 0.48
0.06 0.01 0.02 0.10 0.15 0.11 0.15 0.17 0.13 0.08 0.06 0.03 0.01 0.00 0.00 0.00 0.00 0.00 0.00 0.00 0.00 0.00 0.00 0.00 0.00 0.00 0.00 0.00 0.00 0.02 0.02 0.00 0.00 0.00 0.00 0.00 0.00 0.01 0.02 0.03 0.06 0.11 0.18 0.26
0.02 0.02 0.03 0.10 0.14 0.11 0.14 0.14 0.12 0.08 0.04 0.01 0.00 0.00 0.00 0.00 0.00 0.00 0.00 0.00 0.00 0.00 0.00 0.00 0.00 0.00 0.00 0.00 0.00 0.01 0.01 0.00 0.00 0.00 0.01 0.00 0.00 0.00 0.00 0.02 0.03 0.04 0.10 0.09
0.01 0.02 0.06 0.08 0.03 0.07 0.11 0.12 0.09 0.07 0.04 0.01 0.00 0.00 0.00 0.00 0.00 0.00 0.00 0.00 0.00 0.00 0.00 0.00 0.00 0.00 0.00 0.00 0.00 0.01 0.00 0.00 0.00 0.00 0.01 0.02 0.01 0.00 0.00 0.00 0.01 0.01 0.02 0.01

GFSCGP_prec_precacc24_129.txt.gz
Total_Precipitation_Accumulation
0.00 0.00 0.00 0.00 0.00 0.01 0.01 0.01 0.01 0.00 0.00 0.00 0.00 0.00 0.00 0.00 0.00 0.00 0.00 0.00 0.00 0.00 0.00 0.00 0.00 0.00 0.00 0.00 0.00 0.00 0.00 0.00 0.03 0.10 0.11 0.13 0.13 0.13 0.16 0.12 0.10 0.05 0.01 0.01
0.01 0.01 0.00 0.00 0.00 0.03 0.02 0.01 0.01 0.01 0.00 0.02 0.02 0.00 0.00 0.00 0.00 0.00 0.00 0.00 0.00 0.00 0.00 0.00 0.00 0.00 0.00 0.00 0.00 0.00 0.01 0.00 0.01 0.02 0.16 0.21 0.22 0.17 0.15 0.17 0.15 0.15 0.03 0.00
0.00 0.00 0.00 0.00 0.00 0.01 0.01 0.01 0.00 0.01 0.01 0.05 0.05 0.01 0.00 0.00 0.00 0.00 0.00 0.00 0.00 0.00 0.00 0.00 0.00 0.00 0.00 0.00 0.00 0.00 0.01 0.01 0.07 0.16 0.17 0.23 0.27 0.24 0.22 0.19 0.16 0.18 0.14 0.01
0.00 0.00 0.00 0.01 0.00 0.02 0.06 0.02 0.01 0.00 0.01 0.02 0.07 0.07 0.00 0.00 0.00 0.03 0.01 0.02 0.02 0.02 0.02 0.01 0.00 0.00 0.00 0.00 0.00 0.00 0.01 0.06 0.16 0.30 0.10 0.24 0.16 0.12 0.10 0.13 0.14 0.20 0.21 0.06
0.00 0.00 0.00 0.00 0.00 0.00 0.00 0.01 0.01 0.00 0.02 0.07 0.04 0.08 0.01 0.04 0.13 0.23 0.17 0.16 0.09 0.08 0.07 0.04 0.02 0.01 0.01 0.00 0.00 0.00 0.02 0.08 0.18 0.23 0.17 0.30 0.26 0.18 0.11 0.13 0.17 0.21 0.26 0.13
0.00 0.00 0.00 0.00 0.00 0.00 0.01 0.01 0.04 0.07 0.06 0.08 0.01 0.07 0.07 0.15 0.42 0.42 0.47 0.24 0.14 0.11 0.10 0.10 0.10 0.08 0.06 0.04 0.03 0.01 0.02 0.05 0.20 0.28 0.35 0.39 0.46 0.34 0.19 0.12 0.15 0.21 0.30 0.17
0.00 0.00 0.00 0.00 0.00 0.00 0.01 0.04 0.05 0.14 0.17 0.05 0.06 0.12 0.16 0.26 0.29 0.49 0.68 0.45 0.19 0.19 0.13 0.14 0.19 0.27 0.24 0.19 0.15 0.08 0.05 0.10 0.18 0.36 0.47 0.47 0.83 1.02 0.92 0.59 0.32 0.36 0.45 0.31
0.01 0.00 0.00 0.00 0.00 0.01 0.02 0.00 0.06 0.36 0.34 0.19 0.14 0.20 0.42 0.36 0.50 0.44 0.29 0.63 0.25 0.24 0.23 0.27 0.59 0.38 0.30 0.33 0.39 0.29 0.16 0.20 0.23 0.32 0.46 0.49 0.56 0.73 1.32 1.56 1.72 1.25 0.88 0.67
0.04 0.02 0.00 0.01 0.02 0.02 0.01 0.02 0.04 0.24 0.17 0.35 0.52 0.63 0.74 0.29 0.32 0.85 0.70 0.45 0.41 0.26 0.31 0.46 0.54 0.31 0.29 0.77 1.02 0.57 0.43 0.31 0.30 0.28 0.32 0.45 0.48 0.61 1.01 1.59 1.87 2.61 2.43 1.71
0.18 0.31 0.01 0.05 0.04 0.03 0.02 0.05 0.12 0.27 0.36 0.19 0.36 0.66 1.06 0.99 0.65 1.18 1.20 0.83 0.67 0.45 0.39 0.45 0.73 0.31 0.31 1.17 0.96 0.63 0.61 0.57 0.47 0.35 0.32 0.38 0.44 0.54 0.86 1.24 2.11 2.11 2.43 2.89
0.10 0.48 0.08 0.02 0.02 0.01 0.01 0.03 0.10 0.18 0.14 0.37 0.60 0.65 0.71 1.17 1.23 1.22 1.47 1.38 0.83 0.68 0.78 0.52 0.65 0.46 0.34 0.63 1.04 1.02 0.72 0.94 0.85 0.46 0.49 0.43 0.46 0.52 0.71 0.86 1.03 1.81 1.70 1.67
0.03 0.23 0.04 0.01 0.00 0.01 0.01 0.02 0.09 0.27 0.31 0.59 0.98 0.99 1.21 0.82 0.68 0.66 0.90 1.36 1.10 0.70 1.03 0.80 0.64 0.61 0.58 0.43 0.47 1.08 1.15 1.27 1.10 0.82 0.83 0.52 0.43 0.54 0.62 0.70 0.77 0.73 0.99 1.25
0.05 0.12 0.11 0.05 0.05 0.15 0.07 0.03 0.06 0.19 0.44 0.93 0.83 0.90 0.92 0.57 0.41 0.48 0.63 0.82 0.97 0.83 0.72 0.93 0.76 0.50 0.60 0.46 0.83 0.82 0.89 0.77 0.86 0.69 0.84 0.54 0.50 0.30 0.42 0.60 0.76 0.66 0.59 0.57
0.04 0.12 0.22 0.28 0.34 0.44 0.30 0.20 0.15 0.47 0.93 0.74 0.51 0.51 0.47 0.41 0.39 0.39 0.32 0.40 0.52 0.63 0.64 0.72 0.69 0.61 0.44 0.36 0.56 0.38 0.28 0.35 0.39 0.47 0.44 0.48 0.40 0.37 0.34 0.40 0.55 0.53 0.47 0.47
0.04 0.23 0.26 0.35 0.53 0.35 0.26 0.62 0.58 0.42 0.49 0.35 0.64 0.29 0.34 0.32 0.32 0.36 0.34 0.29 0.22 0.23 0.18 0.27 0.37 0.47 0.43 0.27 0.20 0.15 0.08 0.07 0.11 0.14 0.20 0.28 0.41 0.43 0.47 0.53 0.48 0.40 0.40 0.35
0.08 0.40 0.51 0.42 0.49 0.21 0.39 0.68 0.41 0.38 0.61 0.52 0.26 0.23 0.33 0.27 0.27 0.29 0.23 0.10 0.03 0.02 0.02 0.02 0.05 0.12 0.18 0.09 0.05 0.02 0.02 0.02 0.02 0.05 0.15 0.17 0.17 0.27 0.50 0.56 0.48 0.39 0.33 0.33
0.08 0.24 0.31 0.25 0.24 0.17 0.44 0.79 0.49 0.29 0.22 0.17 0.08 0.14 0.21 0.17 0.14 0.16 0.12 0.04 0.01 0.01 0.01 0.03 0.04 0.04 0.06 0.03 0.01 0.01 0.01 0.04 0.04 0.02 0.02 0.09 0.14 0.21 0.26 0.41 0.54 0.54 0.48 0.47
0.07 0.10 0.19 0.20 0.28 0.40 0.48 0.26 0.13 0.04 0.05 0.07 0.05 0.09 0.07 0.05 0.10 0.12 0.09 0.05 0.02 0.01 0.01 0.02 0.03 0.03 0.02 0.01 0.00 0.00 0.00 0.02 0.05 0.04 0.03 0.05 0.11 0.15 0.20 0.27 0.40 0.64 0.86 0.69
0.01 0.10 0.20 0.36 0.24 0.33 0.25 0.09 0.05 0.05 0.08 0.08 0.08 0.08 0.07 0.07 0.04 0.04 0.07 0.04 0.01 0.00 0.01 0.02 0.02 0.01 0.00 0.01 0.01 0.00 0.00 0.00 0.02 0.08 0.14 0.14 0.14 0.19 0.25 0.27 0.31 0.38 0.49 0.65
0.01 0.05 0.24 0.32 0.18 0.22 0.13 0.06 0.03 0.03 0.10 0.06 0.05 0.05 0.04 0.04 0.07 0.06 0.06 0.01 0.00 0.00 0.00 0.00 0.00 0.00 0.00 0.00 0.00 0.00 0.00 0.00 0.01 0.06 0.10 0.25 0.29 0.29 0.29 0.38 0.47 0.45 0.43 0.54
0.04 0.05 0.17 0.24 0.12 0.09 0.04 0.08 0.07 0.13 0.15 0.06 0.03 0.02 0.01 0.02 0.03 0.05 0.02 0.01 0.00 0.00 0.00 0.00 0.00 0.00 0.01 0.00 0.00 0.00 0.01 0.00 0.00 0.01 0.04 0.10 0.23 0.35 0.44 0.47 0.50 0.50 0.53 0.47
0.01 0.05 0.09 0.14 0.14 0.14 0.07 0.16 0.17 0.11 0.06 0.03 0.02 0.00 0.00 0.00 0.01 0.01 0.00 0.00 0.00 0.00 0.00 0.00 0.00 0.00 0.00 0.00 0.00 0.01 0.02 0.01 0.00 0.00 0.01 0.03 0.07 0.11 0.18 0.24 0.36 0.41 0.43 0.46
0.03 0.02 0.08 0.11 0.13 0.14 0.15 0.18 0.12 0.04 0.05 0.05 0.01 0.01 0.02 0.02 0.01 0.00 0.00 0.00 0.00 0.00 0.00 0.00 0.00 0.00 0.00 0.00 0.00 0.02 0.04 0.01 0.00 0.00 0.00 0.00 0.01 0.02 0.03 0.06 0.11 0.18 0.23 0.26
0.05 0.01 0.02 0.09 0.14 0.11 0.15 0.16 0.13 0.08 0.05 0.03 0.02 0.02 0.02 0.01 0.00 0.00 0.00 0.00 0.00 0.00 0.00 0.00 0.00 0.00 0.00 0.00 0.00 0.02 0.01 0.00 0.00 0.00 0.00 0.00 0.00 0.00 0.00 0.00 0.01 0.02 0.06 0.09
0.02 0.02 0.03 0.09 0.14 0.11 0.15 0.14 0.11 0.08 0.05 0.03 0.02 0.01 0.00 0.00 0.00 0.00 0.00 0.00 0.00 0.00 0.00 0.00 0.00 0.00 0.00 0.00 0.00 0.00 0.01 0.00 0.00 0.00 0.01 0.00 0.00 0.00 0.00 0.01 0.02 0.02 0.07 0.05
0.01 0.02 0.05 0.06 0.02 0.06 0.10 0.12 0.10 0.07 0.05 0.03 0.03 0.01 0.00 0.00 0.00 0.00 0.00 0.00 0.00 0.00 0.00 0.00 0.00 0.00 0.00 0.00 0.00 0.00 0.00 0.00 0.00 0.00 0.00 0.01 0.01 0.00 0.00 0.00 0.01 0.01 0.02 0.01

GFSCGP_prec_precacc24_132.txt.gz
Total_Precipitation_Accumulation
0.00 0.00 0.00 0.00 0.00 0.00 0.00 0.01 0.01 0.00 0.00 0.00 0.00 0.00 0.00 0.00 0.00 0.00 0.00 0.00 0.00 0.00 0.00 0.00 0.00 0.00 0.00 0.00 0.00 0.00 0.00 0.00 0.03 0.10 0.11 0.13 0.13 0.13 0.16 0.15 0.14 0.22 0.32 0.37
0.00 0.00 0.00 0.00 0.00 0.00 0.00 0.00 0.00 0.01 0.00 0.00 0.00 0.00 0.00 0.00 0.00 0.00 0.00 0.00 0.00 0.00 0.00 0.00 0.00 0.00 0.00 0.00 0.00 0.00 0.01 0.00 0.01 0.02 0.16 0.21 0.22 0.17 0.15 0.18 0.17 0.25 0.30 0.36
0.00 0.00 0.00 0.00 0.00 0.00 0.00 0.00 0.00 0.01 0.00 0.00 0.01 0.00 0.00 0.00 0.00 0.00 0.00 0.00 0.00 0.00 0.00 0.00 0.00 0.00 0.00 0.00 0.00 0.00 0.01 0.01 0.07 0.16 0.17 0.23 0.26 0.24 0.22 0.19 0.16 0.22 0.30 0.29
0.00 0.00 0.00 0.00 0.00 0.00 0.00 0.00 0.00 0.00 0.00 0.00 0.01 0.05 0.00 0.00 0.00 0.03 0.01 0.02 0.02 0.02 0.02 0.01 0.00 0.00 0.00 0.00 0.00 0.00 0.00 0.04 0.15 0.26 0.09 0.24 0.16 0.12 0.10 0.13 0.14 0.21 0.30 0.29
0.00 0.00 0.00 0.00 0.00 0.00 0.00 0.01 0.01 0.00 0.00 0.02 0.01 0.06 0.01 0.03 0.13 0.22 0.16 0.15 0.09 0.08 0.07 0.04 0.02 0.01 0.01 0.00 0.00 0.00 0.01 0.05 0.13 0.15 0.13 0.26 0.25 0.18 0.11 0.13 0.17 0.21 0.29 0.28
0.00 0.00 0.00 0.00 0.00 0.00 0.00 0.00 0.01 0.01 0.03 0.06 0.01 0.06 0.07 0.14 0.40 0.38 0.42 0.22 0.14 0.11 0.10 0.10 0.10 0.08 0.06 0.04 0.03 0.01 0.02 0.04 0.19 0.27 0.34 0.38 0.45 0.34 0.19 0.12 0.15 0.21 0.31 0.26
0.00 0.00 0.00 0.00 0.00 0.00 0.00 0.00 0.02 0.04 0.06 0.03 0.06 0.10 0.15 0.19 0.20 0.37 0.64 0.44 0.18 0.19 0.13 0.14 0.19 0.27 0.24 0.19 0.15 0.08 0.05 0.10 0.18 0.36 0.47 0.46 0.81 1.03 0.93 0.59 0.32 0.36 0.46 0.35
0.01 0.00 0.00 0.00 0.00 0.00 0.00 0.00 0.05 0.23 0.30 0.17 0.13 0.20 0.39 0.25 0.25 0.27 0.24 0.63 0.25 0.24 0.23 0.27 0.59 0.38 0.30 0.33 0.39 0.30 0.17 0.21 0.23 0.32 0.46 0.50 0.54 0.72 1.33 1.56 1.73 1.25 0.89 0.71
0.04 0.02 0.00 0.00 0.00 0.00 0.00 0.02 0.03 0.21 0.15 0.34 0.51 0.59 0.62 0.26 0.20 0.61 0.62 0.43 0.41 0.26 0.31 0.46 0.54 0.31 0.29 0.78 1.05 0.64 0.47 0.32 0.31 0.29 0.33 0.46 0.46 0.58 1.01 1.60 1.88 2.62 2.43 1.72
0.12 0.17 0.00 0.04 0.02 0.01 0.02 0.03 0.09 0.26 0.33 0.12 0.33 0.64 0.91 0.82 0.54 0.80 1.13 0.81 0.67 0.45 0.39 0.45 0.73 0.31 0.32 1.20 1.01 0.66 0.64 0.60 0.49 0.38 0.34 0.37 0.38 0.48 0.83 1.24 2.12 2.11 2.44 2.91
0.04 0.17 0.02 0.01 0.01 0.00 0.01 0.03 0.09 0.17 0.12 0.18 0.34 0.44 0.53 0.93 1.01 0.75 1.19 1.31 0.83 0.68 0.79 0.52 0.65 0.46 0.34 0.65 1.06 1.03 0.83 1.09 0.94 0.55 0.53 0.44 0.54 0.53 0.69 0.84 1.05 1.81 1.70 1.71
0.02 0.14 0.03 0.00 0.00 0.00 0.01 0.01 0.08 0.28 0.15 0.33 0.48 0.47 0.57 0.43 0.53 0.52 0.75 1.33 1.10 0.70 1.03 0.80 0.64 0.61 0.58 0.43 0.51 1.09 1.20 1.46 1.44 1.12 1.01 0.66 0.57 0.70 0.65 0.71 0.82 0.76 1.01 1.38
0.05 0.09 0.10 0.02 0.03 0.06 0.05 0.02 0.05 0.16 0.30 0.56 0.53 0.47 0.49 0.40 0.38 0.46 0.61 0.81 0.97 0.83 0.72 0.93 0.76 0.50 0.60 0.46 0.85 0.86 0.96 0.90 1.23 1.50 1.60 0.93 0.83 0.49 0.48 0.64 0.78 0.67 0.60 0.62
0.04 0.11 0.21 0.24 0.28 0.28 0.19 0.13 0.13 0.34 0.73 0.49 0.29 0.28 0.38 0.37 0.37 0.38 0.32 0.40 0.52 0.63 0.64 0.72 0.69 0.61 0.44 0.36 0.56 0.36 0.28 0.43 0.70 0.87 1.16 1.15 0.76 0.64 0.53 0.41 0.56 0.62 0.57 0.61
0.04 0.23 0.24 0.30 0.31 0.22 0.23 0.38 0.32 0.26 0.32 0.18 0.38 0.21 0.31 0.30 0.31 0.36 0.33 0.29 0.22 0.23 0.18 0.27 0.37 0.47 0.43 0.27 0.20 0.15 0.06 0.03 0.12 0.22 0.25 0.59 0.91 0.59 0.49 0.41 0.36 0.39 0.43 0.47
0.07 0.29 0.29 0.24 0.32 0.17 0.28 0.48 0.35 0.26 0.30 0.29 0.21 0.17 0.29 0.25 0.26 0.28 0.22 0.10 0.03 0.02 0.02 0.02 0.05 0.12 0.18 0.09 0.05 0.01 0.01 0.00 0.00 0.01 0.03 0.05 0.14 0.22 0.34 0.35 0.32 0.34 0.34 0.37
0.08 0.19 0.24 0.15 0.16 0.14 0.28 0.61 0.47 0.21 0.15 0.14 0.07 0.11 0.18 0.15 0.12 0.14 0.11 0.04 0.01 0.01 0.01 0.03 0.04 0.04 0.05 0.03 0.01 0.01 0.00 0.00 0.00 0.00 0.00 0.00 0.01 0.06 0.09 0.12 0.29 0.41 0.48 0.54
0.07 0.11 0.20 0.20 0.23 0.34 0.28 0.18 0.11 0.04 0.04 0.06 0.04 0.08 0.05 0.03 0.07 0.09 0.07 0.04 0.01 0.01 0.01 0.02 0.03 0.03 0.02 0.01 0.00 0.00 0.00 0.00 0.00 0.00 0.01 0.00 0.00 0.01 0.04 0.06 0.15 0.47 0.78 0.67
0.02 0.11 0.26 0.33 0.20 0.23 0.17 0.08 0.04 0.04 0.06 0.07 0.07 0.07 0.06 0.05 0.03 0.04 0.06 0.03 0.01 0.00 0.01 0.02 0.02 0.01 0.00 0.01 0.01 0.00 0.00 0.00 0.00 0.01 0.01 0.02 0.01 0.01 0.05 0.06 0.10 0.16 0.24 0.51
0.01 0.05 0.22 0.31 0.17 0.18 0.12 0.06 0.03 0.03 0.09 0.05 0.04 0.04 0.03 0.04 0.06 0.05 0.04 0.01 0.00 0.00 0.00 0.00 0.00 0.00 0.00 0.00 0.00 0.00 0.00 0.00 0.00 0.01 0.01 0.01 0.02 0.03 0.04 0.13 0.17 0.18 0.17 0.24
0.04 0.05 0.17 0.24 0.12 0.09 0.04 0.08 0.07 0.13 0.13 0.03 0.02 0.01 0.01 0.01 0.03 0.04 0.02 0.00 0.00 0.00 0.00 0.00 0.00 0.00 0.01 0.00 0.00 0.00 0.01 0.00 0.00 0.00 0.00 0.00 0.00 0.02 0.06 0.10 0.07 0.11 0.19 0.20
0.01 0.05 0.09 0.15 0.15 0.14 0.07 0.16 0.16 0.09 0.04 0.02 0.01 0.00 0.00 0.01 0.02 0.01 0.00 0.00 0.00 0.00 0.00 0.00 0.00 0.00 0.00 0.00 0.00 0.00 0.02 0.01 0.00 0.00 0.00 0.00 0.00 0.00 0.02 0.07 0.11 0.10 0.10 0.15
0.07 0.03 0.08 0.10 0.12 0.12 0.14 0.17 0.11 0.03 0.04 0.04 0.01 0.01 0.02 0.05 0.03 0.00 0.00 0.00 0.00 0.00 0.00 0.00 0.00 0.00 0.00 0.00 0.00 0.01 0.02 0.01 0.00 0.00 0.00 0.00 0.00 0.00 0.00 0.00 0.03 0.05 0.07 0.08
0.10 0.01 0.02 0.08 0.12 0.09 0.14 0.16 0.12 0.08 0.05 0.03 0.02 0.02 0.04 0.04 0.01 0.00 0.00 0.00 0.00 0.00 0.00 0.00 0.00 0.00 0.00 0.00 0.00 0.01 0.01 0.00 0.00 0.00 0.00 0.00 0.00 0.00 0.00 0.00 0.00 0.01 0.02 0.01
0.03 0.02 0.03 0.08 0.12 0.10 0.14 0.13 0.11 0.08 0.05 0.03 0.02 0.01 0.01 0.00 0.00 0.00 0.01 0.01 0.00 0.00 0.00 0.00 0.00 0.00 0.00 0.00 0.00 0.00 0.00 0.00 0.00 0.00 0.00 0.00 0.00 0.00 0.00 0.01 0.01 0.02 0.06 0.04
0.01 0.02 0.04 0.06 0.02 0.06 0.09 0.11 0.10 0.07 0.06 0.03 0.03 0.03 0.02 0.01 0.02 0.02 0.01 0.01 0.00 0.00 0.00 0.00 0.00 0.00 0.00 0.00 0.00 0.00 0.00 0.00 0.00 0.00 0.00 0.00 0.00 0.00 0.00 0.00 0.00 0.00 0.02 0.01

GFSCGP_prec_precacc24_135.txt.gz
Total_Precipitation_Accumulation
0.00 0.00 0.00 0.00 0.00 0.00 0.00 0.00 0.00 0.00 0.00 0.00 0.00 0.00 0.00 0.00 0.00 0.00 0.00 0.00 0.00 0.00 0.00 0.00 0.00 0.00 0.00 0.00 0.00 0.00 0.00 0.00 0.03 0.10 0.11 0.13 0.13 0.13 0.16 0.15 0.14 0.22 0.33 0.40
0.00 0.00 0.00 0.00 0.00 0.00 0.00 0.00 0.00 0.00 0.00 0.00 0.00 0.00 0.00 0.00 0.00 0.00 0.00 0.00 0.00 0.00 0.00 0.00 0.00 0.00 0.00 0.00 0.00 0.00 0.01 0.00 0.01 0.02 0.16 0.21 0.22 0.17 0.15 0.18 0.17 0.25 0.30 0.39
0.00 0.00 0.00 0.00 0.00 0.00 0.00 0.00 0.00 0.00 0.00 0.00 0.00 0.00 0.00 0.00 0.00 0.00 0.00 0.00 0.00 0.00 0.00 0.00 0.00 0.00 0.00 0.00 0.00 0.00 0.01 0.01 0.07 0.15 0.17 0.22 0.26 0.22 0.21 0.19 0.16 0.22 0.30 0.32
0.00 0.00 0.00 0.00 0.00 0.00 0.00 0.00 0.00 0.00 0.00 0.00 0.00 0.04 0.00 0.00 0.00 0.03 0.01 0.02 0.02 0.02 0.02 0.01 0.00 0.00 0.00 0.00 0.00 0.00 0.00 0.04 0.15 0.22 0.06 0.21 0.16 0.12 0.10 0.13 0.14 0.21 0.30 0.29
0.00 0.00 0.00 0.00 0.00 0.00 0.00 0.00 0.00 0.00 0.00 0.01 0.00 0.05 0.01 0.01 0.12 0.20 0.16 0.15 0.09 0.08 0.07 0.04 0.02 0.01 0.01 0.00 0.00 0.00 0.00 0.04 0.11 0.14 0.09 0.18 0.22 0.16 0.11 0.11 0.16 0.21 0.29 0.28
0.00 0.00 0.00 0.00 0.00 0.00 0.00 0.00 0.00 0.00 0.01 0.04 0.01 0.06 0.07 0.13 0.33 0.34 0.40 0.20 0.12 0.10 0.10 0.10 0.10 0.08 0.06 0.04 0.03 0.01 0.02 0.03 0.17 0.23 0.31 0.37 0.45 0.34 0.18 0.11 0.14 0.21 0.31 0.26
0.00 0.00 0.00 0.00 0.00 0.00 0.00 0.00 0.01 0.02 0.05 0.03 0.05 0.10 0.14 0.12 0.13 0.31 0.58 0.39 0.16 0.18 0.13 0.14 0.19 0.27 0.24 0.19 0.15 0.08 0.05 0.10 0.17 0.36 0.45 0.43 0.77 1.04 0.95 0.61 0.33 0.36 0.46 0.35
0.01 0.00 0.00 0.00 0.00 0.00 0.00 0.00 0.03 0.13 0.15 0.14 0.11 0.18 0.36 0.24 0.16 0.19 0.21 0.60 0.23 0.23 0.23 0.27 0.59 0.38 0.30 0.33 0.39 0.30 0.18 0.22 0.24 0.32 0.46 0.48 0.52 0.72 1.31 1.59 1.74 1.26 0.90 0.71
0.02 0.01 0.00 0.00 0.00 0.00 0.00 0.01 0.02 0.17 0.09 0.30 0.49 0.45 0.42 0.17 0.14 0.16 0.31 0.38 0.38 0.24 0.30 0.46 0.54 0.31 0.29 0.78 1.06 0.65 0.49 0.34 0.32 0.30 0.33 0.46 0.46 0.57 1.01 1.59 1.88 2.62 2.44 1.72
0.07 0.09 0.00 0.00 0.00 0.00 0.01 0.01 0.07 0.21 0.26 0.11 0.31 0.38 0.35 0.32 0.34 0.38 0.50 0.59 0.59 0.41 0.35 0.44 0.73 0.31 0.32 1.20 1.01 0.66 0.65 0.61 0.50 0.39 0.35 0.39 0.39 0.48 0.82 1.24 2.13 2.11 2.43 2.91
0.02 0.07 0.01 0.00 0.00 0.00 0.00 0.02 0.08 0.16 0.10 0.17 0.22 0.30 0.32 0.38 0.54 0.55 0.75 0.99 0.73 0.62 0.73 0.45 0.63 0.46 0.34 0.65 1.06 1.03 0.83 1.09 0.97 0.56 0.54 0.45 0.56 0.53 0.69 0.84 1.06 1.83 1.69 1.68
0.02 0.08 0.01 0.00 0.00 0.00 0.00 0.01 0.08 0.30 0.15 0.28 0.40 0.32 0.28 0.22 0.31 0.39 0.60 1.01 0.95 0.67 1.02 0.78 0.62 0.60 0.58 0.43 0.51 1.09 1.20 1.47 1.51 1.19 1.03 0.67 0.65 0.78 0.70 0.80 0.88 0.79 0.99 1.32
0.05 0.08 0.09 0.02 0.02 0.02 0.01 0.02 0.05 0.19 0.30 0.28 0.37 0.31 0.22 0.22 0.29 0.38 0.55 0.72 0.92 0.82 0.72 0.93 0.76 0.50 0.60 0.46 0.85 0.86 0.96 0.89 1.27 1.68 1.81 1.04 1.05 0.65 0.78 0.98 1.05 0.78 0.62 0.60
0.04 0.10 0.20 0.21 0.26 0.23 0.11 0.11 0.10 0.28 0.45 0.32 0.21 0.13 0.16 0.23 0.29 0.32 0.30 0.39 0.52 0.63 0.64 0.72 0.69 0.61 0.44 0.36 0.56 0.36 0.28 0.42 0.68 0.94 1.47 1.52 1.30 1.36 1.03 0.81 0.95 1.03 0.70 0.67
0.03 0.16 0.14 0.14 0.18 0.12 0.11 0.24 0.20 0.10 0.14 0.14 0.18 0.08 0.17 0.22 0.26 0.32 0.32 0.29 0.22 0.23 0.18 0.27 0.37 0.47 0.43 0.27 0.20 0.15 0.06 0.03 0.11 0.21 0.30 0.82 1.49 1.29 1.17 0.99 0.80 0.65 0.61 0.75
0.06 0.11 0.14 0.10 0.18 0.09 0.13 0.32 0.20 0.07 0.13 0.14 0.12 0.10 0.19 0.20 0.24 0.27 0.22 0.10 0.03 0.02 0.02 0.02 0.05 0.12 0.18 0.09 0.05 0.01 0.01 0.00 0.00 0.00 0.02 0.04 0.11 0.30 0.54 0.61 0.50 0.23 0.26 0.24
0.05 0.10 0.13 0.08 0.10 0.08 0.17 0.32 0.31 0.11 0.09 0.09 0.05 0.07 0.10 0.10 0.10 0.12 0.10 0.03 0.01 0.01 0.01 0.03 0.04 0.04 0.05 0.03 0.01 0.01 0.00 0.00 0.00 0.00 0.00 0.00 0.00 0.00 0.00 0.04 0.05 0.09 0.15 0.24
0.07 0.10 0.16 0.18 0.23 0.32 0.15 0.08 0.07 0.02 0.03 0.05 0.02 0.04 0.03 0.02 0.06 0.08 0.05 0.03 0.01 0.01 0.01 0.02 0.02 0.03 0.02 0.01 0.00 0.00 0.00 0.00 0.00 0.00 0.00 0.00 0.00 0.00 0.00 0.00 0.02 0.04 0.05 0.09
0.02 0.11 0.24 0.29 0.20 0.21 0.12 0.04 0.02 0.02 0.04 0.04 0.04 0.04 0.03 0.03 0.03 0.03 0.04 0.01 0.01 0.00 0.01 0.02 0.02 0.01 0.00 0.01 0.01 0.00 0.00 0.00 0.00 0.01 0.01 0.01 0.01 0.00 0.00 0.01 0.01 0.02 0.03 0.11
0.01 0.04 0.19 0.30 0.26 0.19 0.11 0.06 0.03 0.03 0.07 0.02 0.02 0.02 0.02 0.02 0.05 0.04 0.03 0.01 0.00 0.00 0.00 0.00 0.00 0.00 0.00 0.00 0.00 0.00 0.00 0.00 0.00 0.01 0.01 0.01 0.01 0.00 0.00 0.01 0.02 0.03 0.02 0.04
0.04 0.06 0.20 0.24 0.16 0.09 0.04 0.08 0.07 0.13 0.11 0.01 0.00 0.00 0.00 0.01 0.02 0.03 0.01 0.00 0.00 0.00 0.00 0.00 0.00 0.00 0.00 0.00 0.00 0.00 0.01 0.00 0.00 0.00 0.00 0.00 0.00 0.00 0.01 0.01 0.01 0.01 0.01 0.02
0.01 0.05 0.09 0.16 0.17 0.14 0.07 0.16 0.15 0.07 0.02 0.01 0.00 0.00 0.00 0.01 0.02 0.01 0.00 0.00 0.00 0.00 0.00 0.00 0.00 0.00 0.00 0.00 0.00 0.00 0.01 0.01 0.00 0.00 0.00 0.00 0.00 0.00 0.00 0.01 0.00 0.00 0.00 0.01
0.07 0.03 0.07 0.10 0.11 0.09 0.12 0.15 0.09 0.02 0.03 0.02 0.00 0.01 0.02 0.05 0.04 0.00 0.00 0.00 0.00 0.00 0.00 0.00 0.00 0.00 0.00 0.00 0.00 0.01 0.02 0.00 0.00 0.00 0.00 0.00 0.00 0.00 0.00 0.00 0.00 0.00 0.00 0.01
0.14 0.03 0.04 0.10 0.11 0.08 0.13 0.15 0.11 0.07 0.05 0.03 0.02 0.02 0.05 0.06 0.02 0.00 0.00 0.01 0.01 0.01 0.00 0.00 0.00 0.00 0.00 0.00 0.00 0.00 0.00 0.00 0.00 0.00 0.00 0.00 0.00 0.00 0.00 0.00 0.00 0.01 0.02 0.01
0.07 0.09 0.07 0.09 0.12 0.10 0.14 0.13 0.11 0.08 0.05 0.03 0.02 0.01 0.01 0.01 0.00 0.00 0.02 0.03 0.02 0.01 0.01 0.00 0.00 0.00 0.00 0.00 0.00 0.00 0.00 0.00 0.00 0.00 0.00 0.00 0.00 0.00 0.00 0.00 0.01 0.01 0.05 0.04
0.01 0.02 0.05 0.06 0.02 0.06 0.09 0.11 0.10 0.07 0.06 0.03 0.03 0.03 0.02 0.01 0.02 0.02 0.03 0.02 0.01 0.00 0.00 0.00 0.00 0.00 0.00 0.00 0.00 0.00 0.00 0.00 0.00 0.00 0.00 0.00 0.00 0.00 0.00 0.00 0.00 0.00 0.01 0.01

GFSCGP_prec_precacc24_141.txt.gz
Total_Precipitation_Accumulation
0.00 0.00 0.00 0.00 0.00 0.00 0.00 0.00 0.00 0.00 0.00 0.00 0.00 0.00 0.00 0.00 0.00 0.00 0.00 0.00 0.00 0.00 0.00 0.00 0.00 0.00 0.00 0.00 0.00 0.00 0.00 0.00 0.03 0.10 0.11 0.12 0.11 0.13 0.16 0.15 0.14 0.22 0.33 0.40
0.00 0.00 0.00 0.00 0.00 0.00 0.00 0.00 0.00 0.00 0.00 0.00 0.00 0.00 0.00 0.00 0.00 0.00 0.00 0.00 0.00 0.00 0.00 0.00 0.00 0.00 0.00 0.00 0.00 0.00 0.00 0.00 0.00 0.02 0.07 0.14 0.19 0.17 0.15 0.18 0.17 0.25 0.30 0.39
0.00 0.00 0.00 0.00 0.00 0.00 0.00 0.00 0.00 0.00 0.00 0.00 0.00 0.00 0.00 0.00 0.00 0.00 0.00 0.00 0.00 0.00 0.00 0.00 0.00 0.00 0.00 0.00 0.00 0.00 0.00 0.00 0.00 0.00 0.03 0.14 0.23 0.21 0.20 0.19 0.16 0.22 0.30 0.32
0.00 0.00 0.00 0.00 0.00 0.00 0.00 0.00 0.00 0.00 0.00 0.00 0.00 0.00 0.00 0.00 0.00 0.01 0.01 0.02 0.02 0.02 0.02 0.01 0.00 0.00 0.00 0.00 0.00 0.00 0.00 0.01 0.03 0.03 0.03 0.14 0.13 0.12 0.11 0.13 0.14 0.21 0.30 0.29
0.00 0.00 0.00 0.00 0.00 0.00 0.00 0.00 0.00 0.00 0.00 0.00 0.00 0.00 0.01 0.00 0.00 0.02 0.05 0.11 0.07 0.06 0.05 0.03 0.02 0.01 0.01 0.00 0.00 0.00 0.00 0.04 0.10 0.12 0.07 0.17 0.19 0.11 0.10 0.11 0.15 0.18 0.26 0.28
0.00 0.00 0.00 0.00 0.00 0.00 0.00 0.00 0.00 0.00 0.00 0.01 0.00 0.06 0.06 0.05 0.06 0.02 0.05 0.10 0.06 0.07 0.08 0.08 0.10 0.08 0.06 0.04 0.03 0.01 0.01 0.03 0.16 0.21 0.27 0.36 0.45 0.35 0.19 0.12 0.14 0.20 0.30 0.26
0.00 0.00 0.00 0.00 0.00 0.00 0.00 0.00 0.00 0.01 0.03 0.02 0.02 0.07 0.09 0.05 0.04 0.05 0.07 0.15 0.10 0.13 0.08 0.10 0.18 0.27 0.24 0.19 0.15 0.08 0.05 0.10 0.17 0.34 0.42 0.41 0.76 1.04 0.96 0.62 0.34 0.37 0.47 0.36
0.00 0.00 0.00 0.00 0.00 0.00 0.00 0.00 0.01 0.01 0.00 0.00 0.01 0.04 0.07 0.06 0.05 0.05 0.06 0.19 0.10 0.18 0.18 0.23 0.57 0.38 0.30 0.33 0.39 0.30 0.18 0.21 0.23 0.31 0.43 0.46 0.51 0.72 1.31 1.60 1.75 1.23 0.90 0.71
0.00 0.00 0.00 0.00 0.00 0.00 0.00 0.00 0.00 0.04 0.02 0.05 0.08 0.06 0.06 0.00 0.01 0.02 0.06 0.15 0.22 0.16 0.26 0.43 0.51 0.30 0.28 0.77 1.05 0.65 0.49 0.34 0.32 0.30 0.32 0.46 0.46 0.58 0.99 1.53 1.77 2.55 2.37 1.66
0.00 0.00 0.00 0.00 0.00 0.00 0.00 0.00 0.03 0.13 0.17 0.10 0.10 0.08 0.04 0.02 0.02 0.02 0.04 0.10 0.32 0.27 0.23 0.40 0.70 0.29 0.31 1.19 1.00 0.66 0.65 0.61 0.50 0.40 0.36 0.41 0.40 0.48 0.80 1.15 2.07 2.03 2.38 2.83
0.00 0.00 0.00 0.00 0.00 0.00 0.00 0.02 0.05 0.12 0.08 0.14 0.16 0.16 0.07 0.06 0.06 0.06 0.08 0.11 0.24 0.36 0.49 0.31 0.57 0.40 0.33 0.64 1.06 1.03 0.83 1.09 0.97 0.57 0.56 0.48 0.59 0.58 0.71 0.87 1.11 1.92 1.77 1.75
0.00 0.01 0.00 0.00 0.00 0.00 0.00 0.01 0.05 0.25 0.17 0.30 0.32 0.18 0.06 0.04 0.06 0.06 0.09 0.13 0.16 0.26 0.66 0.44 0.41 0.50 0.49 0.40 0.51 1.09 1.20 1.47 1.51 1.20 1.06 0.71 0.70 0.84 0.75 0.88 0.96 0.93 1.17 1.37
0.00 0.02 0.02 0.01 0.02 0.01 0.00 0.02 0.03 0.14 0.23 0.20 0.26 0.17 0.04 0.02 0.04 0.07 0.12 0.16 0.18 0.23 0.37 0.47 0.39 0.33 0.53 0.39 0.82 0.86 0.96 0.89 1.26 1.68 1.82 1.06 1.08 0.73 0.94 1.16 1.19 1.04 0.89 0.81
0.00 0.01 0.02 0.08 0.13 0.10 0.06 0.03 0.05 0.17 0.27 0.17 0.13 0.05 0.02 0.03 0.04 0.05 0.10 0.16 0.28 0.32 0.46 0.50 0.55 0.43 0.38 0.33 0.52 0.35 0.28 0.42 0.68 0.94 1.46 1.56 1.40 1.52 1.27 1.09 1.36 1.48 1.17 1.08
0.00 0.01 0.01 0.02 0.05 0.05 0.04 0.03 0.02 0.04 0.06 0.12 0.06 0.01 0.02 0.03 0.03 0.06 0.13 0.14 0.13 0.15 0.15 0.24 0.34 0.44 0.42 0.26 0.20 0.15 0.06 0.03 0.11 0.21 0.29 0.82 1.54 1.44 1.40 1.39 1.53 1.52 1.59 1.69
0.01 0.02 0.02 0.01 0.04 0.03 0.03 0.04 0.02 0.01 0.02 0.01 0.00 0.02 0.03 0.03 0.04 0.08 0.07 0.05 0.01 0.01 0.01 0.01 0.05 0.11 0.18 0.09 0.05 0.01 0.01 0.00 0.00 0.00 0.02 0.04 0.11 0.31 0.59 0.72 0.65 0.52 0.92 1.21
0.01 0.02 0.03 0.02 0.05 0.06 0.11 0.03 0.04 0.03 0.02 0.02 0.03 0.02 0.02 0.02 0.03 0.04 0.03 0.01 0.00 0.00 0.00 0.01 0.02 0.02 0.03 0.02 0.00 0.01 0.00 0.00 0.00 0.00 0.00 0.00 0.00 0.00 0.01 0.06 0.10 0.16 0.15 0.23
0.02 0.03 0.05 0.05 0.12 0.21 0.07 0.01 0.01 0.00 0.00 0.01 0.00 0.00 0.01 0.01 0.02 0.03 0.01 0.00 0.00 0.00 0.00 0.00 0.01 0.01 0.01 0.01 0.00 0.00 0.00 0.00 0.00 0.00 0.00 0.00 0.00 0.00 0.00 0.00 0.00 0.01 0.01 0.02
0.00 0.03 0.13 0.14 0.14 0.12 0.05 0.01 0.00 0.00 0.01 0.01 0.01 0.01 0.00 0.00 0.01 0.02 0.01 0.00 0.00 0.00 0.00 0.00 0.00 0.00 0.00 0.00 0.00 0.00 0.00 0.00 0.00 0.00 0.00 0.00 0.00 0.00 0.00 0.00 0.00 0.01 0.01 0.01
0.01 0.02 0.10 0.19 0.27 0.18 0.07 0.02 0.02 0.02 0.05 0.00 0.00 0.01 0.00 0.01 0.04 0.01 0.01 0.00 0.00 0.00 0.00 0.00 0.00 0.00 0.00 0.00 0.00 0.00 0.00 0.00 0.00 0.00 0.00 0.00 0.00 0.00 0.00 0.01 0.01 0.01 0.01 0.01
0.04 0.05 0.12 0.12 0.22 0.10 0.03 0.05 0.06 0.12 0.09 0.00 0.00 0.00 0.00 0.00 0.01 0.01 0.00 0.00 0.00 0.00 0.00 0.00 0.00 0.00 0.00 0.00 0.00 0.00 0.00 0.00 0.00 0.00 0.00 0.00 0.00 0.00 0.00 0.00 0.01 0.01 0.01 0.01
0.02 0.03 0.05 0.07 0.16 0.12 0.04 0.13 0.14 0.05 0.00 0.00 0.00 0.00 0.00 0.00 0.01 0.00 0.00 0.00 0.00 0.00 0.00 0.00 0.00 0.00 0.00 0.00 0.00 0.00 0.00 0.00 0.00 0.00 0.00 0.00 0.00 0.00 0.00 0.01 0.01 0.00 0.00 0.00
0.07 0.02 0.04 0.04 0.07 0.05 0.08 0.12 0.07 0.02 0.02 0.01 0.00 0.01 0.02 0.05 0.04 0.00 0.00 0.00 0.00 0.00 0.00 0.00 0.00 0.00 0.00 0.00 0.00 0.00 0.00 0.00 0.00 0.00 0.00 0.00 0.00 0.00 0.00 0.00 0.01 0.01 0.01 0.00
0.11 0.02 0.04 0.09 0.08 0.06 0.11 0.13 0.10 0.07 0.05 0.02 0.01 0.02 0.05 0.06 0.02 0.00 0.00 0.01 0.01 0.01 0.00 0.00 0.00 0.00 0.00 0.00 0.00 0.00 0.00 0.00 0.00 0.00 0.00 0.00 0.00 0.00 0.00 0.00 0.00 0.01 0.02 0.01
0.05 0.07 0.06 0.10 0.09 0.08 0.12 0.12 0.11 0.08 0.05 0.03 0.02 0.01 0.01 0.01 0.00 0.00 0.02 0.04 0.02 0.01 0.01 0.00 0.00 0.00 0.00 0.00 0.00 0.00 0.00 0.00 0.00 0.00 0.00 0.00 0.00 0.00 0.00 0.00 0.00 0.00 0.02 0.02
0.00 0.02 0.05 0.07 0.03 0.06 0.08 0.11 0.09 0.07 0.06 0.03 0.03 0.03 0.02 0.01 0.02 0.02 0.05 0.03 0.01 0.00 0.00 0.00 0.00 0.00 0.00 0.00 0.00 0.00 0.00 0.00 0.00 0.00 0.00 0.00 0.00 0.00 0.00 0.00 0.00 0.00 0.00 0.01

GFSCGP_prec_precacc24_144.txt.gz
Total_Precipitation_Accumulation
0.00 0.00 0.00 0.00 0.00 0.00 0.00 0.00 0.00 0.00 0.00 0.00 0.00 0.00 0.00 0.00 0.00 0.00 0.00 0.00 0.00 0.00 0.00 0.00 0.00 0.00 0.00 0.00 0.00 0.00 0.00 0.00 0.02 0.10 0.11 0.12 0.11 0.13 0.16 0.15 0.14 0.22 0.33 0.40
0.00 0.00 0.00 0.00 0.00 0.00 0.00 0.00 0.00 0.00 0.00 0.00 0.00 0.00 0.00 0.00 0.00 0.00 0.00 0.00 0.00 0.00 0.00 0.00 0.00 0.00 0.00 0.00 0.00 0.00 0.00 0.00 0.00 0.02 0.07 0.14 0.19 0.17 0.15 0.18 0.17 0.25 0.30 0.39
0.00 0.00 0.00 0.00 0.00 0.00 0.00 0.00 0.00 0.00 0.00 0.00 0.00 0.00 0.00 0.00 0.00 0.00 0.00 0.00 0.00 0.00 0.00 0.00 0.00 0.00 0.00 0.00 0.00 0.00 0.00 0.00 0.00 0.00 0.03 0.14 0.22 0.21 0.20 0.19 0.17 0.22 0.30 0.32
0.00 0.00 0.00 0.00 0.00 0.00 0.00 0.00 0.00 0.00 0.00 0.00 0.00 0.00 0.00 0.00 0.00 0.00 0.00 0.00 0.00 0.00 0.01 0.01 0.00 0.00 0.00 0.00 0.00 0.00 0.00 0.00 0.01 0.01 0.03 0.14 0.13 0.11 0.11 0.13 0.14 0.21 0.30 0.30
0.00 0.00 0.00 0.00 0.00 0.00 0.00 0.00 0.00 0.00 0.00 0.00 0.00 0.00 0.01 0.00 0.00 0.00 0.00 0.00 0.00 0.00 0.01 0.02 0.01 0.01 0.01 0.00 0.00 0.00 0.00 0.00 0.04 0.09 0.05 0.14 0.19 0.11 0.10 0.11 0.15 0.18 0.26 0.28
0.00 0.00 0.00 0.00 0.00 0.00 0.00 0.00 0.00 0.00 0.00 0.01 0.00 0.03 0.04 0.02 0.01 0.00 0.00 0.00 0.00 0.01 0.01 0.03 0.04 0.04 0.04 0.03 0.02 0.01 0.01 0.02 0.03 0.09 0.16 0.21 0.31 0.33 0.20 0.12 0.14 0.20 0.30 0.26
0.00 0.00 0.00 0.00 0.00 0.00 0.00 0.00 0.00 0.01 0.03 0.02 0.01 0.03 0.04 0.00 0.00 0.01 0.01 0.01 0.01 0.02 0.02 0.03 0.08 0.16 0.15 0.14 0.12 0.08 0.04 0.08 0.09 0.19 0.21 0.29 0.57 0.92 0.96 0.62 0.35 0.37 0.45 0.35
0.00 0.00 0.00 0.00 0.00 0.00 0.00 0.00 0.00 0.00 0.00 0.00 0.00 0.02 0.01 0.00 0.00 0.00 0.00 0.01 0.02 0.02 0.07 0.11 0.39 0.29 0.20 0.26 0.35 0.27 0.17 0.21 0.22 0.27 0.31 0.40 0.43 0.70 1.32 1.60 1.75 1.24 0.90 0.72
0.00 0.00 0.00 0.00 0.00 0.00 0.00 0.00 0.00 0.01 0.01 0.03 0.06 0.05 0.03 0.00 0.00 0.00 0.00 0.01 0.02 0.06 0.14 0.31 0.40 0.22 0.21 0.70 1.01 0.55 0.44 0.33 0.32 0.30 0.31 0.45 0.45 0.57 0.99 1.52 1.77 2.54 2.36 1.65
0.00 0.00 0.00 0.00 0.00 0.00 0.00 0.00 0.02 0.08 0.14 0.08 0.07 0.08 0.02 0.00 0.00 0.00 0.01 0.01 0.03 0.07 0.10 0.33 0.64 0.24 0.26 1.14 0.96 0.62 0.61 0.58 0.49 0.39 0.36 0.40 0.40 0.48 0.80 1.13 2.04 1.99 2.36 2.80
0.00 0.00 0.00 0.00 0.00 0.00 0.00 0.01 0.04 0.08 0.06 0.12 0.12 0.13 0.02 0.02 0.01 0.01 0.02 0.03 0.05 0.12 0.20 0.19 0.51 0.38 0.32 0.63 1.04 1.00 0.81 1.08 0.96 0.57 0.56 0.48 0.59 0.57 0.69 0.85 1.09 1.88 1.73 1.71
0.00 0.00 0.00 0.00 0.00 0.00 0.00 0.00 0.02 0.18 0.15 0.27 0.29 0.15 0.01 0.01 0.01 0.01 0.03 0.04 0.05 0.12 0.35 0.23 0.28 0.45 0.48 0.39 0.51 1.09 1.17 1.44 1.50 1.20 1.06 0.71 0.70 0.83 0.75 0.89 0.99 0.94 1.19 1.33
0.00 0.01 0.01 0.01 0.02 0.01 0.01 0.02 0.02 0.08 0.16 0.14 0.20 0.13 0.01 0.00 0.00 0.01 0.03 0.05 0.05 0.08 0.21 0.27 0.19 0.17 0.45 0.36 0.82 0.86 0.96 0.88 1.25 1.68 1.82 1.06 1.08 0.72 0.94 1.17 1.22 1.10 0.95 0.85
0.00 0.00 0.01 0.07 0.12 0.09 0.05 0.03 0.04 0.09 0.22 0.13 0.10 0.03 0.01 0.00 0.00 0.01 0.02 0.05 0.10 0.12 0.16 0.28 0.34 0.26 0.27 0.24 0.48 0.33 0.28 0.42 0.68 0.94 1.46 1.56 1.40 1.53 1.28 1.09 1.36 1.51 1.23 1.16
0.00 0.01 0.00 0.00 0.00 0.03 0.02 0.00 0.01 0.02 0.05 0.10 0.05 0.00 0.00 0.00 0.00 0.01 0.03 0.03 0.04 0.07 0.07 0.12 0.20 0.24 0.25 0.19 0.18 0.13 0.05 0.03 0.11 0.21 0.29 0.82 1.54 1.44 1.40 1.39 1.54 1.52 1.61 1.74
0.00 0.02 0.01 0.00 0.00 0.02 0.02 0.00 0.00 0.01 0.01 0.00 0.00 0.00 0.00 0.00 0.00 0.01 0.01 0.00 0.00 0.00 0.00 0.01 0.03 0.08 0.12 0.05 0.03 0.01 0.00 0.00 0.00 0.00 0.02 0.04 0.11 0.31 0.59 0.72 0.65 0.53 0.93 1.21
0.01 0.02 0.02 0.02 0.02 0.04 0.09 0.00 0.00 0.00 0.00 0.01 0.02 0.00 0.00 0.00 0.00 0.00 0.00 0.00 0.00 0.00 0.00 0.00 0.01 0.01 0.02 0.01 0.00 0.00 0.00 0.00 0.00 0.00 0.00 0.00 0.00 0.00 0.01 0.06 0.09 0.16 0.15 0.24
0.02 0.03 0.05 0.04 0.07 0.14 0.04 0.00 0.00 0.00 0.00 0.00 0.00 0.00 0.00 0.00 0.00 0.00 0.00 0.00 0.00 0.00 0.00 0.00 0.00 0.00 0.00 0.00 0.00 0.00 0.00 0.00 0.00 0.00 0.00 0.00 0.00 0.00 0.00 0.00 0.00 0.00 0.01 0.01
0.00 0.03 0.13 0.14 0.10 0.07 0.01 0.00 0.00 0.00 0.01 0.00 0.00 0.00 0.00 0.00 0.00 0.01 0.00 0.00 0.00 0.00 0.00 0.00 0.00 0.00 0.00 0.00 0.00 0.00 0.00 0.00 0.00 0.00 0.00 0.00 0.00 0.00 0.00 0.00 0.00 0.00 0.00 0.01
0.00 0.02 0.12 0.20 0.26 0.15 0.05 0.00 0.00 0.01 0.05 0.00 0.00 0.00 0.00 0.00 0.04 0.02 0.00 0.00 0.00 0.00 0.00 0.00 0.00 0.00 0.00 0.00 0.00 0.00 0.00 0.00 0.00 0.00 0.00 0.00 0.00 0.00 0.00 0.01 0.01 0.00 0.00 0.00
0.03 0.05 0.13 0.13 0.21 0.08 0.00 0.00 0.01 0.10 0.09 0.00 0.00 0.00 0.00 0.00 0.01 0.00 0.00 0.00 0.00 0.00 0.00 0.00 0.00 0.00 0.00 0.00 0.00 0.00 0.00 0.00 0.00 0.00 0.00 0.00 0.00 0.00 0.00 0.00 0.00 0.00 0.01 0.00
0.02 0.03 0.05 0.07 0.15 0.10 0.01 0.05 0.09 0.06 0.00 0.00 0.00 0.00 0.00 0.00 0.01 0.00 0.00 0.00 0.00 0.00 0.00 0.00 0.00 0.00 0.00 0.00 0.00 0.00 0.00 0.00 0.00 0.00 0.00 0.00 0.00 0.00 0.00 0.00 0.00 0.00 0.00 0.00
0.07 0.02 0.04 0.03 0.04 0.01 0.02 0.05 0.04 0.02 0.01 0.01 0.00 0.01 0.02 0.05 0.03 0.00 0.00 0.00 0.00 0.00 0.00 0.00 0.00 0.00 0.00 0.00 0.00 0.00 0.00 0.00 0.00 0.00 0.00 0.00 0.00 0.00 0.00 0.00 0.01 0.00 0.00 0.00
0.11 0.02 0.03 0.06 0.03 0.01 0.05 0.09 0.09 0.06 0.05 0.02 0.01 0.02 0.05 0.06 0.02 0.00 0.00 0.01 0.01 0.01 0.00 0.00 0.00 0.00 0.00 0.00 0.00 0.00 0.00 0.00 0.00 0.00 0.00 0.00 0.00 0.00 0.00 0.00 0.00 0.01 0.02 0.00
0.05 0.07 0.06 0.06 0.03 0.03 0.07 0.09 0.10 0.08 0.05 0.03 0.02 0.01 0.01 0.01 0.00 0.00 0.02 0.04 0.02 0.01 0.01 0.00 0.00 0.00 0.00 0.00 0.00 0.00 0.00 0.00 0.00 0.00 0.00 0.00 0.00 0.00 0.00 0.00 0.00 0.00 0.02 0.01
0.00 0.01 0.05 0.06 0.01 0.03 0.05 0.08 0.09 0.07 0.06 0.03 0.03 0.03 0.02 0.01 0.02 0.02 0.05 0.04 0.01 0.00 0.00 0.00 0.00 0.00 0.00 0.00 0.00 0.00 0.00 0.00 0.00 0.00 0.00 0.00 0.00 0.00 0.00 0.00 0.00 0.00 0.00 0.01

GFSCGP_prec_precacc24_150.txt.gz
Total_Precipitation_Accumulation
0.00 0.00 0.00 0.00 0.00 0.00 0.00 0.00 0.00 0.00 0.00 0.00 0.00 0.00 0.00 0.00 0.00 0.00 0.00 0.00 0.00 0.00 0.00 0.00 0.00 0.00 0.00 0.00 0.00 0.00 0.00 0.00 0.00 0.00 0.00 0.00 0.01 0.02 0.11 0.15 0.14 0.22 0.32 0.40
0.00 0.00 0.00 0.00 0.00 0.00 0.00 0.00 0.00 0.00 0.00 0.00 0.00 0.00 0.00 0.00 0.00 0.00 0.00 0.00 0.00 0.00 0.00 0.00 0.00 0.00 0.00 0.00 0.00 0.00 0.00 0.00 0.00 0.00 0.00 0.00 0.01 0.03 0.09 0.18 0.17 0.25 0.30 0.38
0.00 0.00 0.00 0.00 0.00 0.00 0.00 0.00 0.00 0.00 0.00 0.00 0.00 0.00 0.00 0.00 0.00 0.00 0.00 0.00 0.00 0.00 0.00 0.00 0.00 0.00 0.00 0.00 0.00 0.00 0.00 0.00 0.00 0.00 0.00 0.00 0.00 0.01 0.05 0.16 0.17 0.22 0.30 0.31
0.00 0.00 0.00 0.00 0.00 0.00 0.00 0.00 0.00 0.00 0.00 0.00 0.00 0.00 0.00 0.00 0.00 0.00 0.00 0.00 0.00 0.00 0.00 0.00 0.00 0.00 0.00 0.00 0.00 0.00 0.00 0.00 0.00 0.00 0.00 0.00 0.01 0.01 0.02 0.10 0.14 0.19 0.30 0.30
0.00 0.00 0.00 0.00 0.00 0.00 0.00 0.00 0.00 0.00 0.00 0.00 0.00 0.00 0.00 0.00 0.00 0.00 0.00 0.00 0.00 0.00 0.00 0.00 0.00 0.00 0.00 0.00 0.00 0.00 0.00 0.00 0.00 0.00 0.00 0.01 0.01 0.01 0.01 0.07 0.14 0.16 0.26 0.28
0.00 0.00 0.00 0.00 0.00 0.00 0.00 0.00 0.00 0.00 0.00 0.00 0.00 0.00 0.00 0.00 0.00 0.00 0.00 0.00 0.00 0.00 0.00 0.00 0.00 0.00 0.00 0.00 0.00 0.00 0.00 0.00 0.00 0.00 0.01 0.02 0.03 0.03 0.03 0.04 0.13 0.20 0.30 0.26
0.00 0.00 0.00 0.00 0.00 0.00 0.00 0.00 0.00 0.00 0.00 0.00 0.00 0.00 0.00 0.00 0.00 0.00 0.00 0.00 0.00 0.00 0.00 0.00 0.00 0.00 0.00 0.00 0.01 0.01 0.00 0.00 0.00 0.00 0.01 0.02 0.04 0.06 0.07 0.08 0.16 0.31 0.41 0.35
0.00 0.00 0.00 0.00 0.00 0.00 0.00 0.00 0.00 0.00 0.00 0.00 0.00 0.00 0.00 0.00 0.00 0.00 0.00 0.00 0.00 0.00 0.00 0.00 0.00 0.01 0.02 0.03 0.03 0.03 0.04 0.03 0.01 0.01 0.01 0.03 0.03 0.05 0.08 0.20 0.47 0.47 0.66 0.61
0.00 0.00 0.00 0.00 0.00 0.00 0.00 0.00 0.00 0.00 0.00 0.00 0.00 0.00 0.01 0.00 0.00 0.00 0.00 0.00 0.00 0.00 0.00 0.00 0.01 0.02 0.03 0.07 0.09 0.11 0.11 0.06 0.04 0.03 0.05 0.08 0.05 0.04 0.11 0.47 0.50 1.35 1.22 1.17
0.00 0.00 0.00 0.00 0.00 0.00 0.00 0.00 0.01 0.02 0.08 0.03 0.00 0.00 0.01 0.00 0.00 0.00 0.00 0.00 0.00 0.00 0.00 0.00 0.01 0.03 0.03 0.15 0.21 0.16 0.16 0.23 0.17 0.11 0.12 0.15 0.13 0.08 0.15 0.22 0.45 1.24 1.91 1.87
0.00 0.00 0.00 0.00 0.00 0.00 0.00 0.00 0.01 0.03 0.03 0.05 0.03 0.01 0.02 0.00 0.00 0.00 0.00 0.00 0.00 0.00 0.00 0.01 0.01 0.05 0.07 0.10 0.24 0.44 0.37 0.63 0.63 0.37 0.30 0.25 0.32 0.19 0.19 0.35 0.40 0.76 1.31 1.57
0.00 0.00 0.00 0.00 0.00 0.00 0.00 0.00 0.01 0.10 0.09 0.14 0.15 0.04 0.00 0.00 0.00 0.00 0.00 0.00 0.00 0.00 0.01 0.02 0.03 0.05 0.16 0.16 0.21 0.58 0.67 1.05 1.09 1.05 0.83 0.47 0.47 0.46 0.38 0.54 0.66 0.65 0.84 1.03
0.00 0.00 0.00 0.00 0.00 0.01 0.01 0.02 0.02 0.07 0.12 0.09 0.12 0.03 0.00 0.00 0.00 0.00 0.00 0.00 0.00 0.00 0.00 0.01 0.02 0.02 0.09 0.16 0.42 0.33 0.63 0.53 0.85 1.46 1.59 0.80 0.75 0.58 0.67 0.87 1.01 0.97 0.83 0.73
0.00 0.00 0.00 0.04 0.07 0.09 0.05 0.03 0.04 0.05 0.11 0.03 0.03 0.01 0.01 0.00 0.00 0.00 0.00 0.00 0.00 0.00 0.00 0.02 0.03 0.03 0.03 0.06 0.17 0.16 0.19 0.33 0.52 0.67 1.17 1.19 1.14 1.33 1.09 0.84 1.12 1.35 1.14 1.10
0.00 0.00 0.00 0.00 0.00 0.01 0.01 0.00 0.00 0.01 0.01 0.03 0.01 0.00 0.00 0.00 0.00 0.00 0.00 0.00 0.00 0.00 0.00 0.00 0.00 0.00 0.01 0.01 0.02 0.03 0.02 0.02 0.07 0.15 0.19 0.64 1.32 1.29 1.24 1.23 1.40 1.39 1.51 1.70
0.00 0.00 0.00 0.00 0.00 0.00 0.00 0.00 0.00 0.00 0.00 0.00 0.00 0.00 0.00 0.00 0.00 0.00 0.01 0.00 0.00 0.00 0.00 0.01 0.00 0.00 0.00 0.00 0.00 0.00 0.00 0.00 0.00 0.00 0.01 0.02 0.09 0.29 0.58 0.69 0.63 0.51 0.91 1.20
0.00 0.00 0.01 0.00 0.01 0.02 0.02 0.00 0.00 0.00 0.00 0.00 0.00 0.00 0.00 0.00 0.00 0.01 0.02 0.01 0.00 0.01 0.01 0.00 0.00 0.00 0.00 0.00 0.00 0.00 0.00 0.00 0.00 0.00 0.00 0.00 0.00 0.00 0.01 0.06 0.09 0.16 0.15 0.24
0.01 0.02 0.04 0.02 0.03 0.07 0.02 0.00 0.00 0.00 0.00 0.00 0.00 0.00 0.01 0.02 0.00 0.00 0.00 0.00 0.00 0.00 0.00 0.00 0.00 0.00 0.00 0.00 0.00 0.00 0.00 0.00 0.00 0.00 0.00 0.00 0.00 0.00 0.00 0.00 0.00 0.00 0.00 0.01
0.00 0.03 0.12 0.12 0.05 0.02 0.00 0.00 0.00 0.00 0.00 0.00 0.01 0.00 0.00 0.00 0.00 0.02 0.00 0.00 0.00 0.00 0.00 0.00 0.00 0.00 0.00 0.00 0.00 0.00 0.00 0.00 0.00 0.00 0.00 0.00 0.00 0.00 0.00 0.00 0.00 0.00 0.00 0.00
0.00 0.01 0.10 0.19 0.23 0.09 0.01 0.00 0.00 0.00 0.03 0.00 0.00 0.01 0.00 0.00 0.05 0.09 0.02 0.01 0.00 0.00 0.00 0.00 0.00 0.00 0.00 0.00 0.00 0.00 0.00 0.00 0.00 0.00 0.00 0.00 0.00 0.00 0.00 0.00 0.00 0.00 0.00 0.00
0.00 0.04 0.11 0.12 0.19 0.05 0.00 0.00 0.00 0.06 0.07 0.00 0.00 0.00 0.00 0.01 0.02 0.00 0.00 0.00 0.00 0.00 0.00 0.00 0.00 0.00 0.00 0.00 0.00 0.00 0.00 0.00 0.00 0.00 0.00 0.00 0.00 0.00 0.00 0.00 0.00 0.00 0.00 0.00
0.01 0.02 0.04 0.06 0.13 0.05 0.00 0.00 0.01 0.04 0.00 0.00 0.00 0.00 0.01 0.01 0.02 0.01 0.00 0.00 0.00 0.00 0.00 0.00 0.00 0.00 0.00 0.00 0.00 0.00 0.00 0.00 0.00 0.00 0.00 0.00 0.00 0.00 0.00 0.00 0.00 0.00 0.00 0.00
0.06 0.01 0.02 0.02 0.02 0.01 0.00 0.00 0.00 0.00 0.00 0.00 0.00 0.01 0.02 0.05 0.03 0.00 0.00 0.00 0.00 0.00 0.00 0.00 0.00 0.00 0.00 0.00 0.00 0.00 0.00 0.00 0.00 0.00 0.00 0.00 0.00 0.00 0.00 0.00 0.01 0.00 0.00 0.00
0.10 0.02 0.03 0.04 0.01 0.00 0.00 0.00 0.00 0.00 0.00 0.00 0.01 0.02 0.05 0.06 0.02 0.00 0.00 0.01 0.01 0.01 0.00 0.00 0.00 0.00 0.00 0.00 0.00 0.00 0.00 0.00 0.00 0.00 0.00 0.00 0.00 0.00 0.00 0.00 0.00 0.01 0.02 0.00
0.06 0.09 0.08 0.05 0.01 0.01 0.01 0.01 0.00 0.00 0.01 0.01 0.01 0.01 0.01 0.01 0.00 0.00 0.02 0.04 0.02 0.01 0.01 0.00 0.00 0.00 0.00 0.00 0.00 0.00 0.00 0.00 0.00 0.00 0.00 0.00 0.00 0.00 0.00 0.00 0.00 0.00 0.02 0.01
0.00 0.02 0.07 0.04 0.02 0.03 0.01 0.00 0.00 0.00 0.02 0.02 0.03 0.03 0.02 0.01 0.02 0.02 0.05 0.04 0.01 0.00 0.00 0.00 0.00 0.00 0.00 0.00 0.00 0.00 0.00 0.00 0.00 0.00 0.00 0.00 0.00 0.00 0.00 0.00 0.00 0.00 0.00 0.01

GFSCGP_prec_precacc24_153.txt.gz
Total_Precipitation_Accumulation
0.00 0.00 0.00 0.00 0.00 0.00 0.00 0.00 0.00 0.00 0.00 0.00 0.00 0.00 0.00 0.00 0.00 0.00 0.00 0.00 0.00 0.00 0.00 0.00 0.00 0.00 0.00 0.00 0.00 0.00 0.00 0.00 0.00 0.00 0.00 0.00 0.00 0.00 0.00 0.02 0.04 0.16 0.32 0.39
0.00 0.00 0.00 0.00 0.00 0.00 0.00 0.00 0.00 0.00 0.00 0.00 0.00 0.00 0.00 0.00 0.00 0.00 0.00 0.00 0.00 0.00 0.00 0.00 0.00 0.00 0.00 0.00 0.00 0.00 0.00 0.00 0.00 0.00 0.00 0.00 0.00 0.00 0.00 0.00 0.02 0.10 0.27 0.38
0.00 0.00 0.00 0.00 0.00 0.00 0.00 0.00 0.00 0.00 0.00 0.00 0.00 0.00 0.00 0.00 0.00 0.00 0.00 0.00 0.00 0.00 0.00 0.00 0.00 0.00 0.00 0.00 0.00 0.00 0.00 0.00 0.00 0.00 0.00 0.00 0.00 0.00 0.00 0.00 0.00 0.03 0.16 0.31
0.00 0.00 0.00 0.00 0.00 0.00 0.00 0.00 0.00 0.00 0.00 0.00 0.00 0.00 0.00 0.00 0.00 0.00 0.00 0.00 0.00 0.00 0.00 0.00 0.00 0.00 0.00 0.00 0.00 0.00 0.00 0.00 0.00 0.00 0.00 0.00 0.01 0.01 0.00 0.00 0.00 0.01 0.09 0.24
0.00 0.00 0.00 0.00 0.00 0.00 0.00 0.00 0.00 0.00 0.00 0.00 0.00 0.00 0.00 0.00 0.00 0.00 0.00 0.00 0.00 0.00 0.00 0.00 0.00 0.00 0.00 0.00 0.00 0.00 0.00 0.00 0.00 0.00 0.00 0.01 0.01 0.01 0.01 0.01 0.01 0.00 0.03 0.15
0.00 0.00 0.00 0.00 0.00 0.00 0.00 0.00 0.00 0.00 0.00 0.00 0.00 0.00 0.00 0.00 0.00 0.00 0.00 0.00 0.00 0.00 0.00 0.00 0.00 0.00 0.00 0.00 0.00 0.00 0.00 0.00 0.00 0.00 0.01 0.02 0.03 0.03 0.03 0.02 0.01 0.01 0.01 0.10
0.00 0.00 0.00 0.00 0.00 0.00 0.00 0.00 0.00 0.00 0.00 0.00 0.00 0.00 0.00 0.00 0.00 0.00 0.00 0.00 0.00 0.00 0.00 0.00 0.00 0.00 0.00 0.00 0.00 0.00 0.00 0.00 0.00 0.00 0.00 0.02 0.04 0.05 0.06 0.05 0.04 0.03 0.04 0.07
0.00 0.00 0.00 0.00 0.00 0.00 0.00 0.00 0.00 0.00 0.00 0.00 0.00 0.00 0.00 0.00 0.00 0.00 0.00 0.00 0.00 0.00 0.00 0.00 0.00 0.00 0.00 0.00 0.01 0.01 0.02 0.02 0.01 0.00 0.01 0.02 0.02 0.05 0.05 0.06 0.07 0.06 0.06 0.07
0.00 0.00 0.00 0.00 0.00 0.00 0.00 0.00 0.00 0.00 0.00 0.00 0.00 0.00 0.00 0.00 0.00 0.00 0.00 0.00 0.00 0.00 0.00 0.00 0.00 0.00 0.00 0.01 0.03 0.08 0.07 0.03 0.02 0.02 0.02 0.03 0.02 0.03 0.06 0.05 0.07 0.07 0.08 0.09
0.00 0.00 0.00 0.00 0.00 0.00 0.00 0.00 0.01 0.02 0.07 0.03 0.00 0.00 0.01 0.00 0.00 0.00 0.00 0.00 0.00 0.00 0.00 0.00 0.00 0.00 0.00 0.03 0.05 0.04 0.04 0.04 0.04 0.05 0.05 0.06 0.04 0.05 0.07 0.06 0.08 0.10 0.13 0.15
0.00 0.00 0.00 0.00 0.00 0.00 0.00 0.00 0.00 0.02 0.02 0.04 0.03 0.00 0.01 0.00 0.00 0.00 0.00 0.00 0.00 0.00 0.00 0.00 0.00 0.00 0.00 0.01 0.02 0.03 0.13 0.15 0.12 0.13 0.11 0.10 0.21 0.15 0.12 0.13 0.18 0.26 0.26 0.30
0.00 0.00 0.00 0.00 0.00 0.00 0.00 0.00 0.01 0.09 0.09 0.13 0.15 0.04 0.00 0.00 0.00 0.00 0.00 0.00 0.00 0.00 0.00 0.00 0.00 0.00 0.00 0.01 0.04 0.05 0.10 0.23 0.43 0.41 0.28 0.26 0.42 0.41 0.26 0.32 0.32 0.32 0.35 0.31
0.00 0.00 0.00 0.00 0.00 0.01 0.01 0.02 0.02 0.07 0.12 0.09 0.12 0.03 0.00 0.00 0.00 0.00 0.00 0.00 0.00 0.00 0.00 0.00 0.00 0.00 0.00 0.00 0.03 0.06 0.13 0.20 0.45 1.03 1.04 0.61 0.67 0.53 0.63 0.70 0.61 0.58 0.52 0.45
0.00 0.00 0.00 0.00 0.01 0.01 0.01 0.02 0.04 0.06 0.12 0.03 0.02 0.00 0.00 0.00 0.00 0.00 0.00 0.00 0.00 0.00 0.00 0.00 0.00 0.00 0.00 0.00 0.00 0.01 0.04 0.12 0.33 0.54 1.10 1.13 1.08 1.27 1.07 0.80 0.92 1.10 0.89 0.83
0.00 0.00 0.00 0.00 0.00 0.00 0.00 0.00 0.00 0.01 0.01 0.03 0.00 0.00 0.00 0.00 0.00 0.00 0.00 0.00 0.00 0.00 0.00 0.00 0.00 0.00 0.00 0.00 0.00 0.00 0.00 0.00 0.04 0.11 0.16 0.59 1.20 1.14 1.13 1.12 1.30 1.25 1.33 1.52
0.00 0.00 0.00 0.00 0.00 0.00 0.00 0.00 0.00 0.00 0.00 0.00 0.00 0.00 0.00 0.00 0.00 0.00 0.01 0.01 0.00 0.00 0.00 0.01 0.01 0.00 0.00 0.00 0.00 0.00 0.00 0.00 0.00 0.00 0.00 0.01 0.07 0.18 0.34 0.43 0.46 0.41 0.81 1.12
0.00 0.00 0.01 0.00 0.00 0.00 0.00 0.00 0.00 0.00 0.00 0.00 0.00 0.00 0.00 0.00 0.00 0.01 0.02 0.01 0.00 0.01 0.01 0.00 0.00 0.00 0.00 0.00 0.00 0.00 0.00 0.00 0.00 0.00 0.00 0.00 0.00 0.00 0.00 0.04 0.06 0.12 0.12 0.21
0.00 0.01 0.03 0.02 0.02 0.03 0.00 0.00 0.00 0.00 0.00 0.00 0.00 0.00 0.01 0.02 0.00 0.00 0.00 0.00 0.00 0.00 0.00 0.00 0.00 0.00 0.00 0.00 0.00 0.00 0.00 0.00 0.00 0.00 0.00 0.00 0.00 0.00 0.00 0.00 0.00 0.00 0.00 0.01
0.00 0.02 0.12 0.12 0.05 0.01 0.00 0.00 0.00 0.00 0.00 0.00 0.01 0.00 0.00 0.00 0.00 0.01 0.00 0.00 0.00 0.00 0.00 0.00 0.00 0.00 0.00 0.00 0.00 0.00 0.00 0.00 0.00 0.00 0.00 0.00 0.00 0.00 0.00 0.00 0.00 0.00 0.00 0.00
0.00 0.00 0.10 0.19 0.22 0.08 0.00 0.00 0.00 0.00 0.02 0.00 0.00 0.01 0.00 0.00 0.05 0.08 0.02 0.01 0.00 0.00 0.00 0.00 0.00 0.00 0.00 0.00 0.00 0.00 0.00 0.00 0.00 0.00 0.00 0.00 0.00 0.00 0.00 0.00 0.00 0.00 0.00 0.00
0.00 0.02 0.10 0.11 0.19 0.05 0.00 0.00 0.00 0.05 0.07 0.00 0.00 0.00 0.00 0.01 0.02 0.00 0.00 0.00 0.00 0.00 0.00 0.00 0.00 0.00 0.00 0.00 0.00 0.00 0.00 0.00 0.00 0.00 0.00 0.00 0.00 0.00 0.00 0.00 0.00 0.00 0.00 0.00
0.01 0.02 0.03 0.06 0.13 0.04 0.00 0.00 0.01 0.03 0.00 0.00 0.00 0.00 0.01 0.01 0.02 0.01 0.00 0.00 0.00 0.00 0.00 0.00 0.00 0.00 0.00 0.00 0.00 0.00 0.00 0.00 0.00 0.00 0.00 0.00 0.00 0.00 0.00 0.00 0.00 0.00 0.00 0.00
0.05 0.01 0.01 0.02 0.02 0.01 0.00 0.00 0.00 0.00 0.00 0.00 0.00 0.00 0.00 0.03 0.03 0.00 0.00 0.00 0.00 0.00 0.00 0.00 0.00 0.00 0.00 0.00 0.00 0.00 0.00 0.00 0.00 0.00 0.00 0.00 0.00 0.00 0.00 0.00 0.01 0.00 0.00 0.00
0.10 0.02 0.04 0.05 0.01 0.00 0.00 0.00 0.00 0.00 0.00 0.00 0.00 0.01 0.03 0.05 0.02 0.00 0.00 0.01 0.01 0.01 0.00 0.00 0.00 0.00 0.00 0.00 0.00 0.00 0.00 0.00 0.00 0.00 0.00 0.00 0.00 0.00 0.00 0.00 0.00 0.01 0.02 0.00
0.06 0.10 0.08 0.05 0.00 0.01 0.00 0.00 0.00 0.00 0.00 0.00 0.00 0.00 0.01 0.01 0.00 0.00 0.02 0.04 0.02 0.01 0.01 0.00 0.00 0.00 0.00 0.00 0.00 0.00 0.00 0.00 0.00 0.00 0.00 0.00 0.00 0.00 0.00 0.00 0.00 0.00 0.02 0.01
0.00 0.03 0.08 0.04 0.02 0.03 0.01 0.00 0.00 0.00 0.00 0.00 0.00 0.01 0.02 0.01 0.02 0.02 0.05 0.04 0.01 0.00 0.00 0.00 0.00 0.00 0.00 0.00 0.00 0.00 0.00 0.00 0.00 0.00 0.00 0.00 0.00 0.00 0.00 0.00 0.00 0.00 0.00 0.01